<?xml version="1.0" encoding="UTF-8" standalone="no" ?>
<gpx xmlns="http://www.topografix.com/GPX/1/1" xmlns:xsi="http://www.w3.org/2001/XMLSchema-instance" xsi:schemaLocation="http://www.topografix.com/GPX/1/1 http://www.topografix.com/GPX/1/1/gpx.xsd" version="1.1" creator="VisuGPX - https://www.visugpx.com">
  <metadata>
    <name>Col de la Verne</name>
    <desc><![CDATA[Randonnée au depart de Thoiry, avec l\'ascension des 7 derniers KM du col des Prés suivi d\'un début de descente sur les Aillons. Prendre le sentier\"bergerie du Margeriaz 2h50\" indiqué sur la gauche dans la ligne droite 2 Km après le passage au col. Ensuite poussage portage jusqu\'a la grotte des Fées . De là prendre la direction du chalet à Baban et rejoindre le départ du télésiege à la station. De là prendre le chemin caillouteuxà droite du Telesiege et monté jusqu\'a la Bergerie. (Cyclable à 40%et 60 % poussage). De la Bergerie monter au sommet puis suivre le sentier en limite de falaise jusqu\'au col de la Verne (Cyclable 90%). Du col , prendre la direction de Thoiry. Rando très physique et peu d\'interet pour le VTT si ce n\'est le sentier des falaises

Proposé par : www.outdoor-diots.blogspot.com]]></desc>
  </metadata>
  <trk>
    <name><![CDATA[06112011(duration102031) on GPSies.com]]></name>
    <trkseg>
      <trkpt lat="45.58989" lon="6.02933">
        <ele>654.79516</ele>
        <time>2011-06-12T09:33:28Z</time>
      </trkpt>
      <trkpt lat="45.58989" lon="6.02933">
        <ele>655.27587</ele>
        <time>2011-06-12T09:33:28Z</time>
      </trkpt>
      <trkpt lat="45.58989" lon="6.02933">
        <ele>655.27587</ele>
        <time>2011-06-12T09:33:28Z</time>
      </trkpt>
      <trkpt lat="45.58989" lon="6.02934">
        <ele>654.31469</ele>
        <time>2011-06-12T09:33:28Z</time>
      </trkpt>
      <trkpt lat="45.5899" lon="6.02938">
        <ele>654.79516</ele>
        <time>2011-06-12T09:33:29Z</time>
      </trkpt>
      <trkpt lat="45.58991" lon="6.0295">
        <ele>655.75659</ele>
        <time>2011-06-12T09:33:33Z</time>
      </trkpt>
      <trkpt lat="45.58988" lon="6.02955">
        <ele>655.75659</ele>
        <time>2011-06-12T09:33:34Z</time>
      </trkpt>
      <trkpt lat="45.58978" lon="6.02963">
        <ele>655.27587</ele>
        <time>2011-06-12T09:33:39Z</time>
      </trkpt>
      <trkpt lat="45.58963" lon="6.02968">
        <ele>655.75659</ele>
        <time>2011-06-12T09:33:45Z</time>
      </trkpt>
      <trkpt lat="45.58959" lon="6.02968">
        <ele>655.75659</ele>
        <time>2011-06-12T09:33:47Z</time>
      </trkpt>
      <trkpt lat="45.5895" lon="6.02956">
        <ele>654.79516</ele>
        <time>2011-06-12T09:33:52Z</time>
      </trkpt>
      <trkpt lat="45.58947" lon="6.02932">
        <ele>653.83398</ele>
        <time>2011-06-12T09:33:59Z</time>
      </trkpt>
      <trkpt lat="45.58937" lon="6.02922">
        <ele>653.35327</ele>
        <time>2011-06-12T09:34:03Z</time>
      </trkpt>
      <trkpt lat="45.58932" lon="6.02923">
        <ele>652.87255</ele>
        <time>2011-06-12T09:34:05Z</time>
      </trkpt>
      <trkpt lat="45.58927" lon="6.02924">
        <ele>652.39184</ele>
        <time>2011-06-12T09:34:07Z</time>
      </trkpt>
      <trkpt lat="45.58912" lon="6.02926">
        <ele>652.87255</ele>
        <time>2011-06-12T09:34:13Z</time>
      </trkpt>
      <trkpt lat="45.58903" lon="6.02925">
        <ele>652.39184</ele>
        <time>2011-06-12T09:34:17Z</time>
      </trkpt>
      <trkpt lat="45.58877" lon="6.02931">
        <ele>652.39184</ele>
        <time>2011-06-12T09:34:28Z</time>
      </trkpt>
      <trkpt lat="45.58868" lon="6.02933">
        <ele>651.91113</ele>
        <time>2011-06-12T09:34:31Z</time>
      </trkpt>
      <trkpt lat="45.58843" lon="6.02936">
        <ele>650.9497</ele>
        <time>2011-06-12T09:34:41Z</time>
      </trkpt>
      <trkpt lat="45.58839" lon="6.02933">
        <ele>650.9497</ele>
        <time>2011-06-12T09:34:43Z</time>
      </trkpt>
      <trkpt lat="45.58815" lon="6.02908">
        <ele>651.91113</ele>
        <time>2011-06-12T09:34:55Z</time>
      </trkpt>
      <trkpt lat="45.58802" lon="6.02892">
        <ele>653.35327</ele>
        <time>2011-06-12T09:35:02Z</time>
      </trkpt>
      <trkpt lat="45.5878" lon="6.02891">
        <ele>653.83398</ele>
        <time>2011-06-12T09:35:11Z</time>
      </trkpt>
      <trkpt lat="45.58762" lon="6.02901">
        <ele>653.35327</ele>
        <time>2011-06-12T09:35:18Z</time>
      </trkpt>
      <trkpt lat="45.58754" lon="6.02906">
        <ele>652.87255</ele>
        <time>2011-06-12T09:35:22Z</time>
      </trkpt>
      <trkpt lat="45.58733" lon="6.02923">
        <ele>652.87255</ele>
        <time>2011-06-12T09:35:32Z</time>
      </trkpt>
      <trkpt lat="45.58711" lon="6.02938">
        <ele>653.83398</ele>
        <time>2011-06-12T09:35:41Z</time>
      </trkpt>
      <trkpt lat="45.587" lon="6.02945">
        <ele>654.79516</ele>
        <time>2011-06-12T09:35:46Z</time>
      </trkpt>
      <trkpt lat="45.58701" lon="6.02952">
        <ele>654.31469</ele>
        <time>2011-06-12T09:35:48Z</time>
      </trkpt>
      <trkpt lat="45.58704" lon="6.02946">
        <ele>654.31469</ele>
        <time>2011-06-12T09:35:50Z</time>
      </trkpt>
      <trkpt lat="45.58702" lon="6.02945">
        <ele>653.35327</ele>
        <time>2011-06-12T09:35:51Z</time>
      </trkpt>
      <trkpt lat="45.58691" lon="6.02956">
        <ele>652.87255</ele>
        <time>2011-06-12T09:35:57Z</time>
      </trkpt>
      <trkpt lat="45.58679" lon="6.02964">
        <ele>653.83398</ele>
        <time>2011-06-12T09:36:02Z</time>
      </trkpt>
      <trkpt lat="45.5867" lon="6.0297">
        <ele>653.35327</ele>
        <time>2011-06-12T09:36:06Z</time>
      </trkpt>
      <trkpt lat="45.58646" lon="6.02993">
        <ele>653.83398</ele>
        <time>2011-06-12T09:36:17Z</time>
      </trkpt>
      <trkpt lat="45.58625" lon="6.03018">
        <ele>656.23706</ele>
        <time>2011-06-12T09:36:28Z</time>
      </trkpt>
      <trkpt lat="45.58612" lon="6.0303">
        <ele>656.71777</ele>
        <time>2011-06-12T09:36:35Z</time>
      </trkpt>
      <trkpt lat="45.586" lon="6.03043">
        <ele>657.67919</ele>
        <time>2011-06-12T09:36:41Z</time>
      </trkpt>
      <trkpt lat="45.58588" lon="6.03057">
        <ele>657.67919</ele>
        <time>2011-06-12T09:36:47Z</time>
      </trkpt>
      <trkpt lat="45.58574" lon="6.03075">
        <ele>661.0437</ele>
        <time>2011-06-12T09:36:54Z</time>
      </trkpt>
      <trkpt lat="45.5856" lon="6.03092">
        <ele>662.00512</ele>
        <time>2011-06-12T09:37:02Z</time>
      </trkpt>
      <trkpt lat="45.58549" lon="6.03107">
        <ele>662.9663</ele>
        <time>2011-06-12T09:37:08Z</time>
      </trkpt>
      <trkpt lat="45.58532" lon="6.03126">
        <ele>662.9663</ele>
        <time>2011-06-12T09:37:16Z</time>
      </trkpt>
      <trkpt lat="45.58518" lon="6.03145">
        <ele>663.44702</ele>
        <time>2011-06-12T09:37:24Z</time>
      </trkpt>
      <trkpt lat="45.58506" lon="6.0317">
        <ele>664.88891</ele>
        <time>2011-06-12T09:37:33Z</time>
      </trkpt>
      <trkpt lat="45.58493" lon="6.03195">
        <ele>666.33081</ele>
        <time>2011-06-12T09:37:41Z</time>
      </trkpt>
      <trkpt lat="45.58478" lon="6.03219">
        <ele>667.29223</ele>
        <time>2011-06-12T09:37:50Z</time>
      </trkpt>
      <trkpt lat="45.58463" lon="6.03245">
        <ele>668.73437</ele>
        <time>2011-06-12T09:38:00Z</time>
      </trkpt>
      <trkpt lat="45.58449" lon="6.03264">
        <ele>669.6958</ele>
        <time>2011-06-12T09:38:07Z</time>
      </trkpt>
      <trkpt lat="45.58435" lon="6.03288">
        <ele>670.65698</ele>
        <time>2011-06-12T09:38:16Z</time>
      </trkpt>
      <trkpt lat="45.58421" lon="6.03316">
        <ele>673.0603</ele>
        <time>2011-06-12T09:38:26Z</time>
      </trkpt>
      <trkpt lat="45.5841" lon="6.0334">
        <ele>674.50219</ele>
        <time>2011-06-12T09:38:34Z</time>
      </trkpt>
      <trkpt lat="45.58401" lon="6.03361">
        <ele>676.4248</ele>
        <time>2011-06-12T09:38:41Z</time>
      </trkpt>
      <trkpt lat="45.58391" lon="6.03381">
        <ele>678.34741</ele>
        <time>2011-06-12T09:38:48Z</time>
      </trkpt>
      <trkpt lat="45.58382" lon="6.03401">
        <ele>679.7893</ele>
        <time>2011-06-12T09:38:54Z</time>
      </trkpt>
      <trkpt lat="45.58374" lon="6.03415">
        <ele>680.75073</ele>
        <time>2011-06-12T09:38:59Z</time>
      </trkpt>
      <trkpt lat="45.58362" lon="6.03432">
        <ele>682.67333</ele>
        <time>2011-06-12T09:39:06Z</time>
      </trkpt>
      <trkpt lat="45.58352" lon="6.03446">
        <ele>683.1538</ele>
        <time>2011-06-12T09:39:12Z</time>
      </trkpt>
      <trkpt lat="45.58344" lon="6.03459">
        <ele>683.63452</ele>
        <time>2011-06-12T09:39:17Z</time>
      </trkpt>
      <trkpt lat="45.58334" lon="6.03472">
        <ele>684.11547</ele>
        <time>2011-06-12T09:39:22Z</time>
      </trkpt>
      <trkpt lat="45.58321" lon="6.03487">
        <ele>684.59619</ele>
        <time>2011-06-12T09:39:29Z</time>
      </trkpt>
      <trkpt lat="45.58308" lon="6.03495">
        <ele>685.55737</ele>
        <time>2011-06-12T09:39:34Z</time>
      </trkpt>
      <trkpt lat="45.58296" lon="6.03501">
        <ele>686.51879</ele>
        <time>2011-06-12T09:39:39Z</time>
      </trkpt>
      <trkpt lat="45.58282" lon="6.03512">
        <ele>688.4414</ele>
        <time>2011-06-12T09:39:46Z</time>
      </trkpt>
      <trkpt lat="45.58263" lon="6.03526">
        <ele>690.84448</ele>
        <time>2011-06-12T09:39:55Z</time>
      </trkpt>
      <trkpt lat="45.58248" lon="6.03538">
        <ele>691.32519</ele>
        <time>2011-06-12T09:40:01Z</time>
      </trkpt>
      <trkpt lat="45.58231" lon="6.03551">
        <ele>692.28662</ele>
        <time>2011-06-12T09:40:09Z</time>
      </trkpt>
      <trkpt lat="45.58214" lon="6.03567">
        <ele>693.72851</ele>
        <time>2011-06-12T09:40:17Z</time>
      </trkpt>
      <trkpt lat="45.58201" lon="6.03581">
        <ele>694.68969</ele>
        <time>2011-06-12T09:40:24Z</time>
      </trkpt>
      <trkpt lat="45.58196" lon="6.036">
        <ele>695.17041</ele>
        <time>2011-06-12T09:40:29Z</time>
      </trkpt>
      <trkpt lat="45.58204" lon="6.03625">
        <ele>696.13183</ele>
        <time>2011-06-12T09:40:37Z</time>
      </trkpt>
      <trkpt lat="45.58213" lon="6.03642">
        <ele>697.09301</ele>
        <time>2011-06-12T09:40:43Z</time>
      </trkpt>
      <trkpt lat="45.58224" lon="6.03654">
        <ele>697.57373</ele>
        <time>2011-06-12T09:40:48Z</time>
      </trkpt>
      <trkpt lat="45.58236" lon="6.03655">
        <ele>699.01562</ele>
        <time>2011-06-12T09:40:53Z</time>
      </trkpt>
      <trkpt lat="45.58248" lon="6.03651">
        <ele>699.97705</ele>
        <time>2011-06-12T09:40:58Z</time>
      </trkpt>
      <trkpt lat="45.58265" lon="6.03645">
        <ele>701.41918</ele>
        <time>2011-06-12T09:41:05Z</time>
      </trkpt>
      <trkpt lat="45.58282" lon="6.03638">
        <ele>703.8225</ele>
        <time>2011-06-12T09:41:12Z</time>
      </trkpt>
      <trkpt lat="45.58295" lon="6.03636">
        <ele>705.74511</ele>
        <time>2011-06-12T09:41:17Z</time>
      </trkpt>
      <trkpt lat="45.5831" lon="6.03635">
        <ele>707.18701</ele>
        <time>2011-06-12T09:41:24Z</time>
      </trkpt>
      <trkpt lat="45.58327" lon="6.03634">
        <ele>708.14843</ele>
        <time>2011-06-12T09:41:30Z</time>
      </trkpt>
      <trkpt lat="45.58345" lon="6.03635">
        <ele>710.55151</ele>
        <time>2011-06-12T09:41:37Z</time>
      </trkpt>
      <trkpt lat="45.58364" lon="6.03635">
        <ele>712.47412</ele>
        <time>2011-06-12T09:41:45Z</time>
      </trkpt>
      <trkpt lat="45.58381" lon="6.03631">
        <ele>713.91601</ele>
        <time>2011-06-12T09:41:52Z</time>
      </trkpt>
      <trkpt lat="45.58397" lon="6.03623">
        <ele>715.83886</ele>
        <time>2011-06-12T09:41:59Z</time>
      </trkpt>
      <trkpt lat="45.58413" lon="6.03612">
        <ele>717.281</ele>
        <time>2011-06-12T09:42:06Z</time>
      </trkpt>
      <trkpt lat="45.58429" lon="6.03599">
        <ele>718.7229</ele>
        <time>2011-06-12T09:42:13Z</time>
      </trkpt>
      <trkpt lat="45.58446" lon="6.03588">
        <ele>719.68432</ele>
        <time>2011-06-12T09:42:21Z</time>
      </trkpt>
      <trkpt lat="45.58464" lon="6.03578">
        <ele>721.12622</ele>
        <time>2011-06-12T09:42:28Z</time>
      </trkpt>
      <trkpt lat="45.58479" lon="6.03568">
        <ele>722.0874</ele>
        <time>2011-06-12T09:42:35Z</time>
      </trkpt>
      <trkpt lat="45.58495" lon="6.03554">
        <ele>723.04882</ele>
        <time>2011-06-12T09:42:43Z</time>
      </trkpt>
      <trkpt lat="45.58513" lon="6.03537">
        <ele>724.97143</ele>
        <time>2011-06-12T09:42:51Z</time>
      </trkpt>
      <trkpt lat="45.58524" lon="6.03529">
        <ele>725.4519</ele>
        <time>2011-06-12T09:42:56Z</time>
      </trkpt>
      <trkpt lat="45.58543" lon="6.0351">
        <ele>726.89404</ele>
        <time>2011-06-12T09:43:05Z</time>
      </trkpt>
      <trkpt lat="45.58558" lon="6.03499">
        <ele>728.33593</ele>
        <time>2011-06-12T09:43:12Z</time>
      </trkpt>
      <trkpt lat="45.58565" lon="6.03505">
        <ele>729.29711</ele>
        <time>2011-06-12T09:43:16Z</time>
      </trkpt>
      <trkpt lat="45.58564" lon="6.03519">
        <ele>730.25854</ele>
        <time>2011-06-12T09:43:20Z</time>
      </trkpt>
      <trkpt lat="45.58551" lon="6.03534">
        <ele>731.21997</ele>
        <time>2011-06-12T09:43:26Z</time>
      </trkpt>
      <trkpt lat="45.58535" lon="6.03553">
        <ele>732.6621</ele>
        <time>2011-06-12T09:43:35Z</time>
      </trkpt>
      <trkpt lat="45.58521" lon="6.03575">
        <ele>734.58471</ele>
        <time>2011-06-12T09:43:43Z</time>
      </trkpt>
      <trkpt lat="45.58512" lon="6.03593">
        <ele>735.54589</ele>
        <time>2011-06-12T09:43:49Z</time>
      </trkpt>
      <trkpt lat="45.58504" lon="6.03615">
        <ele>736.98779</ele>
        <time>2011-06-12T09:43:56Z</time>
      </trkpt>
      <trkpt lat="45.58498" lon="6.03632">
        <ele>737.4685</ele>
        <time>2011-06-12T09:44:01Z</time>
      </trkpt>
      <trkpt lat="45.5849" lon="6.03652">
        <ele>738.91064</ele>
        <time>2011-06-12T09:44:08Z</time>
      </trkpt>
      <trkpt lat="45.58484" lon="6.03675">
        <ele>740.35253</ele>
        <time>2011-06-12T09:44:15Z</time>
      </trkpt>
      <trkpt lat="45.5848" lon="6.03695">
        <ele>741.79443</ele>
        <time>2011-06-12T09:44:21Z</time>
      </trkpt>
      <trkpt lat="45.58478" lon="6.03719">
        <ele>743.23632</ele>
        <time>2011-06-12T09:44:27Z</time>
      </trkpt>
      <trkpt lat="45.58477" lon="6.03741">
        <ele>744.19775</ele>
        <time>2011-06-12T09:44:33Z</time>
      </trkpt>
      <trkpt lat="45.58474" lon="6.03764">
        <ele>745.15893</ele>
        <time>2011-06-12T09:44:40Z</time>
      </trkpt>
      <trkpt lat="45.58465" lon="6.03779">
        <ele>746.12036</ele>
        <time>2011-06-12T09:44:46Z</time>
      </trkpt>
      <trkpt lat="45.58452" lon="6.03789">
        <ele>747.56225</ele>
        <time>2011-06-12T09:44:51Z</time>
      </trkpt>
      <trkpt lat="45.58434" lon="6.03803">
        <ele>750.44653</ele>
        <time>2011-06-12T09:45:00Z</time>
      </trkpt>
      <trkpt lat="45.58416" lon="6.03817">
        <ele>752.8496</ele>
        <time>2011-06-12T09:45:08Z</time>
      </trkpt>
      <trkpt lat="45.58397" lon="6.03836">
        <ele>755.25292</ele>
        <time>2011-06-12T09:45:17Z</time>
      </trkpt>
      <trkpt lat="45.58383" lon="6.03858">
        <ele>756.21411</ele>
        <time>2011-06-12T09:45:26Z</time>
      </trkpt>
      <trkpt lat="45.58373" lon="6.03881">
        <ele>756.69482</ele>
        <time>2011-06-12T09:45:33Z</time>
      </trkpt>
      <trkpt lat="45.58362" lon="6.03906">
        <ele>757.65625</ele>
        <time>2011-06-12T09:45:41Z</time>
      </trkpt>
      <trkpt lat="45.58349" lon="6.03919">
        <ele>759.09814</ele>
        <time>2011-06-12T09:45:47Z</time>
      </trkpt>
      <trkpt lat="45.58333" lon="6.03926">
        <ele>761.02075</ele>
        <time>2011-06-12T09:45:54Z</time>
      </trkpt>
      <trkpt lat="45.58312" lon="6.03939">
        <ele>763.42407</ele>
        <time>2011-06-12T09:46:04Z</time>
      </trkpt>
      <trkpt lat="45.58306" lon="6.03949">
        <ele>763.90454</ele>
        <time>2011-06-12T09:46:07Z</time>
      </trkpt>
      <trkpt lat="45.58311" lon="6.03966">
        <ele>764.38549</ele>
        <time>2011-06-12T09:46:12Z</time>
      </trkpt>
      <trkpt lat="45.58322" lon="6.03969">
        <ele>764.38549</ele>
        <time>2011-06-12T09:46:17Z</time>
      </trkpt>
      <trkpt lat="45.58326" lon="6.03967">
        <ele>764.38549</ele>
        <time>2011-06-12T09:46:19Z</time>
      </trkpt>
      <trkpt lat="45.58344" lon="6.03957">
        <ele>765.34692</ele>
        <time>2011-06-12T09:46:26Z</time>
      </trkpt>
      <trkpt lat="45.58359" lon="6.03955">
        <ele>767.26953</ele>
        <time>2011-06-12T09:46:32Z</time>
      </trkpt>
      <trkpt lat="45.58383" lon="6.03955">
        <ele>767.75</ele>
        <time>2011-06-12T09:46:42Z</time>
      </trkpt>
      <trkpt lat="45.58398" lon="6.03945">
        <ele>768.71142</ele>
        <time>2011-06-12T09:46:48Z</time>
      </trkpt>
      <trkpt lat="45.58407" lon="6.03926">
        <ele>769.19213</ele>
        <time>2011-06-12T09:46:55Z</time>
      </trkpt>
      <trkpt lat="45.5842" lon="6.03901">
        <ele>770.15332</ele>
        <time>2011-06-12T09:47:04Z</time>
      </trkpt>
      <trkpt lat="45.58437" lon="6.03891">
        <ele>771.11474</ele>
        <time>2011-06-12T09:47:11Z</time>
      </trkpt>
      <trkpt lat="45.58455" lon="6.03886">
        <ele>772.55664</ele>
        <time>2011-06-12T09:47:18Z</time>
      </trkpt>
      <trkpt lat="45.58474" lon="6.03883">
        <ele>773.99853</ele>
        <time>2011-06-12T09:47:26Z</time>
      </trkpt>
      <trkpt lat="45.58501" lon="6.03877">
        <ele>777.36328</ele>
        <time>2011-06-12T09:47:37Z</time>
      </trkpt>
      <trkpt lat="45.58524" lon="6.03872">
        <ele>779.76635</ele>
        <time>2011-06-12T09:47:46Z</time>
      </trkpt>
      <trkpt lat="45.58549" lon="6.03868">
        <ele>781.6892</ele>
        <time>2011-06-12T09:47:56Z</time>
      </trkpt>
      <trkpt lat="45.58568" lon="6.03864">
        <ele>783.1311</ele>
        <time>2011-06-12T09:48:04Z</time>
      </trkpt>
      <trkpt lat="45.58578" lon="6.03853">
        <ele>783.61181</ele>
        <time>2011-06-12T09:48:09Z</time>
      </trkpt>
      <trkpt lat="45.58583" lon="6.03832">
        <ele>784.09252</ele>
        <time>2011-06-12T09:48:15Z</time>
      </trkpt>
      <trkpt lat="45.5859" lon="6.03798">
        <ele>784.57324</ele>
        <time>2011-06-12T09:48:25Z</time>
      </trkpt>
      <trkpt lat="45.58601" lon="6.03773">
        <ele>785.53442</ele>
        <time>2011-06-12T09:48:33Z</time>
      </trkpt>
      <trkpt lat="45.58618" lon="6.03752">
        <ele>786.49584</ele>
        <time>2011-06-12T09:48:43Z</time>
      </trkpt>
      <trkpt lat="45.58633" lon="6.03748">
        <ele>786.97631</ele>
        <time>2011-06-12T09:48:48Z</time>
      </trkpt>
      <trkpt lat="45.58641" lon="6.03761">
        <ele>787.45703</ele>
        <time>2011-06-12T09:48:53Z</time>
      </trkpt>
      <trkpt lat="45.58642" lon="6.03764">
        <ele>787.45703</ele>
        <time>2011-06-12T09:48:54Z</time>
      </trkpt>
      <trkpt lat="45.58634" lon="6.03782">
        <ele>786.97631</ele>
        <time>2011-06-12T09:49:00Z</time>
      </trkpt>
      <trkpt lat="45.58614" lon="6.03801">
        <ele>787.93774</ele>
        <time>2011-06-12T09:49:10Z</time>
      </trkpt>
      <trkpt lat="45.58605" lon="6.03819">
        <ele>787.93774</ele>
        <time>2011-06-12T09:49:16Z</time>
      </trkpt>
      <trkpt lat="45.586" lon="6.03848">
        <ele>787.45703</ele>
        <time>2011-06-12T09:49:24Z</time>
      </trkpt>
      <trkpt lat="45.586" lon="6.03873">
        <ele>786.49584</ele>
        <time>2011-06-12T09:49:31Z</time>
      </trkpt>
      <trkpt lat="45.58591" lon="6.03902">
        <ele>786.01513</ele>
        <time>2011-06-12T09:49:40Z</time>
      </trkpt>
      <trkpt lat="45.58578" lon="6.03907">
        <ele>786.49584</ele>
        <time>2011-06-12T09:49:45Z</time>
      </trkpt>
      <trkpt lat="45.58555" lon="6.03912">
        <ele>788.89916</ele>
        <time>2011-06-12T09:49:55Z</time>
      </trkpt>
      <trkpt lat="45.58541" lon="6.03922">
        <ele>790.34106</ele>
        <time>2011-06-12T09:50:01Z</time>
      </trkpt>
      <trkpt lat="45.58523" lon="6.03939">
        <ele>793.22485</ele>
        <time>2011-06-12T09:50:10Z</time>
      </trkpt>
      <trkpt lat="45.58509" lon="6.0395">
        <ele>795.14746</ele>
        <time>2011-06-12T09:50:16Z</time>
      </trkpt>
      <trkpt lat="45.58506" lon="6.03953">
        <ele>795.62817</ele>
        <time>2011-06-12T09:50:18Z</time>
      </trkpt>
      <trkpt lat="45.58507" lon="6.03952">
        <ele>796.10913</ele>
        <time>2011-06-12T09:50:18Z</time>
      </trkpt>
      <trkpt lat="45.58507" lon="6.03952">
        <ele>796.10913</ele>
        <time>2011-06-12T09:50:18Z</time>
      </trkpt>
      <trkpt lat="45.58507" lon="6.03953">
        <ele>797.07031</ele>
        <time>2011-06-12T09:50:19Z</time>
      </trkpt>
      <trkpt lat="45.58507" lon="6.03953">
        <ele>797.55102</ele>
        <time>2011-06-12T09:50:19Z</time>
      </trkpt>
      <trkpt lat="45.58508" lon="6.03953">
        <ele>797.07031</ele>
        <time>2011-06-12T09:50:19Z</time>
      </trkpt>
      <trkpt lat="45.58506" lon="6.03955">
        <ele>797.55102</ele>
        <time>2011-06-12T09:50:20Z</time>
      </trkpt>
      <trkpt lat="45.58501" lon="6.03966">
        <ele>798.03173</ele>
        <time>2011-06-12T09:50:24Z</time>
      </trkpt>
      <trkpt lat="45.58498" lon="6.03976">
        <ele>798.99291</ele>
        <time>2011-06-12T09:50:27Z</time>
      </trkpt>
      <trkpt lat="45.58502" lon="6.03996">
        <ele>800.43505</ele>
        <time>2011-06-12T09:50:32Z</time>
      </trkpt>
      <trkpt lat="45.5851" lon="6.04018">
        <ele>801.87695</ele>
        <time>2011-06-12T09:50:39Z</time>
      </trkpt>
      <trkpt lat="45.58514" lon="6.04038">
        <ele>803.31884</ele>
        <time>2011-06-12T09:50:45Z</time>
      </trkpt>
      <trkpt lat="45.58509" lon="6.04055">
        <ele>804.76074</ele>
        <time>2011-06-12T09:50:50Z</time>
      </trkpt>
      <trkpt lat="45.58502" lon="6.04064">
        <ele>806.20263</ele>
        <time>2011-06-12T09:50:54Z</time>
      </trkpt>
      <trkpt lat="45.58494" lon="6.0407">
        <ele>807.16406</ele>
        <time>2011-06-12T09:50:58Z</time>
      </trkpt>
      <trkpt lat="45.58478" lon="6.04074">
        <ele>808.60595</ele>
        <time>2011-06-12T09:51:04Z</time>
      </trkpt>
      <trkpt lat="45.5846" lon="6.04076">
        <ele>810.52856</ele>
        <time>2011-06-12T09:51:12Z</time>
      </trkpt>
      <trkpt lat="45.58445" lon="6.04077">
        <ele>811.9707</ele>
        <time>2011-06-12T09:51:18Z</time>
      </trkpt>
      <trkpt lat="45.58428" lon="6.04081">
        <ele>813.89331</ele>
        <time>2011-06-12T09:51:24Z</time>
      </trkpt>
      <trkpt lat="45.58417" lon="6.04088">
        <ele>814.85473</ele>
        <time>2011-06-12T09:51:29Z</time>
      </trkpt>
      <trkpt lat="45.58413" lon="6.04106">
        <ele>815.81616</ele>
        <time>2011-06-12T09:51:35Z</time>
      </trkpt>
      <trkpt lat="45.58417" lon="6.04124">
        <ele>816.77734</ele>
        <time>2011-06-12T09:51:40Z</time>
      </trkpt>
      <trkpt lat="45.58425" lon="6.04139">
        <ele>817.73852</ele>
        <time>2011-06-12T09:51:45Z</time>
      </trkpt>
      <trkpt lat="45.58435" lon="6.04155">
        <ele>819.18066</ele>
        <time>2011-06-12T09:51:51Z</time>
      </trkpt>
      <trkpt lat="45.58447" lon="6.0418">
        <ele>821.10327</ele>
        <time>2011-06-12T09:52:00Z</time>
      </trkpt>
      <trkpt lat="45.58455" lon="6.04202">
        <ele>822.06445</ele>
        <time>2011-06-12T09:52:07Z</time>
      </trkpt>
      <trkpt lat="45.58463" lon="6.04225">
        <ele>823.50659</ele>
        <time>2011-06-12T09:52:14Z</time>
      </trkpt>
      <trkpt lat="45.5847" lon="6.04242">
        <ele>824.46777</ele>
        <time>2011-06-12T09:52:19Z</time>
      </trkpt>
      <trkpt lat="45.58475" lon="6.04261">
        <ele>824.46777</ele>
        <time>2011-06-12T09:52:25Z</time>
      </trkpt>
      <trkpt lat="45.58473" lon="6.04278">
        <ele>825.42895</ele>
        <time>2011-06-12T09:52:30Z</time>
      </trkpt>
      <trkpt lat="45.58461" lon="6.04287">
        <ele>827.3518</ele>
        <time>2011-06-12T09:52:35Z</time>
      </trkpt>
      <trkpt lat="45.58447" lon="6.04282">
        <ele>829.27441</ele>
        <time>2011-06-12T09:52:41Z</time>
      </trkpt>
      <trkpt lat="45.58429" lon="6.04279">
        <ele>831.19726</ele>
        <time>2011-06-12T09:52:48Z</time>
      </trkpt>
      <trkpt lat="45.58421" lon="6.04291">
        <ele>830.71655</ele>
        <time>2011-06-12T09:52:53Z</time>
      </trkpt>
      <trkpt lat="45.58418" lon="6.04314">
        <ele>830.71655</ele>
        <time>2011-06-12T09:52:59Z</time>
      </trkpt>
      <trkpt lat="45.58417" lon="6.04336">
        <ele>831.19726</ele>
        <time>2011-06-12T09:53:05Z</time>
      </trkpt>
      <trkpt lat="45.58415" lon="6.04358">
        <ele>832.15844</ele>
        <time>2011-06-12T09:53:12Z</time>
      </trkpt>
      <trkpt lat="45.58407" lon="6.04377">
        <ele>833.60034</ele>
        <time>2011-06-12T09:53:18Z</time>
      </trkpt>
      <trkpt lat="45.58393" lon="6.04389">
        <ele>837.44555</ele>
        <time>2011-06-12T09:53:24Z</time>
      </trkpt>
      <trkpt lat="45.58374" lon="6.04393">
        <ele>842.25219</ele>
        <time>2011-06-12T09:53:32Z</time>
      </trkpt>
      <trkpt lat="45.58358" lon="6.04399">
        <ele>841.77148</ele>
        <time>2011-06-12T09:53:39Z</time>
      </trkpt>
      <trkpt lat="45.58343" lon="6.04406">
        <ele>842.73291</ele>
        <time>2011-06-12T09:53:45Z</time>
      </trkpt>
      <trkpt lat="45.58326" lon="6.04418">
        <ele>843.69409</ele>
        <time>2011-06-12T09:53:53Z</time>
      </trkpt>
      <trkpt lat="45.58307" lon="6.04432">
        <ele>845.13623</ele>
        <time>2011-06-12T09:54:01Z</time>
      </trkpt>
      <trkpt lat="45.58292" lon="6.04443">
        <ele>846.57836</ele>
        <time>2011-06-12T09:54:08Z</time>
      </trkpt>
      <trkpt lat="45.58276" lon="6.04455">
        <ele>848.02026</ele>
        <time>2011-06-12T09:54:15Z</time>
      </trkpt>
      <trkpt lat="45.58261" lon="6.04471">
        <ele>849.94287</ele>
        <time>2011-06-12T09:54:23Z</time>
      </trkpt>
      <trkpt lat="45.58249" lon="6.04487">
        <ele>850.42358</ele>
        <time>2011-06-12T09:54:29Z</time>
      </trkpt>
      <trkpt lat="45.5824" lon="6.04502">
        <ele>850.90405</ele>
        <time>2011-06-12T09:54:35Z</time>
      </trkpt>
      <trkpt lat="45.58231" lon="6.04519">
        <ele>852.34594</ele>
        <time>2011-06-12T09:54:41Z</time>
      </trkpt>
      <trkpt lat="45.58224" lon="6.04543">
        <ele>855.22998</ele>
        <time>2011-06-12T09:54:48Z</time>
      </trkpt>
      <trkpt lat="45.58216" lon="6.04561">
        <ele>859.5559</ele>
        <time>2011-06-12T09:54:54Z</time>
      </trkpt>
      <trkpt lat="45.58204" lon="6.04578">
        <ele>860.03662</ele>
        <time>2011-06-12T09:55:01Z</time>
      </trkpt>
      <trkpt lat="45.58192" lon="6.04593">
        <ele>860.03662</ele>
        <time>2011-06-12T09:55:07Z</time>
      </trkpt>
      <trkpt lat="45.58183" lon="6.04606">
        <ele>860.99804</ele>
        <time>2011-06-12T09:55:12Z</time>
      </trkpt>
      <trkpt lat="45.58175" lon="6.04624">
        <ele>862.43994</ele>
        <time>2011-06-12T09:55:18Z</time>
      </trkpt>
      <trkpt lat="45.58168" lon="6.04644">
        <ele>864.36254</ele>
        <time>2011-06-12T09:55:24Z</time>
      </trkpt>
      <trkpt lat="45.58158" lon="6.04662">
        <ele>865.80468</ele>
        <time>2011-06-12T09:55:31Z</time>
      </trkpt>
      <trkpt lat="45.58151" lon="6.04672">
        <ele>865.80468</ele>
        <time>2011-06-12T09:55:35Z</time>
      </trkpt>
      <trkpt lat="45.58142" lon="6.04684">
        <ele>866.28515</ele>
        <time>2011-06-12T09:55:40Z</time>
      </trkpt>
      <trkpt lat="45.58132" lon="6.047">
        <ele>867.72705</ele>
        <time>2011-06-12T09:55:46Z</time>
      </trkpt>
      <trkpt lat="45.58123" lon="6.0472">
        <ele>869.6499</ele>
        <time>2011-06-12T09:55:52Z</time>
      </trkpt>
      <trkpt lat="45.5812" lon="6.04739">
        <ele>870.61108</ele>
        <time>2011-06-12T09:55:58Z</time>
      </trkpt>
      <trkpt lat="45.58121" lon="6.04756">
        <ele>871.57226</ele>
        <time>2011-06-12T09:56:03Z</time>
      </trkpt>
      <trkpt lat="45.5812" lon="6.04779">
        <ele>874.93701</ele>
        <time>2011-06-12T09:56:09Z</time>
      </trkpt>
      <trkpt lat="45.58115" lon="6.04805">
        <ele>878.30175</ele>
        <time>2011-06-12T09:56:17Z</time>
      </trkpt>
      <trkpt lat="45.58104" lon="6.04826">
        <ele>879.74365</ele>
        <time>2011-06-12T09:56:24Z</time>
      </trkpt>
      <trkpt lat="45.58092" lon="6.04848">
        <ele>882.14697</ele>
        <time>2011-06-12T09:56:32Z</time>
      </trkpt>
      <trkpt lat="45.58087" lon="6.04871">
        <ele>883.58886</ele>
        <time>2011-06-12T09:56:38Z</time>
      </trkpt>
      <trkpt lat="45.58085" lon="6.04896">
        <ele>885.99218</ele>
        <time>2011-06-12T09:56:46Z</time>
      </trkpt>
      <trkpt lat="45.58086" lon="6.04912">
        <ele>886.95336</ele>
        <time>2011-06-12T09:56:50Z</time>
      </trkpt>
      <trkpt lat="45.58087" lon="6.04933">
        <ele>888.3955</ele>
        <time>2011-06-12T09:56:56Z</time>
      </trkpt>
      <trkpt lat="45.58088" lon="6.04959">
        <ele>891.27929</ele>
        <time>2011-06-12T09:57:03Z</time>
      </trkpt>
      <trkpt lat="45.58081" lon="6.04978">
        <ele>892.24096</ele>
        <time>2011-06-12T09:57:09Z</time>
      </trkpt>
      <trkpt lat="45.58071" lon="6.04989">
        <ele>892.72167</ele>
        <time>2011-06-12T09:57:14Z</time>
      </trkpt>
      <trkpt lat="45.58054" lon="6.04998">
        <ele>892.72167</ele>
        <time>2011-06-12T09:57:21Z</time>
      </trkpt>
      <trkpt lat="45.58041" lon="6.05006">
        <ele>892.72167</ele>
        <time>2011-06-12T09:57:27Z</time>
      </trkpt>
      <trkpt lat="45.58037" lon="6.05007">
        <ele>894.16357</ele>
        <time>2011-06-12T09:57:29Z</time>
      </trkpt>
      <trkpt lat="45.58036" lon="6.05007">
        <ele>896.08618</ele>
        <time>2011-06-12T09:57:29Z</time>
      </trkpt>
      <trkpt lat="45.58033" lon="6.05007">
        <ele>900.89257</ele>
        <time>2011-06-12T09:57:30Z</time>
      </trkpt>
      <trkpt lat="45.58034" lon="6.05006">
        <ele>900.89257</ele>
        <time>2011-06-12T09:57:31Z</time>
      </trkpt>
      <trkpt lat="45.58034" lon="6.05006">
        <ele>901.37329</ele>
        <time>2011-06-12T09:57:31Z</time>
      </trkpt>
      <trkpt lat="45.58034" lon="6.05006">
        <ele>900.89257</ele>
        <time>2011-06-12T09:57:31Z</time>
      </trkpt>
      <trkpt lat="45.58034" lon="6.05007">
        <ele>901.854</ele>
        <time>2011-06-12T09:57:31Z</time>
      </trkpt>
      <trkpt lat="45.58034" lon="6.05007">
        <ele>901.37329</ele>
        <time>2011-06-12T09:57:31Z</time>
      </trkpt>
      <trkpt lat="45.58034" lon="6.05006">
        <ele>901.37329</ele>
        <time>2011-06-12T09:57:32Z</time>
      </trkpt>
      <trkpt lat="45.58034" lon="6.05005">
        <ele>900.89257</ele>
        <time>2011-06-12T09:57:32Z</time>
      </trkpt>
      <trkpt lat="45.58034" lon="6.05005">
        <ele>900.4121</ele>
        <time>2011-06-12T09:57:32Z</time>
      </trkpt>
      <trkpt lat="45.58034" lon="6.05007">
        <ele>901.37329</ele>
        <time>2011-06-12T09:57:32Z</time>
      </trkpt>
      <trkpt lat="45.58034" lon="6.05007">
        <ele>901.37329</ele>
        <time>2011-06-12T09:57:33Z</time>
      </trkpt>
      <trkpt lat="45.58034" lon="6.05007">
        <ele>900.4121</ele>
        <time>2011-06-12T09:57:33Z</time>
      </trkpt>
      <trkpt lat="45.58035" lon="6.05006">
        <ele>900.4121</ele>
        <time>2011-06-12T09:57:33Z</time>
      </trkpt>
      <trkpt lat="45.58034" lon="6.05006">
        <ele>900.89257</ele>
        <time>2011-06-12T09:57:34Z</time>
      </trkpt>
      <trkpt lat="45.58035" lon="6.05008">
        <ele>900.4121</ele>
        <time>2011-06-12T09:57:34Z</time>
      </trkpt>
      <trkpt lat="45.58035" lon="6.05009">
        <ele>900.89257</ele>
        <time>2011-06-12T09:57:35Z</time>
      </trkpt>
      <trkpt lat="45.58035" lon="6.05008">
        <ele>899.93139</ele>
        <time>2011-06-12T09:57:35Z</time>
      </trkpt>
      <trkpt lat="45.58034" lon="6.05008">
        <ele>899.93139</ele>
        <time>2011-06-12T09:57:35Z</time>
      </trkpt>
      <trkpt lat="45.58034" lon="6.05008">
        <ele>901.37329</ele>
        <time>2011-06-12T09:57:35Z</time>
      </trkpt>
      <trkpt lat="45.58034" lon="6.05007">
        <ele>901.854</ele>
        <time>2011-06-12T09:57:36Z</time>
      </trkpt>
      <trkpt lat="45.58035" lon="6.05008">
        <ele>901.37329</ele>
        <time>2011-06-12T09:57:36Z</time>
      </trkpt>
      <trkpt lat="45.58035" lon="6.05008">
        <ele>901.854</ele>
        <time>2011-06-12T09:57:36Z</time>
      </trkpt>
      <trkpt lat="45.58035" lon="6.05009">
        <ele>902.81518</ele>
        <time>2011-06-12T09:57:37Z</time>
      </trkpt>
      <trkpt lat="45.58034" lon="6.05009">
        <ele>903.29589</ele>
        <time>2011-06-12T09:57:37Z</time>
      </trkpt>
      <trkpt lat="45.58033" lon="6.05008">
        <ele>903.29589</ele>
        <time>2011-06-12T09:57:38Z</time>
      </trkpt>
      <trkpt lat="45.58034" lon="6.05007">
        <ele>903.29589</ele>
        <time>2011-06-12T09:57:38Z</time>
      </trkpt>
      <trkpt lat="45.58034" lon="6.05007">
        <ele>902.81518</ele>
        <time>2011-06-12T09:57:38Z</time>
      </trkpt>
      <trkpt lat="45.58033" lon="6.05008">
        <ele>895.12475</ele>
        <time>2011-06-12T09:57:38Z</time>
      </trkpt>
      <trkpt lat="45.58033" lon="6.05008">
        <ele>889.8374</ele>
        <time>2011-06-12T09:57:38Z</time>
      </trkpt>
      <trkpt lat="45.58033" lon="6.05008">
        <ele>890.79858</ele>
        <time>2011-06-12T09:57:39Z</time>
      </trkpt>
      <trkpt lat="45.58027" lon="6.05015">
        <ele>891.76</ele>
        <time>2011-06-12T09:57:42Z</time>
      </trkpt>
      <trkpt lat="45.58019" lon="6.05027">
        <ele>893.20214</ele>
        <time>2011-06-12T09:57:46Z</time>
      </trkpt>
      <trkpt lat="45.58011" lon="6.05037">
        <ele>894.16357</ele>
        <time>2011-06-12T09:57:51Z</time>
      </trkpt>
      <trkpt lat="45.58004" lon="6.05048">
        <ele>897.52807</ele>
        <time>2011-06-12T09:57:54Z</time>
      </trkpt>
      <trkpt lat="45.58001" lon="6.05052">
        <ele>899.45068</ele>
        <time>2011-06-12T09:57:56Z</time>
      </trkpt>
      <trkpt lat="45.57993" lon="6.05064">
        <ele>904.25732</ele>
        <time>2011-06-12T09:58:01Z</time>
      </trkpt>
      <trkpt lat="45.57988" lon="6.0507">
        <ele>907.62182</ele>
        <time>2011-06-12T09:58:04Z</time>
      </trkpt>
      <trkpt lat="45.57982" lon="6.05079">
        <ele>911.46728</ele>
        <time>2011-06-12T09:58:07Z</time>
      </trkpt>
      <trkpt lat="45.57977" lon="6.05086">
        <ele>914.35107</ele>
        <time>2011-06-12T09:58:10Z</time>
      </trkpt>
      <trkpt lat="45.57973" lon="6.05098">
        <ele>915.3125</ele>
        <time>2011-06-12T09:58:14Z</time>
      </trkpt>
      <trkpt lat="45.57966" lon="6.05111">
        <ele>913.87036</ele>
        <time>2011-06-12T09:58:18Z</time>
      </trkpt>
      <trkpt lat="45.5796" lon="6.05125">
        <ele>912.42846</ele>
        <time>2011-06-12T09:58:23Z</time>
      </trkpt>
      <trkpt lat="45.57955" lon="6.05145">
        <ele>912.42846</ele>
        <time>2011-06-12T09:58:29Z</time>
      </trkpt>
      <trkpt lat="45.5795" lon="6.05162">
        <ele>912.90917</ele>
        <time>2011-06-12T09:58:34Z</time>
      </trkpt>
      <trkpt lat="45.57948" lon="6.05182">
        <ele>913.38989</ele>
        <time>2011-06-12T09:58:39Z</time>
      </trkpt>
      <trkpt lat="45.57946" lon="6.05205">
        <ele>914.35107</ele>
        <time>2011-06-12T09:58:46Z</time>
      </trkpt>
      <trkpt lat="45.57943" lon="6.05225">
        <ele>915.3125</ele>
        <time>2011-06-12T09:58:52Z</time>
      </trkpt>
      <trkpt lat="45.5794" lon="6.0525">
        <ele>917.71557</ele>
        <time>2011-06-12T09:58:59Z</time>
      </trkpt>
      <trkpt lat="45.57936" lon="6.0527">
        <ele>919.15771</ele>
        <time>2011-06-12T09:59:04Z</time>
      </trkpt>
      <trkpt lat="45.57929" lon="6.05295">
        <ele>920.5996</ele>
        <time>2011-06-12T09:59:12Z</time>
      </trkpt>
      <trkpt lat="45.57921" lon="6.05318">
        <ele>922.0415</ele>
        <time>2011-06-12T09:59:19Z</time>
      </trkpt>
      <trkpt lat="45.57914" lon="6.05342">
        <ele>923.96411</ele>
        <time>2011-06-12T09:59:27Z</time>
      </trkpt>
      <trkpt lat="45.57905" lon="6.05367">
        <ele>925.40625</ele>
        <time>2011-06-12T09:59:35Z</time>
      </trkpt>
      <trkpt lat="45.57897" lon="6.05387">
        <ele>926.36767</ele>
        <time>2011-06-12T09:59:41Z</time>
      </trkpt>
      <trkpt lat="45.5789" lon="6.05405">
        <ele>927.3291</ele>
        <time>2011-06-12T09:59:47Z</time>
      </trkpt>
      <trkpt lat="45.57885" lon="6.05423">
        <ele>928.29028</ele>
        <time>2011-06-12T09:59:52Z</time>
      </trkpt>
      <trkpt lat="45.57886" lon="6.0544">
        <ele>930.21289</ele>
        <time>2011-06-12T09:59:57Z</time>
      </trkpt>
      <trkpt lat="45.57891" lon="6.05445">
        <ele>931.17431</ele>
        <time>2011-06-12T09:59:59Z</time>
      </trkpt>
      <trkpt lat="45.579" lon="6.0544">
        <ele>932.13549</ele>
        <time>2011-06-12T10:00:03Z</time>
      </trkpt>
      <trkpt lat="45.57907" lon="6.0542">
        <ele>933.09667</ele>
        <time>2011-06-12T10:00:10Z</time>
      </trkpt>
      <trkpt lat="45.57908" lon="6.05415">
        <ele>933.57739</ele>
        <time>2011-06-12T10:00:11Z</time>
      </trkpt>
      <trkpt lat="45.57919" lon="6.05395">
        <ele>935.5</ele>
        <time>2011-06-12T10:00:18Z</time>
      </trkpt>
      <trkpt lat="45.5793" lon="6.05379">
        <ele>937.4226</ele>
        <time>2011-06-12T10:00:24Z</time>
      </trkpt>
      <trkpt lat="45.57938" lon="6.05366">
        <ele>939.34521</ele>
        <time>2011-06-12T10:00:29Z</time>
      </trkpt>
      <trkpt lat="45.57949" lon="6.05351">
        <ele>941.74877</ele>
        <time>2011-06-12T10:00:35Z</time>
      </trkpt>
      <trkpt lat="45.57958" lon="6.05339">
        <ele>943.19067</ele>
        <time>2011-06-12T10:00:40Z</time>
      </trkpt>
      <trkpt lat="45.57968" lon="6.05325">
        <ele>945.11328</ele>
        <time>2011-06-12T10:00:46Z</time>
      </trkpt>
      <trkpt lat="45.57978" lon="6.05308">
        <ele>944.15209</ele>
        <time>2011-06-12T10:00:52Z</time>
      </trkpt>
      <trkpt lat="45.57987" lon="6.05288">
        <ele>942.7102</ele>
        <time>2011-06-12T10:00:59Z</time>
      </trkpt>
      <trkpt lat="45.57998" lon="6.05262">
        <ele>944.15209</ele>
        <time>2011-06-12T10:01:07Z</time>
      </trkpt>
      <trkpt lat="45.5801" lon="6.05239">
        <ele>946.0747</ele>
        <time>2011-06-12T10:01:15Z</time>
      </trkpt>
      <trkpt lat="45.58017" lon="6.05225">
        <ele>947.03588</ele>
        <time>2011-06-12T10:01:20Z</time>
      </trkpt>
      <trkpt lat="45.58027" lon="6.05208">
        <ele>947.99731</ele>
        <time>2011-06-12T10:01:26Z</time>
      </trkpt>
      <trkpt lat="45.58037" lon="6.05192">
        <ele>948.95849</ele>
        <time>2011-06-12T10:01:32Z</time>
      </trkpt>
      <trkpt lat="45.58046" lon="6.05176">
        <ele>950.40063</ele>
        <time>2011-06-12T10:01:38Z</time>
      </trkpt>
      <trkpt lat="45.58052" lon="6.05163">
        <ele>952.32299</ele>
        <time>2011-06-12T10:01:42Z</time>
      </trkpt>
      <trkpt lat="45.58062" lon="6.05149">
        <ele>954.24584</ele>
        <time>2011-06-12T10:01:48Z</time>
      </trkpt>
      <trkpt lat="45.58063" lon="6.05145">
        <ele>954.72631</ele>
        <time>2011-06-12T10:01:49Z</time>
      </trkpt>
      <trkpt lat="45.5807" lon="6.05143">
        <ele>955.20703</ele>
        <time>2011-06-12T10:01:52Z</time>
      </trkpt>
      <trkpt lat="45.58071" lon="6.05143">
        <ele>955.20703</ele>
        <time>2011-06-12T10:01:52Z</time>
      </trkpt>
      <trkpt lat="45.58072" lon="6.05145">
        <ele>955.68774</ele>
        <time>2011-06-12T10:01:53Z</time>
      </trkpt>
      <trkpt lat="45.58072" lon="6.05147">
        <ele>965.30102</ele>
        <time>2011-06-12T10:01:54Z</time>
      </trkpt>
      <trkpt lat="45.58071" lon="6.05147">
        <ele>969.14624</ele>
        <time>2011-06-12T10:01:54Z</time>
      </trkpt>
      <trkpt lat="45.58072" lon="6.05146">
        <ele>969.14624</ele>
        <time>2011-06-12T10:01:54Z</time>
      </trkpt>
      <trkpt lat="45.58072" lon="6.05146">
        <ele>970.58813</ele>
        <time>2011-06-12T10:01:54Z</time>
      </trkpt>
      <trkpt lat="45.58073" lon="6.05145">
        <ele>971.06884</ele>
        <time>2011-06-12T10:01:55Z</time>
      </trkpt>
      <trkpt lat="45.5807" lon="6.05142">
        <ele>974.43359</ele>
        <time>2011-06-12T10:01:56Z</time>
      </trkpt>
      <trkpt lat="45.58068" lon="6.05143">
        <ele>968.66552</ele>
        <time>2011-06-12T10:01:57Z</time>
      </trkpt>
      <trkpt lat="45.58068" lon="6.05153">
        <ele>966.2622</ele>
        <time>2011-06-12T10:01:59Z</time>
      </trkpt>
      <trkpt lat="45.58064" lon="6.05162">
        <ele>965.30102</ele>
        <time>2011-06-12T10:02:02Z</time>
      </trkpt>
      <trkpt lat="45.58062" lon="6.05168">
        <ele>964.82031</ele>
        <time>2011-06-12T10:02:04Z</time>
      </trkpt>
      <trkpt lat="45.58055" lon="6.05178">
        <ele>965.30102</ele>
        <time>2011-06-12T10:02:08Z</time>
      </trkpt>
      <trkpt lat="45.58051" lon="6.05189">
        <ele>966.2622</ele>
        <time>2011-06-12T10:02:11Z</time>
      </trkpt>
      <trkpt lat="45.58054" lon="6.05187">
        <ele>966.2622</ele>
        <time>2011-06-12T10:02:13Z</time>
      </trkpt>
      <trkpt lat="45.58052" lon="6.05182">
        <ele>967.22363</ele>
        <time>2011-06-12T10:02:14Z</time>
      </trkpt>
      <trkpt lat="45.58055" lon="6.05177">
        <ele>966.2622</ele>
        <time>2011-06-12T10:02:16Z</time>
      </trkpt>
      <trkpt lat="45.58055" lon="6.05185">
        <ele>966.2622</ele>
        <time>2011-06-12T10:02:18Z</time>
      </trkpt>
      <trkpt lat="45.58054" lon="6.05189">
        <ele>966.2622</ele>
        <time>2011-06-12T10:02:20Z</time>
      </trkpt>
      <trkpt lat="45.58048" lon="6.05199">
        <ele>966.74291</ele>
        <time>2011-06-12T10:02:23Z</time>
      </trkpt>
      <trkpt lat="45.58047" lon="6.05205">
        <ele>969.62695</ele>
        <time>2011-06-12T10:02:25Z</time>
      </trkpt>
      <trkpt lat="45.58051" lon="6.05198">
        <ele>972.99169</ele>
        <time>2011-06-12T10:02:28Z</time>
      </trkpt>
      <trkpt lat="45.58048" lon="6.05199">
        <ele>972.99169</ele>
        <time>2011-06-12T10:02:29Z</time>
      </trkpt>
      <trkpt lat="45.58042" lon="6.05214">
        <ele>973.95288</ele>
        <time>2011-06-12T10:02:34Z</time>
      </trkpt>
      <trkpt lat="45.58041" lon="6.05221">
        <ele>974.9143</ele>
        <time>2011-06-12T10:02:36Z</time>
      </trkpt>
      <trkpt lat="45.58037" lon="6.05236">
        <ele>974.9143</ele>
        <time>2011-06-12T10:02:40Z</time>
      </trkpt>
      <trkpt lat="45.58036" lon="6.05238">
        <ele>974.9143</ele>
        <time>2011-06-12T10:02:41Z</time>
      </trkpt>
      <trkpt lat="45.5803" lon="6.05255">
        <ele>975.39477</ele>
        <time>2011-06-12T10:02:46Z</time>
      </trkpt>
      <trkpt lat="45.58027" lon="6.05266">
        <ele>975.87548</ele>
        <time>2011-06-12T10:02:49Z</time>
      </trkpt>
      <trkpt lat="45.58023" lon="6.05287">
        <ele>976.83691</ele>
        <time>2011-06-12T10:02:56Z</time>
      </trkpt>
      <trkpt lat="45.58016" lon="6.05309">
        <ele>976.83691</ele>
        <time>2011-06-12T10:03:02Z</time>
      </trkpt>
      <trkpt lat="45.58011" lon="6.0533">
        <ele>979.7207</ele>
        <time>2011-06-12T10:03:09Z</time>
      </trkpt>
      <trkpt lat="45.58003" lon="6.05355">
        <ele>980.20141</ele>
        <time>2011-06-12T10:03:16Z</time>
      </trkpt>
      <trkpt lat="45.57994" lon="6.05378">
        <ele>980.68212</ele>
        <time>2011-06-12T10:03:24Z</time>
      </trkpt>
      <trkpt lat="45.57988" lon="6.05398">
        <ele>982.12402</ele>
        <time>2011-06-12T10:03:30Z</time>
      </trkpt>
      <trkpt lat="45.57983" lon="6.05416">
        <ele>984.04663</ele>
        <time>2011-06-12T10:03:35Z</time>
      </trkpt>
      <trkpt lat="45.57977" lon="6.05427">
        <ele>983.56591</ele>
        <time>2011-06-12T10:03:39Z</time>
      </trkpt>
      <trkpt lat="45.57971" lon="6.05449">
        <ele>985.00805</ele>
        <time>2011-06-12T10:03:46Z</time>
      </trkpt>
      <trkpt lat="45.57968" lon="6.05471">
        <ele>987.41113</ele>
        <time>2011-06-12T10:03:52Z</time>
      </trkpt>
      <trkpt lat="45.57964" lon="6.05488">
        <ele>988.3728</ele>
        <time>2011-06-12T10:03:57Z</time>
      </trkpt>
      <trkpt lat="45.57962" lon="6.05509">
        <ele>990.77587</ele>
        <time>2011-06-12T10:04:03Z</time>
      </trkpt>
      <trkpt lat="45.5796" lon="6.05523">
        <ele>992.69873</ele>
        <time>2011-06-12T10:04:07Z</time>
      </trkpt>
      <trkpt lat="45.57956" lon="6.0554">
        <ele>993.65991</ele>
        <time>2011-06-12T10:04:12Z</time>
      </trkpt>
      <trkpt lat="45.57954" lon="6.05568">
        <ele>993.65991</ele>
        <time>2011-06-12T10:04:20Z</time>
      </trkpt>
      <trkpt lat="45.5795" lon="6.05592">
        <ele>997.02441</ele>
        <time>2011-06-12T10:04:27Z</time>
      </trkpt>
      <trkpt lat="45.57944" lon="6.05615">
        <ele>998.94702</ele>
        <time>2011-06-12T10:04:34Z</time>
      </trkpt>
      <trkpt lat="45.57938" lon="6.05633">
        <ele>999.90844</ele>
        <time>2011-06-12T10:04:39Z</time>
      </trkpt>
      <trkpt lat="45.57931" lon="6.05653">
        <ele>1000.8696</ele>
        <time>2011-06-12T10:04:45Z</time>
      </trkpt>
      <trkpt lat="45.57924" lon="6.05675">
        <ele>1002.3115</ele>
        <time>2011-06-12T10:04:52Z</time>
      </trkpt>
      <trkpt lat="45.57918" lon="6.05692">
        <ele>1003.7536</ele>
        <time>2011-06-12T10:04:58Z</time>
      </trkpt>
      <trkpt lat="45.5791" lon="6.05711">
        <ele>1005.1958</ele>
        <time>2011-06-12T10:05:04Z</time>
      </trkpt>
      <trkpt lat="45.57909" lon="6.05727">
        <ele>1007.5991</ele>
        <time>2011-06-12T10:05:08Z</time>
      </trkpt>
      <trkpt lat="45.57903" lon="6.0575">
        <ele>1007.1184</ele>
        <time>2011-06-12T10:05:15Z</time>
      </trkpt>
      <trkpt lat="45.57899" lon="6.05772">
        <ele>1007.5991</ele>
        <time>2011-06-12T10:05:22Z</time>
      </trkpt>
      <trkpt lat="45.57894" lon="6.05793">
        <ele>1008.5603</ele>
        <time>2011-06-12T10:05:28Z</time>
      </trkpt>
      <trkpt lat="45.5789" lon="6.05811">
        <ele>1009.041</ele>
        <time>2011-06-12T10:05:33Z</time>
      </trkpt>
      <trkpt lat="45.57887" lon="6.05836">
        <ele>1010.4829</ele>
        <time>2011-06-12T10:05:40Z</time>
      </trkpt>
      <trkpt lat="45.57887" lon="6.05856">
        <ele>1010.4829</ele>
        <time>2011-06-12T10:05:46Z</time>
      </trkpt>
      <trkpt lat="45.57887" lon="6.05868">
        <ele>1011.925</ele>
        <time>2011-06-12T10:05:49Z</time>
      </trkpt>
      <trkpt lat="45.57889" lon="6.05882">
        <ele>1012.8862</ele>
        <time>2011-06-12T10:05:53Z</time>
      </trkpt>
      <trkpt lat="45.57891" lon="6.05905">
        <ele>1014.8088</ele>
        <time>2011-06-12T10:06:00Z</time>
      </trkpt>
      <trkpt lat="45.57894" lon="6.05926">
        <ele>1017.2121</ele>
        <time>2011-06-12T10:06:06Z</time>
      </trkpt>
      <trkpt lat="45.57902" lon="6.05942">
        <ele>1019.6154</ele>
        <time>2011-06-12T10:06:11Z</time>
      </trkpt>
      <trkpt lat="45.57905" lon="6.05955">
        <ele>1020.0961</ele>
        <time>2011-06-12T10:06:15Z</time>
      </trkpt>
      <trkpt lat="45.57914" lon="6.05973">
        <ele>1020.0961</ele>
        <time>2011-06-12T10:06:21Z</time>
      </trkpt>
      <trkpt lat="45.5792" lon="6.05992">
        <ele>1021.538</ele>
        <time>2011-06-12T10:06:27Z</time>
      </trkpt>
      <trkpt lat="45.57927" lon="6.0601">
        <ele>1023.4609</ele>
        <time>2011-06-12T10:06:33Z</time>
      </trkpt>
      <trkpt lat="45.5794" lon="6.06028">
        <ele>1026.8254</ele>
        <time>2011-06-12T10:06:40Z</time>
      </trkpt>
      <trkpt lat="45.5795" lon="6.0604">
        <ele>1028.2673</ele>
        <time>2011-06-12T10:06:45Z</time>
      </trkpt>
      <trkpt lat="45.57961" lon="6.06053">
        <ele>1030.1899</ele>
        <time>2011-06-12T10:06:51Z</time>
      </trkpt>
      <trkpt lat="45.57973" lon="6.06061">
        <ele>1032.1125</ele>
        <time>2011-06-12T10:06:56Z</time>
      </trkpt>
      <trkpt lat="45.57988" lon="6.06072">
        <ele>1036.4387</ele>
        <time>2011-06-12T10:07:03Z</time>
      </trkpt>
      <trkpt lat="45.58006" lon="6.06081">
        <ele>1041.7258</ele>
        <time>2011-06-12T10:07:11Z</time>
      </trkpt>
      <trkpt lat="45.58014" lon="6.06084">
        <ele>1044.1291</ele>
        <time>2011-06-12T10:07:14Z</time>
      </trkpt>
      <trkpt lat="45.58022" lon="6.06096">
        <ele>1047.0129</ele>
        <time>2011-06-12T10:07:19Z</time>
      </trkpt>
      <trkpt lat="45.58032" lon="6.06111">
        <ele>1048.4548</ele>
        <time>2011-06-12T10:07:25Z</time>
      </trkpt>
      <trkpt lat="45.58038" lon="6.06129">
        <ele>1047.0129</ele>
        <time>2011-06-12T10:07:30Z</time>
      </trkpt>
      <trkpt lat="45.58038" lon="6.06146">
        <ele>1046.0517</ele>
        <time>2011-06-12T10:07:35Z</time>
      </trkpt>
      <trkpt lat="45.58041" lon="6.06168">
        <ele>1046.0517</ele>
        <time>2011-06-12T10:07:41Z</time>
      </trkpt>
      <trkpt lat="45.58048" lon="6.06179">
        <ele>1046.5324</ele>
        <time>2011-06-12T10:07:45Z</time>
      </trkpt>
      <trkpt lat="45.58064" lon="6.06189">
        <ele>1047.9743</ele>
        <time>2011-06-12T10:07:52Z</time>
      </trkpt>
      <trkpt lat="45.58074" lon="6.06195">
        <ele>1049.4162</ele>
        <time>2011-06-12T10:07:57Z</time>
      </trkpt>
      <trkpt lat="45.58081" lon="6.06188">
        <ele>1050.8581</ele>
        <time>2011-06-12T10:08:00Z</time>
      </trkpt>
      <trkpt lat="45.58084" lon="6.06192">
        <ele>1051.8195</ele>
        <time>2011-06-12T10:08:01Z</time>
      </trkpt>
      <trkpt lat="45.58088" lon="6.06197">
        <ele>1054.7036</ele>
        <time>2011-06-12T10:08:04Z</time>
      </trkpt>
      <trkpt lat="45.5809" lon="6.06197">
        <ele>1054.7036</ele>
        <time>2011-06-12T10:08:04Z</time>
      </trkpt>
      <trkpt lat="45.5809" lon="6.06191">
        <ele>1053.2617</ele>
        <time>2011-06-12T10:08:06Z</time>
      </trkpt>
      <trkpt lat="45.58087" lon="6.06195">
        <ele>1053.7424</ele>
        <time>2011-06-12T10:08:07Z</time>
      </trkpt>
      <trkpt lat="45.58088" lon="6.06197">
        <ele>1053.7424</ele>
        <time>2011-06-12T10:08:08Z</time>
      </trkpt>
      <trkpt lat="45.58088" lon="6.06198">
        <ele>1052.781</ele>
        <time>2011-06-12T10:08:09Z</time>
      </trkpt>
      <trkpt lat="45.58086" lon="6.062">
        <ele>1066.7199</ele>
        <time>2011-06-12T10:08:09Z</time>
      </trkpt>
      <trkpt lat="45.58084" lon="6.06199">
        <ele>1073.9299</ele>
        <time>2011-06-12T10:08:10Z</time>
      </trkpt>
      <trkpt lat="45.58083" lon="6.06199">
        <ele>1077.2946</ele>
        <time>2011-06-12T10:08:11Z</time>
      </trkpt>
      <trkpt lat="45.58083" lon="6.06198">
        <ele>1079.217</ele>
        <time>2011-06-12T10:08:11Z</time>
      </trkpt>
      <trkpt lat="45.58086" lon="6.06198">
        <ele>1074.4106</ele>
        <time>2011-06-12T10:08:12Z</time>
      </trkpt>
      <trkpt lat="45.58086" lon="6.06199">
        <ele>1075.3718</ele>
        <time>2011-06-12T10:08:12Z</time>
      </trkpt>
      <trkpt lat="45.58089" lon="6.06199">
        <ele>1067.6811</ele>
        <time>2011-06-12T10:08:13Z</time>
      </trkpt>
      <trkpt lat="45.58094" lon="6.062">
        <ele>1064.7973</ele>
        <time>2011-06-12T10:08:15Z</time>
      </trkpt>
      <trkpt lat="45.58093" lon="6.06203">
        <ele>1057.5876</ele>
        <time>2011-06-12T10:08:16Z</time>
      </trkpt>
      <trkpt lat="45.58091" lon="6.06206">
        <ele>1055.665</ele>
        <time>2011-06-12T10:08:17Z</time>
      </trkpt>
      <trkpt lat="45.58094" lon="6.06206">
        <ele>1052.781</ele>
        <time>2011-06-12T10:08:19Z</time>
      </trkpt>
      <trkpt lat="45.58095" lon="6.06206">
        <ele>1051.8195</ele>
        <time>2011-06-12T10:08:19Z</time>
      </trkpt>
      <trkpt lat="45.58095" lon="6.06207">
        <ele>1050.8581</ele>
        <time>2011-06-12T10:08:19Z</time>
      </trkpt>
      <trkpt lat="45.58095" lon="6.06207">
        <ele>1051.3388</ele>
        <time>2011-06-12T10:08:19Z</time>
      </trkpt>
      <trkpt lat="45.58092" lon="6.06203">
        <ele>1052.3002</ele>
        <time>2011-06-12T10:08:21Z</time>
      </trkpt>
      <trkpt lat="45.58088" lon="6.06203">
        <ele>1052.3002</ele>
        <time>2011-06-12T10:08:22Z</time>
      </trkpt>
      <trkpt lat="45.58088" lon="6.06198">
        <ele>1051.8195</ele>
        <time>2011-06-12T10:08:24Z</time>
      </trkpt>
      <trkpt lat="45.5809" lon="6.06197">
        <ele>1052.3002</ele>
        <time>2011-06-12T10:08:25Z</time>
      </trkpt>
      <trkpt lat="45.58095" lon="6.06196">
        <ele>1054.2231</ele>
        <time>2011-06-12T10:08:27Z</time>
      </trkpt>
      <trkpt lat="45.58104" lon="6.06197">
        <ele>1054.7036</ele>
        <time>2011-06-12T10:08:31Z</time>
      </trkpt>
      <trkpt lat="45.58115" lon="6.06201">
        <ele>1055.665</ele>
        <time>2011-06-12T10:08:35Z</time>
      </trkpt>
      <trkpt lat="45.58125" lon="6.06204">
        <ele>1056.6262</ele>
        <time>2011-06-12T10:08:39Z</time>
      </trkpt>
      <trkpt lat="45.58133" lon="6.06207">
        <ele>1057.5876</ele>
        <time>2011-06-12T10:08:42Z</time>
      </trkpt>
      <trkpt lat="45.58141" lon="6.0621">
        <ele>1059.0295</ele>
        <time>2011-06-12T10:08:46Z</time>
      </trkpt>
      <trkpt lat="45.58151" lon="6.06214">
        <ele>1061.4328</ele>
        <time>2011-06-12T10:08:50Z</time>
      </trkpt>
      <trkpt lat="45.58165" lon="6.06215">
        <ele>1064.3166</ele>
        <time>2011-06-12T10:08:56Z</time>
      </trkpt>
      <trkpt lat="45.58179" lon="6.06215">
        <ele>1066.2392</ele>
        <time>2011-06-12T10:09:01Z</time>
      </trkpt>
      <trkpt lat="45.58194" lon="6.06215">
        <ele>1067.6811</ele>
        <time>2011-06-12T10:09:07Z</time>
      </trkpt>
      <trkpt lat="45.58208" lon="6.06213">
        <ele>1069.6042</ele>
        <time>2011-06-12T10:09:13Z</time>
      </trkpt>
      <trkpt lat="45.58222" lon="6.06209">
        <ele>1072.0073</ele>
        <time>2011-06-12T10:09:19Z</time>
      </trkpt>
      <trkpt lat="45.58238" lon="6.06202">
        <ele>1073.9299</ele>
        <time>2011-06-12T10:09:25Z</time>
      </trkpt>
      <trkpt lat="45.58255" lon="6.06197">
        <ele>1074.8913</ele>
        <time>2011-06-12T10:09:32Z</time>
      </trkpt>
      <trkpt lat="45.58267" lon="6.06205">
        <ele>1075.3718</ele>
        <time>2011-06-12T10:09:37Z</time>
      </trkpt>
      <trkpt lat="45.58281" lon="6.06217">
        <ele>1076.8139</ele>
        <time>2011-06-12T10:09:44Z</time>
      </trkpt>
      <trkpt lat="45.58294" lon="6.06218">
        <ele>1077.2946</ele>
        <time>2011-06-12T10:09:49Z</time>
      </trkpt>
      <trkpt lat="45.5831" lon="6.06209">
        <ele>1078.2558</ele>
        <time>2011-06-12T10:09:56Z</time>
      </trkpt>
      <trkpt lat="45.58328" lon="6.06193">
        <ele>1078.7365</ele>
        <time>2011-06-12T10:10:05Z</time>
      </trkpt>
      <trkpt lat="45.58345" lon="6.06178">
        <ele>1077.7751</ele>
        <time>2011-06-12T10:10:12Z</time>
      </trkpt>
      <trkpt lat="45.58365" lon="6.06169">
        <ele>1082.5817</ele>
        <time>2011-06-12T10:10:21Z</time>
      </trkpt>
      <trkpt lat="45.58382" lon="6.06166">
        <ele>1089.311</ele>
        <time>2011-06-12T10:10:28Z</time>
      </trkpt>
      <trkpt lat="45.58403" lon="6.06166">
        <ele>1090.7529</ele>
        <time>2011-06-12T10:10:36Z</time>
      </trkpt>
      <trkpt lat="45.58427" lon="6.06169">
        <ele>1090.2724</ele>
        <time>2011-06-12T10:10:46Z</time>
      </trkpt>
      <trkpt lat="45.58445" lon="6.06172">
        <ele>1091.7143</ele>
        <time>2011-06-12T10:10:53Z</time>
      </trkpt>
      <trkpt lat="45.5846" lon="6.06171">
        <ele>1092.6757</ele>
        <time>2011-06-12T10:10:59Z</time>
      </trkpt>
      <trkpt lat="45.58476" lon="6.06165">
        <ele>1092.6757</ele>
        <time>2011-06-12T10:11:06Z</time>
      </trkpt>
      <trkpt lat="45.58496" lon="6.06158">
        <ele>1093.6369</ele>
        <time>2011-06-12T10:11:14Z</time>
      </trkpt>
      <trkpt lat="45.58507" lon="6.06156">
        <ele>1094.5981</ele>
        <time>2011-06-12T10:11:18Z</time>
      </trkpt>
      <trkpt lat="45.58524" lon="6.06161">
        <ele>1095.5595</ele>
        <time>2011-06-12T10:11:25Z</time>
      </trkpt>
      <trkpt lat="45.58541" lon="6.06167">
        <ele>1097.0014</ele>
        <time>2011-06-12T10:11:32Z</time>
      </trkpt>
      <trkpt lat="45.58559" lon="6.06162">
        <ele>1098.4433</ele>
        <time>2011-06-12T10:11:40Z</time>
      </trkpt>
      <trkpt lat="45.58575" lon="6.06149">
        <ele>1100.3664</ele>
        <time>2011-06-12T10:11:47Z</time>
      </trkpt>
      <trkpt lat="45.58595" lon="6.06134">
        <ele>1103.2502</ele>
        <time>2011-06-12T10:11:56Z</time>
      </trkpt>
      <trkpt lat="45.58614" lon="6.06125">
        <ele>1104.6921</ele>
        <time>2011-06-12T10:12:04Z</time>
      </trkpt>
      <trkpt lat="45.58633" lon="6.06117">
        <ele>1106.134</ele>
        <time>2011-06-12T10:12:12Z</time>
      </trkpt>
      <trkpt lat="45.58653" lon="6.0611">
        <ele>1107.5761</ele>
        <time>2011-06-12T10:12:20Z</time>
      </trkpt>
      <trkpt lat="45.58672" lon="6.06103">
        <ele>1108.5373</ele>
        <time>2011-06-12T10:12:28Z</time>
      </trkpt>
      <trkpt lat="45.58686" lon="6.061">
        <ele>1109.4987</ele>
        <time>2011-06-12T10:12:34Z</time>
      </trkpt>
      <trkpt lat="45.5871" lon="6.06098">
        <ele>1110.9406</ele>
        <time>2011-06-12T10:12:44Z</time>
      </trkpt>
      <trkpt lat="45.58723" lon="6.06096">
        <ele>1112.3825</ele>
        <time>2011-06-12T10:12:49Z</time>
      </trkpt>
      <trkpt lat="45.58737" lon="6.06094">
        <ele>1113.3439</ele>
        <time>2011-06-12T10:12:54Z</time>
      </trkpt>
      <trkpt lat="45.58756" lon="6.06089">
        <ele>1115.2666</ele>
        <time>2011-06-12T10:13:02Z</time>
      </trkpt>
      <trkpt lat="45.58774" lon="6.06088">
        <ele>1117.6699</ele>
        <time>2011-06-12T10:13:09Z</time>
      </trkpt>
      <trkpt lat="45.5879" lon="6.06087">
        <ele>1120.0732</ele>
        <time>2011-06-12T10:13:15Z</time>
      </trkpt>
      <trkpt lat="45.58804" lon="6.06082">
        <ele>1122.4765</ele>
        <time>2011-06-12T10:13:21Z</time>
      </trkpt>
      <trkpt lat="45.5882" lon="6.06075">
        <ele>1124.3991</ele>
        <time>2011-06-12T10:13:28Z</time>
      </trkpt>
      <trkpt lat="45.58839" lon="6.06069">
        <ele>1126.8024</ele>
        <time>2011-06-12T10:13:36Z</time>
      </trkpt>
      <trkpt lat="45.58853" lon="6.06067">
        <ele>1129.2055</ele>
        <time>2011-06-12T10:13:42Z</time>
      </trkpt>
      <trkpt lat="45.58869" lon="6.06063">
        <ele>1131.1284</ele>
        <time>2011-06-12T10:13:48Z</time>
      </trkpt>
      <trkpt lat="45.58883" lon="6.06054">
        <ele>1132.5705</ele>
        <time>2011-06-12T10:13:54Z</time>
      </trkpt>
      <trkpt lat="45.58893" lon="6.06045">
        <ele>1132.5705</ele>
        <time>2011-06-12T10:13:59Z</time>
      </trkpt>
      <trkpt lat="45.58907" lon="6.06035">
        <ele>1131.6088</ele>
        <time>2011-06-12T10:14:05Z</time>
      </trkpt>
      <trkpt lat="45.58918" lon="6.06026">
        <ele>1131.1284</ele>
        <time>2011-06-12T10:14:10Z</time>
      </trkpt>
      <trkpt lat="45.58932" lon="6.06014">
        <ele>1131.1284</ele>
        <time>2011-06-12T10:14:17Z</time>
      </trkpt>
      <trkpt lat="45.58942" lon="6.06001">
        <ele>1131.1284</ele>
        <time>2011-06-12T10:14:22Z</time>
      </trkpt>
      <trkpt lat="45.58956" lon="6.05981">
        <ele>1130.1669</ele>
        <time>2011-06-12T10:14:30Z</time>
      </trkpt>
      <trkpt lat="45.58965" lon="6.05967">
        <ele>1130.6477</ele>
        <time>2011-06-12T10:14:36Z</time>
      </trkpt>
      <trkpt lat="45.58979" lon="6.05951">
        <ele>1131.6088</ele>
        <time>2011-06-12T10:14:42Z</time>
      </trkpt>
      <trkpt lat="45.58988" lon="6.05942">
        <ele>1134.0124</ele>
        <time>2011-06-12T10:14:47Z</time>
      </trkpt>
      <trkpt lat="45.59006" lon="6.05935">
        <ele>1135.4543</ele>
        <time>2011-06-12T10:14:54Z</time>
      </trkpt>
      <trkpt lat="45.5902" lon="6.05928">
        <ele>1135.935</ele>
        <time>2011-06-12T10:15:00Z</time>
      </trkpt>
      <trkpt lat="45.59031" lon="6.05923">
        <ele>1135.935</ele>
        <time>2011-06-12T10:15:05Z</time>
      </trkpt>
      <trkpt lat="45.59045" lon="6.05917">
        <ele>1135.4543</ele>
        <time>2011-06-12T10:15:11Z</time>
      </trkpt>
      <trkpt lat="45.59056" lon="6.05913">
        <ele>1134.9738</ele>
        <time>2011-06-12T10:15:15Z</time>
      </trkpt>
      <trkpt lat="45.59069" lon="6.05909">
        <ele>1135.4543</ele>
        <time>2011-06-12T10:15:21Z</time>
      </trkpt>
      <trkpt lat="45.59079" lon="6.05907">
        <ele>1135.935</ele>
        <time>2011-06-12T10:15:25Z</time>
      </trkpt>
      <trkpt lat="45.59092" lon="6.05905">
        <ele>1135.935</ele>
        <time>2011-06-12T10:15:30Z</time>
      </trkpt>
      <trkpt lat="45.59107" lon="6.05902">
        <ele>1136.4157</ele>
        <time>2011-06-12T10:15:36Z</time>
      </trkpt>
      <trkpt lat="45.59121" lon="6.059">
        <ele>1136.8962</ele>
        <time>2011-06-12T10:15:42Z</time>
      </trkpt>
      <trkpt lat="45.59135" lon="6.05901">
        <ele>1136.8962</ele>
        <time>2011-06-12T10:15:47Z</time>
      </trkpt>
      <trkpt lat="45.59138" lon="6.05901">
        <ele>1136.8962</ele>
        <time>2011-06-12T10:15:49Z</time>
      </trkpt>
      <trkpt lat="45.59139" lon="6.05897">
        <ele>1136.8962</ele>
        <time>2011-06-12T10:15:50Z</time>
      </trkpt>
      <trkpt lat="45.59135" lon="6.05897">
        <ele>1136.8962</ele>
        <time>2011-06-12T10:15:52Z</time>
      </trkpt>
      <trkpt lat="45.59126" lon="6.05897">
        <ele>1136.4157</ele>
        <time>2011-06-12T10:15:55Z</time>
      </trkpt>
      <trkpt lat="45.5913" lon="6.05899">
        <ele>1134.4931</ele>
        <time>2011-06-12T10:15:57Z</time>
      </trkpt>
      <trkpt lat="45.59138" lon="6.05897">
        <ele>1133.5317</ele>
        <time>2011-06-12T10:16:00Z</time>
      </trkpt>
      <trkpt lat="45.59147" lon="6.05894">
        <ele>1132.5705</ele>
        <time>2011-06-12T10:16:04Z</time>
      </trkpt>
      <trkpt lat="45.59152" lon="6.05899">
        <ele>1132.5705</ele>
        <time>2011-06-12T10:16:06Z</time>
      </trkpt>
      <trkpt lat="45.59154" lon="6.059">
        <ele>1132.0898</ele>
        <time>2011-06-12T10:16:07Z</time>
      </trkpt>
      <trkpt lat="45.59165" lon="6.05898">
        <ele>1133.051</ele>
        <time>2011-06-12T10:16:12Z</time>
      </trkpt>
      <trkpt lat="45.59173" lon="6.059">
        <ele>1135.935</ele>
        <time>2011-06-12T10:16:15Z</time>
      </trkpt>
      <trkpt lat="45.59174" lon="6.05902">
        <ele>1137.8576</ele>
        <time>2011-06-12T10:16:15Z</time>
      </trkpt>
      <trkpt lat="45.59175" lon="6.059">
        <ele>1136.4157</ele>
        <time>2011-06-12T10:16:16Z</time>
      </trkpt>
      <trkpt lat="45.59182" lon="6.05903">
        <ele>1135.935</ele>
        <time>2011-06-12T10:16:19Z</time>
      </trkpt>
      <trkpt lat="45.59184" lon="6.05903">
        <ele>1135.935</ele>
        <time>2011-06-12T10:16:20Z</time>
      </trkpt>
      <trkpt lat="45.59195" lon="6.05905">
        <ele>1135.935</ele>
        <time>2011-06-12T10:16:24Z</time>
      </trkpt>
      <trkpt lat="45.59204" lon="6.05905">
        <ele>1136.4157</ele>
        <time>2011-06-12T10:16:28Z</time>
      </trkpt>
      <trkpt lat="45.59217" lon="6.0591">
        <ele>1138.819</ele>
        <time>2011-06-12T10:16:33Z</time>
      </trkpt>
      <trkpt lat="45.59217" lon="6.05911">
        <ele>1140.2609</ele>
        <time>2011-06-12T10:16:34Z</time>
      </trkpt>
      <trkpt lat="45.59219" lon="6.0591">
        <ele>1137.8576</ele>
        <time>2011-06-12T10:16:34Z</time>
      </trkpt>
      <trkpt lat="45.59218" lon="6.05908">
        <ele>1137.3769</ele>
        <time>2011-06-12T10:16:35Z</time>
      </trkpt>
      <trkpt lat="45.59218" lon="6.05907">
        <ele>1136.8962</ele>
        <time>2011-06-12T10:16:35Z</time>
      </trkpt>
      <trkpt lat="45.59218" lon="6.05908">
        <ele>1135.935</ele>
        <time>2011-06-12T10:16:35Z</time>
      </trkpt>
      <trkpt lat="45.59217" lon="6.05907">
        <ele>1136.4157</ele>
        <time>2011-06-12T10:16:36Z</time>
      </trkpt>
      <trkpt lat="45.59217" lon="6.05908">
        <ele>1138.3383</ele>
        <time>2011-06-12T10:16:36Z</time>
      </trkpt>
      <trkpt lat="45.59218" lon="6.05909">
        <ele>1139.2995</ele>
        <time>2011-06-12T10:16:37Z</time>
      </trkpt>
      <trkpt lat="45.59225" lon="6.05909">
        <ele>1141.2221</ele>
        <time>2011-06-12T10:16:39Z</time>
      </trkpt>
      <trkpt lat="45.59226" lon="6.0591">
        <ele>1143.1447</ele>
        <time>2011-06-12T10:16:40Z</time>
      </trkpt>
      <trkpt lat="45.59227" lon="6.05909">
        <ele>1140.2609</ele>
        <time>2011-06-12T10:16:40Z</time>
      </trkpt>
      <trkpt lat="45.59225" lon="6.05909">
        <ele>1139.2995</ele>
        <time>2011-06-12T10:16:41Z</time>
      </trkpt>
      <trkpt lat="45.59225" lon="6.05909">
        <ele>1140.2609</ele>
        <time>2011-06-12T10:16:41Z</time>
      </trkpt>
      <trkpt lat="45.59228" lon="6.05913">
        <ele>1142.6643</ele>
        <time>2011-06-12T10:16:42Z</time>
      </trkpt>
      <trkpt lat="45.59227" lon="6.05914">
        <ele>1141.7028</ele>
        <time>2011-06-12T10:16:43Z</time>
      </trkpt>
      <trkpt lat="45.59226" lon="6.05914">
        <ele>1144.1062</ele>
        <time>2011-06-12T10:16:43Z</time>
      </trkpt>
      <trkpt lat="45.59225" lon="6.05914">
        <ele>1144.1062</ele>
        <time>2011-06-12T10:16:44Z</time>
      </trkpt>
      <trkpt lat="45.59226" lon="6.05914">
        <ele>1144.1062</ele>
        <time>2011-06-12T10:16:44Z</time>
      </trkpt>
      <trkpt lat="45.59232" lon="6.05912">
        <ele>1144.1062</ele>
        <time>2011-06-12T10:16:46Z</time>
      </trkpt>
      <trkpt lat="45.59239" lon="6.05911">
        <ele>1144.5866</ele>
        <time>2011-06-12T10:16:49Z</time>
      </trkpt>
      <trkpt lat="45.59254" lon="6.0591">
        <ele>1146.9899</ele>
        <time>2011-06-12T10:16:55Z</time>
      </trkpt>
      <trkpt lat="45.5927" lon="6.05915">
        <ele>1146.5095</ele>
        <time>2011-06-12T10:17:02Z</time>
      </trkpt>
      <trkpt lat="45.59292" lon="6.05921">
        <ele>1142.6643</ele>
        <time>2011-06-12T10:17:11Z</time>
      </trkpt>
      <trkpt lat="45.59314" lon="6.05927">
        <ele>1142.1835</ele>
        <time>2011-06-12T10:17:20Z</time>
      </trkpt>
      <trkpt lat="45.59337" lon="6.05934">
        <ele>1143.6254</ele>
        <time>2011-06-12T10:17:29Z</time>
      </trkpt>
      <trkpt lat="45.59354" lon="6.0594">
        <ele>1144.5866</ele>
        <time>2011-06-12T10:17:36Z</time>
      </trkpt>
      <trkpt lat="45.59371" lon="6.05944">
        <ele>1144.1062</ele>
        <time>2011-06-12T10:17:43Z</time>
      </trkpt>
      <trkpt lat="45.59393" lon="6.05954">
        <ele>1143.6254</ele>
        <time>2011-06-12T10:17:52Z</time>
      </trkpt>
      <trkpt lat="45.59418" lon="6.05961">
        <ele>1145.548</ele>
        <time>2011-06-12T10:18:03Z</time>
      </trkpt>
      <trkpt lat="45.59443" lon="6.05969">
        <ele>1146.0288</ele>
        <time>2011-06-12T10:18:13Z</time>
      </trkpt>
      <trkpt lat="45.59477" lon="6.05977">
        <ele>1145.0673</ele>
        <time>2011-06-12T10:18:27Z</time>
      </trkpt>
      <trkpt lat="45.59493" lon="6.05983">
        <ele>1143.6254</ele>
        <time>2011-06-12T10:18:33Z</time>
      </trkpt>
      <trkpt lat="45.5951" lon="6.0599">
        <ele>1142.1835</ele>
        <time>2011-06-12T10:18:40Z</time>
      </trkpt>
      <trkpt lat="45.59527" lon="6.05993">
        <ele>1144.1062</ele>
        <time>2011-06-12T10:18:47Z</time>
      </trkpt>
      <trkpt lat="45.59544" lon="6.05996">
        <ele>1144.1062</ele>
        <time>2011-06-12T10:18:54Z</time>
      </trkpt>
      <trkpt lat="45.59558" lon="6.06001">
        <ele>1143.6254</ele>
        <time>2011-06-12T10:19:00Z</time>
      </trkpt>
      <trkpt lat="45.59582" lon="6.06005">
        <ele>1144.5866</ele>
        <time>2011-06-12T10:19:09Z</time>
      </trkpt>
      <trkpt lat="45.59599" lon="6.06004">
        <ele>1145.548</ele>
        <time>2011-06-12T10:19:16Z</time>
      </trkpt>
      <trkpt lat="45.59614" lon="6.06006">
        <ele>1146.0288</ele>
        <time>2011-06-12T10:19:22Z</time>
      </trkpt>
      <trkpt lat="45.59626" lon="6.06008">
        <ele>1146.5095</ele>
        <time>2011-06-12T10:19:27Z</time>
      </trkpt>
      <trkpt lat="45.5964" lon="6.0601">
        <ele>1146.0288</ele>
        <time>2011-06-12T10:19:33Z</time>
      </trkpt>
      <trkpt lat="45.59653" lon="6.06013">
        <ele>1146.0288</ele>
        <time>2011-06-12T10:19:38Z</time>
      </trkpt>
      <trkpt lat="45.59666" lon="6.06015">
        <ele>1145.0673</ele>
        <time>2011-06-12T10:19:43Z</time>
      </trkpt>
      <trkpt lat="45.59686" lon="6.0602">
        <ele>1142.6643</ele>
        <time>2011-06-12T10:19:51Z</time>
      </trkpt>
      <trkpt lat="45.59715" lon="6.06027">
        <ele>1141.7028</ele>
        <time>2011-06-12T10:20:03Z</time>
      </trkpt>
      <trkpt lat="45.59735" lon="6.0603">
        <ele>1139.2995</ele>
        <time>2011-06-12T10:20:11Z</time>
      </trkpt>
      <trkpt lat="45.59758" lon="6.06034">
        <ele>1139.2995</ele>
        <time>2011-06-12T10:20:21Z</time>
      </trkpt>
      <trkpt lat="45.59791" lon="6.06039">
        <ele>1135.4543</ele>
        <time>2011-06-12T10:20:34Z</time>
      </trkpt>
      <trkpt lat="45.59824" lon="6.06044">
        <ele>1131.1284</ele>
        <time>2011-06-12T10:20:47Z</time>
      </trkpt>
      <trkpt lat="45.59848" lon="6.06051">
        <ele>1129.6862</ele>
        <time>2011-06-12T10:20:57Z</time>
      </trkpt>
      <trkpt lat="45.59877" lon="6.06058">
        <ele>1126.3217</ele>
        <time>2011-06-12T10:21:09Z</time>
      </trkpt>
      <trkpt lat="45.59887" lon="6.06061">
        <ele>1125.841</ele>
        <time>2011-06-12T10:21:13Z</time>
      </trkpt>
      <trkpt lat="45.59925" lon="6.0607">
        <ele>1124.3991</ele>
        <time>2011-06-12T10:21:28Z</time>
      </trkpt>
      <trkpt lat="45.59955" lon="6.06084">
        <ele>1121.0346</ele>
        <time>2011-06-12T10:21:41Z</time>
      </trkpt>
      <trkpt lat="45.59979" lon="6.06105">
        <ele>1117.6699</ele>
        <time>2011-06-12T10:21:52Z</time>
      </trkpt>
      <trkpt lat="45.60011" lon="6.06122">
        <ele>1115.7473</ele>
        <time>2011-06-12T10:22:06Z</time>
      </trkpt>
      <trkpt lat="45.60043" lon="6.06132">
        <ele>1114.7858</ele>
        <time>2011-06-12T10:22:19Z</time>
      </trkpt>
      <trkpt lat="45.60076" lon="6.06141">
        <ele>1108.5373</ele>
        <time>2011-06-12T10:22:32Z</time>
      </trkpt>
      <trkpt lat="45.60122" lon="6.06168">
        <ele>1109.9792</ele>
        <time>2011-06-12T10:22:52Z</time>
      </trkpt>
      <trkpt lat="45.60153" lon="6.06187">
        <ele>1106.6147</ele>
        <time>2011-06-12T10:23:06Z</time>
      </trkpt>
      <trkpt lat="45.6018" lon="6.06194">
        <ele>1103.7309</ele>
        <time>2011-06-12T10:23:17Z</time>
      </trkpt>
      <trkpt lat="45.6021" lon="6.06204">
        <ele>1102.2888</ele>
        <time>2011-06-12T10:23:29Z</time>
      </trkpt>
      <trkpt lat="45.60234" lon="6.06211">
        <ele>1099.4047</ele>
        <time>2011-06-12T10:23:39Z</time>
      </trkpt>
      <trkpt lat="45.60242" lon="6.06214">
        <ele>1098.4433</ele>
        <time>2011-06-12T10:23:42Z</time>
      </trkpt>
      <trkpt lat="45.6025" lon="6.06219">
        <ele>1098.4433</ele>
        <time>2011-06-12T10:23:46Z</time>
      </trkpt>
      <trkpt lat="45.60254" lon="6.0622">
        <ele>1097.4821</ele>
        <time>2011-06-12T10:23:47Z</time>
      </trkpt>
      <trkpt lat="45.60261" lon="6.06215">
        <ele>1100.3664</ele>
        <time>2011-06-12T10:23:51Z</time>
      </trkpt>
      <trkpt lat="45.60267" lon="6.06214">
        <ele>1109.4987</ele>
        <time>2011-06-12T10:23:53Z</time>
      </trkpt>
      <trkpt lat="45.60262" lon="6.06218">
        <ele>1112.8632</ele>
        <time>2011-06-12T10:23:55Z</time>
      </trkpt>
      <trkpt lat="45.60264" lon="6.06219">
        <ele>1112.8632</ele>
        <time>2011-06-12T10:23:56Z</time>
      </trkpt>
      <trkpt lat="45.60266" lon="6.06219">
        <ele>1109.018</ele>
        <time>2011-06-12T10:23:56Z</time>
      </trkpt>
      <trkpt lat="45.60266" lon="6.06219">
        <ele>1110.4599</ele>
        <time>2011-06-12T10:23:56Z</time>
      </trkpt>
      <trkpt lat="45.6027" lon="6.0622">
        <ele>1109.018</ele>
        <time>2011-06-12T10:23:58Z</time>
      </trkpt>
      <trkpt lat="45.60265" lon="6.06217">
        <ele>1114.7858</ele>
        <time>2011-06-12T10:24:00Z</time>
      </trkpt>
      <trkpt lat="45.60261" lon="6.06214">
        <ele>1104.6921</ele>
        <time>2011-06-12T10:24:02Z</time>
      </trkpt>
      <trkpt lat="45.60262" lon="6.06212">
        <ele>1101.8083</ele>
        <time>2011-06-12T10:24:03Z</time>
      </trkpt>
      <trkpt lat="45.60262" lon="6.06212">
        <ele>1101.3276</ele>
        <time>2011-06-12T10:24:03Z</time>
      </trkpt>
      <trkpt lat="45.60262" lon="6.06212">
        <ele>1101.8083</ele>
        <time>2011-06-12T10:24:03Z</time>
      </trkpt>
      <trkpt lat="45.60262" lon="6.06212">
        <ele>1102.2888</ele>
        <time>2011-06-12T10:24:03Z</time>
      </trkpt>
      <trkpt lat="45.60263" lon="6.0621">
        <ele>1097.4821</ele>
        <time>2011-06-12T10:24:04Z</time>
      </trkpt>
      <trkpt lat="45.60258" lon="6.06209">
        <ele>1094.1176</ele>
        <time>2011-06-12T10:24:06Z</time>
      </trkpt>
      <trkpt lat="45.60257" lon="6.06216">
        <ele>1096.0402</ele>
        <time>2011-06-12T10:24:08Z</time>
      </trkpt>
      <trkpt lat="45.60257" lon="6.06222">
        <ele>1097.4821</ele>
        <time>2011-06-12T10:24:10Z</time>
      </trkpt>
      <trkpt lat="45.60261" lon="6.06225">
        <ele>1099.8854</ele>
        <time>2011-06-12T10:24:12Z</time>
      </trkpt>
      <trkpt lat="45.60262" lon="6.06225">
        <ele>1099.8854</ele>
        <time>2011-06-12T10:24:12Z</time>
      </trkpt>
      <trkpt lat="45.60263" lon="6.06225">
        <ele>1100.3664</ele>
        <time>2011-06-12T10:24:12Z</time>
      </trkpt>
      <trkpt lat="45.60264" lon="6.06213">
        <ele>1104.6921</ele>
        <time>2011-06-12T10:24:16Z</time>
      </trkpt>
      <trkpt lat="45.60264" lon="6.06208">
        <ele>1102.2888</ele>
        <time>2011-06-12T10:24:17Z</time>
      </trkpt>
      <trkpt lat="45.60264" lon="6.06207">
        <ele>1102.7695</ele>
        <time>2011-06-12T10:24:18Z</time>
      </trkpt>
      <trkpt lat="45.60266" lon="6.06206">
        <ele>1099.8854</ele>
        <time>2011-06-12T10:24:18Z</time>
      </trkpt>
      <trkpt lat="45.60266" lon="6.06207">
        <ele>1102.7695</ele>
        <time>2011-06-12T10:24:19Z</time>
      </trkpt>
      <trkpt lat="45.60266" lon="6.06208">
        <ele>1103.7309</ele>
        <time>2011-06-12T10:24:19Z</time>
      </trkpt>
      <trkpt lat="45.60266" lon="6.06209">
        <ele>1105.1728</ele>
        <time>2011-06-12T10:24:19Z</time>
      </trkpt>
      <trkpt lat="45.60267" lon="6.06209">
        <ele>1105.1728</ele>
        <time>2011-06-12T10:24:20Z</time>
      </trkpt>
      <trkpt lat="45.60261" lon="6.0622">
        <ele>1120.0732</ele>
        <time>2011-06-12T10:24:24Z</time>
      </trkpt>
      <trkpt lat="45.60261" lon="6.06221">
        <ele>1123.9184</ele>
        <time>2011-06-12T10:24:24Z</time>
      </trkpt>
      <trkpt lat="45.6027" lon="6.06216">
        <ele>1115.2666</ele>
        <time>2011-06-12T10:24:28Z</time>
      </trkpt>
      <trkpt lat="45.60275" lon="6.06215">
        <ele>1113.3439</ele>
        <time>2011-06-12T10:24:30Z</time>
      </trkpt>
      <trkpt lat="45.6028" lon="6.06212">
        <ele>1111.902</ele>
        <time>2011-06-12T10:24:32Z</time>
      </trkpt>
      <trkpt lat="45.60284" lon="6.06211">
        <ele>1111.4213</ele>
        <time>2011-06-12T10:24:34Z</time>
      </trkpt>
      <trkpt lat="45.60288" lon="6.06207">
        <ele>1110.9406</ele>
        <time>2011-06-12T10:24:36Z</time>
      </trkpt>
      <trkpt lat="45.60289" lon="6.06203">
        <ele>1111.4213</ele>
        <time>2011-06-12T10:24:37Z</time>
      </trkpt>
      <trkpt lat="45.60288" lon="6.06197">
        <ele>1112.8632</ele>
        <time>2011-06-12T10:24:39Z</time>
      </trkpt>
      <trkpt lat="45.60289" lon="6.06191">
        <ele>1111.4213</ele>
        <time>2011-06-12T10:24:40Z</time>
      </trkpt>
      <trkpt lat="45.60287" lon="6.06185">
        <ele>1113.3439</ele>
        <time>2011-06-12T10:24:42Z</time>
      </trkpt>
      <trkpt lat="45.60285" lon="6.06181">
        <ele>1113.8244</ele>
        <time>2011-06-12T10:24:44Z</time>
      </trkpt>
      <trkpt lat="45.60284" lon="6.06175">
        <ele>1113.3439</ele>
        <time>2011-06-12T10:24:45Z</time>
      </trkpt>
      <trkpt lat="45.60284" lon="6.06169">
        <ele>1113.3439</ele>
        <time>2011-06-12T10:24:47Z</time>
      </trkpt>
      <trkpt lat="45.60281" lon="6.06165">
        <ele>1115.7473</ele>
        <time>2011-06-12T10:24:48Z</time>
      </trkpt>
      <trkpt lat="45.60275" lon="6.06159">
        <ele>1122.9572</ele>
        <time>2011-06-12T10:24:51Z</time>
      </trkpt>
      <trkpt lat="45.6027" lon="6.06152">
        <ele>1121.9958</ele>
        <time>2011-06-12T10:24:54Z</time>
      </trkpt>
      <trkpt lat="45.6027" lon="6.0614">
        <ele>1115.7473</ele>
        <time>2011-06-12T10:24:58Z</time>
      </trkpt>
      <trkpt lat="45.6027" lon="6.06132">
        <ele>1115.2666</ele>
        <time>2011-06-12T10:25:00Z</time>
      </trkpt>
      <trkpt lat="45.6029" lon="6.06139">
        <ele>1139.7802</ele>
        <time>2011-06-12T10:25:08Z</time>
      </trkpt>
      <trkpt lat="45.60297" lon="6.06144">
        <ele>1149.8742</ele>
        <time>2011-06-12T10:25:11Z</time>
      </trkpt>
      <trkpt lat="45.60302" lon="6.06142">
        <ele>1149.3935</ele>
        <time>2011-06-12T10:25:13Z</time>
      </trkpt>
      <trkpt lat="45.60306" lon="6.0614">
        <ele>1148.9128</ele>
        <time>2011-06-12T10:25:15Z</time>
      </trkpt>
      <trkpt lat="45.60312" lon="6.06139">
        <ele>1149.8742</ele>
        <time>2011-06-12T10:25:17Z</time>
      </trkpt>
      <trkpt lat="45.60318" lon="6.06137">
        <ele>1151.3161</ele>
        <time>2011-06-12T10:25:20Z</time>
      </trkpt>
      <trkpt lat="45.60324" lon="6.06137">
        <ele>1159.4873</ele>
        <time>2011-06-12T10:25:22Z</time>
      </trkpt>
      <trkpt lat="45.60327" lon="6.06138">
        <ele>1160.9291</ele>
        <time>2011-06-12T10:25:23Z</time>
      </trkpt>
      <trkpt lat="45.6033" lon="6.06141">
        <ele>1165.2553</ele>
        <time>2011-06-12T10:25:25Z</time>
      </trkpt>
      <trkpt lat="45.60352" lon="6.06137">
        <ele>1154.2001</ele>
        <time>2011-06-12T10:25:34Z</time>
      </trkpt>
      <trkpt lat="45.60353" lon="6.06143">
        <ele>1158.5258</ele>
        <time>2011-06-12T10:25:35Z</time>
      </trkpt>
      <trkpt lat="45.60358" lon="6.06147">
        <ele>1159.9677</ele>
        <time>2011-06-12T10:25:38Z</time>
      </trkpt>
      <trkpt lat="45.60362" lon="6.0615">
        <ele>1162.371</ele>
        <time>2011-06-12T10:25:40Z</time>
      </trkpt>
      <trkpt lat="45.60367" lon="6.06154">
        <ele>1167.1779</ele>
        <time>2011-06-12T10:25:42Z</time>
      </trkpt>
      <trkpt lat="45.60369" lon="6.06156">
        <ele>1167.6584</ele>
        <time>2011-06-12T10:25:43Z</time>
      </trkpt>
      <trkpt lat="45.60372" lon="6.06161">
        <ele>1170.0617</ele>
        <time>2011-06-12T10:25:45Z</time>
      </trkpt>
      <trkpt lat="45.6038" lon="6.06164">
        <ele>1163.3325</ele>
        <time>2011-06-12T10:25:48Z</time>
      </trkpt>
      <trkpt lat="45.60383" lon="6.06166">
        <ele>1163.8129</ele>
        <time>2011-06-12T10:25:49Z</time>
      </trkpt>
      <trkpt lat="45.60386" lon="6.06171">
        <ele>1167.1779</ele>
        <time>2011-06-12T10:25:51Z</time>
      </trkpt>
      <trkpt lat="45.60389" lon="6.06173">
        <ele>1169.1005</ele>
        <time>2011-06-12T10:25:52Z</time>
      </trkpt>
      <trkpt lat="45.60404" lon="6.06176">
        <ele>1180.6364</ele>
        <time>2011-06-12T10:25:58Z</time>
      </trkpt>
      <trkpt lat="45.6041" lon="6.06173">
        <ele>1177.2717</ele>
        <time>2011-06-12T10:26:01Z</time>
      </trkpt>
      <trkpt lat="45.60412" lon="6.06176">
        <ele>1181.5976</ele>
        <time>2011-06-12T10:26:02Z</time>
      </trkpt>
      <trkpt lat="45.60422" lon="6.06177">
        <ele>1181.5976</ele>
        <time>2011-06-12T10:26:06Z</time>
      </trkpt>
      <trkpt lat="45.60425" lon="6.06177">
        <ele>1185.4428</ele>
        <time>2011-06-12T10:26:07Z</time>
      </trkpt>
      <trkpt lat="45.60428" lon="6.06171">
        <ele>1175.8295</ele>
        <time>2011-06-12T10:26:10Z</time>
      </trkpt>
      <trkpt lat="45.60429" lon="6.06168">
        <ele>1172.9458</ele>
        <time>2011-06-12T10:26:11Z</time>
      </trkpt>
      <trkpt lat="45.60429" lon="6.06172">
        <ele>1173.9069</ele>
        <time>2011-06-12T10:26:12Z</time>
      </trkpt>
      <trkpt lat="45.60429" lon="6.06172">
        <ele>1173.4265</ele>
        <time>2011-06-12T10:26:12Z</time>
      </trkpt>
      <trkpt lat="45.60433" lon="6.06174">
        <ele>1172.465</ele>
        <time>2011-06-12T10:26:14Z</time>
      </trkpt>
      <trkpt lat="45.60435" lon="6.06174">
        <ele>1175.3488</ele>
        <time>2011-06-12T10:26:14Z</time>
      </trkpt>
      <trkpt lat="45.60439" lon="6.06175">
        <ele>1177.7521</ele>
        <time>2011-06-12T10:26:16Z</time>
      </trkpt>
      <trkpt lat="45.60429" lon="6.06184">
        <ele>1188.3269</ele>
        <time>2011-06-12T10:26:20Z</time>
      </trkpt>
      <trkpt lat="45.60424" lon="6.06192">
        <ele>1193.1333</ele>
        <time>2011-06-12T10:26:23Z</time>
      </trkpt>
      <trkpt lat="45.60421" lon="6.06199">
        <ele>1199.8627</ele>
        <time>2011-06-12T10:26:26Z</time>
      </trkpt>
      <trkpt lat="45.60423" lon="6.06185">
        <ele>1192.6528</ele>
        <time>2011-06-12T10:26:30Z</time>
      </trkpt>
      <trkpt lat="45.60422" lon="6.06178">
        <ele>1187.3654</ele>
        <time>2011-06-12T10:26:32Z</time>
      </trkpt>
      <trkpt lat="45.60419" lon="6.06178">
        <ele>1194.0947</ele>
        <time>2011-06-12T10:26:33Z</time>
      </trkpt>
      <trkpt lat="45.60418" lon="6.0618">
        <ele>1195.5366</ele>
        <time>2011-06-12T10:26:34Z</time>
      </trkpt>
      <trkpt lat="45.60419" lon="6.06181">
        <ele>1197.9401</ele>
        <time>2011-06-12T10:26:34Z</time>
      </trkpt>
      <trkpt lat="45.60427" lon="6.0618">
        <ele>1197.4594</ele>
        <time>2011-06-12T10:26:37Z</time>
      </trkpt>
      <trkpt lat="45.60433" lon="6.06179">
        <ele>1196.9787</ele>
        <time>2011-06-12T10:26:40Z</time>
      </trkpt>
      <trkpt lat="45.60435" lon="6.06178">
        <ele>1197.4594</ele>
        <time>2011-06-12T10:26:41Z</time>
      </trkpt>
      <trkpt lat="45.60437" lon="6.06176">
        <ele>1196.4982</ele>
        <time>2011-06-12T10:26:42Z</time>
      </trkpt>
      <trkpt lat="45.60439" lon="6.06176">
        <ele>1194.5751</ele>
        <time>2011-06-12T10:26:43Z</time>
      </trkpt>
      <trkpt lat="45.60452" lon="6.06175">
        <ele>1200.3435</ele>
        <time>2011-06-12T10:26:48Z</time>
      </trkpt>
      <trkpt lat="45.60455" lon="6.06178">
        <ele>1204.6691</ele>
        <time>2011-06-12T10:26:49Z</time>
      </trkpt>
      <trkpt lat="45.60457" lon="6.06181">
        <ele>1208.9951</ele>
        <time>2011-06-12T10:26:50Z</time>
      </trkpt>
      <trkpt lat="45.60465" lon="6.0618">
        <ele>1201.7854</ele>
        <time>2011-06-12T10:26:54Z</time>
      </trkpt>
      <trkpt lat="45.60468" lon="6.06178">
        <ele>1197.9401</ele>
        <time>2011-06-12T10:26:55Z</time>
      </trkpt>
      <trkpt lat="45.60471" lon="6.06179">
        <ele>1196.0175</ele>
        <time>2011-06-12T10:26:56Z</time>
      </trkpt>
      <trkpt lat="45.60474" lon="6.06177">
        <ele>1193.1333</ele>
        <time>2011-06-12T10:26:57Z</time>
      </trkpt>
      <trkpt lat="45.60478" lon="6.0618">
        <ele>1194.0947</ele>
        <time>2011-06-12T10:26:59Z</time>
      </trkpt>
      <trkpt lat="45.60482" lon="6.06183">
        <ele>1196.4982</ele>
        <time>2011-06-12T10:27:01Z</time>
      </trkpt>
      <trkpt lat="45.60487" lon="6.06186">
        <ele>1198.4206</ele>
        <time>2011-06-12T10:27:03Z</time>
      </trkpt>
      <trkpt lat="45.60493" lon="6.06187">
        <ele>1197.4594</ele>
        <time>2011-06-12T10:27:05Z</time>
      </trkpt>
      <trkpt lat="45.60504" lon="6.0619">
        <ele>1196.4982</ele>
        <time>2011-06-12T10:27:10Z</time>
      </trkpt>
      <trkpt lat="45.60507" lon="6.06191">
        <ele>1195.5366</ele>
        <time>2011-06-12T10:27:11Z</time>
      </trkpt>
      <trkpt lat="45.6051" lon="6.06191">
        <ele>1192.6528</ele>
        <time>2011-06-12T10:27:13Z</time>
      </trkpt>
      <trkpt lat="45.60517" lon="6.06195">
        <ele>1192.6528</ele>
        <time>2011-06-12T10:27:16Z</time>
      </trkpt>
      <trkpt lat="45.6052" lon="6.06202">
        <ele>1196.0175</ele>
        <time>2011-06-12T10:27:18Z</time>
      </trkpt>
      <trkpt lat="45.60523" lon="6.06202">
        <ele>1194.5751</ele>
        <time>2011-06-12T10:27:19Z</time>
      </trkpt>
      <trkpt lat="45.60531" lon="6.06203">
        <ele>1194.5751</ele>
        <time>2011-06-12T10:27:22Z</time>
      </trkpt>
      <trkpt lat="45.60536" lon="6.06206">
        <ele>1197.9401</ele>
        <time>2011-06-12T10:27:24Z</time>
      </trkpt>
      <trkpt lat="45.60539" lon="6.06207">
        <ele>1201.7854</ele>
        <time>2011-06-12T10:27:26Z</time>
      </trkpt>
      <trkpt lat="45.60542" lon="6.06207">
        <ele>1203.2272</ele>
        <time>2011-06-12T10:27:27Z</time>
      </trkpt>
      <trkpt lat="45.60546" lon="6.06207">
        <ele>1203.2272</ele>
        <time>2011-06-12T10:27:28Z</time>
      </trkpt>
      <trkpt lat="45.60549" lon="6.06206">
        <ele>1201.3046</ele>
        <time>2011-06-12T10:27:30Z</time>
      </trkpt>
      <trkpt lat="45.6055" lon="6.06205">
        <ele>1200.8239</ele>
        <time>2011-06-12T10:27:30Z</time>
      </trkpt>
      <trkpt lat="45.60553" lon="6.06207">
        <ele>1203.2272</ele>
        <time>2011-06-12T10:27:31Z</time>
      </trkpt>
      <trkpt lat="45.60554" lon="6.06206">
        <ele>1202.2658</ele>
        <time>2011-06-12T10:27:32Z</time>
      </trkpt>
      <trkpt lat="45.60553" lon="6.06208">
        <ele>1203.708</ele>
        <time>2011-06-12T10:27:33Z</time>
      </trkpt>
      <trkpt lat="45.6056" lon="6.06206">
        <ele>1200.3435</ele>
        <time>2011-06-12T10:27:35Z</time>
      </trkpt>
      <trkpt lat="45.60563" lon="6.06207">
        <ele>1200.3435</ele>
        <time>2011-06-12T10:27:36Z</time>
      </trkpt>
      <trkpt lat="45.60565" lon="6.06211">
        <ele>1204.1887</ele>
        <time>2011-06-12T10:27:38Z</time>
      </trkpt>
      <trkpt lat="45.60572" lon="6.06212">
        <ele>1202.2658</ele>
        <time>2011-06-12T10:27:40Z</time>
      </trkpt>
      <trkpt lat="45.60587" lon="6.06227">
        <ele>1206.5917</ele>
        <time>2011-06-12T10:27:48Z</time>
      </trkpt>
      <trkpt lat="45.60605" lon="6.06234">
        <ele>1206.111</ele>
        <time>2011-06-12T10:27:55Z</time>
      </trkpt>
      <trkpt lat="45.60614" lon="6.06234">
        <ele>1205.6306</ele>
        <time>2011-06-12T10:27:59Z</time>
      </trkpt>
      <trkpt lat="45.60627" lon="6.06236">
        <ele>1202.7465</ele>
        <time>2011-06-12T10:28:04Z</time>
      </trkpt>
      <trkpt lat="45.60639" lon="6.06238">
        <ele>1203.2272</ele>
        <time>2011-06-12T10:28:09Z</time>
      </trkpt>
      <trkpt lat="45.60643" lon="6.06239">
        <ele>1202.2658</ele>
        <time>2011-06-12T10:28:11Z</time>
      </trkpt>
      <trkpt lat="45.60652" lon="6.06245">
        <ele>1204.6691</ele>
        <time>2011-06-12T10:28:14Z</time>
      </trkpt>
      <trkpt lat="45.60663" lon="6.06251">
        <ele>1205.6306</ele>
        <time>2011-06-12T10:28:19Z</time>
      </trkpt>
      <trkpt lat="45.60677" lon="6.06258">
        <ele>1207.0725</ele>
        <time>2011-06-12T10:28:25Z</time>
      </trkpt>
      <trkpt lat="45.60684" lon="6.06257">
        <ele>1204.6691</ele>
        <time>2011-06-12T10:28:28Z</time>
      </trkpt>
      <trkpt lat="45.60683" lon="6.06262">
        <ele>1206.5917</ele>
        <time>2011-06-12T10:28:30Z</time>
      </trkpt>
      <trkpt lat="45.60686" lon="6.06265">
        <ele>1208.0339</ele>
        <time>2011-06-12T10:28:31Z</time>
      </trkpt>
      <trkpt lat="45.60694" lon="6.06268">
        <ele>1211.3984</ele>
        <time>2011-06-12T10:28:34Z</time>
      </trkpt>
      <trkpt lat="45.60697" lon="6.0627">
        <ele>1211.8791</ele>
        <time>2011-06-12T10:28:36Z</time>
      </trkpt>
      <trkpt lat="45.607" lon="6.06274">
        <ele>1214.7631</ele>
        <time>2011-06-12T10:28:37Z</time>
      </trkpt>
      <trkpt lat="45.60704" lon="6.06275">
        <ele>1215.2438</ele>
        <time>2011-06-12T10:28:39Z</time>
      </trkpt>
      <trkpt lat="45.60713" lon="6.06277">
        <ele>1214.7631</ele>
        <time>2011-06-12T10:28:43Z</time>
      </trkpt>
      <trkpt lat="45.60718" lon="6.06278">
        <ele>1213.8017</ele>
        <time>2011-06-12T10:28:45Z</time>
      </trkpt>
      <trkpt lat="45.60726" lon="6.06277">
        <ele>1211.3984</ele>
        <time>2011-06-12T10:28:48Z</time>
      </trkpt>
      <trkpt lat="45.60731" lon="6.06279">
        <ele>1212.3598</ele>
        <time>2011-06-12T10:28:50Z</time>
      </trkpt>
      <trkpt lat="45.60737" lon="6.06283">
        <ele>1213.8017</ele>
        <time>2011-06-12T10:28:53Z</time>
      </trkpt>
      <trkpt lat="45.60741" lon="6.06288">
        <ele>1215.7246</ele>
        <time>2011-06-12T10:28:55Z</time>
      </trkpt>
      <trkpt lat="45.6075" lon="6.06293">
        <ele>1212.8405</ele>
        <time>2011-06-12T10:28:59Z</time>
      </trkpt>
      <trkpt lat="45.60763" lon="6.06296">
        <ele>1211.3984</ele>
        <time>2011-06-12T10:29:04Z</time>
      </trkpt>
      <trkpt lat="45.60776" lon="6.06298">
        <ele>1215.2438</ele>
        <time>2011-06-12T10:29:09Z</time>
      </trkpt>
      <trkpt lat="45.60781" lon="6.06298">
        <ele>1218.1276</ele>
        <time>2011-06-12T10:29:11Z</time>
      </trkpt>
      <trkpt lat="45.60782" lon="6.063">
        <ele>1223.8955</ele>
        <time>2011-06-12T10:29:12Z</time>
      </trkpt>
      <trkpt lat="45.60783" lon="6.06304">
        <ele>1228.7023</ele>
        <time>2011-06-12T10:29:13Z</time>
      </trkpt>
      <trkpt lat="45.60784" lon="6.06307">
        <ele>1229.6635</ele>
        <time>2011-06-12T10:29:14Z</time>
      </trkpt>
      <trkpt lat="45.60787" lon="6.06307">
        <ele>1232.0668</ele>
        <time>2011-06-12T10:29:15Z</time>
      </trkpt>
      <trkpt lat="45.60787" lon="6.06306">
        <ele>1229.1828</ele>
        <time>2011-06-12T10:29:16Z</time>
      </trkpt>
      <trkpt lat="45.6079" lon="6.06306">
        <ele>1230.625</ele>
        <time>2011-06-12T10:29:17Z</time>
      </trkpt>
      <trkpt lat="45.60795" lon="6.06304">
        <ele>1227.7407</ele>
        <time>2011-06-12T10:29:19Z</time>
      </trkpt>
      <trkpt lat="45.608" lon="6.06302">
        <ele>1231.1057</ele>
        <time>2011-06-12T10:29:21Z</time>
      </trkpt>
      <trkpt lat="45.60806" lon="6.06301">
        <ele>1232.5476</ele>
        <time>2011-06-12T10:29:23Z</time>
      </trkpt>
      <trkpt lat="45.60811" lon="6.06301">
        <ele>1235.9121</ele>
        <time>2011-06-12T10:29:25Z</time>
      </trkpt>
      <trkpt lat="45.60816" lon="6.06302">
        <ele>1237.354</ele>
        <time>2011-06-12T10:29:28Z</time>
      </trkpt>
      <trkpt lat="45.6082" lon="6.06301">
        <ele>1239.7573</ele>
        <time>2011-06-12T10:29:29Z</time>
      </trkpt>
      <trkpt lat="45.60827" lon="6.06299">
        <ele>1239.7573</ele>
        <time>2011-06-12T10:29:32Z</time>
      </trkpt>
      <trkpt lat="45.60831" lon="6.06298">
        <ele>1239.7573</ele>
        <time>2011-06-12T10:29:34Z</time>
      </trkpt>
      <trkpt lat="45.60829" lon="6.06299">
        <ele>1242.1606</ele>
        <time>2011-06-12T10:29:34Z</time>
      </trkpt>
      <trkpt lat="45.60828" lon="6.06303">
        <ele>1249.3706</ele>
        <time>2011-06-12T10:29:35Z</time>
      </trkpt>
      <trkpt lat="45.6084" lon="6.06299">
        <ele>1245.0446</ele>
        <time>2011-06-12T10:29:40Z</time>
      </trkpt>
      <trkpt lat="45.60839" lon="6.06298">
        <ele>1243.6025</ele>
        <time>2011-06-12T10:29:41Z</time>
      </trkpt>
      <trkpt lat="45.60843" lon="6.06297">
        <ele>1242.1606</ele>
        <time>2011-06-12T10:29:43Z</time>
      </trkpt>
      <trkpt lat="45.60847" lon="6.06296">
        <ele>1240.7185</ele>
        <time>2011-06-12T10:29:44Z</time>
      </trkpt>
      <trkpt lat="45.60849" lon="6.06294">
        <ele>1237.354</ele>
        <time>2011-06-12T10:29:45Z</time>
      </trkpt>
      <trkpt lat="45.60848" lon="6.06292">
        <ele>1238.3154</ele>
        <time>2011-06-12T10:29:46Z</time>
      </trkpt>
      <trkpt lat="45.60848" lon="6.06292">
        <ele>1237.354</ele>
        <time>2011-06-12T10:29:46Z</time>
      </trkpt>
      <trkpt lat="45.60848" lon="6.06292">
        <ele>1239.2766</ele>
        <time>2011-06-12T10:29:46Z</time>
      </trkpt>
      <trkpt lat="45.60847" lon="6.06292">
        <ele>1241.1992</ele>
        <time>2011-06-12T10:29:46Z</time>
      </trkpt>
      <trkpt lat="45.60847" lon="6.06292">
        <ele>1242.6413</ele>
        <time>2011-06-12T10:29:47Z</time>
      </trkpt>
      <trkpt lat="45.60849" lon="6.06292">
        <ele>1237.8347</ele>
        <time>2011-06-12T10:29:48Z</time>
      </trkpt>
      <trkpt lat="45.60851" lon="6.06292">
        <ele>1233.028</ele>
        <time>2011-06-12T10:29:48Z</time>
      </trkpt>
      <trkpt lat="45.60853" lon="6.06291">
        <ele>1228.2216</ele>
        <time>2011-06-12T10:29:49Z</time>
      </trkpt>
      <trkpt lat="45.6085" lon="6.06298">
        <ele>1236.8732</ele>
        <time>2011-06-12T10:29:51Z</time>
      </trkpt>
      <trkpt lat="45.60847" lon="6.06302">
        <ele>1243.6025</ele>
        <time>2011-06-12T10:29:53Z</time>
      </trkpt>
      <trkpt lat="45.60848" lon="6.06301">
        <ele>1241.1992</ele>
        <time>2011-06-12T10:29:53Z</time>
      </trkpt>
      <trkpt lat="45.6085" lon="6.06299">
        <ele>1235.4313</ele>
        <time>2011-06-12T10:29:54Z</time>
      </trkpt>
      <trkpt lat="45.60851" lon="6.06295">
        <ele>1232.0668</ele>
        <time>2011-06-12T10:29:55Z</time>
      </trkpt>
      <trkpt lat="45.60852" lon="6.06292">
        <ele>1227.2602</ele>
        <time>2011-06-12T10:29:56Z</time>
      </trkpt>
      <trkpt lat="45.60852" lon="6.06292">
        <ele>1226.7795</ele>
        <time>2011-06-12T10:29:57Z</time>
      </trkpt>
      <trkpt lat="45.60852" lon="6.06292">
        <ele>1226.7795</ele>
        <time>2011-06-12T10:29:57Z</time>
      </trkpt>
      <trkpt lat="45.60852" lon="6.06291">
        <ele>1227.2602</ele>
        <time>2011-06-12T10:29:57Z</time>
      </trkpt>
      <trkpt lat="45.60849" lon="6.06295">
        <ele>1236.8732</ele>
        <time>2011-06-12T10:29:58Z</time>
      </trkpt>
      <trkpt lat="45.60849" lon="6.06294">
        <ele>1235.9121</ele>
        <time>2011-06-12T10:29:59Z</time>
      </trkpt>
      <trkpt lat="45.6085" lon="6.0629">
        <ele>1231.1057</ele>
        <time>2011-06-12T10:30:00Z</time>
      </trkpt>
      <trkpt lat="45.60852" lon="6.06288">
        <ele>1227.7407</ele>
        <time>2011-06-12T10:30:01Z</time>
      </trkpt>
      <trkpt lat="45.60854" lon="6.06288">
        <ele>1227.2602</ele>
        <time>2011-06-12T10:30:02Z</time>
      </trkpt>
      <trkpt lat="45.60856" lon="6.06288">
        <ele>1227.7407</ele>
        <time>2011-06-12T10:30:02Z</time>
      </trkpt>
      <trkpt lat="45.60856" lon="6.06289">
        <ele>1228.2216</ele>
        <time>2011-06-12T10:30:02Z</time>
      </trkpt>
      <trkpt lat="45.60854" lon="6.06291">
        <ele>1231.1057</ele>
        <time>2011-06-12T10:30:03Z</time>
      </trkpt>
      <trkpt lat="45.60852" lon="6.0629">
        <ele>1232.0668</ele>
        <time>2011-06-12T10:30:04Z</time>
      </trkpt>
      <trkpt lat="45.60852" lon="6.0629">
        <ele>1232.0668</ele>
        <time>2011-06-12T10:30:04Z</time>
      </trkpt>
      <trkpt lat="45.60851" lon="6.0629">
        <ele>1233.028</ele>
        <time>2011-06-12T10:30:05Z</time>
      </trkpt>
      <trkpt lat="45.6085" lon="6.06289">
        <ele>1234.9509</ele>
        <time>2011-06-12T10:30:05Z</time>
      </trkpt>
      <trkpt lat="45.60848" lon="6.06292">
        <ele>1240.238</ele>
        <time>2011-06-12T10:30:06Z</time>
      </trkpt>
      <trkpt lat="45.60848" lon="6.06292">
        <ele>1239.2766</ele>
        <time>2011-06-12T10:30:07Z</time>
      </trkpt>
      <trkpt lat="45.60849" lon="6.06292">
        <ele>1237.354</ele>
        <time>2011-06-12T10:30:07Z</time>
      </trkpt>
      <trkpt lat="45.6085" lon="6.06291">
        <ele>1233.9895</ele>
        <time>2011-06-12T10:30:07Z</time>
      </trkpt>
      <trkpt lat="45.60851" lon="6.06293">
        <ele>1233.5087</ele>
        <time>2011-06-12T10:30:08Z</time>
      </trkpt>
      <trkpt lat="45.60851" lon="6.06293">
        <ele>1233.9895</ele>
        <time>2011-06-12T10:30:08Z</time>
      </trkpt>
      <trkpt lat="45.60844" lon="6.06289">
        <ele>1240.7185</ele>
        <time>2011-06-12T10:30:11Z</time>
      </trkpt>
      <trkpt lat="45.60846" lon="6.06291">
        <ele>1237.354</ele>
        <time>2011-06-12T10:30:12Z</time>
      </trkpt>
      <trkpt lat="45.60852" lon="6.06294">
        <ele>1234.9509</ele>
        <time>2011-06-12T10:30:15Z</time>
      </trkpt>
      <trkpt lat="45.60851" lon="6.06288">
        <ele>1236.8732</ele>
        <time>2011-06-12T10:30:17Z</time>
      </trkpt>
      <trkpt lat="45.60851" lon="6.06288">
        <ele>1236.8732</ele>
        <time>2011-06-12T10:30:17Z</time>
      </trkpt>
      <trkpt lat="45.60849" lon="6.06289">
        <ele>1237.8347</ele>
        <time>2011-06-12T10:30:18Z</time>
      </trkpt>
      <trkpt lat="45.60849" lon="6.0629">
        <ele>1237.354</ele>
        <time>2011-06-12T10:30:18Z</time>
      </trkpt>
      <trkpt lat="45.6085" lon="6.06289">
        <ele>1235.4313</ele>
        <time>2011-06-12T10:30:18Z</time>
      </trkpt>
      <trkpt lat="45.6085" lon="6.0629">
        <ele>1233.9895</ele>
        <time>2011-06-12T10:30:18Z</time>
      </trkpt>
      <trkpt lat="45.6085" lon="6.0629">
        <ele>1233.9895</ele>
        <time>2011-06-12T10:30:19Z</time>
      </trkpt>
      <trkpt lat="45.60851" lon="6.06291">
        <ele>1234.4702</ele>
        <time>2011-06-12T10:30:19Z</time>
      </trkpt>
      <trkpt lat="45.60851" lon="6.06293">
        <ele>1235.4313</ele>
        <time>2011-06-12T10:30:19Z</time>
      </trkpt>
      <trkpt lat="45.60856" lon="6.06292">
        <ele>1235.4313</ele>
        <time>2011-06-12T10:30:22Z</time>
      </trkpt>
      <trkpt lat="45.60863" lon="6.0629">
        <ele>1235.4313</ele>
        <time>2011-06-12T10:30:25Z</time>
      </trkpt>
      <trkpt lat="45.60865" lon="6.0629">
        <ele>1236.8732</ele>
        <time>2011-06-12T10:30:25Z</time>
      </trkpt>
      <trkpt lat="45.60866" lon="6.0629">
        <ele>1237.8347</ele>
        <time>2011-06-12T10:30:26Z</time>
      </trkpt>
      <trkpt lat="45.60867" lon="6.0629">
        <ele>1238.7961</ele>
        <time>2011-06-12T10:30:26Z</time>
      </trkpt>
      <trkpt lat="45.60872" lon="6.06289">
        <ele>1236.3928</ele>
        <time>2011-06-12T10:30:28Z</time>
      </trkpt>
      <trkpt lat="45.6088" lon="6.0629">
        <ele>1228.7023</ele>
        <time>2011-06-12T10:30:31Z</time>
      </trkpt>
      <trkpt lat="45.60874" lon="6.06298">
        <ele>1245.0446</ele>
        <time>2011-06-12T10:30:34Z</time>
      </trkpt>
      <trkpt lat="45.60874" lon="6.06297">
        <ele>1246.4868</ele>
        <time>2011-06-12T10:30:34Z</time>
      </trkpt>
      <trkpt lat="45.60874" lon="6.06297">
        <ele>1247.4479</ele>
        <time>2011-06-12T10:30:35Z</time>
      </trkpt>
      <trkpt lat="45.60876" lon="6.06295">
        <ele>1243.6025</ele>
        <time>2011-06-12T10:30:36Z</time>
      </trkpt>
      <trkpt lat="45.60882" lon="6.06294">
        <ele>1243.1218</ele>
        <time>2011-06-12T10:30:38Z</time>
      </trkpt>
      <trkpt lat="45.60888" lon="6.06294">
        <ele>1243.1218</ele>
        <time>2011-06-12T10:30:41Z</time>
      </trkpt>
      <trkpt lat="45.60893" lon="6.06293">
        <ele>1243.1218</ele>
        <time>2011-06-12T10:30:43Z</time>
      </trkpt>
      <trkpt lat="45.60897" lon="6.06293">
        <ele>1243.6025</ele>
        <time>2011-06-12T10:30:44Z</time>
      </trkpt>
      <trkpt lat="45.60901" lon="6.06294">
        <ele>1244.5639</ele>
        <time>2011-06-12T10:30:46Z</time>
      </trkpt>
      <trkpt lat="45.60907" lon="6.06294">
        <ele>1244.5639</ele>
        <time>2011-06-12T10:30:48Z</time>
      </trkpt>
      <trkpt lat="45.60911" lon="6.06294">
        <ele>1246.4868</ele>
        <time>2011-06-12T10:30:50Z</time>
      </trkpt>
      <trkpt lat="45.60916" lon="6.06294">
        <ele>1248.8898</ele>
        <time>2011-06-12T10:30:52Z</time>
      </trkpt>
      <trkpt lat="45.60921" lon="6.06294">
        <ele>1252.2543</ele>
        <time>2011-06-12T10:30:54Z</time>
      </trkpt>
      <trkpt lat="45.60925" lon="6.06296">
        <ele>1256.0996</ele>
        <time>2011-06-12T10:30:55Z</time>
      </trkpt>
      <trkpt lat="45.60929" lon="6.06297">
        <ele>1256.0996</ele>
        <time>2011-06-12T10:30:57Z</time>
      </trkpt>
      <trkpt lat="45.60931" lon="6.06301">
        <ele>1259.9448</ele>
        <time>2011-06-12T10:30:58Z</time>
      </trkpt>
      <trkpt lat="45.60936" lon="6.06302">
        <ele>1261.3872</ele>
        <time>2011-06-12T10:31:00Z</time>
      </trkpt>
      <trkpt lat="45.60939" lon="6.06301">
        <ele>1261.8679</ele>
        <time>2011-06-12T10:31:02Z</time>
      </trkpt>
      <trkpt lat="45.60944" lon="6.06301">
        <ele>1262.3483</ele>
        <time>2011-06-12T10:31:04Z</time>
      </trkpt>
      <trkpt lat="45.60948" lon="6.06305">
        <ele>1266.1936</ele>
        <time>2011-06-12T10:31:05Z</time>
      </trkpt>
      <trkpt lat="45.60946" lon="6.06314">
        <ele>1273.4035</ele>
        <time>2011-06-12T10:31:08Z</time>
      </trkpt>
      <trkpt lat="45.60949" lon="6.06313">
        <ele>1273.884</ele>
        <time>2011-06-12T10:31:09Z</time>
      </trkpt>
      <trkpt lat="45.60953" lon="6.0631">
        <ele>1273.884</ele>
        <time>2011-06-12T10:31:11Z</time>
      </trkpt>
      <trkpt lat="45.60958" lon="6.06309">
        <ele>1277.249</ele>
        <time>2011-06-12T10:31:13Z</time>
      </trkpt>
      <trkpt lat="45.60961" lon="6.06308">
        <ele>1277.7294</ele>
        <time>2011-06-12T10:31:14Z</time>
      </trkpt>
      <trkpt lat="45.60964" lon="6.06308">
        <ele>1278.2102</ele>
        <time>2011-06-12T10:31:16Z</time>
      </trkpt>
      <trkpt lat="45.60965" lon="6.06312">
        <ele>1281.0942</ele>
        <time>2011-06-12T10:31:17Z</time>
      </trkpt>
      <trkpt lat="45.60969" lon="6.06311">
        <ele>1281.0942</ele>
        <time>2011-06-12T10:31:18Z</time>
      </trkpt>
      <trkpt lat="45.60974" lon="6.06306">
        <ele>1278.6909</ele>
        <time>2011-06-12T10:31:21Z</time>
      </trkpt>
      <trkpt lat="45.60979" lon="6.06304">
        <ele>1276.7683</ele>
        <time>2011-06-12T10:31:23Z</time>
      </trkpt>
      <trkpt lat="45.60983" lon="6.06304">
        <ele>1277.7294</ele>
        <time>2011-06-12T10:31:24Z</time>
      </trkpt>
      <trkpt lat="45.60985" lon="6.06308">
        <ele>1283.978</ele>
        <time>2011-06-12T10:31:26Z</time>
      </trkpt>
      <trkpt lat="45.60986" lon="6.06308">
        <ele>1285.9006</ele>
        <time>2011-06-12T10:31:26Z</time>
      </trkpt>
      <trkpt lat="45.6099" lon="6.06307">
        <ele>1284.9394</ele>
        <time>2011-06-12T10:31:28Z</time>
      </trkpt>
      <trkpt lat="45.60996" lon="6.06303">
        <ele>1283.978</ele>
        <time>2011-06-12T10:31:30Z</time>
      </trkpt>
      <trkpt lat="45.60999" lon="6.063">
        <ele>1280.6135</ele>
        <time>2011-06-12T10:31:32Z</time>
      </trkpt>
      <trkpt lat="45.61003" lon="6.063">
        <ele>1280.1328</ele>
        <time>2011-06-12T10:31:33Z</time>
      </trkpt>
      <trkpt lat="45.61013" lon="6.06299">
        <ele>1281.0942</ele>
        <time>2011-06-12T10:31:37Z</time>
      </trkpt>
      <trkpt lat="45.61016" lon="6.06299">
        <ele>1283.4973</ele>
        <time>2011-06-12T10:31:38Z</time>
      </trkpt>
      <trkpt lat="45.61019" lon="6.06299">
        <ele>1282.0554</ele>
        <time>2011-06-12T10:31:40Z</time>
      </trkpt>
      <trkpt lat="45.61022" lon="6.06299">
        <ele>1282.0554</ele>
        <time>2011-06-12T10:31:41Z</time>
      </trkpt>
      <trkpt lat="45.61026" lon="6.06297">
        <ele>1282.5361</ele>
        <time>2011-06-12T10:31:43Z</time>
      </trkpt>
      <trkpt lat="45.6103" lon="6.06298">
        <ele>1285.9006</ele>
        <time>2011-06-12T10:31:44Z</time>
      </trkpt>
      <trkpt lat="45.61035" lon="6.06295">
        <ele>1285.4199</ele>
        <time>2011-06-12T10:31:47Z</time>
      </trkpt>
      <trkpt lat="45.61042" lon="6.06289">
        <ele>1283.4973</ele>
        <time>2011-06-12T10:31:50Z</time>
      </trkpt>
      <trkpt lat="45.61044" lon="6.0629">
        <ele>1285.9006</ele>
        <time>2011-06-12T10:31:51Z</time>
      </trkpt>
      <trkpt lat="45.61047" lon="6.06293">
        <ele>1290.2265</ele>
        <time>2011-06-12T10:31:52Z</time>
      </trkpt>
      <trkpt lat="45.61051" lon="6.06293">
        <ele>1292.6301</ele>
        <time>2011-06-12T10:31:53Z</time>
      </trkpt>
      <trkpt lat="45.61053" lon="6.06293">
        <ele>1293.1105</ele>
        <time>2011-06-12T10:31:54Z</time>
      </trkpt>
      <trkpt lat="45.61059" lon="6.06292">
        <ele>1293.5913</ele>
        <time>2011-06-12T10:31:57Z</time>
      </trkpt>
      <trkpt lat="45.61063" lon="6.06293">
        <ele>1296.9558</ele>
        <time>2011-06-12T10:31:58Z</time>
      </trkpt>
      <trkpt lat="45.61068" lon="6.06292">
        <ele>1296.9558</ele>
        <time>2011-06-12T10:32:01Z</time>
      </trkpt>
      <trkpt lat="45.61071" lon="6.06291">
        <ele>1295.9946</ele>
        <time>2011-06-12T10:32:01Z</time>
      </trkpt>
      <trkpt lat="45.61075" lon="6.06291">
        <ele>1295.5139</ele>
        <time>2011-06-12T10:32:03Z</time>
      </trkpt>
      <trkpt lat="45.6108" lon="6.0629">
        <ele>1295.0332</ele>
        <time>2011-06-12T10:32:05Z</time>
      </trkpt>
      <trkpt lat="45.61085" lon="6.06288">
        <ele>1295.5139</ele>
        <time>2011-06-12T10:32:07Z</time>
      </trkpt>
      <trkpt lat="45.61092" lon="6.06284">
        <ele>1295.9946</ele>
        <time>2011-06-12T10:32:10Z</time>
      </trkpt>
      <trkpt lat="45.61097" lon="6.06284">
        <ele>1298.8784</ele>
        <time>2011-06-12T10:32:12Z</time>
      </trkpt>
      <trkpt lat="45.61102" lon="6.06283">
        <ele>1302.7236</ele>
        <time>2011-06-12T10:32:14Z</time>
      </trkpt>
      <trkpt lat="45.61108" lon="6.06281">
        <ele>1302.7236</ele>
        <time>2011-06-12T10:32:17Z</time>
      </trkpt>
      <trkpt lat="45.61111" lon="6.06284">
        <ele>1304.6462</ele>
        <time>2011-06-12T10:32:18Z</time>
      </trkpt>
      <trkpt lat="45.61112" lon="6.06286">
        <ele>1310.4143</ele>
        <time>2011-06-12T10:32:19Z</time>
      </trkpt>
      <trkpt lat="45.61114" lon="6.06286">
        <ele>1308.9724</ele>
        <time>2011-06-12T10:32:20Z</time>
      </trkpt>
      <trkpt lat="45.6112" lon="6.06289">
        <ele>1306.5688</ele>
        <time>2011-06-12T10:32:22Z</time>
      </trkpt>
      <trkpt lat="45.61121" lon="6.06293">
        <ele>1304.6462</ele>
        <time>2011-06-12T10:32:24Z</time>
      </trkpt>
      <trkpt lat="45.61123" lon="6.06301">
        <ele>1302.7236</ele>
        <time>2011-06-12T10:32:26Z</time>
      </trkpt>
      <trkpt lat="45.61128" lon="6.06307">
        <ele>1300.801</ele>
        <time>2011-06-12T10:32:29Z</time>
      </trkpt>
      <trkpt lat="45.61134" lon="6.06311">
        <ele>1301.2817</ele>
        <time>2011-06-12T10:32:31Z</time>
      </trkpt>
      <trkpt lat="45.6114" lon="6.06314">
        <ele>1302.7236</ele>
        <time>2011-06-12T10:32:34Z</time>
      </trkpt>
      <trkpt lat="45.61143" lon="6.06315">
        <ele>1301.7624</ele>
        <time>2011-06-12T10:32:35Z</time>
      </trkpt>
      <trkpt lat="45.61144" lon="6.06317">
        <ele>1300.801</ele>
        <time>2011-06-12T10:32:36Z</time>
      </trkpt>
      <trkpt lat="45.61146" lon="6.06322">
        <ele>1296.4753</ele>
        <time>2011-06-12T10:32:37Z</time>
      </trkpt>
      <trkpt lat="45.61149" lon="6.06319">
        <ele>1295.9946</ele>
        <time>2011-06-12T10:32:39Z</time>
      </trkpt>
      <trkpt lat="45.61151" lon="6.06318">
        <ele>1295.0332</ele>
        <time>2011-06-12T10:32:40Z</time>
      </trkpt>
      <trkpt lat="45.61153" lon="6.06321">
        <ele>1298.8784</ele>
        <time>2011-06-12T10:32:41Z</time>
      </trkpt>
      <trkpt lat="45.61158" lon="6.06323">
        <ele>1302.7236</ele>
        <time>2011-06-12T10:32:43Z</time>
      </trkpt>
      <trkpt lat="45.61163" lon="6.06323">
        <ele>1304.1657</ele>
        <time>2011-06-12T10:32:45Z</time>
      </trkpt>
      <trkpt lat="45.6117" lon="6.06324">
        <ele>1305.6076</ele>
        <time>2011-06-12T10:32:47Z</time>
      </trkpt>
      <trkpt lat="45.61173" lon="6.06323">
        <ele>1305.6076</ele>
        <time>2011-06-12T10:32:49Z</time>
      </trkpt>
      <trkpt lat="45.61174" lon="6.06322">
        <ele>1304.1657</ele>
        <time>2011-06-12T10:32:49Z</time>
      </trkpt>
      <trkpt lat="45.61178" lon="6.06322">
        <ele>1305.6076</ele>
        <time>2011-06-12T10:32:51Z</time>
      </trkpt>
      <trkpt lat="45.61185" lon="6.06322">
        <ele>1306.5688</ele>
        <time>2011-06-12T10:32:54Z</time>
      </trkpt>
      <trkpt lat="45.61187" lon="6.06322">
        <ele>1306.5688</ele>
        <time>2011-06-12T10:32:54Z</time>
      </trkpt>
      <trkpt lat="45.61187" lon="6.06321">
        <ele>1306.5688</ele>
        <time>2011-06-12T10:32:55Z</time>
      </trkpt>
      <trkpt lat="45.61187" lon="6.06321">
        <ele>1306.0881</ele>
        <time>2011-06-12T10:32:55Z</time>
      </trkpt>
      <trkpt lat="45.61187" lon="6.06321">
        <ele>1306.0881</ele>
        <time>2011-06-12T10:32:55Z</time>
      </trkpt>
      <trkpt lat="45.61187" lon="6.06321">
        <ele>1306.5688</ele>
        <time>2011-06-12T10:32:55Z</time>
      </trkpt>
      <trkpt lat="45.61187" lon="6.06322">
        <ele>1308.0112</ele>
        <time>2011-06-12T10:32:55Z</time>
      </trkpt>
      <trkpt lat="45.61191" lon="6.06321">
        <ele>1308.4916</ele>
        <time>2011-06-12T10:32:57Z</time>
      </trkpt>
      <trkpt lat="45.61198" lon="6.06319">
        <ele>1308.4916</ele>
        <time>2011-06-12T10:33:00Z</time>
      </trkpt>
      <trkpt lat="45.6121" lon="6.06318">
        <ele>1308.9724</ele>
        <time>2011-06-12T10:33:05Z</time>
      </trkpt>
      <trkpt lat="45.61216" lon="6.06318">
        <ele>1308.4916</ele>
        <time>2011-06-12T10:33:07Z</time>
      </trkpt>
      <trkpt lat="45.6122" lon="6.06319">
        <ele>1309.4531</ele>
        <time>2011-06-12T10:33:09Z</time>
      </trkpt>
      <trkpt lat="45.61229" lon="6.06319">
        <ele>1309.9335</ele>
        <time>2011-06-12T10:33:12Z</time>
      </trkpt>
      <trkpt lat="45.61234" lon="6.0632">
        <ele>1309.9335</ele>
        <time>2011-06-12T10:33:14Z</time>
      </trkpt>
      <trkpt lat="45.61238" lon="6.06321">
        <ele>1309.4531</ele>
        <time>2011-06-12T10:33:16Z</time>
      </trkpt>
      <trkpt lat="45.61249" lon="6.06324">
        <ele>1308.9724</ele>
        <time>2011-06-12T10:33:20Z</time>
      </trkpt>
      <trkpt lat="45.61264" lon="6.06327">
        <ele>1305.6076</ele>
        <time>2011-06-12T10:33:26Z</time>
      </trkpt>
      <trkpt lat="45.61272" lon="6.06335">
        <ele>1306.0881</ele>
        <time>2011-06-12T10:33:31Z</time>
      </trkpt>
      <trkpt lat="45.61284" lon="6.06345">
        <ele>1308.9724</ele>
        <time>2011-06-12T10:33:36Z</time>
      </trkpt>
      <trkpt lat="45.61292" lon="6.06349">
        <ele>1310.4143</ele>
        <time>2011-06-12T10:33:39Z</time>
      </trkpt>
      <trkpt lat="45.61302" lon="6.06354">
        <ele>1312.8176</ele>
        <time>2011-06-12T10:33:43Z</time>
      </trkpt>
      <trkpt lat="45.6131" lon="6.06359">
        <ele>1311.3757</ele>
        <time>2011-06-12T10:33:47Z</time>
      </trkpt>
      <trkpt lat="45.61313" lon="6.06361">
        <ele>1309.4531</ele>
        <time>2011-06-12T10:33:48Z</time>
      </trkpt>
      <trkpt lat="45.61325" lon="6.06369">
        <ele>1307.0495</ele>
        <time>2011-06-12T10:33:54Z</time>
      </trkpt>
      <trkpt lat="45.6133" lon="6.06373">
        <ele>1307.5302</ele>
        <time>2011-06-12T10:33:56Z</time>
      </trkpt>
      <trkpt lat="45.61344" lon="6.06384">
        <ele>1307.0495</ele>
        <time>2011-06-12T10:34:02Z</time>
      </trkpt>
      <trkpt lat="45.61356" lon="6.0639">
        <ele>1307.0495</ele>
        <time>2011-06-12T10:34:07Z</time>
      </trkpt>
      <trkpt lat="45.61358" lon="6.06392">
        <ele>1307.0495</ele>
        <time>2011-06-12T10:34:08Z</time>
      </trkpt>
      <trkpt lat="45.61357" lon="6.06408">
        <ele>1316.1821</ele>
        <time>2011-06-12T10:34:13Z</time>
      </trkpt>
      <trkpt lat="45.61363" lon="6.06399">
        <ele>1309.4531</ele>
        <time>2011-06-12T10:34:17Z</time>
      </trkpt>
      <trkpt lat="45.61362" lon="6.06403">
        <ele>1316.1821</ele>
        <time>2011-06-12T10:34:18Z</time>
      </trkpt>
      <trkpt lat="45.61358" lon="6.06409">
        <ele>1329.6406</ele>
        <time>2011-06-12T10:34:20Z</time>
      </trkpt>
      <trkpt lat="45.61366" lon="6.06406">
        <ele>1322.9113</ele>
        <time>2011-06-12T10:34:23Z</time>
      </trkpt>
      <trkpt lat="45.61372" lon="6.06399">
        <ele>1308.9724</ele>
        <time>2011-06-12T10:34:27Z</time>
      </trkpt>
      <trkpt lat="45.6137" lon="6.06392">
        <ele>1305.6076</ele>
        <time>2011-06-12T10:34:29Z</time>
      </trkpt>
      <trkpt lat="45.61369" lon="6.06391">
        <ele>1301.7624</ele>
        <time>2011-06-12T10:34:29Z</time>
      </trkpt>
      <trkpt lat="45.61368" lon="6.06393">
        <ele>1303.2043</ele>
        <time>2011-06-12T10:34:30Z</time>
      </trkpt>
      <trkpt lat="45.61367" lon="6.06392">
        <ele>1302.7236</ele>
        <time>2011-06-12T10:34:30Z</time>
      </trkpt>
      <trkpt lat="45.61365" lon="6.06393">
        <ele>1303.2043</ele>
        <time>2011-06-12T10:34:31Z</time>
      </trkpt>
      <trkpt lat="45.61365" lon="6.06392">
        <ele>1303.2043</ele>
        <time>2011-06-12T10:34:31Z</time>
      </trkpt>
      <trkpt lat="45.61366" lon="6.06397">
        <ele>1309.4531</ele>
        <time>2011-06-12T10:34:32Z</time>
      </trkpt>
      <trkpt lat="45.6137" lon="6.06404">
        <ele>1314.7402</ele>
        <time>2011-06-12T10:34:35Z</time>
      </trkpt>
      <trkpt lat="45.61377" lon="6.06409">
        <ele>1314.7402</ele>
        <time>2011-06-12T10:34:38Z</time>
      </trkpt>
      <trkpt lat="45.61389" lon="6.06413">
        <ele>1309.4531</ele>
        <time>2011-06-12T10:34:43Z</time>
      </trkpt>
      <trkpt lat="45.61395" lon="6.06414">
        <ele>1308.9724</ele>
        <time>2011-06-12T10:34:45Z</time>
      </trkpt>
      <trkpt lat="45.61401" lon="6.06413">
        <ele>1308.9724</ele>
        <time>2011-06-12T10:34:48Z</time>
      </trkpt>
      <trkpt lat="45.61407" lon="6.06414">
        <ele>1308.4916</ele>
        <time>2011-06-12T10:34:50Z</time>
      </trkpt>
      <trkpt lat="45.61408" lon="6.06414">
        <ele>1307.5302</ele>
        <time>2011-06-12T10:34:51Z</time>
      </trkpt>
      <trkpt lat="45.61415" lon="6.06416">
        <ele>1307.5302</ele>
        <time>2011-06-12T10:34:54Z</time>
      </trkpt>
      <trkpt lat="45.61424" lon="6.06417">
        <ele>1310.4143</ele>
        <time>2011-06-12T10:34:57Z</time>
      </trkpt>
      <trkpt lat="45.61425" lon="6.0642">
        <ele>1315.2209</ele>
        <time>2011-06-12T10:34:58Z</time>
      </trkpt>
      <trkpt lat="45.61427" lon="6.06424">
        <ele>1321.9499</ele>
        <time>2011-06-12T10:34:59Z</time>
      </trkpt>
      <trkpt lat="45.61431" lon="6.06424">
        <ele>1321.9499</ele>
        <time>2011-06-12T10:35:01Z</time>
      </trkpt>
      <trkpt lat="45.61435" lon="6.06428">
        <ele>1324.8342</ele>
        <time>2011-06-12T10:35:03Z</time>
      </trkpt>
      <trkpt lat="45.61441" lon="6.0643">
        <ele>1322.4306</ele>
        <time>2011-06-12T10:35:05Z</time>
      </trkpt>
      <trkpt lat="45.61447" lon="6.06439">
        <ele>1324.3535</ele>
        <time>2011-06-12T10:35:09Z</time>
      </trkpt>
      <trkpt lat="45.61459" lon="6.06449">
        <ele>1324.8342</ele>
        <time>2011-06-12T10:35:15Z</time>
      </trkpt>
      <trkpt lat="45.61474" lon="6.06455">
        <ele>1322.4306</ele>
        <time>2011-06-12T10:35:21Z</time>
      </trkpt>
      <trkpt lat="45.61481" lon="6.06454">
        <ele>1318.1047</ele>
        <time>2011-06-12T10:35:24Z</time>
      </trkpt>
      <trkpt lat="45.61487" lon="6.06457">
        <ele>1317.1435</ele>
        <time>2011-06-12T10:35:26Z</time>
      </trkpt>
      <trkpt lat="45.61492" lon="6.06462">
        <ele>1321.4692</ele>
        <time>2011-06-12T10:35:28Z</time>
      </trkpt>
      <trkpt lat="45.61496" lon="6.06463">
        <ele>1316.1821</ele>
        <time>2011-06-12T10:35:30Z</time>
      </trkpt>
      <trkpt lat="45.61496" lon="6.06463">
        <ele>1319.5468</ele>
        <time>2011-06-12T10:35:30Z</time>
      </trkpt>
      <trkpt lat="45.61497" lon="6.06463">
        <ele>1321.4692</ele>
        <time>2011-06-12T10:35:31Z</time>
      </trkpt>
      <trkpt lat="45.61499" lon="6.06463">
        <ele>1321.4692</ele>
        <time>2011-06-12T10:35:32Z</time>
      </trkpt>
      <trkpt lat="45.61497" lon="6.06462">
        <ele>1324.3535</ele>
        <time>2011-06-12T10:35:32Z</time>
      </trkpt>
      <trkpt lat="45.615" lon="6.06462">
        <ele>1321.9499</ele>
        <time>2011-06-12T10:35:34Z</time>
      </trkpt>
      <trkpt lat="45.61502" lon="6.06464">
        <ele>1322.4306</ele>
        <time>2011-06-12T10:35:35Z</time>
      </trkpt>
      <trkpt lat="45.61506" lon="6.06465">
        <ele>1322.9113</ele>
        <time>2011-06-12T10:35:36Z</time>
      </trkpt>
      <trkpt lat="45.61507" lon="6.06465">
        <ele>1322.9113</ele>
        <time>2011-06-12T10:35:37Z</time>
      </trkpt>
      <trkpt lat="45.61512" lon="6.06469">
        <ele>1325.7954</ele>
        <time>2011-06-12T10:35:39Z</time>
      </trkpt>
      <trkpt lat="45.61515" lon="6.06469">
        <ele>1326.2761</ele>
        <time>2011-06-12T10:35:40Z</time>
      </trkpt>
      <trkpt lat="45.61519" lon="6.06468">
        <ele>1326.7568</ele>
        <time>2011-06-12T10:35:42Z</time>
      </trkpt>
      <trkpt lat="45.61522" lon="6.06467">
        <ele>1327.718</ele>
        <time>2011-06-12T10:35:43Z</time>
      </trkpt>
      <trkpt lat="45.61524" lon="6.06467">
        <ele>1327.718</ele>
        <time>2011-06-12T10:35:44Z</time>
      </trkpt>
      <trkpt lat="45.61526" lon="6.06467">
        <ele>1327.2375</ele>
        <time>2011-06-12T10:35:45Z</time>
      </trkpt>
      <trkpt lat="45.61527" lon="6.06467">
        <ele>1326.2761</ele>
        <time>2011-06-12T10:35:45Z</time>
      </trkpt>
      <trkpt lat="45.61535" lon="6.06467">
        <ele>1321.4692</ele>
        <time>2011-06-12T10:35:48Z</time>
      </trkpt>
      <trkpt lat="45.61549" lon="6.06473">
        <ele>1318.5854</ele>
        <time>2011-06-12T10:35:54Z</time>
      </trkpt>
      <trkpt lat="45.61558" lon="6.06475">
        <ele>1320.9887</ele>
        <time>2011-06-12T10:35:58Z</time>
      </trkpt>
      <trkpt lat="45.61565" lon="6.06479">
        <ele>1323.392</ele>
        <time>2011-06-12T10:36:01Z</time>
      </trkpt>
      <trkpt lat="45.61567" lon="6.06481">
        <ele>1323.8725</ele>
        <time>2011-06-12T10:36:02Z</time>
      </trkpt>
      <trkpt lat="45.61572" lon="6.06477">
        <ele>1320.0273</ele>
        <time>2011-06-12T10:36:04Z</time>
      </trkpt>
      <trkpt lat="45.61577" lon="6.06481">
        <ele>1321.4692</ele>
        <time>2011-06-12T10:36:06Z</time>
      </trkpt>
      <trkpt lat="45.61584" lon="6.06483">
        <ele>1319.5468</ele>
        <time>2011-06-12T10:36:09Z</time>
      </trkpt>
      <trkpt lat="45.6159" lon="6.06488">
        <ele>1319.5468</ele>
        <time>2011-06-12T10:36:12Z</time>
      </trkpt>
      <trkpt lat="45.61598" lon="6.06492">
        <ele>1318.1047</ele>
        <time>2011-06-12T10:36:15Z</time>
      </trkpt>
      <trkpt lat="45.61605" lon="6.06498">
        <ele>1317.1435</ele>
        <time>2011-06-12T10:36:18Z</time>
      </trkpt>
      <trkpt lat="45.61614" lon="6.06512">
        <ele>1318.5854</ele>
        <time>2011-06-12T10:36:24Z</time>
      </trkpt>
      <trkpt lat="45.61617" lon="6.06513">
        <ele>1317.1435</ele>
        <time>2011-06-12T10:36:25Z</time>
      </trkpt>
      <trkpt lat="45.61622" lon="6.06519">
        <ele>1320.0273</ele>
        <time>2011-06-12T10:36:28Z</time>
      </trkpt>
      <trkpt lat="45.61627" lon="6.06523">
        <ele>1322.4306</ele>
        <time>2011-06-12T10:36:30Z</time>
      </trkpt>
      <trkpt lat="45.61628" lon="6.06536">
        <ele>1331.0827</ele>
        <time>2011-06-12T10:36:34Z</time>
      </trkpt>
      <trkpt lat="45.61639" lon="6.06538">
        <ele>1326.7568</ele>
        <time>2011-06-12T10:36:38Z</time>
      </trkpt>
      <trkpt lat="45.61646" lon="6.06544">
        <ele>1326.2761</ele>
        <time>2011-06-12T10:36:41Z</time>
      </trkpt>
      <trkpt lat="45.61651" lon="6.0655">
        <ele>1328.1987</ele>
        <time>2011-06-12T10:36:44Z</time>
      </trkpt>
      <trkpt lat="45.61652" lon="6.06553">
        <ele>1329.6406</ele>
        <time>2011-06-12T10:36:45Z</time>
      </trkpt>
      <trkpt lat="45.61653" lon="6.06556">
        <ele>1329.6406</ele>
        <time>2011-06-12T10:36:46Z</time>
      </trkpt>
      <trkpt lat="45.6166" lon="6.06562">
        <ele>1329.1599</ele>
        <time>2011-06-12T10:36:49Z</time>
      </trkpt>
      <trkpt lat="45.61664" lon="6.06567">
        <ele>1328.1987</ele>
        <time>2011-06-12T10:36:51Z</time>
      </trkpt>
      <trkpt lat="45.61678" lon="6.06571">
        <ele>1324.3535</ele>
        <time>2011-06-12T10:36:57Z</time>
      </trkpt>
      <trkpt lat="45.61688" lon="6.06576">
        <ele>1322.4306</ele>
        <time>2011-06-12T10:37:01Z</time>
      </trkpt>
      <trkpt lat="45.61691" lon="6.06579">
        <ele>1322.9113</ele>
        <time>2011-06-12T10:37:03Z</time>
      </trkpt>
      <trkpt lat="45.61693" lon="6.06582">
        <ele>1323.8725</ele>
        <time>2011-06-12T10:37:04Z</time>
      </trkpt>
      <trkpt lat="45.61696" lon="6.06585">
        <ele>1328.1987</ele>
        <time>2011-06-12T10:37:05Z</time>
      </trkpt>
      <trkpt lat="45.61698" lon="6.06587">
        <ele>1332.0439</ele>
        <time>2011-06-12T10:37:06Z</time>
      </trkpt>
      <trkpt lat="45.61702" lon="6.06588">
        <ele>1331.0827</ele>
        <time>2011-06-12T10:37:08Z</time>
      </trkpt>
      <trkpt lat="45.61708" lon="6.06589">
        <ele>1329.6406</ele>
        <time>2011-06-12T10:37:10Z</time>
      </trkpt>
      <trkpt lat="45.6171" lon="6.06593">
        <ele>1330.1213</ele>
        <time>2011-06-12T10:37:12Z</time>
      </trkpt>
      <trkpt lat="45.61712" lon="6.06595">
        <ele>1334.4472</ele>
        <time>2011-06-12T10:37:13Z</time>
      </trkpt>
      <trkpt lat="45.61715" lon="6.06598">
        <ele>1337.331</ele>
        <time>2011-06-12T10:37:14Z</time>
      </trkpt>
      <trkpt lat="45.61714" lon="6.066">
        <ele>1338.2924</ele>
        <time>2011-06-12T10:37:15Z</time>
      </trkpt>
      <trkpt lat="45.61715" lon="6.06599">
        <ele>1336.3698</ele>
        <time>2011-06-12T10:37:15Z</time>
      </trkpt>
      <trkpt lat="45.61716" lon="6.06596">
        <ele>1333.0051</ele>
        <time>2011-06-12T10:37:16Z</time>
      </trkpt>
      <trkpt lat="45.61719" lon="6.06593">
        <ele>1333.4858</ele>
        <time>2011-06-12T10:37:17Z</time>
      </trkpt>
      <trkpt lat="45.6172" lon="6.06592">
        <ele>1336.8503</ele>
        <time>2011-06-12T10:37:18Z</time>
      </trkpt>
      <trkpt lat="45.61723" lon="6.06591">
        <ele>1339.2536</ele>
        <time>2011-06-12T10:37:19Z</time>
      </trkpt>
      <trkpt lat="45.61724" lon="6.06591">
        <ele>1343.0991</ele>
        <time>2011-06-12T10:37:20Z</time>
      </trkpt>
      <trkpt lat="45.61729" lon="6.06587">
        <ele>1340.6958</ele>
        <time>2011-06-12T10:37:22Z</time>
      </trkpt>
      <trkpt lat="45.61734" lon="6.06585">
        <ele>1339.2536</ele>
        <time>2011-06-12T10:37:24Z</time>
      </trkpt>
      <trkpt lat="45.61737" lon="6.06583">
        <ele>1341.6572</ele>
        <time>2011-06-12T10:37:25Z</time>
      </trkpt>
      <trkpt lat="45.6174" lon="6.06581">
        <ele>1342.6186</ele>
        <time>2011-06-12T10:37:27Z</time>
      </trkpt>
      <trkpt lat="45.61745" lon="6.06584">
        <ele>1345.0217</ele>
        <time>2011-06-12T10:37:29Z</time>
      </trkpt>
      <trkpt lat="45.61745" lon="6.06584">
        <ele>1345.9831</ele>
        <time>2011-06-12T10:37:29Z</time>
      </trkpt>
      <trkpt lat="45.61745" lon="6.06584">
        <ele>1348.8669</ele>
        <time>2011-06-12T10:37:29Z</time>
      </trkpt>
      <trkpt lat="45.61743" lon="6.06588">
        <ele>1355.5961</ele>
        <time>2011-06-12T10:37:30Z</time>
      </trkpt>
      <trkpt lat="45.61743" lon="6.0659">
        <ele>1352.7121</ele>
        <time>2011-06-12T10:37:31Z</time>
      </trkpt>
      <trkpt lat="45.61743" lon="6.06588">
        <ele>1353.6735</ele>
        <time>2011-06-12T10:37:31Z</time>
      </trkpt>
      <trkpt lat="45.61747" lon="6.06581">
        <ele>1346.4638</ele>
        <time>2011-06-12T10:37:34Z</time>
      </trkpt>
      <trkpt lat="45.61747" lon="6.06581">
        <ele>1344.0605</ele>
        <time>2011-06-12T10:37:34Z</time>
      </trkpt>
      <trkpt lat="45.61749" lon="6.06579">
        <ele>1341.1765</ele>
        <time>2011-06-12T10:37:35Z</time>
      </trkpt>
      <trkpt lat="45.61751" lon="6.06578">
        <ele>1339.7343</ele>
        <time>2011-06-12T10:37:36Z</time>
      </trkpt>
      <trkpt lat="45.61753" lon="6.06576">
        <ele>1338.2924</ele>
        <time>2011-06-12T10:37:37Z</time>
      </trkpt>
      <trkpt lat="45.61755" lon="6.06571">
        <ele>1342.1379</ele>
        <time>2011-06-12T10:37:38Z</time>
      </trkpt>
      <trkpt lat="45.61755" lon="6.0657">
        <ele>1345.0217</ele>
        <time>2011-06-12T10:37:39Z</time>
      </trkpt>
      <trkpt lat="45.61754" lon="6.06571">
        <ele>1346.9443</ele>
        <time>2011-06-12T10:37:39Z</time>
      </trkpt>
      <trkpt lat="45.6175" lon="6.06573">
        <ele>1345.0217</ele>
        <time>2011-06-12T10:37:41Z</time>
      </trkpt>
      <trkpt lat="45.61749" lon="6.06573">
        <ele>1344.541</ele>
        <time>2011-06-12T10:37:42Z</time>
      </trkpt>
      <trkpt lat="45.61748" lon="6.06575">
        <ele>1345.5024</ele>
        <time>2011-06-12T10:37:42Z</time>
      </trkpt>
      <trkpt lat="45.61748" lon="6.06573">
        <ele>1343.5798</ele>
        <time>2011-06-12T10:37:43Z</time>
      </trkpt>
      <trkpt lat="45.61747" lon="6.06576">
        <ele>1344.0605</ele>
        <time>2011-06-12T10:37:44Z</time>
      </trkpt>
      <trkpt lat="45.61746" lon="6.06582">
        <ele>1348.8669</ele>
        <time>2011-06-12T10:37:46Z</time>
      </trkpt>
      <trkpt lat="45.61744" lon="6.06583">
        <ele>1349.3476</ele>
        <time>2011-06-12T10:37:46Z</time>
      </trkpt>
      <trkpt lat="45.61744" lon="6.06582">
        <ele>1348.3862</ele>
        <time>2011-06-12T10:37:47Z</time>
      </trkpt>
      <trkpt lat="45.61744" lon="6.06581">
        <ele>1346.9443</ele>
        <time>2011-06-12T10:37:47Z</time>
      </trkpt>
      <trkpt lat="45.61745" lon="6.06577">
        <ele>1345.5024</ele>
        <time>2011-06-12T10:37:48Z</time>
      </trkpt>
      <trkpt lat="45.61748" lon="6.06578">
        <ele>1344.0605</ele>
        <time>2011-06-12T10:37:49Z</time>
      </trkpt>
      <trkpt lat="45.61747" lon="6.06579">
        <ele>1345.0217</ele>
        <time>2011-06-12T10:37:50Z</time>
      </trkpt>
      <trkpt lat="45.61742" lon="6.06578">
        <ele>1342.1379</ele>
        <time>2011-06-12T10:37:52Z</time>
      </trkpt>
      <trkpt lat="45.61739" lon="6.06579">
        <ele>1339.2536</ele>
        <time>2011-06-12T10:37:53Z</time>
      </trkpt>
      <trkpt lat="45.61735" lon="6.06582">
        <ele>1339.2536</ele>
        <time>2011-06-12T10:37:55Z</time>
      </trkpt>
      <trkpt lat="45.61732" lon="6.06583">
        <ele>1333.9665</ele>
        <time>2011-06-12T10:37:56Z</time>
      </trkpt>
      <trkpt lat="45.61729" lon="6.06585">
        <ele>1332.5246</ele>
        <time>2011-06-12T10:37:57Z</time>
      </trkpt>
      <trkpt lat="45.61726" lon="6.06588">
        <ele>1331.5632</ele>
        <time>2011-06-12T10:37:59Z</time>
      </trkpt>
      <trkpt lat="45.61722" lon="6.0659">
        <ele>1332.0439</ele>
        <time>2011-06-12T10:38:01Z</time>
      </trkpt>
      <trkpt lat="45.61718" lon="6.0659">
        <ele>1327.2375</ele>
        <time>2011-06-12T10:38:02Z</time>
      </trkpt>
      <trkpt lat="45.61714" lon="6.06588">
        <ele>1324.8342</ele>
        <time>2011-06-12T10:38:04Z</time>
      </trkpt>
      <trkpt lat="45.61709" lon="6.06583">
        <ele>1320.9887</ele>
        <time>2011-06-12T10:38:06Z</time>
      </trkpt>
      <trkpt lat="45.61705" lon="6.06581">
        <ele>1318.1047</ele>
        <time>2011-06-12T10:38:08Z</time>
      </trkpt>
      <trkpt lat="45.617" lon="6.06581">
        <ele>1319.0661</ele>
        <time>2011-06-12T10:38:10Z</time>
      </trkpt>
      <trkpt lat="45.61697" lon="6.0658">
        <ele>1319.0661</ele>
        <time>2011-06-12T10:38:11Z</time>
      </trkpt>
      <trkpt lat="45.61692" lon="6.06575">
        <ele>1318.1047</ele>
        <time>2011-06-12T10:38:14Z</time>
      </trkpt>
      <trkpt lat="45.61689" lon="6.06574">
        <ele>1318.5854</ele>
        <time>2011-06-12T10:38:15Z</time>
      </trkpt>
      <trkpt lat="45.61683" lon="6.06572">
        <ele>1320.508</ele>
        <time>2011-06-12T10:38:17Z</time>
      </trkpt>
      <trkpt lat="45.6168" lon="6.06569">
        <ele>1316.6628</ele>
        <time>2011-06-12T10:38:19Z</time>
      </trkpt>
      <trkpt lat="45.61679" lon="6.06567">
        <ele>1317.624</ele>
        <time>2011-06-12T10:38:20Z</time>
      </trkpt>
      <trkpt lat="45.61673" lon="6.06567">
        <ele>1324.8342</ele>
        <time>2011-06-12T10:38:22Z</time>
      </trkpt>
      <trkpt lat="45.61669" lon="6.06564">
        <ele>1327.2375</ele>
        <time>2011-06-12T10:38:24Z</time>
      </trkpt>
      <trkpt lat="45.61667" lon="6.06559">
        <ele>1324.8342</ele>
        <time>2011-06-12T10:38:25Z</time>
      </trkpt>
      <trkpt lat="45.61663" lon="6.06552">
        <ele>1321.9499</ele>
        <time>2011-06-12T10:38:28Z</time>
      </trkpt>
      <trkpt lat="45.6166" lon="6.06547">
        <ele>1319.5468</ele>
        <time>2011-06-12T10:38:30Z</time>
      </trkpt>
      <trkpt lat="45.61654" lon="6.06541">
        <ele>1318.5854</ele>
        <time>2011-06-12T10:38:33Z</time>
      </trkpt>
      <trkpt lat="45.61651" lon="6.06535">
        <ele>1316.1821</ele>
        <time>2011-06-12T10:38:35Z</time>
      </trkpt>
      <trkpt lat="45.61643" lon="6.06527">
        <ele>1316.1821</ele>
        <time>2011-06-12T10:38:39Z</time>
      </trkpt>
      <trkpt lat="45.61634" lon="6.06524">
        <ele>1315.2209</ele>
        <time>2011-06-12T10:38:42Z</time>
      </trkpt>
      <trkpt lat="45.61627" lon="6.06519">
        <ele>1313.7788</ele>
        <time>2011-06-12T10:38:45Z</time>
      </trkpt>
      <trkpt lat="45.61618" lon="6.06512">
        <ele>1313.2983</ele>
        <time>2011-06-12T10:38:49Z</time>
      </trkpt>
      <trkpt lat="45.61611" lon="6.06503">
        <ele>1315.2209</ele>
        <time>2011-06-12T10:38:53Z</time>
      </trkpt>
      <trkpt lat="45.61609" lon="6.06499">
        <ele>1314.7402</ele>
        <time>2011-06-12T10:38:55Z</time>
      </trkpt>
      <trkpt lat="45.61608" lon="6.06498">
        <ele>1314.7402</ele>
        <time>2011-06-12T10:38:55Z</time>
      </trkpt>
      <trkpt lat="45.61604" lon="6.06493">
        <ele>1315.7016</ele>
        <time>2011-06-12T10:38:57Z</time>
      </trkpt>
      <trkpt lat="45.61593" lon="6.06484">
        <ele>1314.2595</ele>
        <time>2011-06-12T10:39:02Z</time>
      </trkpt>
      <trkpt lat="45.61586" lon="6.06479">
        <ele>1313.2983</ele>
        <time>2011-06-12T10:39:06Z</time>
      </trkpt>
      <trkpt lat="45.61579" lon="6.06475">
        <ele>1311.8564</ele>
        <time>2011-06-12T10:39:09Z</time>
      </trkpt>
      <trkpt lat="45.61571" lon="6.06472">
        <ele>1310.895</ele>
        <time>2011-06-12T10:39:12Z</time>
      </trkpt>
      <trkpt lat="45.6157" lon="6.06472">
        <ele>1310.4143</ele>
        <time>2011-06-12T10:39:12Z</time>
      </trkpt>
      <trkpt lat="45.61561" lon="6.06475">
        <ele>1312.8176</ele>
        <time>2011-06-12T10:39:16Z</time>
      </trkpt>
      <trkpt lat="45.6155" lon="6.06472">
        <ele>1315.2209</ele>
        <time>2011-06-12T10:39:21Z</time>
      </trkpt>
      <trkpt lat="45.61541" lon="6.06469">
        <ele>1315.2209</ele>
        <time>2011-06-12T10:39:24Z</time>
      </trkpt>
      <trkpt lat="45.61535" lon="6.0646">
        <ele>1311.3757</ele>
        <time>2011-06-12T10:39:28Z</time>
      </trkpt>
      <trkpt lat="45.61531" lon="6.06459">
        <ele>1311.8564</ele>
        <time>2011-06-12T10:39:29Z</time>
      </trkpt>
      <trkpt lat="45.61526" lon="6.06461">
        <ele>1314.7402</ele>
        <time>2011-06-12T10:39:31Z</time>
      </trkpt>
      <trkpt lat="45.61517" lon="6.06462">
        <ele>1317.624</ele>
        <time>2011-06-12T10:39:35Z</time>
      </trkpt>
      <trkpt lat="45.61503" lon="6.06459">
        <ele>1314.2595</ele>
        <time>2011-06-12T10:39:40Z</time>
      </trkpt>
      <trkpt lat="45.61492" lon="6.06453">
        <ele>1308.4916</ele>
        <time>2011-06-12T10:39:45Z</time>
      </trkpt>
      <trkpt lat="45.61477" lon="6.06448">
        <ele>1304.6462</ele>
        <time>2011-06-12T10:39:51Z</time>
      </trkpt>
      <trkpt lat="45.61468" lon="6.06444">
        <ele>1307.5302</ele>
        <time>2011-06-12T10:39:55Z</time>
      </trkpt>
      <trkpt lat="45.61457" lon="6.06435">
        <ele>1308.4916</ele>
        <time>2011-06-12T10:40:00Z</time>
      </trkpt>
      <trkpt lat="45.61449" lon="6.06428">
        <ele>1308.4916</ele>
        <time>2011-06-12T10:40:04Z</time>
      </trkpt>
      <trkpt lat="45.61447" lon="6.06425">
        <ele>1309.9335</ele>
        <time>2011-06-12T10:40:05Z</time>
      </trkpt>
      <trkpt lat="45.61445" lon="6.06422">
        <ele>1313.7788</ele>
        <time>2011-06-12T10:40:06Z</time>
      </trkpt>
      <trkpt lat="45.61441" lon="6.06419">
        <ele>1313.7788</ele>
        <time>2011-06-12T10:40:08Z</time>
      </trkpt>
      <trkpt lat="45.61436" lon="6.06416">
        <ele>1314.7402</ele>
        <time>2011-06-12T10:40:10Z</time>
      </trkpt>
      <trkpt lat="45.61431" lon="6.06415">
        <ele>1310.895</ele>
        <time>2011-06-12T10:40:12Z</time>
      </trkpt>
      <trkpt lat="45.6142" lon="6.06412">
        <ele>1308.9724</ele>
        <time>2011-06-12T10:40:17Z</time>
      </trkpt>
      <trkpt lat="45.61393" lon="6.06408">
        <ele>1308.9724</ele>
        <time>2011-06-12T10:40:27Z</time>
      </trkpt>
      <trkpt lat="45.61381" lon="6.06404">
        <ele>1310.4143</ele>
        <time>2011-06-12T10:40:32Z</time>
      </trkpt>
      <trkpt lat="45.61372" lon="6.06398">
        <ele>1311.8564</ele>
        <time>2011-06-12T10:40:36Z</time>
      </trkpt>
      <trkpt lat="45.61366" lon="6.06396">
        <ele>1311.3757</ele>
        <time>2011-06-12T10:40:39Z</time>
      </trkpt>
      <trkpt lat="45.61356" lon="6.06393">
        <ele>1308.0112</ele>
        <time>2011-06-12T10:40:43Z</time>
      </trkpt>
      <trkpt lat="45.61355" lon="6.06395">
        <ele>1306.0881</ele>
        <time>2011-06-12T10:40:44Z</time>
      </trkpt>
      <trkpt lat="45.61358" lon="6.06398">
        <ele>1303.2043</ele>
        <time>2011-06-12T10:40:45Z</time>
      </trkpt>
      <trkpt lat="45.61366" lon="6.06408">
        <ele>1301.7624</ele>
        <time>2011-06-12T10:40:49Z</time>
      </trkpt>
      <trkpt lat="45.61367" lon="6.06408">
        <ele>1301.2817</ele>
        <time>2011-06-12T10:40:50Z</time>
      </trkpt>
      <trkpt lat="45.61378" lon="6.06415">
        <ele>1300.3205</ele>
        <time>2011-06-12T10:40:54Z</time>
      </trkpt>
      <trkpt lat="45.61386" lon="6.06418">
        <ele>1298.8784</ele>
        <time>2011-06-12T10:40:58Z</time>
      </trkpt>
      <trkpt lat="45.61388" lon="6.06419">
        <ele>1299.3591</ele>
        <time>2011-06-12T10:40:59Z</time>
      </trkpt>
      <trkpt lat="45.61392" lon="6.06421">
        <ele>1297.9172</ele>
        <time>2011-06-12T10:41:00Z</time>
      </trkpt>
      <trkpt lat="45.61398" lon="6.06427">
        <ele>1296.4753</ele>
        <time>2011-06-12T10:41:03Z</time>
      </trkpt>
      <trkpt lat="45.61404" lon="6.06437">
        <ele>1299.8398</ele>
        <time>2011-06-12T10:41:07Z</time>
      </trkpt>
      <trkpt lat="45.61409" lon="6.06439">
        <ele>1296.9558</ele>
        <time>2011-06-12T10:41:09Z</time>
      </trkpt>
      <trkpt lat="45.61409" lon="6.06442">
        <ele>1299.3591</ele>
        <time>2011-06-12T10:41:10Z</time>
      </trkpt>
      <trkpt lat="45.61406" lon="6.06445">
        <ele>1299.8398</ele>
        <time>2011-06-12T10:41:12Z</time>
      </trkpt>
      <trkpt lat="45.61405" lon="6.06446">
        <ele>1299.8398</ele>
        <time>2011-06-12T10:41:12Z</time>
      </trkpt>
      <trkpt lat="45.61402" lon="6.06452">
        <ele>1301.7624</ele>
        <time>2011-06-12T10:41:14Z</time>
      </trkpt>
      <trkpt lat="45.61401" lon="6.06459">
        <ele>1305.6076</ele>
        <time>2011-06-12T10:41:16Z</time>
      </trkpt>
      <trkpt lat="45.61402" lon="6.0646">
        <ele>1306.0881</ele>
        <time>2011-06-12T10:41:17Z</time>
      </trkpt>
      <trkpt lat="45.614" lon="6.06463">
        <ele>1305.6076</ele>
        <time>2011-06-12T10:41:18Z</time>
      </trkpt>
      <trkpt lat="45.61405" lon="6.06467">
        <ele>1305.1269</ele>
        <time>2011-06-12T10:41:20Z</time>
      </trkpt>
      <trkpt lat="45.61405" lon="6.06467">
        <ele>1305.1269</ele>
        <time>2011-06-12T10:41:20Z</time>
      </trkpt>
      <trkpt lat="45.61409" lon="6.06471">
        <ele>1303.685</ele>
        <time>2011-06-12T10:41:22Z</time>
      </trkpt>
      <trkpt lat="45.6141" lon="6.06472">
        <ele>1303.685</ele>
        <time>2011-06-12T10:41:22Z</time>
      </trkpt>
      <trkpt lat="45.61414" lon="6.06477">
        <ele>1302.7236</ele>
        <time>2011-06-12T10:41:24Z</time>
      </trkpt>
      <trkpt lat="45.61419" lon="6.06477">
        <ele>1302.2429</ele>
        <time>2011-06-12T10:41:26Z</time>
      </trkpt>
      <trkpt lat="45.61426" lon="6.06482">
        <ele>1299.3591</ele>
        <time>2011-06-12T10:41:29Z</time>
      </trkpt>
      <trkpt lat="45.61427" lon="6.06482">
        <ele>1298.3977</ele>
        <time>2011-06-12T10:41:30Z</time>
      </trkpt>
      <trkpt lat="45.61437" lon="6.06487">
        <ele>1295.0332</ele>
        <time>2011-06-12T10:41:34Z</time>
      </trkpt>
      <trkpt lat="45.61438" lon="6.06487">
        <ele>1294.5524</ele>
        <time>2011-06-12T10:41:34Z</time>
      </trkpt>
      <trkpt lat="45.61446" lon="6.06491">
        <ele>1295.9946</ele>
        <time>2011-06-12T10:41:38Z</time>
      </trkpt>
      <trkpt lat="45.6145" lon="6.06495">
        <ele>1297.9172</ele>
        <time>2011-06-12T10:41:40Z</time>
      </trkpt>
      <trkpt lat="45.61452" lon="6.06501">
        <ele>1298.3977</ele>
        <time>2011-06-12T10:41:41Z</time>
      </trkpt>
      <trkpt lat="45.61458" lon="6.06504">
        <ele>1298.3977</ele>
        <time>2011-06-12T10:41:44Z</time>
      </trkpt>
      <trkpt lat="45.61466" lon="6.06508">
        <ele>1297.4365</ele>
        <time>2011-06-12T10:41:47Z</time>
      </trkpt>
      <trkpt lat="45.61471" lon="6.0651">
        <ele>1296.4753</ele>
        <time>2011-06-12T10:41:49Z</time>
      </trkpt>
      <trkpt lat="45.61475" lon="6.06513">
        <ele>1295.9946</ele>
        <time>2011-06-12T10:41:51Z</time>
      </trkpt>
      <trkpt lat="45.61479" lon="6.06516">
        <ele>1297.4365</ele>
        <time>2011-06-12T10:41:53Z</time>
      </trkpt>
      <trkpt lat="45.61483" lon="6.06518">
        <ele>1298.3977</ele>
        <time>2011-06-12T10:41:55Z</time>
      </trkpt>
      <trkpt lat="45.61487" lon="6.0652">
        <ele>1295.0332</ele>
        <time>2011-06-12T10:41:56Z</time>
      </trkpt>
      <trkpt lat="45.61488" lon="6.06525">
        <ele>1295.0332</ele>
        <time>2011-06-12T10:41:58Z</time>
      </trkpt>
      <trkpt lat="45.61493" lon="6.06529">
        <ele>1292.6301</ele>
        <time>2011-06-12T10:42:00Z</time>
      </trkpt>
      <trkpt lat="45.61495" lon="6.06535">
        <ele>1292.1494</ele>
        <time>2011-06-12T10:42:02Z</time>
      </trkpt>
      <trkpt lat="45.61498" lon="6.06539">
        <ele>1295.0332</ele>
        <time>2011-06-12T10:42:04Z</time>
      </trkpt>
      <trkpt lat="45.61501" lon="6.0654">
        <ele>1294.5524</ele>
        <time>2011-06-12T10:42:05Z</time>
      </trkpt>
      <trkpt lat="45.61507" lon="6.06544">
        <ele>1290.2265</ele>
        <time>2011-06-12T10:42:07Z</time>
      </trkpt>
      <trkpt lat="45.61513" lon="6.06545">
        <ele>1285.4199</ele>
        <time>2011-06-12T10:42:10Z</time>
      </trkpt>
      <trkpt lat="45.61519" lon="6.06548">
        <ele>1283.978</ele>
        <time>2011-06-12T10:42:12Z</time>
      </trkpt>
      <trkpt lat="45.61526" lon="6.06552">
        <ele>1283.978</ele>
        <time>2011-06-12T10:42:15Z</time>
      </trkpt>
      <trkpt lat="45.61533" lon="6.0656">
        <ele>1284.4587</ele>
        <time>2011-06-12T10:42:19Z</time>
      </trkpt>
      <trkpt lat="45.61535" lon="6.06562">
        <ele>1283.4973</ele>
        <time>2011-06-12T10:42:20Z</time>
      </trkpt>
      <trkpt lat="45.61542" lon="6.06571">
        <ele>1278.6909</ele>
        <time>2011-06-12T10:42:24Z</time>
      </trkpt>
      <trkpt lat="45.61546" lon="6.06573">
        <ele>1275.3259</ele>
        <time>2011-06-12T10:42:25Z</time>
      </trkpt>
      <trkpt lat="45.61546" lon="6.06576">
        <ele>1274.3647</ele>
        <time>2011-06-12T10:42:26Z</time>
      </trkpt>
      <trkpt lat="45.61548" lon="6.06583">
        <ele>1271.0002</ele>
        <time>2011-06-12T10:42:28Z</time>
      </trkpt>
      <trkpt lat="45.61553" lon="6.06592">
        <ele>1269.5583</ele>
        <time>2011-06-12T10:42:31Z</time>
      </trkpt>
      <trkpt lat="45.61556" lon="6.066">
        <ele>1268.5969</ele>
        <time>2011-06-12T10:42:34Z</time>
      </trkpt>
      <trkpt lat="45.61562" lon="6.06607">
        <ele>1267.6354</ele>
        <time>2011-06-12T10:42:37Z</time>
      </trkpt>
      <trkpt lat="45.61567" lon="6.06614">
        <ele>1267.6354</ele>
        <time>2011-06-12T10:42:40Z</time>
      </trkpt>
      <trkpt lat="45.61571" lon="6.0662">
        <ele>1267.6354</ele>
        <time>2011-06-12T10:42:42Z</time>
      </trkpt>
      <trkpt lat="45.61574" lon="6.06626">
        <ele>1266.6743</ele>
        <time>2011-06-12T10:42:44Z</time>
      </trkpt>
      <trkpt lat="45.61579" lon="6.06632">
        <ele>1265.7131</ele>
        <time>2011-06-12T10:42:47Z</time>
      </trkpt>
      <trkpt lat="45.61586" lon="6.06637">
        <ele>1263.7902</ele>
        <time>2011-06-12T10:42:50Z</time>
      </trkpt>
      <trkpt lat="45.6159" lon="6.06642">
        <ele>1263.7902</ele>
        <time>2011-06-12T10:42:52Z</time>
      </trkpt>
      <trkpt lat="45.61595" lon="6.06646">
        <ele>1264.2709</ele>
        <time>2011-06-12T10:42:54Z</time>
      </trkpt>
      <trkpt lat="45.61601" lon="6.06653">
        <ele>1264.2709</ele>
        <time>2011-06-12T10:42:57Z</time>
      </trkpt>
      <trkpt lat="45.61604" lon="6.06656">
        <ele>1263.7902</ele>
        <time>2011-06-12T10:42:59Z</time>
      </trkpt>
      <trkpt lat="45.61608" lon="6.06659">
        <ele>1262.8291</ele>
        <time>2011-06-12T10:43:01Z</time>
      </trkpt>
      <trkpt lat="45.61614" lon="6.06664">
        <ele>1263.3098</ele>
        <time>2011-06-12T10:43:03Z</time>
      </trkpt>
      <trkpt lat="45.61614" lon="6.06665">
        <ele>1263.7902</ele>
        <time>2011-06-12T10:43:04Z</time>
      </trkpt>
      <trkpt lat="45.61616" lon="6.06666">
        <ele>1265.2324</ele>
        <time>2011-06-12T10:43:05Z</time>
      </trkpt>
      <trkpt lat="45.61617" lon="6.06667">
        <ele>1264.7517</ele>
        <time>2011-06-12T10:43:05Z</time>
      </trkpt>
      <trkpt lat="45.61623" lon="6.06676">
        <ele>1264.7517</ele>
        <time>2011-06-12T10:43:08Z</time>
      </trkpt>
      <trkpt lat="45.6163" lon="6.06682">
        <ele>1262.8291</ele>
        <time>2011-06-12T10:43:12Z</time>
      </trkpt>
      <trkpt lat="45.61644" lon="6.06697">
        <ele>1260.9064</ele>
        <time>2011-06-12T10:43:19Z</time>
      </trkpt>
      <trkpt lat="45.6165" lon="6.06704">
        <ele>1258.9836</ele>
        <time>2011-06-12T10:43:22Z</time>
      </trkpt>
      <trkpt lat="45.61652" lon="6.06706">
        <ele>1259.9448</ele>
        <time>2011-06-12T10:43:23Z</time>
      </trkpt>
      <trkpt lat="45.61656" lon="6.06713">
        <ele>1260.4257</ele>
        <time>2011-06-12T10:43:25Z</time>
      </trkpt>
      <trkpt lat="45.61658" lon="6.06716">
        <ele>1259.4643</ele>
        <time>2011-06-12T10:43:27Z</time>
      </trkpt>
      <trkpt lat="45.61663" lon="6.06725">
        <ele>1257.5417</ele>
        <time>2011-06-12T10:43:30Z</time>
      </trkpt>
      <trkpt lat="45.61665" lon="6.06729">
        <ele>1257.061</ele>
        <time>2011-06-12T10:43:31Z</time>
      </trkpt>
      <trkpt lat="45.61669" lon="6.06737">
        <ele>1255.6191</ele>
        <time>2011-06-12T10:43:34Z</time>
      </trkpt>
      <trkpt lat="45.6167" lon="6.06739">
        <ele>1256.0996</ele>
        <time>2011-06-12T10:43:34Z</time>
      </trkpt>
      <trkpt lat="45.61672" lon="6.06741">
        <ele>1255.6191</ele>
        <time>2011-06-12T10:43:35Z</time>
      </trkpt>
      <trkpt lat="45.61676" lon="6.06744">
        <ele>1255.1384</ele>
        <time>2011-06-12T10:43:37Z</time>
      </trkpt>
      <trkpt lat="45.6168" lon="6.06744">
        <ele>1250.8125</ele>
        <time>2011-06-12T10:43:39Z</time>
      </trkpt>
      <trkpt lat="45.61682" lon="6.06746">
        <ele>1250.8125</ele>
        <time>2011-06-12T10:43:40Z</time>
      </trkpt>
      <trkpt lat="45.61685" lon="6.06749">
        <ele>1249.3706</ele>
        <time>2011-06-12T10:43:41Z</time>
      </trkpt>
      <trkpt lat="45.6169" lon="6.0675">
        <ele>1246.9672</ele>
        <time>2011-06-12T10:43:43Z</time>
      </trkpt>
      <trkpt lat="45.61692" lon="6.06753">
        <ele>1246.9672</ele>
        <time>2011-06-12T10:43:44Z</time>
      </trkpt>
      <trkpt lat="45.61694" lon="6.06761">
        <ele>1249.8513</ele>
        <time>2011-06-12T10:43:47Z</time>
      </trkpt>
      <trkpt lat="45.61696" lon="6.06769">
        <ele>1250.8125</ele>
        <time>2011-06-12T10:43:49Z</time>
      </trkpt>
      <trkpt lat="45.61698" lon="6.0677">
        <ele>1246.4868</ele>
        <time>2011-06-12T10:43:50Z</time>
      </trkpt>
      <trkpt lat="45.61698" lon="6.06772">
        <ele>1246.4868</ele>
        <time>2011-06-12T10:43:50Z</time>
      </trkpt>
      <trkpt lat="45.61703" lon="6.0678">
        <ele>1241.1992</ele>
        <time>2011-06-12T10:43:53Z</time>
      </trkpt>
      <trkpt lat="45.61716" lon="6.06798">
        <ele>1233.5087</ele>
        <time>2011-06-12T10:44:00Z</time>
      </trkpt>
      <trkpt lat="45.6172" lon="6.06807">
        <ele>1233.9895</ele>
        <time>2011-06-12T10:44:04Z</time>
      </trkpt>
      <trkpt lat="45.61721" lon="6.06808">
        <ele>1233.5087</ele>
        <time>2011-06-12T10:44:04Z</time>
      </trkpt>
      <trkpt lat="45.61722" lon="6.06808">
        <ele>1232.0668</ele>
        <time>2011-06-12T10:44:04Z</time>
      </trkpt>
      <trkpt lat="45.6172" lon="6.06813">
        <ele>1233.028</ele>
        <time>2011-06-12T10:44:06Z</time>
      </trkpt>
      <trkpt lat="45.61722" lon="6.06812">
        <ele>1233.028</ele>
        <time>2011-06-12T10:44:07Z</time>
      </trkpt>
      <trkpt lat="45.61721" lon="6.06812">
        <ele>1229.1828</ele>
        <time>2011-06-12T10:44:07Z</time>
      </trkpt>
      <trkpt lat="45.61721" lon="6.06814">
        <ele>1228.2216</ele>
        <time>2011-06-12T10:44:07Z</time>
      </trkpt>
      <trkpt lat="45.61722" lon="6.06816">
        <ele>1233.5087</ele>
        <time>2011-06-12T10:44:08Z</time>
      </trkpt>
      <trkpt lat="45.61722" lon="6.06819">
        <ele>1236.8732</ele>
        <time>2011-06-12T10:44:09Z</time>
      </trkpt>
      <trkpt lat="45.61731" lon="6.06828">
        <ele>1236.3928</ele>
        <time>2011-06-12T10:44:13Z</time>
      </trkpt>
      <trkpt lat="45.61737" lon="6.06834">
        <ele>1231.1057</ele>
        <time>2011-06-12T10:44:16Z</time>
      </trkpt>
      <trkpt lat="45.61738" lon="6.06838">
        <ele>1231.5861</ele>
        <time>2011-06-12T10:44:17Z</time>
      </trkpt>
      <trkpt lat="45.61746" lon="6.06853">
        <ele>1230.1442</ele>
        <time>2011-06-12T10:44:23Z</time>
      </trkpt>
      <trkpt lat="45.61757" lon="6.06867">
        <ele>1223.8955</ele>
        <time>2011-06-12T10:44:28Z</time>
      </trkpt>
      <trkpt lat="45.6176" lon="6.0688">
        <ele>1223.8955</ele>
        <time>2011-06-12T10:44:32Z</time>
      </trkpt>
      <trkpt lat="45.61762" lon="6.06884">
        <ele>1221.9729</ele>
        <time>2011-06-12T10:44:33Z</time>
      </trkpt>
      <trkpt lat="45.6177" lon="6.06901">
        <ele>1212.8405</ele>
        <time>2011-06-12T10:44:39Z</time>
      </trkpt>
      <trkpt lat="45.61774" lon="6.06918">
        <ele>1208.9951</ele>
        <time>2011-06-12T10:44:44Z</time>
      </trkpt>
      <trkpt lat="45.61775" lon="6.0693">
        <ele>1213.3212</ele>
        <time>2011-06-12T10:44:48Z</time>
      </trkpt>
      <trkpt lat="45.61777" lon="6.06933">
        <ele>1213.3212</ele>
        <time>2011-06-12T10:44:49Z</time>
      </trkpt>
      <trkpt lat="45.61782" lon="6.06939">
        <ele>1212.8405</ele>
        <time>2011-06-12T10:44:51Z</time>
      </trkpt>
      <trkpt lat="45.61784" lon="6.06948">
        <ele>1214.7631</ele>
        <time>2011-06-12T10:44:54Z</time>
      </trkpt>
      <trkpt lat="45.61783" lon="6.06956">
        <ele>1211.3984</ele>
        <time>2011-06-12T10:44:56Z</time>
      </trkpt>
      <trkpt lat="45.61786" lon="6.06965">
        <ele>1207.5532</ele>
        <time>2011-06-12T10:44:59Z</time>
      </trkpt>
      <trkpt lat="45.61791" lon="6.06973">
        <ele>1204.6691</ele>
        <time>2011-06-12T10:45:02Z</time>
      </trkpt>
      <trkpt lat="45.6179" lon="6.06978">
        <ele>1204.6691</ele>
        <time>2011-06-12T10:45:04Z</time>
      </trkpt>
      <trkpt lat="45.61788" lon="6.06985">
        <ele>1206.5917</ele>
        <time>2011-06-12T10:45:06Z</time>
      </trkpt>
      <trkpt lat="45.61792" lon="6.06992">
        <ele>1205.1499</ele>
        <time>2011-06-12T10:45:08Z</time>
      </trkpt>
      <trkpt lat="45.618" lon="6.07002">
        <ele>1201.7854</ele>
        <time>2011-06-12T10:45:13Z</time>
      </trkpt>
      <trkpt lat="45.61806" lon="6.07009">
        <ele>1195.0559</ele>
        <time>2011-06-12T10:45:16Z</time>
      </trkpt>
      <trkpt lat="45.61809" lon="6.07019">
        <ele>1194.0947</ele>
        <time>2011-06-12T10:45:19Z</time>
      </trkpt>
      <trkpt lat="45.61814" lon="6.0703">
        <ele>1194.5751</ele>
        <time>2011-06-12T10:45:22Z</time>
      </trkpt>
      <trkpt lat="45.61819" lon="6.07042">
        <ele>1192.6528</ele>
        <time>2011-06-12T10:45:26Z</time>
      </trkpt>
      <trkpt lat="45.61826" lon="6.07047">
        <ele>1181.5976</ele>
        <time>2011-06-12T10:45:29Z</time>
      </trkpt>
      <trkpt lat="45.61826" lon="6.07048">
        <ele>1180.1557</ele>
        <time>2011-06-12T10:45:30Z</time>
      </trkpt>
      <trkpt lat="45.61829" lon="6.07052">
        <ele>1178.7136</ele>
        <time>2011-06-12T10:45:31Z</time>
      </trkpt>
      <trkpt lat="45.6183" lon="6.0705">
        <ele>1177.7521</ele>
        <time>2011-06-12T10:45:32Z</time>
      </trkpt>
      <trkpt lat="45.61831" lon="6.07052">
        <ele>1178.7136</ele>
        <time>2011-06-12T10:45:33Z</time>
      </trkpt>
      <trkpt lat="45.61832" lon="6.07055">
        <ele>1181.1171</ele>
        <time>2011-06-12T10:45:34Z</time>
      </trkpt>
      <trkpt lat="45.61831" lon="6.07063">
        <ele>1189.288</ele>
        <time>2011-06-12T10:45:36Z</time>
      </trkpt>
      <trkpt lat="45.61833" lon="6.07066">
        <ele>1191.2106</ele>
        <time>2011-06-12T10:45:37Z</time>
      </trkpt>
      <trkpt lat="45.61834" lon="6.0706">
        <ele>1184.4816</ele>
        <time>2011-06-12T10:45:39Z</time>
      </trkpt>
      <trkpt lat="45.61838" lon="6.07062">
        <ele>1182.0783</ele>
        <time>2011-06-12T10:45:40Z</time>
      </trkpt>
      <trkpt lat="45.61844" lon="6.07071">
        <ele>1179.6748</ele>
        <time>2011-06-12T10:45:44Z</time>
      </trkpt>
      <trkpt lat="45.61847" lon="6.07076">
        <ele>1178.7136</ele>
        <time>2011-06-12T10:45:46Z</time>
      </trkpt>
      <trkpt lat="45.61848" lon="6.07078">
        <ele>1178.2329</ele>
        <time>2011-06-12T10:45:47Z</time>
      </trkpt>
      <trkpt lat="45.61854" lon="6.07088">
        <ele>1174.8684</ele>
        <time>2011-06-12T10:45:50Z</time>
      </trkpt>
      <trkpt lat="45.6186" lon="6.07094">
        <ele>1172.465</ele>
        <time>2011-06-12T10:45:53Z</time>
      </trkpt>
      <trkpt lat="45.61874" lon="6.07103">
        <ele>1165.736</ele>
        <time>2011-06-12T10:45:59Z</time>
      </trkpt>
      <trkpt lat="45.61879" lon="6.07106">
        <ele>1163.8129</ele>
        <time>2011-06-12T10:46:01Z</time>
      </trkpt>
      <trkpt lat="45.6188" lon="6.07108">
        <ele>1164.2939</ele>
        <time>2011-06-12T10:46:02Z</time>
      </trkpt>
      <trkpt lat="45.6188" lon="6.07109">
        <ele>1164.7746</ele>
        <time>2011-06-12T10:46:02Z</time>
      </trkpt>
      <trkpt lat="45.6189" lon="6.07119">
        <ele>1161.4099</ele>
        <time>2011-06-12T10:46:07Z</time>
      </trkpt>
      <trkpt lat="45.61899" lon="6.07129">
        <ele>1153.2387</ele>
        <time>2011-06-12T10:46:12Z</time>
      </trkpt>
      <trkpt lat="45.61911" lon="6.07143">
        <ele>1149.8742</ele>
        <time>2011-06-12T10:46:18Z</time>
      </trkpt>
      <trkpt lat="45.61915" lon="6.07147">
        <ele>1148.4321</ele>
        <time>2011-06-12T10:46:20Z</time>
      </trkpt>
      <trkpt lat="45.61923" lon="6.07156">
        <ele>1148.9128</ele>
        <time>2011-06-12T10:46:24Z</time>
      </trkpt>
      <trkpt lat="45.61926" lon="6.07157">
        <ele>1149.8742</ele>
        <time>2011-06-12T10:46:25Z</time>
      </trkpt>
      <trkpt lat="45.61933" lon="6.07165">
        <ele>1148.9128</ele>
        <time>2011-06-12T10:46:29Z</time>
      </trkpt>
      <trkpt lat="45.61933" lon="6.07168">
        <ele>1148.9128</ele>
        <time>2011-06-12T10:46:30Z</time>
      </trkpt>
      <trkpt lat="45.6193" lon="6.07176">
        <ele>1149.3935</ele>
        <time>2011-06-12T10:46:32Z</time>
      </trkpt>
      <trkpt lat="45.61928" lon="6.07178">
        <ele>1149.8742</ele>
        <time>2011-06-12T10:46:33Z</time>
      </trkpt>
      <trkpt lat="45.61929" lon="6.07185">
        <ele>1148.9128</ele>
        <time>2011-06-12T10:46:35Z</time>
      </trkpt>
      <trkpt lat="45.61933" lon="6.07193">
        <ele>1144.1062</ele>
        <time>2011-06-12T10:46:38Z</time>
      </trkpt>
      <trkpt lat="45.61932" lon="6.07193">
        <ele>1137.8576</ele>
        <time>2011-06-12T10:46:38Z</time>
      </trkpt>
      <trkpt lat="45.61934" lon="6.0719">
        <ele>1135.935</ele>
        <time>2011-06-12T10:46:39Z</time>
      </trkpt>
      <trkpt lat="45.61939" lon="6.07203">
        <ele>1140.7414</ele>
        <time>2011-06-12T10:46:43Z</time>
      </trkpt>
      <trkpt lat="45.61941" lon="6.07203">
        <ele>1138.819</ele>
        <time>2011-06-12T10:46:45Z</time>
      </trkpt>
      <trkpt lat="45.61948" lon="6.07207">
        <ele>1138.819</ele>
        <time>2011-06-12T10:46:47Z</time>
      </trkpt>
      <trkpt lat="45.61958" lon="6.0722">
        <ele>1133.051</ele>
        <time>2011-06-12T10:46:53Z</time>
      </trkpt>
      <trkpt lat="45.61975" lon="6.07233">
        <ele>1126.8024</ele>
        <time>2011-06-12T10:47:00Z</time>
      </trkpt>
      <trkpt lat="45.61995" lon="6.0724">
        <ele>1122.9572</ele>
        <time>2011-06-12T10:47:09Z</time>
      </trkpt>
      <trkpt lat="45.62009" lon="6.07246">
        <ele>1116.7087</ele>
        <time>2011-06-12T10:47:14Z</time>
      </trkpt>
      <trkpt lat="45.62011" lon="6.07248">
        <ele>1115.7473</ele>
        <time>2011-06-12T10:47:16Z</time>
      </trkpt>
      <trkpt lat="45.62018" lon="6.07257">
        <ele>1122.9572</ele>
        <time>2011-06-12T10:47:20Z</time>
      </trkpt>
      <trkpt lat="45.62024" lon="6.07263">
        <ele>1120.0732</ele>
        <time>2011-06-12T10:47:22Z</time>
      </trkpt>
      <trkpt lat="45.62024" lon="6.07266">
        <ele>1119.5927</ele>
        <time>2011-06-12T10:47:23Z</time>
      </trkpt>
      <trkpt lat="45.62024" lon="6.07273">
        <ele>1122.4765</ele>
        <time>2011-06-12T10:47:25Z</time>
      </trkpt>
      <trkpt lat="45.62027" lon="6.07276">
        <ele>1117.1894</ele>
        <time>2011-06-12T10:47:26Z</time>
      </trkpt>
      <trkpt lat="45.62029" lon="6.07279">
        <ele>1114.7858</ele>
        <time>2011-06-12T10:47:27Z</time>
      </trkpt>
      <trkpt lat="45.62039" lon="6.07285">
        <ele>1110.4599</ele>
        <time>2011-06-12T10:47:32Z</time>
      </trkpt>
      <trkpt lat="45.6204" lon="6.07287">
        <ele>1110.4599</ele>
        <time>2011-06-12T10:47:32Z</time>
      </trkpt>
      <trkpt lat="45.62045" lon="6.07289">
        <ele>1107.5761</ele>
        <time>2011-06-12T10:47:35Z</time>
      </trkpt>
      <trkpt lat="45.62056" lon="6.07297">
        <ele>1105.6535</ele>
        <time>2011-06-12T10:47:40Z</time>
      </trkpt>
      <trkpt lat="45.62065" lon="6.07308">
        <ele>1104.6921</ele>
        <time>2011-06-12T10:47:44Z</time>
      </trkpt>
      <trkpt lat="45.62067" lon="6.07314">
        <ele>1105.6535</ele>
        <time>2011-06-12T10:47:46Z</time>
      </trkpt>
      <trkpt lat="45.62077" lon="6.07328">
        <ele>1104.2116</ele>
        <time>2011-06-12T10:47:51Z</time>
      </trkpt>
      <trkpt lat="45.62087" lon="6.07341">
        <ele>1097.4821</ele>
        <time>2011-06-12T10:47:57Z</time>
      </trkpt>
      <trkpt lat="45.62097" lon="6.07351">
        <ele>1098.4433</ele>
        <time>2011-06-12T10:48:02Z</time>
      </trkpt>
      <trkpt lat="45.62099" lon="6.07358">
        <ele>1098.4433</ele>
        <time>2011-06-12T10:48:04Z</time>
      </trkpt>
      <trkpt lat="45.62106" lon="6.07362">
        <ele>1098.4433</ele>
        <time>2011-06-12T10:48:07Z</time>
      </trkpt>
      <trkpt lat="45.62113" lon="6.07374">
        <ele>1098.4433</ele>
        <time>2011-06-12T10:48:11Z</time>
      </trkpt>
      <trkpt lat="45.62122" lon="6.07385">
        <ele>1098.4433</ele>
        <time>2011-06-12T10:48:16Z</time>
      </trkpt>
      <trkpt lat="45.62133" lon="6.07399">
        <ele>1099.8854</ele>
        <time>2011-06-12T10:48:22Z</time>
      </trkpt>
      <trkpt lat="45.62137" lon="6.07407">
        <ele>1097.9628</ele>
        <time>2011-06-12T10:48:25Z</time>
      </trkpt>
      <trkpt lat="45.62141" lon="6.07416">
        <ele>1100.8469</ele>
        <time>2011-06-12T10:48:28Z</time>
      </trkpt>
      <trkpt lat="45.62143" lon="6.07417">
        <ele>1100.3664</ele>
        <time>2011-06-12T10:48:28Z</time>
      </trkpt>
      <trkpt lat="45.62142" lon="6.07416">
        <ele>1097.0014</ele>
        <time>2011-06-12T10:48:29Z</time>
      </trkpt>
      <trkpt lat="45.62145" lon="6.07427">
        <ele>1103.2502</ele>
        <time>2011-06-12T10:48:32Z</time>
      </trkpt>
      <trkpt lat="45.62148" lon="6.0743">
        <ele>1105.1728</ele>
        <time>2011-06-12T10:48:33Z</time>
      </trkpt>
      <trkpt lat="45.62157" lon="6.07431">
        <ele>1104.2116</ele>
        <time>2011-06-12T10:48:37Z</time>
      </trkpt>
      <trkpt lat="45.6216" lon="6.07432">
        <ele>1103.2502</ele>
        <time>2011-06-12T10:48:38Z</time>
      </trkpt>
      <trkpt lat="45.62166" lon="6.07436">
        <ele>1103.2502</ele>
        <time>2011-06-12T10:48:41Z</time>
      </trkpt>
      <trkpt lat="45.62175" lon="6.07445">
        <ele>1100.8469</ele>
        <time>2011-06-12T10:48:45Z</time>
      </trkpt>
      <trkpt lat="45.62178" lon="6.07449">
        <ele>1099.8854</ele>
        <time>2011-06-12T10:48:47Z</time>
      </trkpt>
      <trkpt lat="45.62184" lon="6.07459">
        <ele>1097.0014</ele>
        <time>2011-06-12T10:48:50Z</time>
      </trkpt>
      <trkpt lat="45.62186" lon="6.07461">
        <ele>1094.5981</ele>
        <time>2011-06-12T10:48:51Z</time>
      </trkpt>
      <trkpt lat="45.62189" lon="6.07464">
        <ele>1093.6369</ele>
        <time>2011-06-12T10:48:53Z</time>
      </trkpt>
      <trkpt lat="45.62191" lon="6.07465">
        <ele>1092.195</ele>
        <time>2011-06-12T10:48:54Z</time>
      </trkpt>
      <trkpt lat="45.62189" lon="6.07466">
        <ele>1092.6757</ele>
        <time>2011-06-12T10:48:54Z</time>
      </trkpt>
      <trkpt lat="45.62188" lon="6.07465">
        <ele>1094.5981</ele>
        <time>2011-06-12T10:48:55Z</time>
      </trkpt>
      <trkpt lat="45.6219" lon="6.07469">
        <ele>1095.0788</ele>
        <time>2011-06-12T10:48:56Z</time>
      </trkpt>
      <trkpt lat="45.62191" lon="6.0747">
        <ele>1095.5595</ele>
        <time>2011-06-12T10:48:57Z</time>
      </trkpt>
      <trkpt lat="45.6219" lon="6.07468">
        <ele>1094.5981</ele>
        <time>2011-06-12T10:48:57Z</time>
      </trkpt>
      <trkpt lat="45.62192" lon="6.07466">
        <ele>1090.7529</ele>
        <time>2011-06-12T10:48:58Z</time>
      </trkpt>
      <trkpt lat="45.62193" lon="6.07465">
        <ele>1090.2724</ele>
        <time>2011-06-12T10:48:59Z</time>
      </trkpt>
      <trkpt lat="45.62194" lon="6.07465">
        <ele>1093.1562</ele>
        <time>2011-06-12T10:48:59Z</time>
      </trkpt>
      <trkpt lat="45.62197" lon="6.07464">
        <ele>1097.0014</ele>
        <time>2011-06-12T10:49:00Z</time>
      </trkpt>
      <trkpt lat="45.622" lon="6.07462">
        <ele>1098.924</ele>
        <time>2011-06-12T10:49:01Z</time>
      </trkpt>
      <trkpt lat="45.62201" lon="6.07459">
        <ele>1099.8854</ele>
        <time>2011-06-12T10:49:02Z</time>
      </trkpt>
      <trkpt lat="45.62202" lon="6.0746">
        <ele>1099.8854</ele>
        <time>2011-06-12T10:49:03Z</time>
      </trkpt>
      <trkpt lat="45.62205" lon="6.07454">
        <ele>1097.9628</ele>
        <time>2011-06-12T10:49:05Z</time>
      </trkpt>
      <trkpt lat="45.62206" lon="6.07451">
        <ele>1097.0014</ele>
        <time>2011-06-12T10:49:05Z</time>
      </trkpt>
      <trkpt lat="45.62206" lon="6.07455">
        <ele>1104.2116</ele>
        <time>2011-06-12T10:49:06Z</time>
      </trkpt>
      <trkpt lat="45.62206" lon="6.07456">
        <ele>1107.5761</ele>
        <time>2011-06-12T10:49:07Z</time>
      </trkpt>
      <trkpt lat="45.62208" lon="6.07453">
        <ele>1108.5373</ele>
        <time>2011-06-12T10:49:08Z</time>
      </trkpt>
      <trkpt lat="45.62211" lon="6.07452">
        <ele>1111.902</ele>
        <time>2011-06-12T10:49:10Z</time>
      </trkpt>
      <trkpt lat="45.62214" lon="6.07449">
        <ele>1112.8632</ele>
        <time>2011-06-12T10:49:11Z</time>
      </trkpt>
      <trkpt lat="45.62217" lon="6.07447">
        <ele>1113.3439</ele>
        <time>2011-06-12T10:49:12Z</time>
      </trkpt>
      <trkpt lat="45.6222" lon="6.07444">
        <ele>1111.902</ele>
        <time>2011-06-12T10:49:14Z</time>
      </trkpt>
      <trkpt lat="45.62223" lon="6.07442">
        <ele>1112.3825</ele>
        <time>2011-06-12T10:49:15Z</time>
      </trkpt>
      <trkpt lat="45.62228" lon="6.07437">
        <ele>1116.228</ele>
        <time>2011-06-12T10:49:18Z</time>
      </trkpt>
      <trkpt lat="45.62232" lon="6.07431">
        <ele>1118.1506</ele>
        <time>2011-06-12T10:49:20Z</time>
      </trkpt>
      <trkpt lat="45.62236" lon="6.07422">
        <ele>1121.0346</ele>
        <time>2011-06-12T10:49:23Z</time>
      </trkpt>
      <trkpt lat="45.62238" lon="6.07414">
        <ele>1121.5151</ele>
        <time>2011-06-12T10:49:25Z</time>
      </trkpt>
      <trkpt lat="45.6224" lon="6.07404">
        <ele>1117.1894</ele>
        <time>2011-06-12T10:49:28Z</time>
      </trkpt>
      <trkpt lat="45.62243" lon="6.07397">
        <ele>1116.7087</ele>
        <time>2011-06-12T10:49:30Z</time>
      </trkpt>
      <trkpt lat="45.62243" lon="6.07396">
        <ele>1117.1894</ele>
        <time>2011-06-12T10:49:31Z</time>
      </trkpt>
      <trkpt lat="45.62247" lon="6.07388">
        <ele>1116.7087</ele>
        <time>2011-06-12T10:49:33Z</time>
      </trkpt>
      <trkpt lat="45.62248" lon="6.07388">
        <ele>1119.112</ele>
        <time>2011-06-12T10:49:34Z</time>
      </trkpt>
      <trkpt lat="45.62251" lon="6.07388">
        <ele>1121.5151</ele>
        <time>2011-06-12T10:49:35Z</time>
      </trkpt>
      <trkpt lat="45.62255" lon="6.07388">
        <ele>1122.9572</ele>
        <time>2011-06-12T10:49:37Z</time>
      </trkpt>
      <trkpt lat="45.62259" lon="6.07386">
        <ele>1125.841</ele>
        <time>2011-06-12T10:49:38Z</time>
      </trkpt>
      <trkpt lat="45.62264" lon="6.07387">
        <ele>1126.3217</ele>
        <time>2011-06-12T10:49:40Z</time>
      </trkpt>
      <trkpt lat="45.62269" lon="6.07387">
        <ele>1127.7636</ele>
        <time>2011-06-12T10:49:42Z</time>
      </trkpt>
      <trkpt lat="45.62273" lon="6.07385">
        <ele>1130.1669</ele>
        <time>2011-06-12T10:49:44Z</time>
      </trkpt>
      <trkpt lat="45.62274" lon="6.07386">
        <ele>1129.2055</ele>
        <time>2011-06-12T10:49:45Z</time>
      </trkpt>
      <trkpt lat="45.62279" lon="6.07384">
        <ele>1128.725</ele>
        <time>2011-06-12T10:49:46Z</time>
      </trkpt>
      <trkpt lat="45.62284" lon="6.07382">
        <ele>1130.1669</ele>
        <time>2011-06-12T10:49:49Z</time>
      </trkpt>
      <trkpt lat="45.62288" lon="6.07381">
        <ele>1131.6088</ele>
        <time>2011-06-12T10:49:50Z</time>
      </trkpt>
      <trkpt lat="45.62293" lon="6.07381">
        <ele>1134.0124</ele>
        <time>2011-06-12T10:49:52Z</time>
      </trkpt>
      <trkpt lat="45.62296" lon="6.0738">
        <ele>1137.3769</ele>
        <time>2011-06-12T10:49:53Z</time>
      </trkpt>
      <trkpt lat="45.62296" lon="6.07378">
        <ele>1135.935</ele>
        <time>2011-06-12T10:49:54Z</time>
      </trkpt>
      <trkpt lat="45.62296" lon="6.07376">
        <ele>1134.4931</ele>
        <time>2011-06-12T10:49:54Z</time>
      </trkpt>
      <trkpt lat="45.62297" lon="6.07375">
        <ele>1134.0124</ele>
        <time>2011-06-12T10:49:55Z</time>
      </trkpt>
      <trkpt lat="45.623" lon="6.07374">
        <ele>1134.4931</ele>
        <time>2011-06-12T10:49:56Z</time>
      </trkpt>
      <trkpt lat="45.62303" lon="6.07373">
        <ele>1137.3769</ele>
        <time>2011-06-12T10:49:57Z</time>
      </trkpt>
      <trkpt lat="45.62305" lon="6.07371">
        <ele>1139.7802</ele>
        <time>2011-06-12T10:49:58Z</time>
      </trkpt>
      <trkpt lat="45.62309" lon="6.07366">
        <ele>1143.1447</ele>
        <time>2011-06-12T10:50:00Z</time>
      </trkpt>
      <trkpt lat="45.62311" lon="6.07364">
        <ele>1145.548</ele>
        <time>2011-06-12T10:50:01Z</time>
      </trkpt>
      <trkpt lat="45.62313" lon="6.07361">
        <ele>1146.0288</ele>
        <time>2011-06-12T10:50:02Z</time>
      </trkpt>
      <trkpt lat="45.62315" lon="6.07357">
        <ele>1145.0673</ele>
        <time>2011-06-12T10:50:04Z</time>
      </trkpt>
      <trkpt lat="45.62316" lon="6.07354">
        <ele>1147.4707</ele>
        <time>2011-06-12T10:50:05Z</time>
      </trkpt>
      <trkpt lat="45.62318" lon="6.0735">
        <ele>1148.4321</ele>
        <time>2011-06-12T10:50:06Z</time>
      </trkpt>
      <trkpt lat="45.6232" lon="6.07347">
        <ele>1150.3549</ele>
        <time>2011-06-12T10:50:07Z</time>
      </trkpt>
      <trkpt lat="45.62324" lon="6.0734">
        <ele>1149.8742</ele>
        <time>2011-06-12T10:50:10Z</time>
      </trkpt>
      <trkpt lat="45.62326" lon="6.07337">
        <ele>1149.8742</ele>
        <time>2011-06-12T10:50:11Z</time>
      </trkpt>
      <trkpt lat="45.62326" lon="6.07336">
        <ele>1154.6806</ele>
        <time>2011-06-12T10:50:11Z</time>
      </trkpt>
      <trkpt lat="45.62327" lon="6.07335">
        <ele>1156.1225</ele>
        <time>2011-06-12T10:50:12Z</time>
      </trkpt>
      <trkpt lat="45.62329" lon="6.07331">
        <ele>1159.0065</ele>
        <time>2011-06-12T10:50:13Z</time>
      </trkpt>
      <trkpt lat="45.62332" lon="6.07321">
        <ele>1151.7968</ele>
        <time>2011-06-12T10:50:16Z</time>
      </trkpt>
      <trkpt lat="45.62334" lon="6.07312">
        <ele>1147.4707</ele>
        <time>2011-06-12T10:50:19Z</time>
      </trkpt>
      <trkpt lat="45.62336" lon="6.07307">
        <ele>1148.9128</ele>
        <time>2011-06-12T10:50:20Z</time>
      </trkpt>
      <trkpt lat="45.62337" lon="6.07303">
        <ele>1148.9128</ele>
        <time>2011-06-12T10:50:22Z</time>
      </trkpt>
      <trkpt lat="45.62339" lon="6.07293">
        <ele>1150.3549</ele>
        <time>2011-06-12T10:50:24Z</time>
      </trkpt>
      <trkpt lat="45.62339" lon="6.07291">
        <ele>1153.2387</ele>
        <time>2011-06-12T10:50:25Z</time>
      </trkpt>
      <trkpt lat="45.6234" lon="6.07289">
        <ele>1151.3161</ele>
        <time>2011-06-12T10:50:26Z</time>
      </trkpt>
      <trkpt lat="45.62341" lon="6.07288">
        <ele>1151.7968</ele>
        <time>2011-06-12T10:50:26Z</time>
      </trkpt>
      <trkpt lat="45.6234" lon="6.07292">
        <ele>1156.1225</ele>
        <time>2011-06-12T10:50:28Z</time>
      </trkpt>
      <trkpt lat="45.6234" lon="6.07292">
        <ele>1160.4484</ele>
        <time>2011-06-12T10:50:28Z</time>
      </trkpt>
      <trkpt lat="45.62343" lon="6.0729">
        <ele>1159.9677</ele>
        <time>2011-06-12T10:50:29Z</time>
      </trkpt>
      <trkpt lat="45.62343" lon="6.0729">
        <ele>1159.4873</ele>
        <time>2011-06-12T10:50:29Z</time>
      </trkpt>
      <trkpt lat="45.62341" lon="6.07292">
        <ele>1159.0065</ele>
        <time>2011-06-12T10:50:30Z</time>
      </trkpt>
      <trkpt lat="45.62341" lon="6.07294">
        <ele>1161.8906</ele>
        <time>2011-06-12T10:50:31Z</time>
      </trkpt>
      <trkpt lat="45.62338" lon="6.07295">
        <ele>1157.5646</ele>
        <time>2011-06-12T10:50:32Z</time>
      </trkpt>
      <trkpt lat="45.62337" lon="6.07297">
        <ele>1155.642</ele>
        <time>2011-06-12T10:50:33Z</time>
      </trkpt>
      <trkpt lat="45.62336" lon="6.07298">
        <ele>1155.1613</ele>
        <time>2011-06-12T10:50:33Z</time>
      </trkpt>
      <trkpt lat="45.62339" lon="6.07296">
        <ele>1158.5258</ele>
        <time>2011-06-12T10:50:35Z</time>
      </trkpt>
      <trkpt lat="45.62341" lon="6.07293">
        <ele>1158.0454</ele>
        <time>2011-06-12T10:50:36Z</time>
      </trkpt>
      <trkpt lat="45.62339" lon="6.07291">
        <ele>1154.2001</ele>
        <time>2011-06-12T10:50:37Z</time>
      </trkpt>
      <trkpt lat="45.62336" lon="6.07291">
        <ele>1152.2773</ele>
        <time>2011-06-12T10:50:38Z</time>
      </trkpt>
      <trkpt lat="45.62335" lon="6.07292">
        <ele>1151.3161</ele>
        <time>2011-06-12T10:50:38Z</time>
      </trkpt>
      <trkpt lat="45.62332" lon="6.07294">
        <ele>1157.0839</ele>
        <time>2011-06-12T10:50:40Z</time>
      </trkpt>
      <trkpt lat="45.62335" lon="6.07293">
        <ele>1160.9291</ele>
        <time>2011-06-12T10:50:41Z</time>
      </trkpt>
      <trkpt lat="45.62337" lon="6.0729">
        <ele>1159.0065</ele>
        <time>2011-06-12T10:50:42Z</time>
      </trkpt>
      <trkpt lat="45.62337" lon="6.0729">
        <ele>1159.9677</ele>
        <time>2011-06-12T10:50:42Z</time>
      </trkpt>
      <trkpt lat="45.62337" lon="6.0729">
        <ele>1159.9677</ele>
        <time>2011-06-12T10:50:42Z</time>
      </trkpt>
      <trkpt lat="45.62335" lon="6.0729">
        <ele>1158.5258</ele>
        <time>2011-06-12T10:50:43Z</time>
      </trkpt>
      <trkpt lat="45.62334" lon="6.0729">
        <ele>1156.6032</ele>
        <time>2011-06-12T10:50:43Z</time>
      </trkpt>
      <trkpt lat="45.62333" lon="6.07288">
        <ele>1154.6806</ele>
        <time>2011-06-12T10:50:44Z</time>
      </trkpt>
      <trkpt lat="45.62335" lon="6.07288">
        <ele>1157.0839</ele>
        <time>2011-06-12T10:50:44Z</time>
      </trkpt>
      <trkpt lat="45.62334" lon="6.07288">
        <ele>1156.6032</ele>
        <time>2011-06-12T10:50:45Z</time>
      </trkpt>
      <trkpt lat="45.62334" lon="6.07286">
        <ele>1157.5646</ele>
        <time>2011-06-12T10:50:45Z</time>
      </trkpt>
      <trkpt lat="45.62334" lon="6.07286">
        <ele>1157.5646</ele>
        <time>2011-06-12T10:50:45Z</time>
      </trkpt>
      <trkpt lat="45.62332" lon="6.07286">
        <ele>1159.0065</ele>
        <time>2011-06-12T10:50:46Z</time>
      </trkpt>
      <trkpt lat="45.62333" lon="6.07286">
        <ele>1161.4099</ele>
        <time>2011-06-12T10:50:46Z</time>
      </trkpt>
      <trkpt lat="45.62338" lon="6.07287">
        <ele>1161.4099</ele>
        <time>2011-06-12T10:50:48Z</time>
      </trkpt>
      <trkpt lat="45.6234" lon="6.07289">
        <ele>1164.7746</ele>
        <time>2011-06-12T10:50:49Z</time>
      </trkpt>
      <trkpt lat="45.62341" lon="6.07289">
        <ele>1164.7746</ele>
        <time>2011-06-12T10:50:49Z</time>
      </trkpt>
      <trkpt lat="45.62344" lon="6.07289">
        <ele>1165.2553</ele>
        <time>2011-06-12T10:50:51Z</time>
      </trkpt>
      <trkpt lat="45.62347" lon="6.07287">
        <ele>1163.8129</ele>
        <time>2011-06-12T10:50:52Z</time>
      </trkpt>
      <trkpt lat="45.62351" lon="6.07283">
        <ele>1163.8129</ele>
        <time>2011-06-12T10:50:54Z</time>
      </trkpt>
      <trkpt lat="45.62353" lon="6.07282">
        <ele>1164.2939</ele>
        <time>2011-06-12T10:50:55Z</time>
      </trkpt>
      <trkpt lat="45.62353" lon="6.07281">
        <ele>1163.8129</ele>
        <time>2011-06-12T10:50:55Z</time>
      </trkpt>
      <trkpt lat="45.62354" lon="6.07279">
        <ele>1162.371</ele>
        <time>2011-06-12T10:50:56Z</time>
      </trkpt>
      <trkpt lat="45.62354" lon="6.07279">
        <ele>1161.8906</ele>
        <time>2011-06-12T10:50:56Z</time>
      </trkpt>
      <trkpt lat="45.62357" lon="6.07273">
        <ele>1162.8518</ele>
        <time>2011-06-12T10:50:58Z</time>
      </trkpt>
      <trkpt lat="45.62361" lon="6.07267">
        <ele>1169.1005</ele>
        <time>2011-06-12T10:51:00Z</time>
      </trkpt>
      <trkpt lat="45.62359" lon="6.07265">
        <ele>1168.6198</ele>
        <time>2011-06-12T10:51:01Z</time>
      </trkpt>
      <trkpt lat="45.62359" lon="6.07262">
        <ele>1165.2553</ele>
        <time>2011-06-12T10:51:02Z</time>
      </trkpt>
      <trkpt lat="45.62358" lon="6.07259">
        <ele>1163.3325</ele>
        <time>2011-06-12T10:51:03Z</time>
      </trkpt>
      <trkpt lat="45.62356" lon="6.07257">
        <ele>1161.4099</ele>
        <time>2011-06-12T10:51:04Z</time>
      </trkpt>
      <trkpt lat="45.62352" lon="6.07253">
        <ele>1160.9291</ele>
        <time>2011-06-12T10:51:06Z</time>
      </trkpt>
      <trkpt lat="45.62351" lon="6.07251">
        <ele>1166.6972</ele>
        <time>2011-06-12T10:51:07Z</time>
      </trkpt>
      <trkpt lat="45.62352" lon="6.0725">
        <ele>1176.3103</ele>
        <time>2011-06-12T10:51:07Z</time>
      </trkpt>
      <trkpt lat="45.62353" lon="6.07248">
        <ele>1181.5976</ele>
        <time>2011-06-12T10:51:08Z</time>
      </trkpt>
      <trkpt lat="45.62357" lon="6.07247">
        <ele>1188.8076</ele>
        <time>2011-06-12T10:51:09Z</time>
      </trkpt>
      <trkpt lat="45.62358" lon="6.07245">
        <ele>1190.7299</ele>
        <time>2011-06-12T10:51:10Z</time>
      </trkpt>
      <trkpt lat="45.62358" lon="6.0724">
        <ele>1191.2106</ele>
        <time>2011-06-12T10:51:11Z</time>
      </trkpt>
      <trkpt lat="45.62357" lon="6.07234">
        <ele>1186.8847</ele>
        <time>2011-06-12T10:51:13Z</time>
      </trkpt>
      <trkpt lat="45.62357" lon="6.07232">
        <ele>1184.4816</ele>
        <time>2011-06-12T10:51:14Z</time>
      </trkpt>
      <trkpt lat="45.62358" lon="6.07234">
        <ele>1185.9235</ele>
        <time>2011-06-12T10:51:14Z</time>
      </trkpt>
      <trkpt lat="45.62359" lon="6.07231">
        <ele>1185.4428</ele>
        <time>2011-06-12T10:51:15Z</time>
      </trkpt>
      <trkpt lat="45.62362" lon="6.07227">
        <ele>1185.4428</ele>
        <time>2011-06-12T10:51:17Z</time>
      </trkpt>
      <trkpt lat="45.62363" lon="6.07229">
        <ele>1186.4042</ele>
        <time>2011-06-12T10:51:17Z</time>
      </trkpt>
      <trkpt lat="45.62364" lon="6.0723">
        <ele>1189.7687</ele>
        <time>2011-06-12T10:51:18Z</time>
      </trkpt>
      <trkpt lat="45.62367" lon="6.07224">
        <ele>1193.614</ele>
        <time>2011-06-12T10:51:20Z</time>
      </trkpt>
      <trkpt lat="45.62365" lon="6.07218">
        <ele>1201.7854</ele>
        <time>2011-06-12T10:51:21Z</time>
      </trkpt>
      <trkpt lat="45.62369" lon="6.07215">
        <ele>1205.6306</ele>
        <time>2011-06-12T10:51:23Z</time>
      </trkpt>
      <trkpt lat="45.62372" lon="6.07214">
        <ele>1207.5532</ele>
        <time>2011-06-12T10:51:24Z</time>
      </trkpt>
      <trkpt lat="45.62376" lon="6.07209">
        <ele>1207.5532</ele>
        <time>2011-06-12T10:51:26Z</time>
      </trkpt>
      <trkpt lat="45.62378" lon="6.07203">
        <ele>1208.5144</ele>
        <time>2011-06-12T10:51:28Z</time>
      </trkpt>
      <trkpt lat="45.62383" lon="6.07196">
        <ele>1208.0339</ele>
        <time>2011-06-12T10:51:31Z</time>
      </trkpt>
      <trkpt lat="45.62385" lon="6.07187">
        <ele>1208.9951</ele>
        <time>2011-06-12T10:51:34Z</time>
      </trkpt>
      <trkpt lat="45.62387" lon="6.07184">
        <ele>1212.3598</ele>
        <time>2011-06-12T10:51:35Z</time>
      </trkpt>
      <trkpt lat="45.62389" lon="6.07179">
        <ele>1211.8791</ele>
        <time>2011-06-12T10:51:37Z</time>
      </trkpt>
      <trkpt lat="45.62388" lon="6.07176">
        <ele>1210.9177</ele>
        <time>2011-06-12T10:51:38Z</time>
      </trkpt>
      <trkpt lat="45.62388" lon="6.07171">
        <ele>1209.4758</ele>
        <time>2011-06-12T10:51:39Z</time>
      </trkpt>
      <trkpt lat="45.62389" lon="6.07164">
        <ele>1215.2438</ele>
        <time>2011-06-12T10:51:41Z</time>
      </trkpt>
      <trkpt lat="45.6239" lon="6.07159">
        <ele>1227.2602</ele>
        <time>2011-06-12T10:51:42Z</time>
      </trkpt>
      <trkpt lat="45.62392" lon="6.07154">
        <ele>1228.2216</ele>
        <time>2011-06-12T10:51:44Z</time>
      </trkpt>
      <trkpt lat="45.62395" lon="6.07146">
        <ele>1223.8955</ele>
        <time>2011-06-12T10:51:46Z</time>
      </trkpt>
      <trkpt lat="45.62395" lon="6.07142">
        <ele>1227.2602</ele>
        <time>2011-06-12T10:51:48Z</time>
      </trkpt>
      <trkpt lat="45.62396" lon="6.07139">
        <ele>1228.7023</ele>
        <time>2011-06-12T10:51:49Z</time>
      </trkpt>
      <trkpt lat="45.62395" lon="6.07132">
        <ele>1229.1828</ele>
        <time>2011-06-12T10:51:50Z</time>
      </trkpt>
      <trkpt lat="45.62396" lon="6.07124">
        <ele>1229.1828</ele>
        <time>2011-06-12T10:51:53Z</time>
      </trkpt>
      <trkpt lat="45.62397" lon="6.07119">
        <ele>1226.2988</ele>
        <time>2011-06-12T10:51:54Z</time>
      </trkpt>
      <trkpt lat="45.62398" lon="6.07116">
        <ele>1221.9729</ele>
        <time>2011-06-12T10:51:55Z</time>
      </trkpt>
      <trkpt lat="45.62403" lon="6.07116">
        <ele>1215.7246</ele>
        <time>2011-06-12T10:51:57Z</time>
      </trkpt>
      <trkpt lat="45.62403" lon="6.07117">
        <ele>1214.2824</ele>
        <time>2011-06-12T10:51:57Z</time>
      </trkpt>
      <trkpt lat="45.62404" lon="6.07118">
        <ele>1215.2438</ele>
        <time>2011-06-12T10:51:58Z</time>
      </trkpt>
      <trkpt lat="45.62405" lon="6.07118">
        <ele>1216.6857</ele>
        <time>2011-06-12T10:51:58Z</time>
      </trkpt>
      <trkpt lat="45.62404" lon="6.0712">
        <ele>1218.6083</ele>
        <time>2011-06-12T10:51:59Z</time>
      </trkpt>
      <trkpt lat="45.62404" lon="6.07121">
        <ele>1219.5698</ele>
        <time>2011-06-12T10:51:59Z</time>
      </trkpt>
      <trkpt lat="45.62404" lon="6.07121">
        <ele>1219.5698</ele>
        <time>2011-06-12T10:51:59Z</time>
      </trkpt>
      <trkpt lat="45.62405" lon="6.07119">
        <ele>1217.6469</ele>
        <time>2011-06-12T10:52:00Z</time>
      </trkpt>
      <trkpt lat="45.62406" lon="6.07118">
        <ele>1216.205</ele>
        <time>2011-06-12T10:52:00Z</time>
      </trkpt>
      <trkpt lat="45.62418" lon="6.07109">
        <ele>1214.7631</ele>
        <time>2011-06-12T10:52:06Z</time>
      </trkpt>
      <trkpt lat="45.62414" lon="6.07109">
        <ele>1217.1665</ele>
        <time>2011-06-12T10:52:07Z</time>
      </trkpt>
      <trkpt lat="45.62411" lon="6.0711">
        <ele>1218.1276</ele>
        <time>2011-06-12T10:52:08Z</time>
      </trkpt>
      <trkpt lat="45.62408" lon="6.07109">
        <ele>1219.0891</ele>
        <time>2011-06-12T10:52:09Z</time>
      </trkpt>
      <trkpt lat="45.62412" lon="6.07107">
        <ele>1221.0117</ele>
        <time>2011-06-12T10:52:11Z</time>
      </trkpt>
      <trkpt lat="45.62406" lon="6.07107">
        <ele>1211.3984</ele>
        <time>2011-06-12T10:52:13Z</time>
      </trkpt>
      <trkpt lat="45.62406" lon="6.07107">
        <ele>1211.8791</ele>
        <time>2011-06-12T10:52:13Z</time>
      </trkpt>
      <trkpt lat="45.62407" lon="6.07107">
        <ele>1215.7246</ele>
        <time>2011-06-12T10:52:14Z</time>
      </trkpt>
      <trkpt lat="45.62411" lon="6.07104">
        <ele>1221.4921</ele>
        <time>2011-06-12T10:52:16Z</time>
      </trkpt>
      <trkpt lat="45.6241" lon="6.07107">
        <ele>1220.531</ele>
        <time>2011-06-12T10:52:17Z</time>
      </trkpt>
      <trkpt lat="45.6241" lon="6.07107">
        <ele>1220.531</ele>
        <time>2011-06-12T10:52:17Z</time>
      </trkpt>
      <trkpt lat="45.62401" lon="6.07114">
        <ele>1226.2988</ele>
        <time>2011-06-12T10:52:21Z</time>
      </trkpt>
      <trkpt lat="45.624" lon="6.07114">
        <ele>1226.2988</ele>
        <time>2011-06-12T10:52:21Z</time>
      </trkpt>
      <trkpt lat="45.62402" lon="6.07112">
        <ele>1225.8181</ele>
        <time>2011-06-12T10:52:22Z</time>
      </trkpt>
      <trkpt lat="45.62404" lon="6.0711">
        <ele>1225.8181</ele>
        <time>2011-06-12T10:52:23Z</time>
      </trkpt>
      <trkpt lat="45.62406" lon="6.07107">
        <ele>1226.2988</ele>
        <time>2011-06-12T10:52:24Z</time>
      </trkpt>
      <trkpt lat="45.62407" lon="6.07105">
        <ele>1226.2988</ele>
        <time>2011-06-12T10:52:25Z</time>
      </trkpt>
      <trkpt lat="45.62409" lon="6.07102">
        <ele>1225.3374</ele>
        <time>2011-06-12T10:52:26Z</time>
      </trkpt>
      <trkpt lat="45.62407" lon="6.07102">
        <ele>1224.3762</ele>
        <time>2011-06-12T10:52:27Z</time>
      </trkpt>
      <trkpt lat="45.62408" lon="6.07099">
        <ele>1221.4921</ele>
        <time>2011-06-12T10:52:28Z</time>
      </trkpt>
      <trkpt lat="45.62407" lon="6.071">
        <ele>1226.7795</ele>
        <time>2011-06-12T10:52:29Z</time>
      </trkpt>
      <trkpt lat="45.62408" lon="6.07096">
        <ele>1227.7407</ele>
        <time>2011-06-12T10:52:30Z</time>
      </trkpt>
      <trkpt lat="45.62406" lon="6.071">
        <ele>1225.3374</ele>
        <time>2011-06-12T10:52:31Z</time>
      </trkpt>
      <trkpt lat="45.62409" lon="6.07096">
        <ele>1228.7023</ele>
        <time>2011-06-12T10:52:33Z</time>
      </trkpt>
      <trkpt lat="45.62414" lon="6.07089">
        <ele>1236.3928</ele>
        <time>2011-06-12T10:52:36Z</time>
      </trkpt>
      <trkpt lat="45.62417" lon="6.07083">
        <ele>1237.8347</ele>
        <time>2011-06-12T10:52:38Z</time>
      </trkpt>
      <trkpt lat="45.62421" lon="6.07074">
        <ele>1241.1992</ele>
        <time>2011-06-12T10:52:41Z</time>
      </trkpt>
      <trkpt lat="45.62422" lon="6.0707">
        <ele>1239.7573</ele>
        <time>2011-06-12T10:52:42Z</time>
      </trkpt>
      <trkpt lat="45.62423" lon="6.07071">
        <ele>1241.1992</ele>
        <time>2011-06-12T10:52:42Z</time>
      </trkpt>
      <trkpt lat="45.62425" lon="6.07068">
        <ele>1241.1992</ele>
        <time>2011-06-12T10:52:44Z</time>
      </trkpt>
      <trkpt lat="45.62426" lon="6.07069">
        <ele>1243.1218</ele>
        <time>2011-06-12T10:52:44Z</time>
      </trkpt>
      <trkpt lat="45.62429" lon="6.07071">
        <ele>1245.5253</ele>
        <time>2011-06-12T10:52:45Z</time>
      </trkpt>
      <trkpt lat="45.62434" lon="6.0707">
        <ele>1244.5639</ele>
        <time>2011-06-12T10:52:48Z</time>
      </trkpt>
      <trkpt lat="45.62435" lon="6.07067">
        <ele>1248.8898</ele>
        <time>2011-06-12T10:52:49Z</time>
      </trkpt>
      <trkpt lat="45.6244" lon="6.07067">
        <ele>1248.4091</ele>
        <time>2011-06-12T10:52:50Z</time>
      </trkpt>
      <trkpt lat="45.62443" lon="6.07066">
        <ele>1245.5253</ele>
        <time>2011-06-12T10:52:52Z</time>
      </trkpt>
      <trkpt lat="45.62444" lon="6.07068">
        <ele>1245.0446</ele>
        <time>2011-06-12T10:52:52Z</time>
      </trkpt>
      <trkpt lat="45.62446" lon="6.07072">
        <ele>1244.0834</ele>
        <time>2011-06-12T10:52:54Z</time>
      </trkpt>
      <trkpt lat="45.62449" lon="6.07077">
        <ele>1248.4091</ele>
        <time>2011-06-12T10:52:55Z</time>
      </trkpt>
      <trkpt lat="45.6245" lon="6.07078">
        <ele>1248.8898</ele>
        <time>2011-06-12T10:52:56Z</time>
      </trkpt>
      <trkpt lat="45.62454" lon="6.07082">
        <ele>1248.4091</ele>
        <time>2011-06-12T10:52:58Z</time>
      </trkpt>
      <trkpt lat="45.62456" lon="6.07081">
        <ele>1250.332</ele>
        <time>2011-06-12T10:52:59Z</time>
      </trkpt>
      <trkpt lat="45.62457" lon="6.0708">
        <ele>1254.1772</ele>
        <time>2011-06-12T10:52:59Z</time>
      </trkpt>
      <trkpt lat="45.62458" lon="6.07081">
        <ele>1255.1384</ele>
        <time>2011-06-12T10:52:59Z</time>
      </trkpt>
      <trkpt lat="45.6246" lon="6.07077">
        <ele>1255.1384</ele>
        <time>2011-06-12T10:53:01Z</time>
      </trkpt>
      <trkpt lat="45.6246" lon="6.07077">
        <ele>1252.2543</ele>
        <time>2011-06-12T10:53:01Z</time>
      </trkpt>
      <trkpt lat="45.6246" lon="6.07076">
        <ele>1251.2932</ele>
        <time>2011-06-12T10:53:01Z</time>
      </trkpt>
      <trkpt lat="45.62461" lon="6.07076">
        <ele>1253.6965</ele>
        <time>2011-06-12T10:53:02Z</time>
      </trkpt>
      <trkpt lat="45.62463" lon="6.07076">
        <ele>1252.2543</ele>
        <time>2011-06-12T10:53:02Z</time>
      </trkpt>
      <trkpt lat="45.62465" lon="6.07077">
        <ele>1252.7351</ele>
        <time>2011-06-12T10:53:03Z</time>
      </trkpt>
      <trkpt lat="45.62468" lon="6.07075">
        <ele>1258.5029</ele>
        <time>2011-06-12T10:53:05Z</time>
      </trkpt>
      <trkpt lat="45.62471" lon="6.07073">
        <ele>1261.3872</ele>
        <time>2011-06-12T10:53:06Z</time>
      </trkpt>
      <trkpt lat="45.62475" lon="6.07074">
        <ele>1263.7902</ele>
        <time>2011-06-12T10:53:08Z</time>
      </trkpt>
      <trkpt lat="45.62477" lon="6.07082">
        <ele>1263.7902</ele>
        <time>2011-06-12T10:53:10Z</time>
      </trkpt>
      <trkpt lat="45.6248" lon="6.07082">
        <ele>1264.7517</ele>
        <time>2011-06-12T10:53:11Z</time>
      </trkpt>
      <trkpt lat="45.62483" lon="6.07081">
        <ele>1265.7131</ele>
        <time>2011-06-12T10:53:12Z</time>
      </trkpt>
      <trkpt lat="45.62487" lon="6.0708">
        <ele>1265.2324</ele>
        <time>2011-06-12T10:53:14Z</time>
      </trkpt>
      <trkpt lat="45.62489" lon="6.07081">
        <ele>1264.7517</ele>
        <time>2011-06-12T10:53:15Z</time>
      </trkpt>
      <trkpt lat="45.62491" lon="6.07078">
        <ele>1266.6743</ele>
        <time>2011-06-12T10:53:16Z</time>
      </trkpt>
      <trkpt lat="45.62494" lon="6.07074">
        <ele>1268.5969</ele>
        <time>2011-06-12T10:53:17Z</time>
      </trkpt>
      <trkpt lat="45.62495" lon="6.07072">
        <ele>1269.5583</ele>
        <time>2011-06-12T10:53:18Z</time>
      </trkpt>
      <trkpt lat="45.62497" lon="6.07069">
        <ele>1270.5195</ele>
        <time>2011-06-12T10:53:19Z</time>
      </trkpt>
      <trkpt lat="45.62499" lon="6.07066">
        <ele>1271.9614</ele>
        <time>2011-06-12T10:53:21Z</time>
      </trkpt>
      <trkpt lat="45.62502" lon="6.07063">
        <ele>1268.5969</ele>
        <time>2011-06-12T10:53:22Z</time>
      </trkpt>
      <trkpt lat="45.62503" lon="6.07063">
        <ele>1263.7902</ele>
        <time>2011-06-12T10:53:23Z</time>
      </trkpt>
      <trkpt lat="45.62505" lon="6.07062">
        <ele>1262.8291</ele>
        <time>2011-06-12T10:53:24Z</time>
      </trkpt>
      <trkpt lat="45.62506" lon="6.07063">
        <ele>1260.9064</ele>
        <time>2011-06-12T10:53:24Z</time>
      </trkpt>
      <trkpt lat="45.62505" lon="6.07063">
        <ele>1260.4257</ele>
        <time>2011-06-12T10:53:24Z</time>
      </trkpt>
      <trkpt lat="45.62506" lon="6.07063">
        <ele>1259.9448</ele>
        <time>2011-06-12T10:53:24Z</time>
      </trkpt>
      <trkpt lat="45.62508" lon="6.07061">
        <ele>1260.9064</ele>
        <time>2011-06-12T10:53:25Z</time>
      </trkpt>
      <trkpt lat="45.62507" lon="6.07063">
        <ele>1263.3098</ele>
        <time>2011-06-12T10:53:26Z</time>
      </trkpt>
      <trkpt lat="45.62509" lon="6.07063">
        <ele>1264.2709</ele>
        <time>2011-06-12T10:53:27Z</time>
      </trkpt>
      <trkpt lat="45.62509" lon="6.07064">
        <ele>1266.1936</ele>
        <time>2011-06-12T10:53:27Z</time>
      </trkpt>
      <trkpt lat="45.62512" lon="6.07055">
        <ele>1265.2324</ele>
        <time>2011-06-12T10:53:30Z</time>
      </trkpt>
      <trkpt lat="45.62511" lon="6.0705">
        <ele>1265.2324</ele>
        <time>2011-06-12T10:53:31Z</time>
      </trkpt>
      <trkpt lat="45.62509" lon="6.07046">
        <ele>1268.5969</ele>
        <time>2011-06-12T10:53:33Z</time>
      </trkpt>
      <trkpt lat="45.62508" lon="6.07041">
        <ele>1269.0776</ele>
        <time>2011-06-12T10:53:34Z</time>
      </trkpt>
      <trkpt lat="45.62506" lon="6.07039">
        <ele>1268.5969</ele>
        <time>2011-06-12T10:53:35Z</time>
      </trkpt>
      <trkpt lat="45.62505" lon="6.07031">
        <ele>1268.5969</ele>
        <time>2011-06-12T10:53:38Z</time>
      </trkpt>
      <trkpt lat="45.62507" lon="6.07028">
        <ele>1268.1162</ele>
        <time>2011-06-12T10:53:39Z</time>
      </trkpt>
      <trkpt lat="45.62509" lon="6.07026">
        <ele>1268.1162</ele>
        <time>2011-06-12T10:53:40Z</time>
      </trkpt>
      <trkpt lat="45.62509" lon="6.07026">
        <ele>1268.1162</ele>
        <time>2011-06-12T10:53:40Z</time>
      </trkpt>
      <trkpt lat="45.62511" lon="6.07022">
        <ele>1266.1936</ele>
        <time>2011-06-12T10:53:41Z</time>
      </trkpt>
      <trkpt lat="45.62509" lon="6.0702">
        <ele>1266.1936</ele>
        <time>2011-06-12T10:53:42Z</time>
      </trkpt>
      <trkpt lat="45.62506" lon="6.07021">
        <ele>1266.1936</ele>
        <time>2011-06-12T10:53:43Z</time>
      </trkpt>
      <trkpt lat="45.62504" lon="6.07022">
        <ele>1266.6743</ele>
        <time>2011-06-12T10:53:44Z</time>
      </trkpt>
      <trkpt lat="45.62505" lon="6.07022">
        <ele>1267.155</ele>
        <time>2011-06-12T10:53:45Z</time>
      </trkpt>
      <trkpt lat="45.62507" lon="6.07024">
        <ele>1269.0776</ele>
        <time>2011-06-12T10:53:46Z</time>
      </trkpt>
      <trkpt lat="45.62509" lon="6.07024">
        <ele>1271.9614</ele>
        <time>2011-06-12T10:53:46Z</time>
      </trkpt>
      <trkpt lat="45.62511" lon="6.07022">
        <ele>1275.8066</ele>
        <time>2011-06-12T10:53:47Z</time>
      </trkpt>
      <trkpt lat="45.62511" lon="6.0702">
        <ele>1273.884</ele>
        <time>2011-06-12T10:53:48Z</time>
      </trkpt>
      <trkpt lat="45.62509" lon="6.0702">
        <ele>1272.4421</ele>
        <time>2011-06-12T10:53:48Z</time>
      </trkpt>
      <trkpt lat="45.6251" lon="6.07019">
        <ele>1271.9614</ele>
        <time>2011-06-12T10:53:49Z</time>
      </trkpt>
      <trkpt lat="45.62514" lon="6.07018">
        <ele>1273.4035</ele>
        <time>2011-06-12T10:53:50Z</time>
      </trkpt>
      <trkpt lat="45.62518" lon="6.07017">
        <ele>1274.8454</ele>
        <time>2011-06-12T10:53:52Z</time>
      </trkpt>
      <trkpt lat="45.62521" lon="6.07018">
        <ele>1275.8066</ele>
        <time>2011-06-12T10:53:53Z</time>
      </trkpt>
      <trkpt lat="45.62523" lon="6.07016">
        <ele>1277.249</ele>
        <time>2011-06-12T10:53:54Z</time>
      </trkpt>
      <trkpt lat="45.62525" lon="6.07015">
        <ele>1279.652</ele>
        <time>2011-06-12T10:53:55Z</time>
      </trkpt>
      <trkpt lat="45.62527" lon="6.07014">
        <ele>1281.0942</ele>
        <time>2011-06-12T10:53:56Z</time>
      </trkpt>
      <trkpt lat="45.6253" lon="6.07013">
        <ele>1281.0942</ele>
        <time>2011-06-12T10:53:57Z</time>
      </trkpt>
      <trkpt lat="45.62535" lon="6.07015">
        <ele>1283.0166</ele>
        <time>2011-06-12T10:53:59Z</time>
      </trkpt>
      <trkpt lat="45.6254" lon="6.07016">
        <ele>1285.4199</ele>
        <time>2011-06-12T10:54:01Z</time>
      </trkpt>
      <trkpt lat="45.62544" lon="6.07016">
        <ele>1285.9006</ele>
        <time>2011-06-12T10:54:03Z</time>
      </trkpt>
      <trkpt lat="45.62547" lon="6.07015">
        <ele>1286.8618</ele>
        <time>2011-06-12T10:54:04Z</time>
      </trkpt>
      <trkpt lat="45.6255" lon="6.07014">
        <ele>1288.7846</ele>
        <time>2011-06-12T10:54:05Z</time>
      </trkpt>
      <trkpt lat="45.6255" lon="6.07014">
        <ele>1289.2651</ele>
        <time>2011-06-12T10:54:06Z</time>
      </trkpt>
      <trkpt lat="45.62551" lon="6.07013">
        <ele>1290.2265</ele>
        <time>2011-06-12T10:54:06Z</time>
      </trkpt>
      <trkpt lat="45.62555" lon="6.07009">
        <ele>1290.2265</ele>
        <time>2011-06-12T10:54:08Z</time>
      </trkpt>
      <trkpt lat="45.62557" lon="6.07005">
        <ele>1290.2265</ele>
        <time>2011-06-12T10:54:09Z</time>
      </trkpt>
      <trkpt lat="45.62559" lon="6.07001">
        <ele>1290.707</ele>
        <time>2011-06-12T10:54:11Z</time>
      </trkpt>
      <trkpt lat="45.62558" lon="6.07">
        <ele>1291.1877</ele>
        <time>2011-06-12T10:54:11Z</time>
      </trkpt>
      <trkpt lat="45.62556" lon="6.07001">
        <ele>1290.2265</ele>
        <time>2011-06-12T10:54:12Z</time>
      </trkpt>
      <trkpt lat="45.62552" lon="6.07009">
        <ele>1291.1877</ele>
        <time>2011-06-12T10:54:15Z</time>
      </trkpt>
      <trkpt lat="45.62555" lon="6.07006">
        <ele>1295.0332</ele>
        <time>2011-06-12T10:54:16Z</time>
      </trkpt>
      <trkpt lat="45.62557" lon="6.07004">
        <ele>1298.3977</ele>
        <time>2011-06-12T10:54:18Z</time>
      </trkpt>
      <trkpt lat="45.6256" lon="6.07004">
        <ele>1299.8398</ele>
        <time>2011-06-12T10:54:19Z</time>
      </trkpt>
      <trkpt lat="45.62564" lon="6.07003">
        <ele>1300.3205</ele>
        <time>2011-06-12T10:54:20Z</time>
      </trkpt>
      <trkpt lat="45.6257" lon="6.07003">
        <ele>1301.7624</ele>
        <time>2011-06-12T10:54:23Z</time>
      </trkpt>
      <trkpt lat="45.6257" lon="6.07003">
        <ele>1301.2817</ele>
        <time>2011-06-12T10:54:23Z</time>
      </trkpt>
      <trkpt lat="45.62579" lon="6.07005">
        <ele>1302.7236</ele>
        <time>2011-06-12T10:54:27Z</time>
      </trkpt>
      <trkpt lat="45.62583" lon="6.07006">
        <ele>1303.2043</ele>
        <time>2011-06-12T10:54:28Z</time>
      </trkpt>
      <trkpt lat="45.62592" lon="6.07009">
        <ele>1305.1269</ele>
        <time>2011-06-12T10:54:32Z</time>
      </trkpt>
      <trkpt lat="45.62594" lon="6.07009">
        <ele>1305.1269</ele>
        <time>2011-06-12T10:54:32Z</time>
      </trkpt>
      <trkpt lat="45.62603" lon="6.07006">
        <ele>1304.6462</ele>
        <time>2011-06-12T10:54:36Z</time>
      </trkpt>
      <trkpt lat="45.62611" lon="6.07006">
        <ele>1303.2043</ele>
        <time>2011-06-12T10:54:39Z</time>
      </trkpt>
      <trkpt lat="45.62612" lon="6.07005">
        <ele>1303.685</ele>
        <time>2011-06-12T10:54:40Z</time>
      </trkpt>
      <trkpt lat="45.62612" lon="6.07008">
        <ele>1304.6462</ele>
        <time>2011-06-12T10:54:41Z</time>
      </trkpt>
      <trkpt lat="45.62617" lon="6.07008">
        <ele>1309.9335</ele>
        <time>2011-06-12T10:54:43Z</time>
      </trkpt>
      <trkpt lat="45.62619" lon="6.07005">
        <ele>1309.4531</ele>
        <time>2011-06-12T10:54:44Z</time>
      </trkpt>
      <trkpt lat="45.62623" lon="6.06999">
        <ele>1308.4916</ele>
        <time>2011-06-12T10:54:46Z</time>
      </trkpt>
      <trkpt lat="45.62624" lon="6.06996">
        <ele>1308.4916</ele>
        <time>2011-06-12T10:54:47Z</time>
      </trkpt>
      <trkpt lat="45.62625" lon="6.06991">
        <ele>1309.4531</ele>
        <time>2011-06-12T10:54:49Z</time>
      </trkpt>
      <trkpt lat="45.62627" lon="6.06986">
        <ele>1307.0495</ele>
        <time>2011-06-12T10:54:50Z</time>
      </trkpt>
      <trkpt lat="45.62628" lon="6.06983">
        <ele>1307.5302</ele>
        <time>2011-06-12T10:54:51Z</time>
      </trkpt>
      <trkpt lat="45.6263" lon="6.0698">
        <ele>1308.9724</ele>
        <time>2011-06-12T10:54:52Z</time>
      </trkpt>
      <trkpt lat="45.62634" lon="6.06975">
        <ele>1310.895</ele>
        <time>2011-06-12T10:54:54Z</time>
      </trkpt>
      <trkpt lat="45.62636" lon="6.06973">
        <ele>1310.4143</ele>
        <time>2011-06-12T10:54:56Z</time>
      </trkpt>
      <trkpt lat="45.62639" lon="6.06972">
        <ele>1308.4916</ele>
        <time>2011-06-12T10:54:57Z</time>
      </trkpt>
      <trkpt lat="45.62636" lon="6.06978">
        <ele>1306.0881</ele>
        <time>2011-06-12T10:54:59Z</time>
      </trkpt>
      <trkpt lat="45.62635" lon="6.06984">
        <ele>1308.9724</ele>
        <time>2011-06-12T10:55:00Z</time>
      </trkpt>
      <trkpt lat="45.62638" lon="6.06982">
        <ele>1310.4143</ele>
        <time>2011-06-12T10:55:02Z</time>
      </trkpt>
      <trkpt lat="45.6264" lon="6.06981">
        <ele>1311.3757</ele>
        <time>2011-06-12T10:55:03Z</time>
      </trkpt>
      <trkpt lat="45.6264" lon="6.06982">
        <ele>1312.8176</ele>
        <time>2011-06-12T10:55:03Z</time>
      </trkpt>
      <trkpt lat="45.6264" lon="6.06982">
        <ele>1314.2595</ele>
        <time>2011-06-12T10:55:03Z</time>
      </trkpt>
      <trkpt lat="45.6264" lon="6.06982">
        <ele>1315.2209</ele>
        <time>2011-06-12T10:55:03Z</time>
      </trkpt>
      <trkpt lat="45.6264" lon="6.06982">
        <ele>1315.2209</ele>
        <time>2011-06-12T10:55:03Z</time>
      </trkpt>
      <trkpt lat="45.62642" lon="6.06982">
        <ele>1316.1821</ele>
        <time>2011-06-12T10:55:04Z</time>
      </trkpt>
      <trkpt lat="45.62644" lon="6.06979">
        <ele>1316.6628</ele>
        <time>2011-06-12T10:55:05Z</time>
      </trkpt>
      <trkpt lat="45.62648" lon="6.06972">
        <ele>1316.1821</ele>
        <time>2011-06-12T10:55:08Z</time>
      </trkpt>
      <trkpt lat="45.62647" lon="6.06973">
        <ele>1317.624</ele>
        <time>2011-06-12T10:55:08Z</time>
      </trkpt>
      <trkpt lat="45.62646" lon="6.06971">
        <ele>1317.624</ele>
        <time>2011-06-12T10:55:09Z</time>
      </trkpt>
      <trkpt lat="45.62648" lon="6.06965">
        <ele>1319.0661</ele>
        <time>2011-06-12T10:55:10Z</time>
      </trkpt>
      <trkpt lat="45.62652" lon="6.06959">
        <ele>1320.508</ele>
        <time>2011-06-12T10:55:13Z</time>
      </trkpt>
      <trkpt lat="45.62652" lon="6.06956">
        <ele>1320.0273</ele>
        <time>2011-06-12T10:55:14Z</time>
      </trkpt>
      <trkpt lat="45.62654" lon="6.06949">
        <ele>1320.9887</ele>
        <time>2011-06-12T10:55:16Z</time>
      </trkpt>
      <trkpt lat="45.62652" lon="6.06951">
        <ele>1321.4692</ele>
        <time>2011-06-12T10:55:17Z</time>
      </trkpt>
      <trkpt lat="45.62649" lon="6.0695">
        <ele>1320.0273</ele>
        <time>2011-06-12T10:55:18Z</time>
      </trkpt>
      <trkpt lat="45.62647" lon="6.06945">
        <ele>1322.9113</ele>
        <time>2011-06-12T10:55:20Z</time>
      </trkpt>
      <trkpt lat="45.62651" lon="6.06943">
        <ele>1324.8342</ele>
        <time>2011-06-12T10:55:22Z</time>
      </trkpt>
      <trkpt lat="45.62647" lon="6.06946">
        <ele>1329.1599</ele>
        <time>2011-06-12T10:55:24Z</time>
      </trkpt>
      <trkpt lat="45.62644" lon="6.06939">
        <ele>1323.392</ele>
        <time>2011-06-12T10:55:26Z</time>
      </trkpt>
      <trkpt lat="45.62645" lon="6.06933">
        <ele>1322.4306</ele>
        <time>2011-06-12T10:55:28Z</time>
      </trkpt>
      <trkpt lat="45.62644" lon="6.06933">
        <ele>1327.2375</ele>
        <time>2011-06-12T10:55:28Z</time>
      </trkpt>
      <trkpt lat="45.62643" lon="6.06935">
        <ele>1331.0827</ele>
        <time>2011-06-12T10:55:29Z</time>
      </trkpt>
      <trkpt lat="45.62645" lon="6.06936">
        <ele>1330.602</ele>
        <time>2011-06-12T10:55:30Z</time>
      </trkpt>
      <trkpt lat="45.62648" lon="6.06938">
        <ele>1330.602</ele>
        <time>2011-06-12T10:55:31Z</time>
      </trkpt>
      <trkpt lat="45.62648" lon="6.06939">
        <ele>1331.0827</ele>
        <time>2011-06-12T10:55:31Z</time>
      </trkpt>
      <trkpt lat="45.62645" lon="6.06937">
        <ele>1330.1213</ele>
        <time>2011-06-12T10:55:32Z</time>
      </trkpt>
      <trkpt lat="45.62647" lon="6.06932">
        <ele>1331.5632</ele>
        <time>2011-06-12T10:55:34Z</time>
      </trkpt>
      <trkpt lat="45.62647" lon="6.06932">
        <ele>1330.1213</ele>
        <time>2011-06-12T10:55:34Z</time>
      </trkpt>
      <trkpt lat="45.62646" lon="6.06933">
        <ele>1328.6794</ele>
        <time>2011-06-12T10:55:35Z</time>
      </trkpt>
      <trkpt lat="45.62645" lon="6.06933">
        <ele>1330.602</ele>
        <time>2011-06-12T10:55:35Z</time>
      </trkpt>
      <trkpt lat="45.62642" lon="6.06936">
        <ele>1333.0051</ele>
        <time>2011-06-12T10:55:37Z</time>
      </trkpt>
      <trkpt lat="45.62642" lon="6.06937">
        <ele>1333.0051</ele>
        <time>2011-06-12T10:55:37Z</time>
      </trkpt>
      <trkpt lat="45.62643" lon="6.06937">
        <ele>1331.5632</ele>
        <time>2011-06-12T10:55:38Z</time>
      </trkpt>
      <trkpt lat="45.62643" lon="6.06937">
        <ele>1328.6794</ele>
        <time>2011-06-12T10:55:38Z</time>
      </trkpt>
      <trkpt lat="45.62644" lon="6.06937">
        <ele>1326.7568</ele>
        <time>2011-06-12T10:55:38Z</time>
      </trkpt>
      <trkpt lat="45.62649" lon="6.06933">
        <ele>1324.8342</ele>
        <time>2011-06-12T10:55:40Z</time>
      </trkpt>
      <trkpt lat="45.62653" lon="6.06932">
        <ele>1324.3535</ele>
        <time>2011-06-12T10:55:42Z</time>
      </trkpt>
      <trkpt lat="45.62654" lon="6.06932">
        <ele>1324.3535</ele>
        <time>2011-06-12T10:55:42Z</time>
      </trkpt>
      <trkpt lat="45.62668" lon="6.06926">
        <ele>1322.9113</ele>
        <time>2011-06-12T10:55:48Z</time>
      </trkpt>
      <trkpt lat="45.62677" lon="6.06922">
        <ele>1322.4306</ele>
        <time>2011-06-12T10:55:52Z</time>
      </trkpt>
      <trkpt lat="45.62691" lon="6.0692">
        <ele>1322.9113</ele>
        <time>2011-06-12T10:55:58Z</time>
      </trkpt>
      <trkpt lat="45.62713" lon="6.06917">
        <ele>1323.392</ele>
        <time>2011-06-12T10:56:06Z</time>
      </trkpt>
      <trkpt lat="45.6273" lon="6.06918">
        <ele>1323.392</ele>
        <time>2011-06-12T10:56:13Z</time>
      </trkpt>
      <trkpt lat="45.62746" lon="6.06915">
        <ele>1322.9113</ele>
        <time>2011-06-12T10:56:20Z</time>
      </trkpt>
      <trkpt lat="45.62763" lon="6.06906">
        <ele>1322.9113</ele>
        <time>2011-06-12T10:56:27Z</time>
      </trkpt>
      <trkpt lat="45.62781" lon="6.06904">
        <ele>1324.3535</ele>
        <time>2011-06-12T10:56:34Z</time>
      </trkpt>
      <trkpt lat="45.62798" lon="6.06908">
        <ele>1326.2761</ele>
        <time>2011-06-12T10:56:41Z</time>
      </trkpt>
      <trkpt lat="45.6282" lon="6.06908">
        <ele>1325.7954</ele>
        <time>2011-06-12T10:56:50Z</time>
      </trkpt>
      <trkpt lat="45.62841" lon="6.06905">
        <ele>1324.8342</ele>
        <time>2011-06-12T10:56:58Z</time>
      </trkpt>
      <trkpt lat="45.6286" lon="6.06909">
        <ele>1324.3535</ele>
        <time>2011-06-12T10:57:06Z</time>
      </trkpt>
      <trkpt lat="45.62873" lon="6.06907">
        <ele>1325.7954</ele>
        <time>2011-06-12T10:57:11Z</time>
      </trkpt>
      <trkpt lat="45.62883" lon="6.06903">
        <ele>1326.2761</ele>
        <time>2011-06-12T10:57:15Z</time>
      </trkpt>
      <trkpt lat="45.6289" lon="6.06902">
        <ele>1325.7954</ele>
        <time>2011-06-12T10:57:18Z</time>
      </trkpt>
      <trkpt lat="45.62903" lon="6.069">
        <ele>1325.3146</ele>
        <time>2011-06-12T10:57:23Z</time>
      </trkpt>
      <trkpt lat="45.62914" lon="6.06895">
        <ele>1324.8342</ele>
        <time>2011-06-12T10:57:28Z</time>
      </trkpt>
      <trkpt lat="45.62913" lon="6.06896">
        <ele>1331.5632</ele>
        <time>2011-06-12T10:57:29Z</time>
      </trkpt>
      <trkpt lat="45.62909" lon="6.06893">
        <ele>1333.4858</ele>
        <time>2011-06-12T10:57:30Z</time>
      </trkpt>
      <trkpt lat="45.62902" lon="6.0689">
        <ele>1332.5246</ele>
        <time>2011-06-12T10:57:33Z</time>
      </trkpt>
      <trkpt lat="45.629" lon="6.06891">
        <ele>1332.5246</ele>
        <time>2011-06-12T10:57:34Z</time>
      </trkpt>
      <trkpt lat="45.62892" lon="6.06891">
        <ele>1332.5246</ele>
        <time>2011-06-12T10:57:37Z</time>
      </trkpt>
      <trkpt lat="45.62884" lon="6.06893">
        <ele>1331.0827</ele>
        <time>2011-06-12T10:57:40Z</time>
      </trkpt>
      <trkpt lat="45.62873" lon="6.06894">
        <ele>1331.0827</ele>
        <time>2011-06-12T10:57:45Z</time>
      </trkpt>
      <trkpt lat="45.6287" lon="6.06892">
        <ele>1330.602</ele>
        <time>2011-06-12T10:57:46Z</time>
      </trkpt>
      <trkpt lat="45.62863" lon="6.0689">
        <ele>1332.0439</ele>
        <time>2011-06-12T10:57:49Z</time>
      </trkpt>
      <trkpt lat="45.62859" lon="6.06889">
        <ele>1332.0439</ele>
        <time>2011-06-12T10:57:51Z</time>
      </trkpt>
      <trkpt lat="45.62854" lon="6.06887">
        <ele>1332.5246</ele>
        <time>2011-06-12T10:57:53Z</time>
      </trkpt>
      <trkpt lat="45.62843" lon="6.06886">
        <ele>1332.5246</ele>
        <time>2011-06-12T10:57:57Z</time>
      </trkpt>
      <trkpt lat="45.62837" lon="6.06886">
        <ele>1333.9665</ele>
        <time>2011-06-12T10:58:00Z</time>
      </trkpt>
      <trkpt lat="45.62833" lon="6.06885">
        <ele>1333.9665</ele>
        <time>2011-06-12T10:58:01Z</time>
      </trkpt>
      <trkpt lat="45.6282" lon="6.06885">
        <ele>1333.4858</ele>
        <time>2011-06-12T10:58:06Z</time>
      </trkpt>
      <trkpt lat="45.62819" lon="6.06884">
        <ele>1333.4858</ele>
        <time>2011-06-12T10:58:07Z</time>
      </trkpt>
      <trkpt lat="45.62808" lon="6.06883">
        <ele>1332.5246</ele>
        <time>2011-06-12T10:58:11Z</time>
      </trkpt>
      <trkpt lat="45.62801" lon="6.0688">
        <ele>1333.9665</ele>
        <time>2011-06-12T10:58:14Z</time>
      </trkpt>
      <trkpt lat="45.62796" lon="6.06881">
        <ele>1335.8891</ele>
        <time>2011-06-12T10:58:16Z</time>
      </trkpt>
      <trkpt lat="45.62789" lon="6.06881">
        <ele>1335.4084</ele>
        <time>2011-06-12T10:58:19Z</time>
      </trkpt>
      <trkpt lat="45.62785" lon="6.06879">
        <ele>1334.4472</ele>
        <time>2011-06-12T10:58:21Z</time>
      </trkpt>
      <trkpt lat="45.62779" lon="6.06878">
        <ele>1333.4858</ele>
        <time>2011-06-12T10:58:23Z</time>
      </trkpt>
      <trkpt lat="45.62775" lon="6.06878">
        <ele>1335.4084</ele>
        <time>2011-06-12T10:58:25Z</time>
      </trkpt>
      <trkpt lat="45.62772" lon="6.06876">
        <ele>1335.8891</ele>
        <time>2011-06-12T10:58:26Z</time>
      </trkpt>
      <trkpt lat="45.62771" lon="6.06877">
        <ele>1335.8891</ele>
        <time>2011-06-12T10:58:26Z</time>
      </trkpt>
      <trkpt lat="45.62764" lon="6.06879">
        <ele>1336.3698</ele>
        <time>2011-06-12T10:58:30Z</time>
      </trkpt>
      <trkpt lat="45.6276" lon="6.06879">
        <ele>1337.8117</ele>
        <time>2011-06-12T10:58:31Z</time>
      </trkpt>
      <trkpt lat="45.62757" lon="6.06877">
        <ele>1338.2924</ele>
        <time>2011-06-12T10:58:32Z</time>
      </trkpt>
      <trkpt lat="45.62751" lon="6.06877">
        <ele>1336.8503</ele>
        <time>2011-06-12T10:58:35Z</time>
      </trkpt>
      <trkpt lat="45.62749" lon="6.06878">
        <ele>1343.5798</ele>
        <time>2011-06-12T10:58:36Z</time>
      </trkpt>
      <trkpt lat="45.62749" lon="6.06876">
        <ele>1345.0217</ele>
        <time>2011-06-12T10:58:36Z</time>
      </trkpt>
      <trkpt lat="45.6275" lon="6.06876">
        <ele>1343.0991</ele>
        <time>2011-06-12T10:58:37Z</time>
      </trkpt>
      <trkpt lat="45.6275" lon="6.06874">
        <ele>1346.4638</ele>
        <time>2011-06-12T10:58:37Z</time>
      </trkpt>
      <trkpt lat="45.62749" lon="6.06872">
        <ele>1349.3476</ele>
        <time>2011-06-12T10:58:38Z</time>
      </trkpt>
      <trkpt lat="45.62755" lon="6.06871">
        <ele>1354.6347</ele>
        <time>2011-06-12T10:58:40Z</time>
      </trkpt>
      <trkpt lat="45.62763" lon="6.06864">
        <ele>1357.519</ele>
        <time>2011-06-12T10:58:44Z</time>
      </trkpt>
      <trkpt lat="45.6276" lon="6.06866">
        <ele>1358.9609</ele>
        <time>2011-06-12T10:58:45Z</time>
      </trkpt>
      <trkpt lat="45.62755" lon="6.06872">
        <ele>1356.5576</ele>
        <time>2011-06-12T10:58:48Z</time>
      </trkpt>
      <trkpt lat="45.62751" lon="6.06875">
        <ele>1355.1154</ele>
        <time>2011-06-12T10:58:50Z</time>
      </trkpt>
      <trkpt lat="45.62748" lon="6.06878">
        <ele>1351.7509</ele>
        <time>2011-06-12T10:58:51Z</time>
      </trkpt>
      <trkpt lat="45.62738" lon="6.06885">
        <ele>1345.5024</ele>
        <time>2011-06-12T10:58:56Z</time>
      </trkpt>
      <trkpt lat="45.62737" lon="6.06886">
        <ele>1343.5798</ele>
        <time>2011-06-12T10:58:56Z</time>
      </trkpt>
      <trkpt lat="45.62736" lon="6.06887">
        <ele>1344.541</ele>
        <time>2011-06-12T10:58:57Z</time>
      </trkpt>
      <trkpt lat="45.62734" lon="6.06889">
        <ele>1343.0991</ele>
        <time>2011-06-12T10:58:58Z</time>
      </trkpt>
      <trkpt lat="45.62726" lon="6.06892">
        <ele>1338.2924</ele>
        <time>2011-06-12T10:59:01Z</time>
      </trkpt>
      <trkpt lat="45.62717" lon="6.06893">
        <ele>1335.4084</ele>
        <time>2011-06-12T10:59:04Z</time>
      </trkpt>
      <trkpt lat="45.62709" lon="6.06893">
        <ele>1334.9279</ele>
        <time>2011-06-12T10:59:08Z</time>
      </trkpt>
      <trkpt lat="45.62706" lon="6.0689">
        <ele>1336.8503</ele>
        <time>2011-06-12T10:59:09Z</time>
      </trkpt>
      <trkpt lat="45.62703" lon="6.06888">
        <ele>1338.7731</ele>
        <time>2011-06-12T10:59:11Z</time>
      </trkpt>
      <trkpt lat="45.62699" lon="6.06886">
        <ele>1339.7343</ele>
        <time>2011-06-12T10:59:12Z</time>
      </trkpt>
      <trkpt lat="45.62695" lon="6.06884">
        <ele>1339.2536</ele>
        <time>2011-06-12T10:59:14Z</time>
      </trkpt>
      <trkpt lat="45.6269" lon="6.06881">
        <ele>1339.2536</ele>
        <time>2011-06-12T10:59:16Z</time>
      </trkpt>
      <trkpt lat="45.62685" lon="6.06878">
        <ele>1339.7343</ele>
        <time>2011-06-12T10:59:18Z</time>
      </trkpt>
      <trkpt lat="45.62683" lon="6.06877">
        <ele>1340.6958</ele>
        <time>2011-06-12T10:59:19Z</time>
      </trkpt>
      <trkpt lat="45.62676" lon="6.06868">
        <ele>1343.5798</ele>
        <time>2011-06-12T10:59:23Z</time>
      </trkpt>
      <trkpt lat="45.6267" lon="6.06871">
        <ele>1345.5024</ele>
        <time>2011-06-12T10:59:26Z</time>
      </trkpt>
      <trkpt lat="45.62666" lon="6.06872">
        <ele>1346.9443</ele>
        <time>2011-06-12T10:59:27Z</time>
      </trkpt>
      <trkpt lat="45.62662" lon="6.06873">
        <ele>1348.8669</ele>
        <time>2011-06-12T10:59:29Z</time>
      </trkpt>
      <trkpt lat="45.62663" lon="6.06872">
        <ele>1351.2702</ele>
        <time>2011-06-12T10:59:29Z</time>
      </trkpt>
      <trkpt lat="45.62667" lon="6.06874">
        <ele>1348.8669</ele>
        <time>2011-06-12T10:59:31Z</time>
      </trkpt>
      <trkpt lat="45.62701" lon="6.06871">
        <ele>1348.8669</ele>
        <time>2011-06-12T10:59:44Z</time>
      </trkpt>
      <trkpt lat="45.62663" lon="6.06872">
        <ele>1348.8669</ele>
        <time>2011-06-12T10:59:59Z</time>
      </trkpt>
      <trkpt lat="45.62671" lon="6.06876">
        <ele>1358.9609</ele>
        <time>2011-06-12T11:00:03Z</time>
      </trkpt>
      <trkpt lat="45.62673" lon="6.06882">
        <ele>1362.3254</ele>
        <time>2011-06-12T11:00:04Z</time>
      </trkpt>
      <trkpt lat="45.6267" lon="6.06887">
        <ele>1363.2868</ele>
        <time>2011-06-12T11:00:06Z</time>
      </trkpt>
      <trkpt lat="45.6267" lon="6.06883">
        <ele>1360.4028</ele>
        <time>2011-06-12T11:00:07Z</time>
      </trkpt>
      <trkpt lat="45.62671" lon="6.06881">
        <ele>1357.519</ele>
        <time>2011-06-12T11:00:08Z</time>
      </trkpt>
      <trkpt lat="45.6267" lon="6.06881">
        <ele>1356.5576</ele>
        <time>2011-06-12T11:00:08Z</time>
      </trkpt>
      <trkpt lat="45.62672" lon="6.06877">
        <ele>1355.5961</ele>
        <time>2011-06-12T11:00:09Z</time>
      </trkpt>
      <trkpt lat="45.62673" lon="6.06881">
        <ele>1353.6735</ele>
        <time>2011-06-12T11:00:11Z</time>
      </trkpt>
      <trkpt lat="45.62669" lon="6.06873">
        <ele>1348.3862</ele>
        <time>2011-06-12T11:00:14Z</time>
      </trkpt>
      <trkpt lat="45.62665" lon="6.06877">
        <ele>1353.6735</ele>
        <time>2011-06-12T11:00:16Z</time>
      </trkpt>
      <trkpt lat="45.62664" lon="6.06883">
        <ele>1360.4028</ele>
        <time>2011-06-12T11:00:17Z</time>
      </trkpt>
      <trkpt lat="45.62665" lon="6.06883">
        <ele>1360.8835</ele>
        <time>2011-06-12T11:00:18Z</time>
      </trkpt>
      <trkpt lat="45.62674" lon="6.06883">
        <ele>1357.519</ele>
        <time>2011-06-12T11:00:21Z</time>
      </trkpt>
      <trkpt lat="45.62675" lon="6.06883">
        <ele>1356.5576</ele>
        <time>2011-06-12T11:00:22Z</time>
      </trkpt>
      <trkpt lat="45.62676" lon="6.06884">
        <ele>1354.6347</ele>
        <time>2011-06-12T11:00:22Z</time>
      </trkpt>
      <trkpt lat="45.62679" lon="6.06884">
        <ele>1353.1928</ele>
        <time>2011-06-12T11:00:23Z</time>
      </trkpt>
      <trkpt lat="45.62682" lon="6.06884">
        <ele>1350.309</ele>
        <time>2011-06-12T11:00:24Z</time>
      </trkpt>
      <trkpt lat="45.62687" lon="6.06882">
        <ele>1345.0217</ele>
        <time>2011-06-12T11:00:27Z</time>
      </trkpt>
      <trkpt lat="45.62689" lon="6.06882">
        <ele>1344.541</ele>
        <time>2011-06-12T11:00:27Z</time>
      </trkpt>
      <trkpt lat="45.62696" lon="6.0688">
        <ele>1343.5798</ele>
        <time>2011-06-12T11:00:30Z</time>
      </trkpt>
      <trkpt lat="45.627" lon="6.06883">
        <ele>1340.6958</ele>
        <time>2011-06-12T11:00:32Z</time>
      </trkpt>
      <trkpt lat="45.62702" lon="6.06885">
        <ele>1335.8891</ele>
        <time>2011-06-12T11:00:33Z</time>
      </trkpt>
      <trkpt lat="45.62704" lon="6.06887">
        <ele>1332.0439</ele>
        <time>2011-06-12T11:00:34Z</time>
      </trkpt>
      <trkpt lat="45.62709" lon="6.06889">
        <ele>1332.0439</ele>
        <time>2011-06-12T11:00:36Z</time>
      </trkpt>
      <trkpt lat="45.62713" lon="6.06894">
        <ele>1328.6794</ele>
        <time>2011-06-12T11:00:38Z</time>
      </trkpt>
      <trkpt lat="45.62718" lon="6.06892">
        <ele>1325.7954</ele>
        <time>2011-06-12T11:00:40Z</time>
      </trkpt>
      <trkpt lat="45.62724" lon="6.06889">
        <ele>1325.7954</ele>
        <time>2011-06-12T11:00:43Z</time>
      </trkpt>
      <trkpt lat="45.62732" lon="6.06886">
        <ele>1327.718</ele>
        <time>2011-06-12T11:00:46Z</time>
      </trkpt>
      <trkpt lat="45.62732" lon="6.06885">
        <ele>1327.718</ele>
        <time>2011-06-12T11:00:46Z</time>
      </trkpt>
      <trkpt lat="45.62739" lon="6.06883">
        <ele>1331.0827</ele>
        <time>2011-06-12T11:00:49Z</time>
      </trkpt>
      <trkpt lat="45.62743" lon="6.0688">
        <ele>1332.0439</ele>
        <time>2011-06-12T11:00:51Z</time>
      </trkpt>
      <trkpt lat="45.62751" lon="6.06876">
        <ele>1332.5246</ele>
        <time>2011-06-12T11:00:54Z</time>
      </trkpt>
      <trkpt lat="45.62755" lon="6.06874">
        <ele>1328.6794</ele>
        <time>2011-06-12T11:00:56Z</time>
      </trkpt>
      <trkpt lat="45.62758" lon="6.06873">
        <ele>1327.718</ele>
        <time>2011-06-12T11:00:57Z</time>
      </trkpt>
      <trkpt lat="45.62763" lon="6.06873">
        <ele>1325.7954</ele>
        <time>2011-06-12T11:00:59Z</time>
      </trkpt>
      <trkpt lat="45.62763" lon="6.06874">
        <ele>1326.7568</ele>
        <time>2011-06-12T11:01:00Z</time>
      </trkpt>
      <trkpt lat="45.62771" lon="6.06875">
        <ele>1331.5632</ele>
        <time>2011-06-12T11:01:02Z</time>
      </trkpt>
      <trkpt lat="45.62777" lon="6.06879">
        <ele>1334.4472</ele>
        <time>2011-06-12T11:01:05Z</time>
      </trkpt>
      <trkpt lat="45.6278" lon="6.06881">
        <ele>1340.2153</ele>
        <time>2011-06-12T11:01:06Z</time>
      </trkpt>
      <trkpt lat="45.62782" lon="6.06882">
        <ele>1340.6958</ele>
        <time>2011-06-12T11:01:07Z</time>
      </trkpt>
      <trkpt lat="45.62783" lon="6.06883">
        <ele>1340.6958</ele>
        <time>2011-06-12T11:01:08Z</time>
      </trkpt>
      <trkpt lat="45.62792" lon="6.06884">
        <ele>1339.7343</ele>
        <time>2011-06-12T11:01:12Z</time>
      </trkpt>
      <trkpt lat="45.62803" lon="6.06887">
        <ele>1336.3698</ele>
        <time>2011-06-12T11:01:16Z</time>
      </trkpt>
      <trkpt lat="45.62806" lon="6.06888">
        <ele>1335.4084</ele>
        <time>2011-06-12T11:01:17Z</time>
      </trkpt>
      <trkpt lat="45.62819" lon="6.06892">
        <ele>1335.8891</ele>
        <time>2011-06-12T11:01:23Z</time>
      </trkpt>
      <trkpt lat="45.6284" lon="6.06891">
        <ele>1337.8117</ele>
        <time>2011-06-12T11:01:31Z</time>
      </trkpt>
      <trkpt lat="45.6285" lon="6.06892">
        <ele>1334.9279</ele>
        <time>2011-06-12T11:01:35Z</time>
      </trkpt>
      <trkpt lat="45.62863" lon="6.06895">
        <ele>1333.4858</ele>
        <time>2011-06-12T11:01:40Z</time>
      </trkpt>
      <trkpt lat="45.62886" lon="6.06898">
        <ele>1338.7731</ele>
        <time>2011-06-12T11:01:50Z</time>
      </trkpt>
      <trkpt lat="45.62901" lon="6.06897">
        <ele>1337.8117</ele>
        <time>2011-06-12T11:01:55Z</time>
      </trkpt>
      <trkpt lat="45.62908" lon="6.06897">
        <ele>1336.8503</ele>
        <time>2011-06-12T11:01:58Z</time>
      </trkpt>
      <trkpt lat="45.62929" lon="6.06902">
        <ele>1343.0991</ele>
        <time>2011-06-12T11:02:07Z</time>
      </trkpt>
      <trkpt lat="45.6295" lon="6.06901">
        <ele>1342.6186</ele>
        <time>2011-06-12T11:02:15Z</time>
      </trkpt>
      <trkpt lat="45.62964" lon="6.069">
        <ele>1341.1765</ele>
        <time>2011-06-12T11:02:21Z</time>
      </trkpt>
      <trkpt lat="45.62975" lon="6.06897">
        <ele>1340.2153</ele>
        <time>2011-06-12T11:02:26Z</time>
      </trkpt>
      <trkpt lat="45.62994" lon="6.06884">
        <ele>1334.9279</ele>
        <time>2011-06-12T11:02:34Z</time>
      </trkpt>
      <trkpt lat="45.63007" lon="6.06869">
        <ele>1333.9665</ele>
        <time>2011-06-12T11:02:40Z</time>
      </trkpt>
      <trkpt lat="45.63019" lon="6.06855">
        <ele>1330.602</ele>
        <time>2011-06-12T11:02:47Z</time>
      </trkpt>
      <trkpt lat="45.63033" lon="6.06844">
        <ele>1328.6794</ele>
        <time>2011-06-12T11:02:53Z</time>
      </trkpt>
      <trkpt lat="45.63047" lon="6.06847">
        <ele>1325.3146</ele>
        <time>2011-06-12T11:02:59Z</time>
      </trkpt>
      <trkpt lat="45.63057" lon="6.0685">
        <ele>1324.8342</ele>
        <time>2011-06-12T11:03:03Z</time>
      </trkpt>
      <trkpt lat="45.63064" lon="6.06849">
        <ele>1323.8725</ele>
        <time>2011-06-12T11:03:05Z</time>
      </trkpt>
      <trkpt lat="45.63071" lon="6.06848">
        <ele>1324.3535</ele>
        <time>2011-06-12T11:03:09Z</time>
      </trkpt>
      <trkpt lat="45.63078" lon="6.06848">
        <ele>1325.3146</ele>
        <time>2011-06-12T11:03:11Z</time>
      </trkpt>
      <trkpt lat="45.63081" lon="6.06848">
        <ele>1324.8342</ele>
        <time>2011-06-12T11:03:12Z</time>
      </trkpt>
      <trkpt lat="45.63086" lon="6.06848">
        <ele>1325.3146</ele>
        <time>2011-06-12T11:03:14Z</time>
      </trkpt>
      <trkpt lat="45.63098" lon="6.06851">
        <ele>1327.2375</ele>
        <time>2011-06-12T11:03:19Z</time>
      </trkpt>
      <trkpt lat="45.63113" lon="6.06856">
        <ele>1327.718</ele>
        <time>2011-06-12T11:03:25Z</time>
      </trkpt>
      <trkpt lat="45.63127" lon="6.0685">
        <ele>1328.1987</ele>
        <time>2011-06-12T11:03:31Z</time>
      </trkpt>
      <trkpt lat="45.63144" lon="6.06845">
        <ele>1328.1987</ele>
        <time>2011-06-12T11:03:39Z</time>
      </trkpt>
      <trkpt lat="45.63159" lon="6.06853">
        <ele>1329.1599</ele>
        <time>2011-06-12T11:03:45Z</time>
      </trkpt>
      <trkpt lat="45.63175" lon="6.06864">
        <ele>1331.5632</ele>
        <time>2011-06-12T11:03:52Z</time>
      </trkpt>
      <trkpt lat="45.63186" lon="6.06864">
        <ele>1333.9665</ele>
        <time>2011-06-12T11:03:56Z</time>
      </trkpt>
      <trkpt lat="45.632" lon="6.06861">
        <ele>1335.8891</ele>
        <time>2011-06-12T11:04:02Z</time>
      </trkpt>
      <trkpt lat="45.63211" lon="6.0686">
        <ele>1337.331</ele>
        <time>2011-06-12T11:04:06Z</time>
      </trkpt>
      <trkpt lat="45.63222" lon="6.06859">
        <ele>1340.6958</ele>
        <time>2011-06-12T11:04:11Z</time>
      </trkpt>
      <trkpt lat="45.6323" lon="6.06858">
        <ele>1340.2153</ele>
        <time>2011-06-12T11:04:14Z</time>
      </trkpt>
      <trkpt lat="45.6324" lon="6.06855">
        <ele>1341.6572</ele>
        <time>2011-06-12T11:04:18Z</time>
      </trkpt>
      <trkpt lat="45.63249" lon="6.06854">
        <ele>1345.9831</ele>
        <time>2011-06-12T11:04:22Z</time>
      </trkpt>
      <trkpt lat="45.63261" lon="6.06849">
        <ele>1347.425</ele>
        <time>2011-06-12T11:04:27Z</time>
      </trkpt>
      <trkpt lat="45.63271" lon="6.06844">
        <ele>1344.0605</ele>
        <time>2011-06-12T11:04:31Z</time>
      </trkpt>
      <trkpt lat="45.63278" lon="6.06843">
        <ele>1340.2153</ele>
        <time>2011-06-12T11:04:34Z</time>
      </trkpt>
      <trkpt lat="45.63294" lon="6.06843">
        <ele>1343.5798</ele>
        <time>2011-06-12T11:04:40Z</time>
      </trkpt>
      <trkpt lat="45.63312" lon="6.0684">
        <ele>1345.0217</ele>
        <time>2011-06-12T11:04:48Z</time>
      </trkpt>
      <trkpt lat="45.63329" lon="6.06832">
        <ele>1345.9831</ele>
        <time>2011-06-12T11:04:54Z</time>
      </trkpt>
      <trkpt lat="45.63349" lon="6.06822">
        <ele>1347.425</ele>
        <time>2011-06-12T11:05:03Z</time>
      </trkpt>
      <trkpt lat="45.63362" lon="6.06814">
        <ele>1344.0605</ele>
        <time>2011-06-12T11:05:09Z</time>
      </trkpt>
      <trkpt lat="45.63376" lon="6.06806">
        <ele>1339.2536</ele>
        <time>2011-06-12T11:05:15Z</time>
      </trkpt>
      <trkpt lat="45.63386" lon="6.06804">
        <ele>1338.2924</ele>
        <time>2011-06-12T11:05:19Z</time>
      </trkpt>
      <trkpt lat="45.63394" lon="6.06801">
        <ele>1340.2153</ele>
        <time>2011-06-12T11:05:22Z</time>
      </trkpt>
      <trkpt lat="45.6341" lon="6.06792">
        <ele>1341.1765</ele>
        <time>2011-06-12T11:05:29Z</time>
      </trkpt>
      <trkpt lat="45.63422" lon="6.06781">
        <ele>1340.2153</ele>
        <time>2011-06-12T11:05:35Z</time>
      </trkpt>
      <trkpt lat="45.63438" lon="6.06775">
        <ele>1340.6958</ele>
        <time>2011-06-12T11:05:41Z</time>
      </trkpt>
      <trkpt lat="45.63454" lon="6.0677">
        <ele>1343.0991</ele>
        <time>2011-06-12T11:05:48Z</time>
      </trkpt>
      <trkpt lat="45.63471" lon="6.06764">
        <ele>1347.9057</ele>
        <time>2011-06-12T11:05:55Z</time>
      </trkpt>
      <trkpt lat="45.63484" lon="6.06754">
        <ele>1347.9057</ele>
        <time>2011-06-12T11:06:01Z</time>
      </trkpt>
      <trkpt lat="45.63488" lon="6.06745">
        <ele>1348.3862</ele>
        <time>2011-06-12T11:06:04Z</time>
      </trkpt>
      <trkpt lat="45.63484" lon="6.06735">
        <ele>1347.425</ele>
        <time>2011-06-12T11:06:07Z</time>
      </trkpt>
      <trkpt lat="45.63481" lon="6.06735">
        <ele>1344.541</ele>
        <time>2011-06-12T11:06:08Z</time>
      </trkpt>
      <trkpt lat="45.63477" lon="6.06736">
        <ele>1344.0605</ele>
        <time>2011-06-12T11:06:10Z</time>
      </trkpt>
      <trkpt lat="45.63479" lon="6.0674">
        <ele>1345.5024</ele>
        <time>2011-06-12T11:06:11Z</time>
      </trkpt>
      <trkpt lat="45.63483" lon="6.0674">
        <ele>1345.0217</ele>
        <time>2011-06-12T11:06:13Z</time>
      </trkpt>
      <trkpt lat="45.63483" lon="6.06737">
        <ele>1348.3862</ele>
        <time>2011-06-12T11:06:14Z</time>
      </trkpt>
      <trkpt lat="45.63482" lon="6.06732">
        <ele>1350.7895</ele>
        <time>2011-06-12T11:06:15Z</time>
      </trkpt>
      <trkpt lat="45.63474" lon="6.06738">
        <ele>1350.7895</ele>
        <time>2011-06-12T11:06:18Z</time>
      </trkpt>
      <trkpt lat="45.63471" lon="6.06743">
        <ele>1345.9831</ele>
        <time>2011-06-12T11:06:21Z</time>
      </trkpt>
      <trkpt lat="45.63472" lon="6.06744">
        <ele>1347.425</ele>
        <time>2011-06-12T11:06:21Z</time>
      </trkpt>
      <trkpt lat="45.63475" lon="6.06744">
        <ele>1351.2702</ele>
        <time>2011-06-12T11:06:22Z</time>
      </trkpt>
      <trkpt lat="45.63479" lon="6.06742">
        <ele>1352.2314</ele>
        <time>2011-06-12T11:06:24Z</time>
      </trkpt>
      <trkpt lat="45.63477" lon="6.06742">
        <ele>1348.3862</ele>
        <time>2011-06-12T11:06:25Z</time>
      </trkpt>
      <trkpt lat="45.63474" lon="6.0674">
        <ele>1339.7343</ele>
        <time>2011-06-12T11:06:26Z</time>
      </trkpt>
      <trkpt lat="45.63477" lon="6.06737">
        <ele>1340.2153</ele>
        <time>2011-06-12T11:06:28Z</time>
      </trkpt>
      <trkpt lat="45.63482" lon="6.06739">
        <ele>1351.7509</ele>
        <time>2011-06-12T11:06:30Z</time>
      </trkpt>
      <trkpt lat="45.63484" lon="6.06737">
        <ele>1344.541</ele>
        <time>2011-06-12T11:06:31Z</time>
      </trkpt>
      <trkpt lat="45.63487" lon="6.06739">
        <ele>1347.9057</ele>
        <time>2011-06-12T11:06:32Z</time>
      </trkpt>
      <trkpt lat="45.63491" lon="6.06739">
        <ele>1347.9057</ele>
        <time>2011-06-12T11:06:34Z</time>
      </trkpt>
      <trkpt lat="45.63495" lon="6.06742">
        <ele>1348.8669</ele>
        <time>2011-06-12T11:06:35Z</time>
      </trkpt>
      <trkpt lat="45.63498" lon="6.06741">
        <ele>1346.9443</ele>
        <time>2011-06-12T11:06:37Z</time>
      </trkpt>
      <trkpt lat="45.63498" lon="6.06741">
        <ele>1345.0217</ele>
        <time>2011-06-12T11:06:37Z</time>
      </trkpt>
      <trkpt lat="45.635" lon="6.06744">
        <ele>1343.0991</ele>
        <time>2011-06-12T11:06:38Z</time>
      </trkpt>
      <trkpt lat="45.63499" lon="6.06743">
        <ele>1344.541</ele>
        <time>2011-06-12T11:06:39Z</time>
      </trkpt>
      <trkpt lat="45.63497" lon="6.06739">
        <ele>1346.4638</ele>
        <time>2011-06-12T11:06:40Z</time>
      </trkpt>
      <trkpt lat="45.63496" lon="6.0674">
        <ele>1343.5798</ele>
        <time>2011-06-12T11:06:41Z</time>
      </trkpt>
      <trkpt lat="45.63495" lon="6.06741">
        <ele>1340.2153</ele>
        <time>2011-06-12T11:06:41Z</time>
      </trkpt>
      <trkpt lat="45.63499" lon="6.0674">
        <ele>1337.8117</ele>
        <time>2011-06-12T11:06:42Z</time>
      </trkpt>
      <trkpt lat="45.63502" lon="6.06735">
        <ele>1341.1765</ele>
        <time>2011-06-12T11:06:44Z</time>
      </trkpt>
      <trkpt lat="45.63502" lon="6.06738">
        <ele>1340.6958</ele>
        <time>2011-06-12T11:06:45Z</time>
      </trkpt>
      <trkpt lat="45.63495" lon="6.06744">
        <ele>1339.7343</ele>
        <time>2011-06-12T11:06:48Z</time>
      </trkpt>
      <trkpt lat="45.63492" lon="6.06757">
        <ele>1349.8283</ele>
        <time>2011-06-12T11:06:52Z</time>
      </trkpt>
      <trkpt lat="45.63493" lon="6.06757">
        <ele>1352.7121</ele>
        <time>2011-06-12T11:06:52Z</time>
      </trkpt>
      <trkpt lat="45.63493" lon="6.0676">
        <ele>1357.519</ele>
        <time>2011-06-12T11:06:53Z</time>
      </trkpt>
      <trkpt lat="45.6349" lon="6.06766">
        <ele>1361.8449</ele>
        <time>2011-06-12T11:06:56Z</time>
      </trkpt>
      <trkpt lat="45.63488" lon="6.0677">
        <ele>1365.6901</ele>
        <time>2011-06-12T11:06:57Z</time>
      </trkpt>
      <trkpt lat="45.63491" lon="6.06769">
        <ele>1369.0546</ele>
        <time>2011-06-12T11:06:58Z</time>
      </trkpt>
      <trkpt lat="45.63491" lon="6.0677">
        <ele>1367.6125</ele>
        <time>2011-06-12T11:06:59Z</time>
      </trkpt>
      <trkpt lat="45.63491" lon="6.06769">
        <ele>1366.1706</ele>
        <time>2011-06-12T11:06:59Z</time>
      </trkpt>
      <trkpt lat="45.63497" lon="6.06764">
        <ele>1359.4416</ele>
        <time>2011-06-12T11:07:01Z</time>
      </trkpt>
      <trkpt lat="45.63499" lon="6.06763">
        <ele>1356.0769</ele>
        <time>2011-06-12T11:07:02Z</time>
      </trkpt>
      <trkpt lat="45.63496" lon="6.06761">
        <ele>1352.2314</ele>
        <time>2011-06-12T11:07:04Z</time>
      </trkpt>
      <trkpt lat="45.63497" lon="6.06757">
        <ele>1349.3476</ele>
        <time>2011-06-12T11:07:05Z</time>
      </trkpt>
      <trkpt lat="45.63501" lon="6.06751">
        <ele>1346.9443</ele>
        <time>2011-06-12T11:07:07Z</time>
      </trkpt>
      <trkpt lat="45.635" lon="6.06748">
        <ele>1348.3862</ele>
        <time>2011-06-12T11:07:08Z</time>
      </trkpt>
      <trkpt lat="45.635" lon="6.06749">
        <ele>1349.3476</ele>
        <time>2011-06-12T11:07:08Z</time>
      </trkpt>
      <trkpt lat="45.63499" lon="6.06751">
        <ele>1350.7895</ele>
        <time>2011-06-12T11:07:08Z</time>
      </trkpt>
      <trkpt lat="45.63498" lon="6.06752">
        <ele>1355.1154</ele>
        <time>2011-06-12T11:07:09Z</time>
      </trkpt>
      <trkpt lat="45.63502" lon="6.06748">
        <ele>1353.6735</ele>
        <time>2011-06-12T11:07:11Z</time>
      </trkpt>
      <trkpt lat="45.63505" lon="6.06742">
        <ele>1349.3476</ele>
        <time>2011-06-12T11:07:13Z</time>
      </trkpt>
      <trkpt lat="45.63505" lon="6.06742">
        <ele>1348.8669</ele>
        <time>2011-06-12T11:07:13Z</time>
      </trkpt>
      <trkpt lat="45.63508" lon="6.06742">
        <ele>1346.9443</ele>
        <time>2011-06-12T11:07:14Z</time>
      </trkpt>
      <trkpt lat="45.63506" lon="6.06745">
        <ele>1348.8669</ele>
        <time>2011-06-12T11:07:15Z</time>
      </trkpt>
      <trkpt lat="45.63505" lon="6.06746">
        <ele>1349.8283</ele>
        <time>2011-06-12T11:07:15Z</time>
      </trkpt>
      <trkpt lat="45.63505" lon="6.06748">
        <ele>1351.2702</ele>
        <time>2011-06-12T11:07:16Z</time>
      </trkpt>
      <trkpt lat="45.63504" lon="6.06748">
        <ele>1351.7509</ele>
        <time>2011-06-12T11:07:16Z</time>
      </trkpt>
      <trkpt lat="45.63502" lon="6.0675">
        <ele>1355.1154</ele>
        <time>2011-06-12T11:07:17Z</time>
      </trkpt>
      <trkpt lat="45.63502" lon="6.0675">
        <ele>1356.0769</ele>
        <time>2011-06-12T11:07:17Z</time>
      </trkpt>
      <trkpt lat="45.63501" lon="6.06754">
        <ele>1357.519</ele>
        <time>2011-06-12T11:07:18Z</time>
      </trkpt>
      <trkpt lat="45.63501" lon="6.06755">
        <ele>1358.4802</ele>
        <time>2011-06-12T11:07:19Z</time>
      </trkpt>
      <trkpt lat="45.63503" lon="6.06753">
        <ele>1356.5576</ele>
        <time>2011-06-12T11:07:20Z</time>
      </trkpt>
      <trkpt lat="45.635" lon="6.06755">
        <ele>1358.4802</ele>
        <time>2011-06-12T11:07:21Z</time>
      </trkpt>
      <trkpt lat="45.63497" lon="6.0676">
        <ele>1360.4028</ele>
        <time>2011-06-12T11:07:23Z</time>
      </trkpt>
      <trkpt lat="45.63496" lon="6.06761">
        <ele>1358.4802</ele>
        <time>2011-06-12T11:07:24Z</time>
      </trkpt>
      <trkpt lat="45.63493" lon="6.06765">
        <ele>1354.1542</ele>
        <time>2011-06-12T11:07:25Z</time>
      </trkpt>
      <trkpt lat="45.63495" lon="6.06765">
        <ele>1354.6347</ele>
        <time>2011-06-12T11:07:26Z</time>
      </trkpt>
      <trkpt lat="45.63494" lon="6.0676">
        <ele>1351.2702</ele>
        <time>2011-06-12T11:07:27Z</time>
      </trkpt>
      <trkpt lat="45.63491" lon="6.06752">
        <ele>1347.9057</ele>
        <time>2011-06-12T11:07:30Z</time>
      </trkpt>
      <trkpt lat="45.63491" lon="6.06751">
        <ele>1345.0217</ele>
        <time>2011-06-12T11:07:30Z</time>
      </trkpt>
      <trkpt lat="45.63494" lon="6.06747">
        <ele>1337.331</ele>
        <time>2011-06-12T11:07:32Z</time>
      </trkpt>
      <trkpt lat="45.63492" lon="6.06746">
        <ele>1335.8891</ele>
        <time>2011-06-12T11:07:33Z</time>
      </trkpt>
      <trkpt lat="45.63491" lon="6.06742">
        <ele>1337.8117</ele>
        <time>2011-06-12T11:07:34Z</time>
      </trkpt>
      <trkpt lat="45.63491" lon="6.06739">
        <ele>1339.7343</ele>
        <time>2011-06-12T11:07:35Z</time>
      </trkpt>
      <trkpt lat="45.6349" lon="6.06738">
        <ele>1338.7731</ele>
        <time>2011-06-12T11:07:35Z</time>
      </trkpt>
      <trkpt lat="45.63493" lon="6.0673">
        <ele>1339.7343</ele>
        <time>2011-06-12T11:07:38Z</time>
      </trkpt>
      <trkpt lat="45.63497" lon="6.06727">
        <ele>1341.1765</ele>
        <time>2011-06-12T11:07:40Z</time>
      </trkpt>
      <trkpt lat="45.63502" lon="6.06725">
        <ele>1341.6572</ele>
        <time>2011-06-12T11:07:42Z</time>
      </trkpt>
      <trkpt lat="45.63508" lon="6.06724">
        <ele>1343.0991</ele>
        <time>2011-06-12T11:07:44Z</time>
      </trkpt>
      <trkpt lat="45.63517" lon="6.06723">
        <ele>1341.6572</ele>
        <time>2011-06-12T11:07:48Z</time>
      </trkpt>
      <trkpt lat="45.63526" lon="6.06722">
        <ele>1340.6958</ele>
        <time>2011-06-12T11:07:51Z</time>
      </trkpt>
      <trkpt lat="45.63534" lon="6.0672">
        <ele>1341.1765</ele>
        <time>2011-06-12T11:07:55Z</time>
      </trkpt>
      <trkpt lat="45.6353" lon="6.06715">
        <ele>1343.5798</ele>
        <time>2011-06-12T11:07:57Z</time>
      </trkpt>
      <trkpt lat="45.63527" lon="6.06715">
        <ele>1344.0605</ele>
        <time>2011-06-12T11:07:58Z</time>
      </trkpt>
      <trkpt lat="45.63526" lon="6.06715">
        <ele>1344.0605</ele>
        <time>2011-06-12T11:07:58Z</time>
      </trkpt>
      <trkpt lat="45.63531" lon="6.06714">
        <ele>1344.0605</ele>
        <time>2011-06-12T11:08:00Z</time>
      </trkpt>
      <trkpt lat="45.63537" lon="6.06715">
        <ele>1343.5798</ele>
        <time>2011-06-12T11:08:03Z</time>
      </trkpt>
      <trkpt lat="45.63549" lon="6.06713">
        <ele>1340.6958</ele>
        <time>2011-06-12T11:08:07Z</time>
      </trkpt>
      <trkpt lat="45.63561" lon="6.06708">
        <ele>1337.331</ele>
        <time>2011-06-12T11:08:12Z</time>
      </trkpt>
      <trkpt lat="45.63583" lon="6.067">
        <ele>1337.8117</ele>
        <time>2011-06-12T11:08:22Z</time>
      </trkpt>
      <trkpt lat="45.63603" lon="6.06689">
        <ele>1335.4084</ele>
        <time>2011-06-12T11:08:30Z</time>
      </trkpt>
      <trkpt lat="45.63626" lon="6.06682">
        <ele>1336.3698</ele>
        <time>2011-06-12T11:08:40Z</time>
      </trkpt>
      <trkpt lat="45.63639" lon="6.06679">
        <ele>1337.8117</ele>
        <time>2011-06-12T11:08:45Z</time>
      </trkpt>
      <trkpt lat="45.63653" lon="6.06676">
        <ele>1337.8117</ele>
        <time>2011-06-12T11:08:50Z</time>
      </trkpt>
      <trkpt lat="45.63664" lon="6.06676">
        <ele>1335.8891</ele>
        <time>2011-06-12T11:08:55Z</time>
      </trkpt>
      <trkpt lat="45.63686" lon="6.06679">
        <ele>1333.4858</ele>
        <time>2011-06-12T11:09:04Z</time>
      </trkpt>
      <trkpt lat="45.63705" lon="6.06686">
        <ele>1331.5632</ele>
        <time>2011-06-12T11:09:11Z</time>
      </trkpt>
      <trkpt lat="45.63725" lon="6.06684">
        <ele>1331.0827</ele>
        <time>2011-06-12T11:09:19Z</time>
      </trkpt>
      <trkpt lat="45.6375" lon="6.06674">
        <ele>1330.602</ele>
        <time>2011-06-12T11:09:30Z</time>
      </trkpt>
      <trkpt lat="45.6377" lon="6.06672">
        <ele>1330.602</ele>
        <time>2011-06-12T11:09:38Z</time>
      </trkpt>
      <trkpt lat="45.63791" lon="6.06673">
        <ele>1333.0051</ele>
        <time>2011-06-12T11:09:46Z</time>
      </trkpt>
      <trkpt lat="45.63811" lon="6.0667">
        <ele>1332.5246</ele>
        <time>2011-06-12T11:09:54Z</time>
      </trkpt>
      <trkpt lat="45.63833" lon="6.06669">
        <ele>1333.0051</ele>
        <time>2011-06-12T11:10:03Z</time>
      </trkpt>
      <trkpt lat="45.63859" lon="6.0667">
        <ele>1331.0827</ele>
        <time>2011-06-12T11:10:14Z</time>
      </trkpt>
      <trkpt lat="45.63874" lon="6.06669">
        <ele>1330.602</ele>
        <time>2011-06-12T11:10:20Z</time>
      </trkpt>
      <trkpt lat="45.63902" lon="6.06663">
        <ele>1329.6406</ele>
        <time>2011-06-12T11:10:31Z</time>
      </trkpt>
      <trkpt lat="45.63934" lon="6.06657">
        <ele>1330.1213</ele>
        <time>2011-06-12T11:10:44Z</time>
      </trkpt>
      <trkpt lat="45.63967" lon="6.06663">
        <ele>1325.3146</ele>
        <time>2011-06-12T11:10:57Z</time>
      </trkpt>
      <trkpt lat="45.63986" lon="6.06664">
        <ele>1323.8725</ele>
        <time>2011-06-12T11:11:05Z</time>
      </trkpt>
      <trkpt lat="45.64007" lon="6.06662">
        <ele>1323.392</ele>
        <time>2011-06-12T11:11:13Z</time>
      </trkpt>
      <trkpt lat="45.64013" lon="6.06663">
        <ele>1323.392</ele>
        <time>2011-06-12T11:11:16Z</time>
      </trkpt>
      <trkpt lat="45.64019" lon="6.06664">
        <ele>1322.9113</ele>
        <time>2011-06-12T11:11:18Z</time>
      </trkpt>
      <trkpt lat="45.64021" lon="6.06665">
        <ele>1322.9113</ele>
        <time>2011-06-12T11:11:19Z</time>
      </trkpt>
      <trkpt lat="45.64033" lon="6.06672">
        <ele>1322.9113</ele>
        <time>2011-06-12T11:11:24Z</time>
      </trkpt>
      <trkpt lat="45.64044" lon="6.06679">
        <ele>1323.392</ele>
        <time>2011-06-12T11:11:29Z</time>
      </trkpt>
      <trkpt lat="45.64052" lon="6.06685">
        <ele>1323.392</ele>
        <time>2011-06-12T11:11:33Z</time>
      </trkpt>
      <trkpt lat="45.64061" lon="6.06692">
        <ele>1323.8725</ele>
        <time>2011-06-12T11:11:37Z</time>
      </trkpt>
      <trkpt lat="45.64063" lon="6.06693">
        <ele>1324.3535</ele>
        <time>2011-06-12T11:11:37Z</time>
      </trkpt>
      <trkpt lat="45.64077" lon="6.067">
        <ele>1324.8342</ele>
        <time>2011-06-12T11:11:43Z</time>
      </trkpt>
      <trkpt lat="45.6409" lon="6.067">
        <ele>1325.7954</ele>
        <time>2011-06-12T11:11:48Z</time>
      </trkpt>
      <trkpt lat="45.641" lon="6.06699">
        <ele>1326.7568</ele>
        <time>2011-06-12T11:11:53Z</time>
      </trkpt>
      <trkpt lat="45.64121" lon="6.06693">
        <ele>1328.6794</ele>
        <time>2011-06-12T11:12:01Z</time>
      </trkpt>
      <trkpt lat="45.64137" lon="6.06693">
        <ele>1329.6406</ele>
        <time>2011-06-12T11:12:08Z</time>
      </trkpt>
      <trkpt lat="45.64159" lon="6.06696">
        <ele>1330.1213</ele>
        <time>2011-06-12T11:12:17Z</time>
      </trkpt>
      <trkpt lat="45.64179" lon="6.067">
        <ele>1331.5632</ele>
        <time>2011-06-12T11:12:24Z</time>
      </trkpt>
      <trkpt lat="45.64196" lon="6.06702">
        <ele>1332.0439</ele>
        <time>2011-06-12T11:12:32Z</time>
      </trkpt>
      <trkpt lat="45.64218" lon="6.06699">
        <ele>1334.4472</ele>
        <time>2011-06-12T11:12:40Z</time>
      </trkpt>
      <trkpt lat="45.64229" lon="6.0669">
        <ele>1335.8891</ele>
        <time>2011-06-12T11:12:45Z</time>
      </trkpt>
      <trkpt lat="45.64241" lon="6.06673">
        <ele>1338.7731</ele>
        <time>2011-06-12T11:12:52Z</time>
      </trkpt>
      <trkpt lat="45.64246" lon="6.06658">
        <ele>1343.0991</ele>
        <time>2011-06-12T11:12:57Z</time>
      </trkpt>
      <trkpt lat="45.64255" lon="6.06636">
        <ele>1349.3476</ele>
        <time>2011-06-12T11:13:04Z</time>
      </trkpt>
      <trkpt lat="45.64271" lon="6.06617">
        <ele>1351.2702</ele>
        <time>2011-06-12T11:13:12Z</time>
      </trkpt>
      <trkpt lat="45.64291" lon="6.06596">
        <ele>1350.7895</ele>
        <time>2011-06-12T11:13:22Z</time>
      </trkpt>
      <trkpt lat="45.64306" lon="6.06584">
        <ele>1349.3476</ele>
        <time>2011-06-12T11:13:29Z</time>
      </trkpt>
      <trkpt lat="45.64325" lon="6.06571">
        <ele>1351.7509</ele>
        <time>2011-06-12T11:13:37Z</time>
      </trkpt>
      <trkpt lat="45.64343" lon="6.06561">
        <ele>1353.1928</ele>
        <time>2011-06-12T11:13:45Z</time>
      </trkpt>
      <trkpt lat="45.64362" lon="6.06553">
        <ele>1354.1542</ele>
        <time>2011-06-12T11:13:53Z</time>
      </trkpt>
      <trkpt lat="45.64385" lon="6.06547">
        <ele>1355.1154</ele>
        <time>2011-06-12T11:14:02Z</time>
      </trkpt>
      <trkpt lat="45.64404" lon="6.06542">
        <ele>1355.5961</ele>
        <time>2011-06-12T11:14:10Z</time>
      </trkpt>
      <trkpt lat="45.64422" lon="6.06529">
        <ele>1357.519</ele>
        <time>2011-06-12T11:14:18Z</time>
      </trkpt>
      <trkpt lat="45.64445" lon="6.06507">
        <ele>1359.9221</ele>
        <time>2011-06-12T11:14:29Z</time>
      </trkpt>
      <trkpt lat="45.64461" lon="6.0649">
        <ele>1361.8449</ele>
        <time>2011-06-12T11:14:37Z</time>
      </trkpt>
      <trkpt lat="45.64474" lon="6.06474">
        <ele>1363.2868</ele>
        <time>2011-06-12T11:14:44Z</time>
      </trkpt>
      <trkpt lat="45.64487" lon="6.0646">
        <ele>1364.7287</ele>
        <time>2011-06-12T11:14:51Z</time>
      </trkpt>
      <trkpt lat="45.64503" lon="6.0644">
        <ele>1366.1706</ele>
        <time>2011-06-12T11:14:59Z</time>
      </trkpt>
      <trkpt lat="45.64516" lon="6.06425">
        <ele>1369.5354</ele>
        <time>2011-06-12T11:15:06Z</time>
      </trkpt>
      <trkpt lat="45.6453" lon="6.0641">
        <ele>1371.4577</ele>
        <time>2011-06-12T11:15:13Z</time>
      </trkpt>
      <trkpt lat="45.64545" lon="6.06401">
        <ele>1373.3808</ele>
        <time>2011-06-12T11:15:19Z</time>
      </trkpt>
      <trkpt lat="45.64558" lon="6.06392">
        <ele>1373.8613</ele>
        <time>2011-06-12T11:15:25Z</time>
      </trkpt>
      <trkpt lat="45.64573" lon="6.06379">
        <ele>1372.4194</ele>
        <time>2011-06-12T11:15:32Z</time>
      </trkpt>
      <trkpt lat="45.64587" lon="6.06369">
        <ele>1373.8613</ele>
        <time>2011-06-12T11:15:39Z</time>
      </trkpt>
      <trkpt lat="45.64603" lon="6.06358">
        <ele>1374.8227</ele>
        <time>2011-06-12T11:15:46Z</time>
      </trkpt>
      <trkpt lat="45.64625" lon="6.06347">
        <ele>1376.2646</ele>
        <time>2011-06-12T11:15:55Z</time>
      </trkpt>
      <trkpt lat="45.64637" lon="6.06336">
        <ele>1377.7065</ele>
        <time>2011-06-12T11:16:00Z</time>
      </trkpt>
      <trkpt lat="45.64639" lon="6.06321">
        <ele>1378.1872</ele>
        <time>2011-06-12T11:16:05Z</time>
      </trkpt>
      <trkpt lat="45.64629" lon="6.06313">
        <ele>1379.1484</ele>
        <time>2011-06-12T11:16:09Z</time>
      </trkpt>
      <trkpt lat="45.64627" lon="6.06312">
        <ele>1379.1484</ele>
        <time>2011-06-12T11:16:10Z</time>
      </trkpt>
      <trkpt lat="45.64609" lon="6.06311">
        <ele>1383.955</ele>
        <time>2011-06-12T11:16:18Z</time>
      </trkpt>
      <trkpt lat="45.64591" lon="6.06312">
        <ele>1384.4357</ele>
        <time>2011-06-12T11:16:25Z</time>
      </trkpt>
      <trkpt lat="45.64569" lon="6.06311">
        <ele>1387.3195</ele>
        <time>2011-06-12T11:16:33Z</time>
      </trkpt>
      <trkpt lat="45.64552" lon="6.06307">
        <ele>1387.8002</ele>
        <time>2011-06-12T11:16:40Z</time>
      </trkpt>
      <trkpt lat="45.64528" lon="6.06296">
        <ele>1389.7231</ele>
        <time>2011-06-12T11:16:50Z</time>
      </trkpt>
      <trkpt lat="45.6451" lon="6.06285">
        <ele>1391.165</ele>
        <time>2011-06-12T11:16:58Z</time>
      </trkpt>
      <trkpt lat="45.64491" lon="6.06273">
        <ele>1392.6071</ele>
        <time>2011-06-12T11:17:06Z</time>
      </trkpt>
      <trkpt lat="45.64466" lon="6.06258">
        <ele>1394.5295</ele>
        <time>2011-06-12T11:17:17Z</time>
      </trkpt>
      <trkpt lat="45.64454" lon="6.06251">
        <ele>1395.4909</ele>
        <time>2011-06-12T11:17:23Z</time>
      </trkpt>
      <trkpt lat="45.64428" lon="6.06234">
        <ele>1397.4135</ele>
        <time>2011-06-12T11:17:34Z</time>
      </trkpt>
      <trkpt lat="45.64408" lon="6.06223">
        <ele>1398.8554</ele>
        <time>2011-06-12T11:17:43Z</time>
      </trkpt>
      <trkpt lat="45.64386" lon="6.06209">
        <ele>1399.8168</ele>
        <time>2011-06-12T11:17:52Z</time>
      </trkpt>
      <trkpt lat="45.6437" lon="6.062">
        <ele>1399.8168</ele>
        <time>2011-06-12T11:17:59Z</time>
      </trkpt>
      <trkpt lat="45.64355" lon="6.06189">
        <ele>1399.8168</ele>
        <time>2011-06-12T11:18:06Z</time>
      </trkpt>
      <trkpt lat="45.64346" lon="6.06186">
        <ele>1399.3361</ele>
        <time>2011-06-12T11:18:10Z</time>
      </trkpt>
      <trkpt lat="45.64333" lon="6.0618">
        <ele>1399.8168</ele>
        <time>2011-06-12T11:18:15Z</time>
      </trkpt>
      <trkpt lat="45.64324" lon="6.06177">
        <ele>1400.2976</ele>
        <time>2011-06-12T11:18:19Z</time>
      </trkpt>
      <trkpt lat="45.64313" lon="6.0617">
        <ele>1400.2976</ele>
        <time>2011-06-12T11:18:24Z</time>
      </trkpt>
      <trkpt lat="45.64304" lon="6.06164">
        <ele>1399.3361</ele>
        <time>2011-06-12T11:18:28Z</time>
      </trkpt>
      <trkpt lat="45.64291" lon="6.06167">
        <ele>1398.3747</ele>
        <time>2011-06-12T11:18:33Z</time>
      </trkpt>
      <trkpt lat="45.64288" lon="6.06143">
        <ele>1397.8942</ele>
        <time>2011-06-12T11:18:40Z</time>
      </trkpt>
      <trkpt lat="45.64287" lon="6.06125">
        <ele>1399.3361</ele>
        <time>2011-06-12T11:18:44Z</time>
      </trkpt>
      <trkpt lat="45.64287" lon="6.06128">
        <ele>1402.2199</ele>
        <time>2011-06-12T11:18:45Z</time>
      </trkpt>
      <trkpt lat="45.64287" lon="6.06128">
        <ele>1402.7006</ele>
        <time>2011-06-12T11:18:45Z</time>
      </trkpt>
      <trkpt lat="45.64285" lon="6.06125">
        <ele>1403.6621</ele>
        <time>2011-06-12T11:18:46Z</time>
      </trkpt>
      <trkpt lat="45.64286" lon="6.06125">
        <ele>1403.6621</ele>
        <time>2011-06-12T11:18:47Z</time>
      </trkpt>
      <trkpt lat="45.64286" lon="6.06126">
        <ele>1402.7006</ele>
        <time>2011-06-12T11:18:47Z</time>
      </trkpt>
      <trkpt lat="45.64285" lon="6.06127">
        <ele>1402.2199</ele>
        <time>2011-06-12T11:18:48Z</time>
      </trkpt>
      <trkpt lat="45.64285" lon="6.06126">
        <ele>1401.7395</ele>
        <time>2011-06-12T11:18:48Z</time>
      </trkpt>
      <trkpt lat="45.64284" lon="6.06127">
        <ele>1403.6621</ele>
        <time>2011-06-12T11:18:48Z</time>
      </trkpt>
      <trkpt lat="45.64284" lon="6.06126">
        <ele>1404.6235</ele>
        <time>2011-06-12T11:18:48Z</time>
      </trkpt>
      <trkpt lat="45.64283" lon="6.06126">
        <ele>1407.0268</ele>
        <time>2011-06-12T11:18:48Z</time>
      </trkpt>
      <trkpt lat="45.64284" lon="6.06126">
        <ele>1406.0654</ele>
        <time>2011-06-12T11:18:49Z</time>
      </trkpt>
      <trkpt lat="45.64284" lon="6.06126">
        <ele>1404.6235</ele>
        <time>2011-06-12T11:18:49Z</time>
      </trkpt>
      <trkpt lat="45.64284" lon="6.06126">
        <ele>1404.143</ele>
        <time>2011-06-12T11:18:49Z</time>
      </trkpt>
      <trkpt lat="45.64285" lon="6.06124">
        <ele>1404.143</ele>
        <time>2011-06-12T11:18:49Z</time>
      </trkpt>
      <trkpt lat="45.64287" lon="6.06122">
        <ele>1402.7006</ele>
        <time>2011-06-12T11:18:50Z</time>
      </trkpt>
      <trkpt lat="45.64288" lon="6.06121">
        <ele>1401.7395</ele>
        <time>2011-06-12T11:18:51Z</time>
      </trkpt>
      <trkpt lat="45.64288" lon="6.06122">
        <ele>1401.7395</ele>
        <time>2011-06-12T11:18:51Z</time>
      </trkpt>
      <trkpt lat="45.64288" lon="6.06121">
        <ele>1402.2199</ele>
        <time>2011-06-12T11:18:51Z</time>
      </trkpt>
      <trkpt lat="45.64288" lon="6.06123">
        <ele>1401.7395</ele>
        <time>2011-06-12T11:18:52Z</time>
      </trkpt>
      <trkpt lat="45.64287" lon="6.06123">
        <ele>1402.7006</ele>
        <time>2011-06-12T11:18:52Z</time>
      </trkpt>
      <trkpt lat="45.64288" lon="6.06122">
        <ele>1403.6621</ele>
        <time>2011-06-12T11:18:52Z</time>
      </trkpt>
      <trkpt lat="45.64288" lon="6.06119">
        <ele>1404.6235</ele>
        <time>2011-06-12T11:18:53Z</time>
      </trkpt>
      <trkpt lat="45.64288" lon="6.06119">
        <ele>1404.6235</ele>
        <time>2011-06-12T11:18:53Z</time>
      </trkpt>
      <trkpt lat="45.64287" lon="6.06119">
        <ele>1404.143</ele>
        <time>2011-06-12T11:18:54Z</time>
      </trkpt>
      <trkpt lat="45.64285" lon="6.06123">
        <ele>1403.6621</ele>
        <time>2011-06-12T11:18:55Z</time>
      </trkpt>
      <trkpt lat="45.64286" lon="6.06121">
        <ele>1404.143</ele>
        <time>2011-06-12T11:18:55Z</time>
      </trkpt>
      <trkpt lat="45.64287" lon="6.0612">
        <ele>1405.1042</ele>
        <time>2011-06-12T11:18:56Z</time>
      </trkpt>
      <trkpt lat="45.64287" lon="6.06121">
        <ele>1405.5849</ele>
        <time>2011-06-12T11:18:57Z</time>
      </trkpt>
      <trkpt lat="45.64286" lon="6.06123">
        <ele>1405.5849</ele>
        <time>2011-06-12T11:18:57Z</time>
      </trkpt>
      <trkpt lat="45.64285" lon="6.06125">
        <ele>1405.5849</ele>
        <time>2011-06-12T11:18:58Z</time>
      </trkpt>
      <trkpt lat="45.6429" lon="6.06124">
        <ele>1406.5461</ele>
        <time>2011-06-12T11:19:00Z</time>
      </trkpt>
      <trkpt lat="45.64292" lon="6.06124">
        <ele>1406.0654</ele>
        <time>2011-06-12T11:19:01Z</time>
      </trkpt>
      <trkpt lat="45.64295" lon="6.06125">
        <ele>1405.1042</ele>
        <time>2011-06-12T11:19:02Z</time>
      </trkpt>
      <trkpt lat="45.64292" lon="6.06122">
        <ele>1401.7395</ele>
        <time>2011-06-12T11:19:03Z</time>
      </trkpt>
      <trkpt lat="45.6429" lon="6.06121">
        <ele>1399.3361</ele>
        <time>2011-06-12T11:19:04Z</time>
      </trkpt>
      <trkpt lat="45.6429" lon="6.0612">
        <ele>1399.3361</ele>
        <time>2011-06-12T11:19:04Z</time>
      </trkpt>
      <trkpt lat="45.64291" lon="6.06117">
        <ele>1400.2976</ele>
        <time>2011-06-12T11:19:05Z</time>
      </trkpt>
      <trkpt lat="45.64293" lon="6.06114">
        <ele>1401.2587</ele>
        <time>2011-06-12T11:19:06Z</time>
      </trkpt>
      <trkpt lat="45.64291" lon="6.06118">
        <ele>1401.7395</ele>
        <time>2011-06-12T11:19:08Z</time>
      </trkpt>
      <trkpt lat="45.64291" lon="6.06119">
        <ele>1402.7006</ele>
        <time>2011-06-12T11:19:08Z</time>
      </trkpt>
      <trkpt lat="45.6429" lon="6.06121">
        <ele>1403.1813</ele>
        <time>2011-06-12T11:19:09Z</time>
      </trkpt>
      <trkpt lat="45.64287" lon="6.06126">
        <ele>1403.1813</ele>
        <time>2011-06-12T11:19:11Z</time>
      </trkpt>
      <trkpt lat="45.64286" lon="6.06127">
        <ele>1403.6621</ele>
        <time>2011-06-12T11:19:11Z</time>
      </trkpt>
      <trkpt lat="45.64286" lon="6.06126">
        <ele>1404.6235</ele>
        <time>2011-06-12T11:19:11Z</time>
      </trkpt>
      <trkpt lat="45.64286" lon="6.06127">
        <ele>1403.6621</ele>
        <time>2011-06-12T11:19:12Z</time>
      </trkpt>
      <trkpt lat="45.64286" lon="6.06127">
        <ele>1404.143</ele>
        <time>2011-06-12T11:19:12Z</time>
      </trkpt>
      <trkpt lat="45.64287" lon="6.06128">
        <ele>1404.6235</ele>
        <time>2011-06-12T11:19:12Z</time>
      </trkpt>
      <trkpt lat="45.64287" lon="6.06127">
        <ele>1403.6621</ele>
        <time>2011-06-12T11:19:12Z</time>
      </trkpt>
      <trkpt lat="45.64286" lon="6.06127">
        <ele>1404.143</ele>
        <time>2011-06-12T11:19:13Z</time>
      </trkpt>
      <trkpt lat="45.64286" lon="6.06127">
        <ele>1405.1042</ele>
        <time>2011-06-12T11:19:13Z</time>
      </trkpt>
      <trkpt lat="45.64285" lon="6.06127">
        <ele>1405.5849</ele>
        <time>2011-06-12T11:19:13Z</time>
      </trkpt>
      <trkpt lat="45.64284" lon="6.06125">
        <ele>1405.5849</ele>
        <time>2011-06-12T11:19:14Z</time>
      </trkpt>
      <trkpt lat="45.64285" lon="6.06125">
        <ele>1405.1042</ele>
        <time>2011-06-12T11:19:14Z</time>
      </trkpt>
      <trkpt lat="45.64285" lon="6.06123">
        <ele>1405.5849</ele>
        <time>2011-06-12T11:19:15Z</time>
      </trkpt>
      <trkpt lat="45.64285" lon="6.06121">
        <ele>1406.0654</ele>
        <time>2011-06-12T11:19:15Z</time>
      </trkpt>
      <trkpt lat="45.64285" lon="6.0612">
        <ele>1407.0268</ele>
        <time>2011-06-12T11:19:15Z</time>
      </trkpt>
      <trkpt lat="45.64285" lon="6.0612">
        <ele>1407.9882</ele>
        <time>2011-06-12T11:19:16Z</time>
      </trkpt>
      <trkpt lat="45.64285" lon="6.06119">
        <ele>1408.9494</ele>
        <time>2011-06-12T11:19:16Z</time>
      </trkpt>
      <trkpt lat="45.64285" lon="6.06121">
        <ele>1407.5075</ele>
        <time>2011-06-12T11:19:16Z</time>
      </trkpt>
      <trkpt lat="45.64284" lon="6.06121">
        <ele>1407.0268</ele>
        <time>2011-06-12T11:19:17Z</time>
      </trkpt>
      <trkpt lat="45.64281" lon="6.06119">
        <ele>1407.0268</ele>
        <time>2011-06-12T11:19:18Z</time>
      </trkpt>
      <trkpt lat="45.64279" lon="6.06105">
        <ele>1404.143</ele>
        <time>2011-06-12T11:19:22Z</time>
      </trkpt>
      <trkpt lat="45.64278" lon="6.06095">
        <ele>1403.1813</ele>
        <time>2011-06-12T11:19:25Z</time>
      </trkpt>
      <trkpt lat="45.64273" lon="6.06082">
        <ele>1401.2587</ele>
        <time>2011-06-12T11:19:29Z</time>
      </trkpt>
      <trkpt lat="45.64272" lon="6.06078">
        <ele>1401.7395</ele>
        <time>2011-06-12T11:19:30Z</time>
      </trkpt>
      <trkpt lat="45.6427" lon="6.06073">
        <ele>1401.7395</ele>
        <time>2011-06-12T11:19:32Z</time>
      </trkpt>
      <trkpt lat="45.6427" lon="6.06072">
        <ele>1401.2587</ele>
        <time>2011-06-12T11:19:32Z</time>
      </trkpt>
      <trkpt lat="45.64268" lon="6.06069">
        <ele>1401.7395</ele>
        <time>2011-06-12T11:19:33Z</time>
      </trkpt>
      <trkpt lat="45.64264" lon="6.06071">
        <ele>1404.6235</ele>
        <time>2011-06-12T11:19:35Z</time>
      </trkpt>
      <trkpt lat="45.64262" lon="6.06072">
        <ele>1406.0654</ele>
        <time>2011-06-12T11:19:36Z</time>
      </trkpt>
      <trkpt lat="45.64261" lon="6.06072">
        <ele>1405.1042</ele>
        <time>2011-06-12T11:19:36Z</time>
      </trkpt>
      <trkpt lat="45.64261" lon="6.06071">
        <ele>1405.1042</ele>
        <time>2011-06-12T11:19:36Z</time>
      </trkpt>
      <trkpt lat="45.64266" lon="6.06069">
        <ele>1400.778</ele>
        <time>2011-06-12T11:19:38Z</time>
      </trkpt>
      <trkpt lat="45.64267" lon="6.06071">
        <ele>1398.8554</ele>
        <time>2011-06-12T11:19:39Z</time>
      </trkpt>
      <trkpt lat="45.64267" lon="6.0607">
        <ele>1397.4135</ele>
        <time>2011-06-12T11:19:39Z</time>
      </trkpt>
      <trkpt lat="45.64268" lon="6.06071">
        <ele>1393.5683</ele>
        <time>2011-06-12T11:19:39Z</time>
      </trkpt>
      <trkpt lat="45.64267" lon="6.06072">
        <ele>1395.0102</ele>
        <time>2011-06-12T11:19:40Z</time>
      </trkpt>
      <trkpt lat="45.64269" lon="6.06073">
        <ele>1393.5683</ele>
        <time>2011-06-12T11:19:41Z</time>
      </trkpt>
      <trkpt lat="45.6427" lon="6.06072">
        <ele>1392.1264</ele>
        <time>2011-06-12T11:19:41Z</time>
      </trkpt>
      <trkpt lat="45.6427" lon="6.06076">
        <ele>1390.6843</ele>
        <time>2011-06-12T11:19:42Z</time>
      </trkpt>
      <trkpt lat="45.6427" lon="6.06076">
        <ele>1391.165</ele>
        <time>2011-06-12T11:19:42Z</time>
      </trkpt>
      <trkpt lat="45.64273" lon="6.06073">
        <ele>1389.2424</ele>
        <time>2011-06-12T11:19:44Z</time>
      </trkpt>
      <trkpt lat="45.64272" lon="6.06073">
        <ele>1389.7231</ele>
        <time>2011-06-12T11:19:44Z</time>
      </trkpt>
      <trkpt lat="45.64272" lon="6.06074">
        <ele>1391.165</ele>
        <time>2011-06-12T11:19:44Z</time>
      </trkpt>
      <trkpt lat="45.6427" lon="6.06075">
        <ele>1394.049</ele>
        <time>2011-06-12T11:19:45Z</time>
      </trkpt>
      <trkpt lat="45.64268" lon="6.06075">
        <ele>1395.0102</ele>
        <time>2011-06-12T11:19:46Z</time>
      </trkpt>
      <trkpt lat="45.64267" lon="6.06078">
        <ele>1397.8942</ele>
        <time>2011-06-12T11:19:47Z</time>
      </trkpt>
      <trkpt lat="45.64267" lon="6.06078">
        <ele>1398.8554</ele>
        <time>2011-06-12T11:19:47Z</time>
      </trkpt>
      <trkpt lat="45.64264" lon="6.06084">
        <ele>1404.143</ele>
        <time>2011-06-12T11:19:49Z</time>
      </trkpt>
      <trkpt lat="45.64268" lon="6.06084">
        <ele>1402.7006</ele>
        <time>2011-06-12T11:19:51Z</time>
      </trkpt>
      <trkpt lat="45.64271" lon="6.06086">
        <ele>1401.7395</ele>
        <time>2011-06-12T11:19:52Z</time>
      </trkpt>
      <trkpt lat="45.64274" lon="6.06088">
        <ele>1400.778</ele>
        <time>2011-06-12T11:19:53Z</time>
      </trkpt>
      <trkpt lat="45.64276" lon="6.06095">
        <ele>1399.3361</ele>
        <time>2011-06-12T11:19:55Z</time>
      </trkpt>
      <trkpt lat="45.64277" lon="6.06095">
        <ele>1397.4135</ele>
        <time>2011-06-12T11:19:56Z</time>
      </trkpt>
      <trkpt lat="45.64282" lon="6.06089">
        <ele>1396.9328</ele>
        <time>2011-06-12T11:19:58Z</time>
      </trkpt>
      <trkpt lat="45.64283" lon="6.06086">
        <ele>1398.8554</ele>
        <time>2011-06-12T11:19:59Z</time>
      </trkpt>
      <trkpt lat="45.64285" lon="6.06083">
        <ele>1400.2976</ele>
        <time>2011-06-12T11:20:00Z</time>
      </trkpt>
      <trkpt lat="45.64285" lon="6.06083">
        <ele>1401.7395</ele>
        <time>2011-06-12T11:20:01Z</time>
      </trkpt>
      <trkpt lat="45.64283" lon="6.06087">
        <ele>1401.7395</ele>
        <time>2011-06-12T11:20:02Z</time>
      </trkpt>
      <trkpt lat="45.64281" lon="6.06087">
        <ele>1401.7395</ele>
        <time>2011-06-12T11:20:03Z</time>
      </trkpt>
      <trkpt lat="45.64279" lon="6.06082">
        <ele>1401.7395</ele>
        <time>2011-06-12T11:20:04Z</time>
      </trkpt>
      <trkpt lat="45.6428" lon="6.06085">
        <ele>1401.7395</ele>
        <time>2011-06-12T11:20:05Z</time>
      </trkpt>
      <trkpt lat="45.6428" lon="6.06087">
        <ele>1401.7395</ele>
        <time>2011-06-12T11:20:05Z</time>
      </trkpt>
      <trkpt lat="45.64276" lon="6.0609">
        <ele>1401.2587</ele>
        <time>2011-06-12T11:20:07Z</time>
      </trkpt>
      <trkpt lat="45.64273" lon="6.06089">
        <ele>1401.2587</ele>
        <time>2011-06-12T11:20:08Z</time>
      </trkpt>
      <trkpt lat="45.64274" lon="6.06088">
        <ele>1401.2587</ele>
        <time>2011-06-12T11:20:09Z</time>
      </trkpt>
      <trkpt lat="45.64275" lon="6.06086">
        <ele>1402.7006</ele>
        <time>2011-06-12T11:20:10Z</time>
      </trkpt>
      <trkpt lat="45.64276" lon="6.06087">
        <ele>1403.1813</ele>
        <time>2011-06-12T11:20:10Z</time>
      </trkpt>
      <trkpt lat="45.64276" lon="6.06086">
        <ele>1404.6235</ele>
        <time>2011-06-12T11:20:10Z</time>
      </trkpt>
      <trkpt lat="45.64277" lon="6.06087">
        <ele>1403.6621</ele>
        <time>2011-06-12T11:20:11Z</time>
      </trkpt>
      <trkpt lat="45.64277" lon="6.06088">
        <ele>1401.7395</ele>
        <time>2011-06-12T11:20:11Z</time>
      </trkpt>
      <trkpt lat="45.64281" lon="6.06088">
        <ele>1400.778</ele>
        <time>2011-06-12T11:20:12Z</time>
      </trkpt>
      <trkpt lat="45.64283" lon="6.06087">
        <ele>1400.2976</ele>
        <time>2011-06-12T11:20:13Z</time>
      </trkpt>
      <trkpt lat="45.64283" lon="6.06091">
        <ele>1400.778</ele>
        <time>2011-06-12T11:20:14Z</time>
      </trkpt>
      <trkpt lat="45.64285" lon="6.06097">
        <ele>1399.8168</ele>
        <time>2011-06-12T11:20:16Z</time>
      </trkpt>
      <trkpt lat="45.64285" lon="6.061">
        <ele>1400.2976</ele>
        <time>2011-06-12T11:20:17Z</time>
      </trkpt>
      <trkpt lat="45.64286" lon="6.06108">
        <ele>1401.2587</ele>
        <time>2011-06-12T11:20:19Z</time>
      </trkpt>
      <trkpt lat="45.64287" lon="6.06108">
        <ele>1399.3361</ele>
        <time>2011-06-12T11:20:20Z</time>
      </trkpt>
      <trkpt lat="45.64287" lon="6.06112">
        <ele>1399.3361</ele>
        <time>2011-06-12T11:20:21Z</time>
      </trkpt>
      <trkpt lat="45.64288" lon="6.06121">
        <ele>1399.3361</ele>
        <time>2011-06-12T11:20:24Z</time>
      </trkpt>
      <trkpt lat="45.64289" lon="6.06125">
        <ele>1398.8554</ele>
        <time>2011-06-12T11:20:25Z</time>
      </trkpt>
      <trkpt lat="45.64288" lon="6.06123">
        <ele>1400.2976</ele>
        <time>2011-06-12T11:20:25Z</time>
      </trkpt>
      <trkpt lat="45.64287" lon="6.0612">
        <ele>1400.2976</ele>
        <time>2011-06-12T11:20:26Z</time>
      </trkpt>
      <trkpt lat="45.64285" lon="6.06109">
        <ele>1400.2976</ele>
        <time>2011-06-12T11:20:29Z</time>
      </trkpt>
      <trkpt lat="45.64286" lon="6.06106">
        <ele>1400.2976</ele>
        <time>2011-06-12T11:20:30Z</time>
      </trkpt>
      <trkpt lat="45.64286" lon="6.06107">
        <ele>1400.778</ele>
        <time>2011-06-12T11:20:30Z</time>
      </trkpt>
      <trkpt lat="45.64285" lon="6.06107">
        <ele>1400.778</ele>
        <time>2011-06-12T11:20:30Z</time>
      </trkpt>
      <trkpt lat="45.64285" lon="6.06107">
        <ele>1401.7395</ele>
        <time>2011-06-12T11:20:30Z</time>
      </trkpt>
      <trkpt lat="45.64285" lon="6.06108">
        <ele>1401.7395</ele>
        <time>2011-06-12T11:20:31Z</time>
      </trkpt>
      <trkpt lat="45.64283" lon="6.06109">
        <ele>1400.2976</ele>
        <time>2011-06-12T11:20:31Z</time>
      </trkpt>
      <trkpt lat="45.64286" lon="6.06111">
        <ele>1399.8168</ele>
        <time>2011-06-12T11:20:32Z</time>
      </trkpt>
      <trkpt lat="45.64285" lon="6.06114">
        <ele>1399.3361</ele>
        <time>2011-06-12T11:20:34Z</time>
      </trkpt>
      <trkpt lat="45.64286" lon="6.06123">
        <ele>1399.3361</ele>
        <time>2011-06-12T11:20:36Z</time>
      </trkpt>
      <trkpt lat="45.64287" lon="6.06123">
        <ele>1399.8168</ele>
        <time>2011-06-12T11:20:37Z</time>
      </trkpt>
      <trkpt lat="45.64289" lon="6.06123">
        <ele>1400.778</ele>
        <time>2011-06-12T11:20:37Z</time>
      </trkpt>
      <trkpt lat="45.64291" lon="6.0612">
        <ele>1401.7395</ele>
        <time>2011-06-12T11:20:39Z</time>
      </trkpt>
      <trkpt lat="45.64296" lon="6.06113">
        <ele>1401.7395</ele>
        <time>2011-06-12T11:20:41Z</time>
      </trkpt>
      <trkpt lat="45.64297" lon="6.06107">
        <ele>1402.2199</ele>
        <time>2011-06-12T11:20:43Z</time>
      </trkpt>
      <trkpt lat="45.64298" lon="6.06107">
        <ele>1402.7006</ele>
        <time>2011-06-12T11:20:43Z</time>
      </trkpt>
      <trkpt lat="45.64298" lon="6.06106">
        <ele>1402.7006</ele>
        <time>2011-06-12T11:20:44Z</time>
      </trkpt>
      <trkpt lat="45.64299" lon="6.06106">
        <ele>1402.7006</ele>
        <time>2011-06-12T11:20:44Z</time>
      </trkpt>
      <trkpt lat="45.643" lon="6.06105">
        <ele>1405.1042</ele>
        <time>2011-06-12T11:20:45Z</time>
      </trkpt>
      <trkpt lat="45.643" lon="6.06104">
        <ele>1406.0654</ele>
        <time>2011-06-12T11:20:45Z</time>
      </trkpt>
      <trkpt lat="45.64299" lon="6.06103">
        <ele>1407.0268</ele>
        <time>2011-06-12T11:20:45Z</time>
      </trkpt>
      <trkpt lat="45.643" lon="6.06103">
        <ele>1407.0268</ele>
        <time>2011-06-12T11:20:45Z</time>
      </trkpt>
      <trkpt lat="45.643" lon="6.06103">
        <ele>1406.5461</ele>
        <time>2011-06-12T11:20:46Z</time>
      </trkpt>
      <trkpt lat="45.643" lon="6.06103">
        <ele>1406.0654</ele>
        <time>2011-06-12T11:20:46Z</time>
      </trkpt>
      <trkpt lat="45.64299" lon="6.06103">
        <ele>1405.5849</ele>
        <time>2011-06-12T11:20:46Z</time>
      </trkpt>
      <trkpt lat="45.64299" lon="6.06103">
        <ele>1405.5849</ele>
        <time>2011-06-12T11:20:46Z</time>
      </trkpt>
      <trkpt lat="45.64299" lon="6.06103">
        <ele>1405.5849</ele>
        <time>2011-06-12T11:20:46Z</time>
      </trkpt>
      <trkpt lat="45.64299" lon="6.06103">
        <ele>1405.5849</ele>
        <time>2011-06-12T11:20:46Z</time>
      </trkpt>
      <trkpt lat="45.64299" lon="6.06103">
        <ele>1405.5849</ele>
        <time>2011-06-12T11:20:46Z</time>
      </trkpt>
      <trkpt lat="45.64299" lon="6.06102">
        <ele>1405.5849</ele>
        <time>2011-06-12T11:20:46Z</time>
      </trkpt>
      <trkpt lat="45.64299" lon="6.06102">
        <ele>1403.6621</ele>
        <time>2011-06-12T11:20:46Z</time>
      </trkpt>
      <trkpt lat="45.643" lon="6.06103">
        <ele>1404.143</ele>
        <time>2011-06-12T11:20:47Z</time>
      </trkpt>
      <trkpt lat="45.64299" lon="6.06104">
        <ele>1405.1042</ele>
        <time>2011-06-12T11:20:47Z</time>
      </trkpt>
      <trkpt lat="45.64299" lon="6.06106">
        <ele>1402.7006</ele>
        <time>2011-06-12T11:20:48Z</time>
      </trkpt>
      <trkpt lat="45.64298" lon="6.06108">
        <ele>1402.7006</ele>
        <time>2011-06-12T11:20:48Z</time>
      </trkpt>
      <trkpt lat="45.64298" lon="6.06107">
        <ele>1403.6621</ele>
        <time>2011-06-12T11:20:49Z</time>
      </trkpt>
      <trkpt lat="45.64299" lon="6.06107">
        <ele>1404.6235</ele>
        <time>2011-06-12T11:20:49Z</time>
      </trkpt>
      <trkpt lat="45.64297" lon="6.06107">
        <ele>1403.1813</ele>
        <time>2011-06-12T11:20:50Z</time>
      </trkpt>
      <trkpt lat="45.64297" lon="6.06108">
        <ele>1402.7006</ele>
        <time>2011-06-12T11:20:50Z</time>
      </trkpt>
      <trkpt lat="45.64297" lon="6.06108">
        <ele>1403.1813</ele>
        <time>2011-06-12T11:20:50Z</time>
      </trkpt>
      <trkpt lat="45.64298" lon="6.06108">
        <ele>1403.6621</ele>
        <time>2011-06-12T11:20:51Z</time>
      </trkpt>
      <trkpt lat="45.64298" lon="6.06107">
        <ele>1404.6235</ele>
        <time>2011-06-12T11:20:51Z</time>
      </trkpt>
      <trkpt lat="45.64299" lon="6.06106">
        <ele>1403.6621</ele>
        <time>2011-06-12T11:20:51Z</time>
      </trkpt>
      <trkpt lat="45.64299" lon="6.06107">
        <ele>1404.143</ele>
        <time>2011-06-12T11:20:52Z</time>
      </trkpt>
      <trkpt lat="45.64298" lon="6.06111">
        <ele>1404.143</ele>
        <time>2011-06-12T11:20:53Z</time>
      </trkpt>
      <trkpt lat="45.64296" lon="6.06113">
        <ele>1406.0654</ele>
        <time>2011-06-12T11:20:54Z</time>
      </trkpt>
      <trkpt lat="45.64293" lon="6.06115">
        <ele>1407.5075</ele>
        <time>2011-06-12T11:20:55Z</time>
      </trkpt>
      <trkpt lat="45.64292" lon="6.06116">
        <ele>1407.5075</ele>
        <time>2011-06-12T11:20:55Z</time>
      </trkpt>
      <trkpt lat="45.64288" lon="6.06125">
        <ele>1405.5849</ele>
        <time>2011-06-12T11:20:58Z</time>
      </trkpt>
      <trkpt lat="45.64287" lon="6.06125">
        <ele>1405.1042</ele>
        <time>2011-06-12T11:20:59Z</time>
      </trkpt>
      <trkpt lat="45.64285" lon="6.06123">
        <ele>1406.0654</ele>
        <time>2011-06-12T11:21:00Z</time>
      </trkpt>
      <trkpt lat="45.64285" lon="6.06124">
        <ele>1406.0654</ele>
        <time>2011-06-12T11:21:00Z</time>
      </trkpt>
      <trkpt lat="45.64287" lon="6.06124">
        <ele>1405.1042</ele>
        <time>2011-06-12T11:21:01Z</time>
      </trkpt>
      <trkpt lat="45.64286" lon="6.06124">
        <ele>1406.0654</ele>
        <time>2011-06-12T11:21:01Z</time>
      </trkpt>
      <trkpt lat="45.64285" lon="6.06123">
        <ele>1405.5849</ele>
        <time>2011-06-12T11:21:01Z</time>
      </trkpt>
      <trkpt lat="45.64284" lon="6.0612">
        <ele>1405.1042</ele>
        <time>2011-06-12T11:21:02Z</time>
      </trkpt>
      <trkpt lat="45.64283" lon="6.06113">
        <ele>1404.143</ele>
        <time>2011-06-12T11:21:04Z</time>
      </trkpt>
      <trkpt lat="45.64284" lon="6.06111">
        <ele>1404.143</ele>
        <time>2011-06-12T11:21:05Z</time>
      </trkpt>
      <trkpt lat="45.64289" lon="6.06088">
        <ele>1401.2587</ele>
        <time>2011-06-12T11:21:12Z</time>
      </trkpt>
      <trkpt lat="45.64294" lon="6.06076">
        <ele>1399.3361</ele>
        <time>2011-06-12T11:21:16Z</time>
      </trkpt>
      <trkpt lat="45.64294" lon="6.06074">
        <ele>1399.3361</ele>
        <time>2011-06-12T11:21:16Z</time>
      </trkpt>
      <trkpt lat="45.64294" lon="6.06075">
        <ele>1400.2976</ele>
        <time>2011-06-12T11:21:16Z</time>
      </trkpt>
      <trkpt lat="45.64293" lon="6.06074">
        <ele>1401.2587</ele>
        <time>2011-06-12T11:21:17Z</time>
      </trkpt>
      <trkpt lat="45.64294" lon="6.06074">
        <ele>1400.778</ele>
        <time>2011-06-12T11:21:17Z</time>
      </trkpt>
      <trkpt lat="45.64294" lon="6.06075">
        <ele>1399.8168</ele>
        <time>2011-06-12T11:21:18Z</time>
      </trkpt>
      <trkpt lat="45.64294" lon="6.06074">
        <ele>1399.8168</ele>
        <time>2011-06-12T11:21:18Z</time>
      </trkpt>
      <trkpt lat="45.64294" lon="6.06074">
        <ele>1399.8168</ele>
        <time>2011-06-12T11:21:18Z</time>
      </trkpt>
      <trkpt lat="45.64298" lon="6.06071">
        <ele>1399.8168</ele>
        <time>2011-06-12T11:21:20Z</time>
      </trkpt>
      <trkpt lat="45.64297" lon="6.06062">
        <ele>1399.8168</ele>
        <time>2011-06-12T11:21:22Z</time>
      </trkpt>
      <trkpt lat="45.64295" lon="6.06052">
        <ele>1399.3361</ele>
        <time>2011-06-12T11:21:25Z</time>
      </trkpt>
      <trkpt lat="45.64291" lon="6.06043">
        <ele>1398.8554</ele>
        <time>2011-06-12T11:21:28Z</time>
      </trkpt>
      <trkpt lat="45.64288" lon="6.06034">
        <ele>1398.3747</ele>
        <time>2011-06-12T11:21:31Z</time>
      </trkpt>
      <trkpt lat="45.64284" lon="6.06021">
        <ele>1399.8168</ele>
        <time>2011-06-12T11:21:35Z</time>
      </trkpt>
      <trkpt lat="45.64282" lon="6.06014">
        <ele>1400.2976</ele>
        <time>2011-06-12T11:21:37Z</time>
      </trkpt>
      <trkpt lat="45.6428" lon="6.06009">
        <ele>1401.7395</ele>
        <time>2011-06-12T11:21:38Z</time>
      </trkpt>
      <trkpt lat="45.64277" lon="6.06005">
        <ele>1402.7006</ele>
        <time>2011-06-12T11:21:40Z</time>
      </trkpt>
      <trkpt lat="45.64273" lon="6.05999">
        <ele>1403.6621</ele>
        <time>2011-06-12T11:21:42Z</time>
      </trkpt>
      <trkpt lat="45.64271" lon="6.05994">
        <ele>1404.6235</ele>
        <time>2011-06-12T11:21:44Z</time>
      </trkpt>
      <trkpt lat="45.64264" lon="6.05984">
        <ele>1406.5461</ele>
        <time>2011-06-12T11:21:48Z</time>
      </trkpt>
      <trkpt lat="45.64261" lon="6.05978">
        <ele>1408.4687</ele>
        <time>2011-06-12T11:21:50Z</time>
      </trkpt>
      <trkpt lat="45.64254" lon="6.0597">
        <ele>1410.3913</ele>
        <time>2011-06-12T11:21:53Z</time>
      </trkpt>
      <trkpt lat="45.64252" lon="6.05969">
        <ele>1411.3527</ele>
        <time>2011-06-12T11:21:54Z</time>
      </trkpt>
      <trkpt lat="45.6425" lon="6.05966">
        <ele>1411.8334</ele>
        <time>2011-06-12T11:21:55Z</time>
      </trkpt>
      <trkpt lat="45.64246" lon="6.05964">
        <ele>1412.7946</ele>
        <time>2011-06-12T11:21:57Z</time>
      </trkpt>
      <trkpt lat="45.6424" lon="6.05958">
        <ele>1414.2365</ele>
        <time>2011-06-12T11:22:00Z</time>
      </trkpt>
      <trkpt lat="45.64236" lon="6.05953">
        <ele>1416.1591</ele>
        <time>2011-06-12T11:22:02Z</time>
      </trkpt>
      <trkpt lat="45.64235" lon="6.0595">
        <ele>1417.1206</ele>
        <time>2011-06-12T11:22:03Z</time>
      </trkpt>
      <trkpt lat="45.6423" lon="6.05942">
        <ele>1417.601</ele>
        <time>2011-06-12T11:22:06Z</time>
      </trkpt>
      <trkpt lat="45.64224" lon="6.05934">
        <ele>1419.0432</ele>
        <time>2011-06-12T11:22:09Z</time>
      </trkpt>
      <trkpt lat="45.64221" lon="6.05929">
        <ele>1420.4853</ele>
        <time>2011-06-12T11:22:11Z</time>
      </trkpt>
      <trkpt lat="45.64218" lon="6.05924">
        <ele>1421.4465</ele>
        <time>2011-06-12T11:22:13Z</time>
      </trkpt>
      <trkpt lat="45.64212" lon="6.05915">
        <ele>1423.8498</ele>
        <time>2011-06-12T11:22:17Z</time>
      </trkpt>
      <trkpt lat="45.64207" lon="6.05907">
        <ele>1425.7724</ele>
        <time>2011-06-12T11:22:20Z</time>
      </trkpt>
      <trkpt lat="45.64201" lon="6.05897">
        <ele>1428.6564</ele>
        <time>2011-06-12T11:22:23Z</time>
      </trkpt>
      <trkpt lat="45.64195" lon="6.05885">
        <ele>1431.0598</ele>
        <time>2011-06-12T11:22:27Z</time>
      </trkpt>
      <trkpt lat="45.64192" lon="6.05881">
        <ele>1431.5402</ele>
        <time>2011-06-12T11:22:29Z</time>
      </trkpt>
      <trkpt lat="45.64192" lon="6.05881">
        <ele>1431.0598</ele>
        <time>2011-06-12T11:22:29Z</time>
      </trkpt>
      <trkpt lat="45.64187" lon="6.05882">
        <ele>1431.5402</ele>
        <time>2011-06-12T11:22:31Z</time>
      </trkpt>
      <trkpt lat="45.64186" lon="6.05879">
        <ele>1432.5017</ele>
        <time>2011-06-12T11:22:32Z</time>
      </trkpt>
      <trkpt lat="45.64185" lon="6.05873">
        <ele>1432.9821</ele>
        <time>2011-06-12T11:22:34Z</time>
      </trkpt>
      <trkpt lat="45.64179" lon="6.05874">
        <ele>1434.4243</ele>
        <time>2011-06-12T11:22:36Z</time>
      </trkpt>
      <trkpt lat="45.64176" lon="6.05869">
        <ele>1435.3854</ele>
        <time>2011-06-12T11:22:38Z</time>
      </trkpt>
      <trkpt lat="45.64172" lon="6.05861">
        <ele>1437.3083</ele>
        <time>2011-06-12T11:22:40Z</time>
      </trkpt>
      <trkpt lat="45.64168" lon="6.05854">
        <ele>1438.2697</ele>
        <time>2011-06-12T11:22:43Z</time>
      </trkpt>
      <trkpt lat="45.64166" lon="6.0585">
        <ele>1439.7116</ele>
        <time>2011-06-12T11:22:44Z</time>
      </trkpt>
      <trkpt lat="45.64161" lon="6.05844">
        <ele>1441.6342</ele>
        <time>2011-06-12T11:22:47Z</time>
      </trkpt>
      <trkpt lat="45.6416" lon="6.05842">
        <ele>1441.6342</ele>
        <time>2011-06-12T11:22:48Z</time>
      </trkpt>
      <trkpt lat="45.6416" lon="6.05843">
        <ele>1442.1149</ele>
        <time>2011-06-12T11:22:48Z</time>
      </trkpt>
      <trkpt lat="45.64159" lon="6.05843">
        <ele>1442.5957</ele>
        <time>2011-06-12T11:22:48Z</time>
      </trkpt>
      <trkpt lat="45.64159" lon="6.05843">
        <ele>1442.5957</ele>
        <time>2011-06-12T11:22:48Z</time>
      </trkpt>
      <trkpt lat="45.64159" lon="6.05843">
        <ele>1442.5957</ele>
        <time>2011-06-12T11:22:48Z</time>
      </trkpt>
      <trkpt lat="45.64159" lon="6.05844">
        <ele>1442.1149</ele>
        <time>2011-06-12T11:22:49Z</time>
      </trkpt>
      <trkpt lat="45.64157" lon="6.05848">
        <ele>1445.4794</ele>
        <time>2011-06-12T11:22:50Z</time>
      </trkpt>
      <trkpt lat="45.64156" lon="6.05849">
        <ele>1445.9602</ele>
        <time>2011-06-12T11:22:50Z</time>
      </trkpt>
      <trkpt lat="45.64156" lon="6.05845">
        <ele>1443.5568</ele>
        <time>2011-06-12T11:22:52Z</time>
      </trkpt>
      <trkpt lat="45.64152" lon="6.05834">
        <ele>1444.0375</ele>
        <time>2011-06-12T11:22:55Z</time>
      </trkpt>
      <trkpt lat="45.64148" lon="6.05825">
        <ele>1444.9987</ele>
        <time>2011-06-12T11:22:58Z</time>
      </trkpt>
      <trkpt lat="45.64147" lon="6.05821">
        <ele>1445.9602</ele>
        <time>2011-06-12T11:22:59Z</time>
      </trkpt>
      <trkpt lat="45.64146" lon="6.05815">
        <ele>1447.402</ele>
        <time>2011-06-12T11:23:01Z</time>
      </trkpt>
      <trkpt lat="45.64143" lon="6.05812">
        <ele>1448.3632</ele>
        <time>2011-06-12T11:23:02Z</time>
      </trkpt>
      <trkpt lat="45.64137" lon="6.05811">
        <ele>1449.8054</ele>
        <time>2011-06-12T11:23:05Z</time>
      </trkpt>
      <trkpt lat="45.64133" lon="6.05809">
        <ele>1450.7666</ele>
        <time>2011-06-12T11:23:07Z</time>
      </trkpt>
      <trkpt lat="45.64132" lon="6.05805">
        <ele>1451.728</ele>
        <time>2011-06-12T11:23:08Z</time>
      </trkpt>
      <trkpt lat="45.64127" lon="6.05799">
        <ele>1452.2087</ele>
        <time>2011-06-12T11:23:10Z</time>
      </trkpt>
      <trkpt lat="45.64123" lon="6.05792">
        <ele>1453.1701</ele>
        <time>2011-06-12T11:23:13Z</time>
      </trkpt>
      <trkpt lat="45.64121" lon="6.05787">
        <ele>1454.1315</ele>
        <time>2011-06-12T11:23:15Z</time>
      </trkpt>
      <trkpt lat="45.64118" lon="6.05782">
        <ele>1455.0927</ele>
        <time>2011-06-12T11:23:16Z</time>
      </trkpt>
      <trkpt lat="45.64118" lon="6.05779">
        <ele>1455.5734</ele>
        <time>2011-06-12T11:23:17Z</time>
      </trkpt>
      <trkpt lat="45.64118" lon="6.05779">
        <ele>1456.0539</ele>
        <time>2011-06-12T11:23:17Z</time>
      </trkpt>
      <trkpt lat="45.64118" lon="6.05779">
        <ele>1456.5346</ele>
        <time>2011-06-12T11:23:17Z</time>
      </trkpt>
      <trkpt lat="45.64118" lon="6.0578">
        <ele>1456.0539</ele>
        <time>2011-06-12T11:23:17Z</time>
      </trkpt>
      <trkpt lat="45.64118" lon="6.0578">
        <ele>1456.0539</ele>
        <time>2011-06-12T11:23:18Z</time>
      </trkpt>
      <trkpt lat="45.64116" lon="6.0578">
        <ele>1456.0539</ele>
        <time>2011-06-12T11:23:18Z</time>
      </trkpt>
      <trkpt lat="45.64117" lon="6.0578">
        <ele>1456.5346</ele>
        <time>2011-06-12T11:23:19Z</time>
      </trkpt>
      <trkpt lat="45.64116" lon="6.0578">
        <ele>1456.5346</ele>
        <time>2011-06-12T11:23:19Z</time>
      </trkpt>
      <trkpt lat="45.64115" lon="6.05781">
        <ele>1457.0153</ele>
        <time>2011-06-12T11:23:20Z</time>
      </trkpt>
      <trkpt lat="45.64111" lon="6.05773">
        <ele>1458.4572</ele>
        <time>2011-06-12T11:23:22Z</time>
      </trkpt>
      <trkpt lat="45.64111" lon="6.05773">
        <ele>1457.0153</ele>
        <time>2011-06-12T11:23:23Z</time>
      </trkpt>
      <trkpt lat="45.64111" lon="6.05774">
        <ele>1456.5346</ele>
        <time>2011-06-12T11:23:23Z</time>
      </trkpt>
      <trkpt lat="45.6411" lon="6.05773">
        <ele>1456.5346</ele>
        <time>2011-06-12T11:23:23Z</time>
      </trkpt>
      <trkpt lat="45.64107" lon="6.05767">
        <ele>1457.0153</ele>
        <time>2011-06-12T11:23:26Z</time>
      </trkpt>
      <trkpt lat="45.64103" lon="6.05758">
        <ele>1456.5346</ele>
        <time>2011-06-12T11:23:28Z</time>
      </trkpt>
      <trkpt lat="45.64097" lon="6.05746">
        <ele>1457.0153</ele>
        <time>2011-06-12T11:23:33Z</time>
      </trkpt>
      <trkpt lat="45.64092" lon="6.05739">
        <ele>1458.4572</ele>
        <time>2011-06-12T11:23:36Z</time>
      </trkpt>
      <trkpt lat="45.64091" lon="6.05736">
        <ele>1458.9379</ele>
        <time>2011-06-12T11:23:36Z</time>
      </trkpt>
      <trkpt lat="45.64085" lon="6.05728">
        <ele>1460.3798</ele>
        <time>2011-06-12T11:23:40Z</time>
      </trkpt>
      <trkpt lat="45.64083" lon="6.05727">
        <ele>1462.3024</ele>
        <time>2011-06-12T11:23:41Z</time>
      </trkpt>
      <trkpt lat="45.64078" lon="6.05721">
        <ele>1462.3024</ele>
        <time>2011-06-12T11:23:43Z</time>
      </trkpt>
      <trkpt lat="45.6407" lon="6.0571">
        <ele>1462.3024</ele>
        <time>2011-06-12T11:23:48Z</time>
      </trkpt>
      <trkpt lat="45.64061" lon="6.05698">
        <ele>1461.822</ele>
        <time>2011-06-12T11:23:53Z</time>
      </trkpt>
      <trkpt lat="45.64054" lon="6.05689">
        <ele>1461.822</ele>
        <time>2011-06-12T11:23:56Z</time>
      </trkpt>
      <trkpt lat="45.64047" lon="6.05676">
        <ele>1462.7832</ele>
        <time>2011-06-12T11:24:01Z</time>
      </trkpt>
      <trkpt lat="45.6404" lon="6.05664">
        <ele>1463.7443</ele>
        <time>2011-06-12T11:24:05Z</time>
      </trkpt>
      <trkpt lat="45.64031" lon="6.05656">
        <ele>1465.1865</ele>
        <time>2011-06-12T11:24:10Z</time>
      </trkpt>
      <trkpt lat="45.6403" lon="6.05654">
        <ele>1465.1865</ele>
        <time>2011-06-12T11:24:10Z</time>
      </trkpt>
      <trkpt lat="45.64026" lon="6.05653">
        <ele>1467.1091</ele>
        <time>2011-06-12T11:24:12Z</time>
      </trkpt>
      <trkpt lat="45.64024" lon="6.05648">
        <ele>1468.5512</ele>
        <time>2011-06-12T11:24:13Z</time>
      </trkpt>
      <trkpt lat="45.64025" lon="6.05645">
        <ele>1469.5126</ele>
        <time>2011-06-12T11:24:14Z</time>
      </trkpt>
      <trkpt lat="45.64022" lon="6.05644">
        <ele>1472.3964</ele>
        <time>2011-06-12T11:24:16Z</time>
      </trkpt>
      <trkpt lat="45.64018" lon="6.05642">
        <ele>1474.319</ele>
        <time>2011-06-12T11:24:17Z</time>
      </trkpt>
      <trkpt lat="45.64012" lon="6.05634">
        <ele>1476.7224</ele>
        <time>2011-06-12T11:24:20Z</time>
      </trkpt>
      <trkpt lat="45.64009" lon="6.0563">
        <ele>1477.6835</ele>
        <time>2011-06-12T11:24:22Z</time>
      </trkpt>
      <trkpt lat="45.64007" lon="6.05626">
        <ele>1479.1254</ele>
        <time>2011-06-12T11:24:23Z</time>
      </trkpt>
      <trkpt lat="45.64001" lon="6.0562">
        <ele>1480.5676</ele>
        <time>2011-06-12T11:24:26Z</time>
      </trkpt>
      <trkpt lat="45.63997" lon="6.05612">
        <ele>1482.0095</ele>
        <time>2011-06-12T11:24:29Z</time>
      </trkpt>
      <trkpt lat="45.6399" lon="6.05603">
        <ele>1482.4902</ele>
        <time>2011-06-12T11:24:33Z</time>
      </trkpt>
      <trkpt lat="45.6399" lon="6.05599">
        <ele>1482.9707</ele>
        <time>2011-06-12T11:24:34Z</time>
      </trkpt>
      <trkpt lat="45.63986" lon="6.056">
        <ele>1483.9321</ele>
        <time>2011-06-12T11:24:36Z</time>
      </trkpt>
      <trkpt lat="45.63985" lon="6.05602">
        <ele>1485.3742</ele>
        <time>2011-06-12T11:24:36Z</time>
      </trkpt>
      <trkpt lat="45.63984" lon="6.05604">
        <ele>1487.2968</ele>
        <time>2011-06-12T11:24:37Z</time>
      </trkpt>
      <trkpt lat="45.63985" lon="6.05604">
        <ele>1488.2583</ele>
        <time>2011-06-12T11:24:37Z</time>
      </trkpt>
      <trkpt lat="45.63984" lon="6.05604">
        <ele>1487.7775</ele>
        <time>2011-06-12T11:24:37Z</time>
      </trkpt>
      <trkpt lat="45.63984" lon="6.05604">
        <ele>1489.7001</ele>
        <time>2011-06-12T11:24:38Z</time>
      </trkpt>
      <trkpt lat="45.63983" lon="6.05601">
        <ele>1491.142</ele>
        <time>2011-06-12T11:24:38Z</time>
      </trkpt>
      <trkpt lat="45.63983" lon="6.05602">
        <ele>1491.142</ele>
        <time>2011-06-12T11:24:39Z</time>
      </trkpt>
      <trkpt lat="45.63984" lon="6.05602">
        <ele>1489.2194</ele>
        <time>2011-06-12T11:24:39Z</time>
      </trkpt>
      <trkpt lat="45.63984" lon="6.05601">
        <ele>1490.1809</ele>
        <time>2011-06-12T11:24:39Z</time>
      </trkpt>
      <trkpt lat="45.63982" lon="6.05603">
        <ele>1491.142</ele>
        <time>2011-06-12T11:24:40Z</time>
      </trkpt>
      <trkpt lat="45.63983" lon="6.05603">
        <ele>1489.7001</ele>
        <time>2011-06-12T11:24:40Z</time>
      </trkpt>
      <trkpt lat="45.63984" lon="6.05602">
        <ele>1489.2194</ele>
        <time>2011-06-12T11:24:41Z</time>
      </trkpt>
      <trkpt lat="45.63982" lon="6.05601">
        <ele>1491.6228</ele>
        <time>2011-06-12T11:24:42Z</time>
      </trkpt>
      <trkpt lat="45.63981" lon="6.05597">
        <ele>1492.1035</ele>
        <time>2011-06-12T11:24:43Z</time>
      </trkpt>
      <trkpt lat="45.63979" lon="6.05591">
        <ele>1491.6228</ele>
        <time>2011-06-12T11:24:45Z</time>
      </trkpt>
      <trkpt lat="45.63977" lon="6.05588">
        <ele>1491.6228</ele>
        <time>2011-06-12T11:24:46Z</time>
      </trkpt>
      <trkpt lat="45.63975" lon="6.05585">
        <ele>1491.6228</ele>
        <time>2011-06-12T11:24:47Z</time>
      </trkpt>
      <trkpt lat="45.63973" lon="6.05583">
        <ele>1491.6228</ele>
        <time>2011-06-12T11:24:48Z</time>
      </trkpt>
      <trkpt lat="45.63972" lon="6.0558">
        <ele>1491.6228</ele>
        <time>2011-06-12T11:24:49Z</time>
      </trkpt>
      <trkpt lat="45.63969" lon="6.05574">
        <ele>1492.1035</ele>
        <time>2011-06-12T11:24:51Z</time>
      </trkpt>
      <trkpt lat="45.63964" lon="6.05565">
        <ele>1492.1035</ele>
        <time>2011-06-12T11:24:54Z</time>
      </trkpt>
      <trkpt lat="45.63958" lon="6.05556">
        <ele>1492.5842</ele>
        <time>2011-06-12T11:24:58Z</time>
      </trkpt>
      <trkpt lat="45.63956" lon="6.05552">
        <ele>1493.0646</ele>
        <time>2011-06-12T11:24:59Z</time>
      </trkpt>
      <trkpt lat="45.63953" lon="6.05546">
        <ele>1494.0261</ele>
        <time>2011-06-12T11:25:01Z</time>
      </trkpt>
      <trkpt lat="45.63949" lon="6.05541">
        <ele>1494.9873</ele>
        <time>2011-06-12T11:25:03Z</time>
      </trkpt>
      <trkpt lat="45.63948" lon="6.05539">
        <ele>1495.468</ele>
        <time>2011-06-12T11:25:04Z</time>
      </trkpt>
      <trkpt lat="45.63946" lon="6.05536">
        <ele>1496.9099</ele>
        <time>2011-06-12T11:25:05Z</time>
      </trkpt>
      <trkpt lat="45.63942" lon="6.05532">
        <ele>1500.2749</ele>
        <time>2011-06-12T11:25:07Z</time>
      </trkpt>
      <trkpt lat="45.63937" lon="6.05528">
        <ele>1502.6779</ele>
        <time>2011-06-12T11:25:09Z</time>
      </trkpt>
      <trkpt lat="45.63933" lon="6.05522">
        <ele>1505.0812</ele>
        <time>2011-06-12T11:25:12Z</time>
      </trkpt>
      <trkpt lat="45.63928" lon="6.05515">
        <ele>1508.4458</ele>
        <time>2011-06-12T11:25:15Z</time>
      </trkpt>
      <trkpt lat="45.63923" lon="6.05508">
        <ele>1509.8876</ele>
        <time>2011-06-12T11:25:17Z</time>
      </trkpt>
      <trkpt lat="45.63917" lon="6.05499">
        <ele>1510.3684</ele>
        <time>2011-06-12T11:25:21Z</time>
      </trkpt>
      <trkpt lat="45.63909" lon="6.0549">
        <ele>1514.6943</ele>
        <time>2011-06-12T11:25:25Z</time>
      </trkpt>
      <trkpt lat="45.63903" lon="6.05482">
        <ele>1515.6557</ele>
        <time>2011-06-12T11:25:28Z</time>
      </trkpt>
      <trkpt lat="45.63899" lon="6.05474">
        <ele>1517.0979</ele>
        <time>2011-06-12T11:25:31Z</time>
      </trkpt>
      <trkpt lat="45.63896" lon="6.05468">
        <ele>1519.0205</ele>
        <time>2011-06-12T11:25:33Z</time>
      </trkpt>
      <trkpt lat="45.63894" lon="6.05464">
        <ele>1519.9816</ele>
        <time>2011-06-12T11:25:34Z</time>
      </trkpt>
      <trkpt lat="45.63892" lon="6.05459">
        <ele>1520.4624</ele>
        <time>2011-06-12T11:25:36Z</time>
      </trkpt>
      <trkpt lat="45.63889" lon="6.05457">
        <ele>1520.9431</ele>
        <time>2011-06-12T11:25:37Z</time>
      </trkpt>
      <trkpt lat="45.63887" lon="6.05457">
        <ele>1519.5012</ele>
        <time>2011-06-12T11:25:38Z</time>
      </trkpt>
      <trkpt lat="45.63887" lon="6.05457">
        <ele>1518.059</ele>
        <time>2011-06-12T11:25:38Z</time>
      </trkpt>
      <trkpt lat="45.63886" lon="6.05456">
        <ele>1517.5783</ele>
        <time>2011-06-12T11:25:38Z</time>
      </trkpt>
      <trkpt lat="45.63887" lon="6.05456">
        <ele>1517.5783</ele>
        <time>2011-06-12T11:25:39Z</time>
      </trkpt>
      <trkpt lat="45.63887" lon="6.05457">
        <ele>1517.5783</ele>
        <time>2011-06-12T11:25:39Z</time>
      </trkpt>
      <trkpt lat="45.63886" lon="6.05457">
        <ele>1518.5397</ele>
        <time>2011-06-12T11:25:39Z</time>
      </trkpt>
      <trkpt lat="45.63886" lon="6.05454">
        <ele>1519.0205</ele>
        <time>2011-06-12T11:25:40Z</time>
      </trkpt>
      <trkpt lat="45.63885" lon="6.05455">
        <ele>1519.5012</ele>
        <time>2011-06-12T11:25:40Z</time>
      </trkpt>
      <trkpt lat="45.63883" lon="6.05453">
        <ele>1520.9431</ele>
        <time>2011-06-12T11:25:41Z</time>
      </trkpt>
      <trkpt lat="45.6388" lon="6.05448">
        <ele>1520.4624</ele>
        <time>2011-06-12T11:25:43Z</time>
      </trkpt>
      <trkpt lat="45.63876" lon="6.0544">
        <ele>1521.4235</ele>
        <time>2011-06-12T11:25:46Z</time>
      </trkpt>
      <trkpt lat="45.63872" lon="6.05435">
        <ele>1521.9042</ele>
        <time>2011-06-12T11:25:48Z</time>
      </trkpt>
      <trkpt lat="45.63868" lon="6.05429">
        <ele>1522.385</ele>
        <time>2011-06-12T11:25:50Z</time>
      </trkpt>
      <trkpt lat="45.63865" lon="6.05422">
        <ele>1522.8657</ele>
        <time>2011-06-12T11:25:53Z</time>
      </trkpt>
      <trkpt lat="45.6386" lon="6.0542">
        <ele>1522.8657</ele>
        <time>2011-06-12T11:25:54Z</time>
      </trkpt>
      <trkpt lat="45.63855" lon="6.05413">
        <ele>1525.2687</ele>
        <time>2011-06-12T11:25:57Z</time>
      </trkpt>
      <trkpt lat="45.63851" lon="6.05407">
        <ele>1526.7109</ele>
        <time>2011-06-12T11:26:00Z</time>
      </trkpt>
      <trkpt lat="45.63849" lon="6.05404">
        <ele>1527.6721</ele>
        <time>2011-06-12T11:26:01Z</time>
      </trkpt>
      <trkpt lat="45.63848" lon="6.05404">
        <ele>1527.6721</ele>
        <time>2011-06-12T11:26:01Z</time>
      </trkpt>
      <trkpt lat="45.63846" lon="6.05402">
        <ele>1527.6721</ele>
        <time>2011-06-12T11:26:02Z</time>
      </trkpt>
      <trkpt lat="45.63841" lon="6.054">
        <ele>1529.114</ele>
        <time>2011-06-12T11:26:04Z</time>
      </trkpt>
      <trkpt lat="45.63839" lon="6.05399">
        <ele>1529.114</ele>
        <time>2011-06-12T11:26:05Z</time>
      </trkpt>
      <trkpt lat="45.6384" lon="6.054">
        <ele>1529.5947</ele>
        <time>2011-06-12T11:26:05Z</time>
      </trkpt>
      <trkpt lat="45.63839" lon="6.054">
        <ele>1527.1916</ele>
        <time>2011-06-12T11:26:05Z</time>
      </trkpt>
      <trkpt lat="45.63839" lon="6.054">
        <ele>1526.2302</ele>
        <time>2011-06-12T11:26:05Z</time>
      </trkpt>
      <trkpt lat="45.63839" lon="6.054">
        <ele>1526.2302</ele>
        <time>2011-06-12T11:26:06Z</time>
      </trkpt>
      <trkpt lat="45.63837" lon="6.05399">
        <ele>1526.7109</ele>
        <time>2011-06-12T11:26:06Z</time>
      </trkpt>
      <trkpt lat="45.63837" lon="6.05399">
        <ele>1526.7109</ele>
        <time>2011-06-12T11:26:06Z</time>
      </trkpt>
      <trkpt lat="45.63837" lon="6.05398">
        <ele>1526.7109</ele>
        <time>2011-06-12T11:26:07Z</time>
      </trkpt>
      <trkpt lat="45.63837" lon="6.05398">
        <ele>1526.7109</ele>
        <time>2011-06-12T11:26:07Z</time>
      </trkpt>
      <trkpt lat="45.63837" lon="6.05398">
        <ele>1527.1916</ele>
        <time>2011-06-12T11:26:07Z</time>
      </trkpt>
      <trkpt lat="45.63836" lon="6.05398">
        <ele>1527.1916</ele>
        <time>2011-06-12T11:26:07Z</time>
      </trkpt>
      <trkpt lat="45.63837" lon="6.05398">
        <ele>1527.1916</ele>
        <time>2011-06-12T11:26:07Z</time>
      </trkpt>
      <trkpt lat="45.63834" lon="6.05397">
        <ele>1527.6721</ele>
        <time>2011-06-12T11:26:08Z</time>
      </trkpt>
      <trkpt lat="45.63828" lon="6.05396">
        <ele>1528.6335</ele>
        <time>2011-06-12T11:26:11Z</time>
      </trkpt>
      <trkpt lat="45.63827" lon="6.05397">
        <ele>1528.1528</ele>
        <time>2011-06-12T11:26:11Z</time>
      </trkpt>
      <trkpt lat="45.63827" lon="6.05398">
        <ele>1527.1916</ele>
        <time>2011-06-12T11:26:11Z</time>
      </trkpt>
      <trkpt lat="45.63827" lon="6.05398">
        <ele>1527.1916</ele>
        <time>2011-06-12T11:26:11Z</time>
      </trkpt>
      <trkpt lat="45.6382" lon="6.05393">
        <ele>1529.5947</ele>
        <time>2011-06-12T11:26:14Z</time>
      </trkpt>
      <trkpt lat="45.63818" lon="6.05393">
        <ele>1530.5561</ele>
        <time>2011-06-12T11:26:15Z</time>
      </trkpt>
      <trkpt lat="45.6381" lon="6.0539">
        <ele>1531.998</ele>
        <time>2011-06-12T11:26:18Z</time>
      </trkpt>
      <trkpt lat="45.63804" lon="6.05388">
        <ele>1532.9594</ele>
        <time>2011-06-12T11:26:21Z</time>
      </trkpt>
      <trkpt lat="45.638" lon="6.05388">
        <ele>1533.4401</ele>
        <time>2011-06-12T11:26:23Z</time>
      </trkpt>
      <trkpt lat="45.63794" lon="6.05388">
        <ele>1535.3627</ele>
        <time>2011-06-12T11:26:25Z</time>
      </trkpt>
      <trkpt lat="45.63787" lon="6.0539">
        <ele>1537.2854</ele>
        <time>2011-06-12T11:26:28Z</time>
      </trkpt>
      <trkpt lat="45.63777" lon="6.05393">
        <ele>1539.208</ele>
        <time>2011-06-12T11:26:32Z</time>
      </trkpt>
      <trkpt lat="45.63772" lon="6.05395">
        <ele>1541.1306</ele>
        <time>2011-06-12T11:26:34Z</time>
      </trkpt>
      <trkpt lat="45.63764" lon="6.05398">
        <ele>1543.0532</ele>
        <time>2011-06-12T11:26:37Z</time>
      </trkpt>
      <trkpt lat="45.63759" lon="6.05392">
        <ele>1544.9758</ele>
        <time>2011-06-12T11:26:40Z</time>
      </trkpt>
      <trkpt lat="45.63754" lon="6.05381">
        <ele>1546.4179</ele>
        <time>2011-06-12T11:26:44Z</time>
      </trkpt>
      <trkpt lat="45.63751" lon="6.05374">
        <ele>1547.3791</ele>
        <time>2011-06-12T11:26:46Z</time>
      </trkpt>
      <trkpt lat="45.63746" lon="6.05371">
        <ele>1548.8212</ele>
        <time>2011-06-12T11:26:48Z</time>
      </trkpt>
      <trkpt lat="45.63742" lon="6.05369">
        <ele>1549.302</ele>
        <time>2011-06-12T11:26:50Z</time>
      </trkpt>
      <trkpt lat="45.6374" lon="6.05368">
        <ele>1548.8212</ele>
        <time>2011-06-12T11:26:51Z</time>
      </trkpt>
      <trkpt lat="45.63729" lon="6.05361">
        <ele>1547.3791</ele>
        <time>2011-06-12T11:26:56Z</time>
      </trkpt>
      <trkpt lat="45.63719" lon="6.05351">
        <ele>1546.4179</ele>
        <time>2011-06-12T11:27:01Z</time>
      </trkpt>
      <trkpt lat="45.63705" lon="6.05332">
        <ele>1545.4565</ele>
        <time>2011-06-12T11:27:08Z</time>
      </trkpt>
      <trkpt lat="45.63686" lon="6.0532">
        <ele>1543.0532</ele>
        <time>2011-06-12T11:27:17Z</time>
      </trkpt>
      <trkpt lat="45.6368" lon="6.05316">
        <ele>1543.0532</ele>
        <time>2011-06-12T11:27:19Z</time>
      </trkpt>
      <trkpt lat="45.6367" lon="6.053">
        <ele>1543.5339</ele>
        <time>2011-06-12T11:27:25Z</time>
      </trkpt>
      <trkpt lat="45.63664" lon="6.05291">
        <ele>1544.4951</ele>
        <time>2011-06-12T11:27:29Z</time>
      </trkpt>
      <trkpt lat="45.63658" lon="6.05286">
        <ele>1545.4565</ele>
        <time>2011-06-12T11:27:32Z</time>
      </trkpt>
      <trkpt lat="45.63648" lon="6.0528">
        <ele>1545.9372</ele>
        <time>2011-06-12T11:27:36Z</time>
      </trkpt>
      <trkpt lat="45.63638" lon="6.05276">
        <ele>1546.8984</ele>
        <time>2011-06-12T11:27:40Z</time>
      </trkpt>
      <trkpt lat="45.63628" lon="6.05275">
        <ele>1547.3791</ele>
        <time>2011-06-12T11:27:44Z</time>
      </trkpt>
      <trkpt lat="45.63621" lon="6.05273">
        <ele>1546.8984</ele>
        <time>2011-06-12T11:27:47Z</time>
      </trkpt>
      <trkpt lat="45.63618" lon="6.05271">
        <ele>1546.8984</ele>
        <time>2011-06-12T11:27:48Z</time>
      </trkpt>
      <trkpt lat="45.63609" lon="6.05262">
        <ele>1548.8212</ele>
        <time>2011-06-12T11:27:53Z</time>
      </trkpt>
      <trkpt lat="45.63608" lon="6.0526">
        <ele>1550.2634</ele>
        <time>2011-06-12T11:27:53Z</time>
      </trkpt>
      <trkpt lat="45.63603" lon="6.05255">
        <ele>1552.1857</ele>
        <time>2011-06-12T11:27:56Z</time>
      </trkpt>
      <trkpt lat="45.63598" lon="6.05251">
        <ele>1554.1086</ele>
        <time>2011-06-12T11:27:58Z</time>
      </trkpt>
      <trkpt lat="45.63592" lon="6.05251">
        <ele>1555.0698</ele>
        <time>2011-06-12T11:28:00Z</time>
      </trkpt>
      <trkpt lat="45.63591" lon="6.05249">
        <ele>1558.915</ele>
        <time>2011-06-12T11:28:01Z</time>
      </trkpt>
      <trkpt lat="45.63588" lon="6.05249">
        <ele>1558.915</ele>
        <time>2011-06-12T11:28:02Z</time>
      </trkpt>
      <trkpt lat="45.63585" lon="6.05247">
        <ele>1558.915</ele>
        <time>2011-06-12T11:28:04Z</time>
      </trkpt>
      <trkpt lat="45.63579" lon="6.05246">
        <ele>1558.915</ele>
        <time>2011-06-12T11:28:06Z</time>
      </trkpt>
      <trkpt lat="45.63574" lon="6.05243">
        <ele>1559.3957</ele>
        <time>2011-06-12T11:28:08Z</time>
      </trkpt>
      <trkpt lat="45.63572" lon="6.05241">
        <ele>1559.8762</ele>
        <time>2011-06-12T11:28:09Z</time>
      </trkpt>
      <trkpt lat="45.6357" lon="6.0524">
        <ele>1560.3569</ele>
        <time>2011-06-12T11:28:10Z</time>
      </trkpt>
      <trkpt lat="45.63562" lon="6.05233">
        <ele>1561.799</ele>
        <time>2011-06-12T11:28:14Z</time>
      </trkpt>
      <trkpt lat="45.6356" lon="6.05233">
        <ele>1562.2795</ele>
        <time>2011-06-12T11:28:15Z</time>
      </trkpt>
      <trkpt lat="45.63557" lon="6.0523">
        <ele>1564.2023</ele>
        <time>2011-06-12T11:28:16Z</time>
      </trkpt>
      <trkpt lat="45.63551" lon="6.05225">
        <ele>1566.6057</ele>
        <time>2011-06-12T11:28:19Z</time>
      </trkpt>
      <trkpt lat="45.63547" lon="6.05221">
        <ele>1568.0476</ele>
        <time>2011-06-12T11:28:21Z</time>
      </trkpt>
      <trkpt lat="45.63539" lon="6.05215">
        <ele>1567.5668</ele>
        <time>2011-06-12T11:28:24Z</time>
      </trkpt>
      <trkpt lat="45.63533" lon="6.05211">
        <ele>1567.5668</ele>
        <time>2011-06-12T11:28:27Z</time>
      </trkpt>
      <trkpt lat="45.63524" lon="6.05207">
        <ele>1567.5668</ele>
        <time>2011-06-12T11:28:31Z</time>
      </trkpt>
      <trkpt lat="45.63518" lon="6.05202">
        <ele>1568.0476</ele>
        <time>2011-06-12T11:28:34Z</time>
      </trkpt>
      <trkpt lat="45.63511" lon="6.05194">
        <ele>1569.4897</ele>
        <time>2011-06-12T11:28:37Z</time>
      </trkpt>
      <trkpt lat="45.63506" lon="6.05189">
        <ele>1570.9316</ele>
        <time>2011-06-12T11:28:40Z</time>
      </trkpt>
      <trkpt lat="45.63504" lon="6.05187">
        <ele>1571.8928</ele>
        <time>2011-06-12T11:28:41Z</time>
      </trkpt>
      <trkpt lat="45.63498" lon="6.05183">
        <ele>1571.8928</ele>
        <time>2011-06-12T11:28:43Z</time>
      </trkpt>
      <trkpt lat="45.6349" lon="6.05179">
        <ele>1572.3735</ele>
        <time>2011-06-12T11:28:47Z</time>
      </trkpt>
      <trkpt lat="45.6349" lon="6.05179">
        <ele>1571.8928</ele>
        <time>2011-06-12T11:28:47Z</time>
      </trkpt>
      <trkpt lat="45.6349" lon="6.05178">
        <ele>1572.3735</ele>
        <time>2011-06-12T11:28:47Z</time>
      </trkpt>
      <trkpt lat="45.63489" lon="6.05178">
        <ele>1571.8928</ele>
        <time>2011-06-12T11:28:47Z</time>
      </trkpt>
      <trkpt lat="45.63488" lon="6.05178">
        <ele>1572.3735</ele>
        <time>2011-06-12T11:28:48Z</time>
      </trkpt>
      <trkpt lat="45.63484" lon="6.05175">
        <ele>1573.3349</ele>
        <time>2011-06-12T11:28:49Z</time>
      </trkpt>
      <trkpt lat="45.63483" lon="6.05174">
        <ele>1573.3349</ele>
        <time>2011-06-12T11:28:50Z</time>
      </trkpt>
      <trkpt lat="45.63483" lon="6.05174">
        <ele>1572.3735</ele>
        <time>2011-06-12T11:28:50Z</time>
      </trkpt>
      <trkpt lat="45.63479" lon="6.05173">
        <ele>1572.8542</ele>
        <time>2011-06-12T11:28:52Z</time>
      </trkpt>
      <trkpt lat="45.63475" lon="6.05172">
        <ele>1573.8154</ele>
        <time>2011-06-12T11:28:54Z</time>
      </trkpt>
      <trkpt lat="45.63461" lon="6.05167">
        <ele>1573.3349</ele>
        <time>2011-06-12T11:29:00Z</time>
      </trkpt>
      <trkpt lat="45.63443" lon="6.05153">
        <ele>1574.7768</ele>
        <time>2011-06-12T11:29:08Z</time>
      </trkpt>
      <trkpt lat="45.63432" lon="6.05148">
        <ele>1575.738</ele>
        <time>2011-06-12T11:29:12Z</time>
      </trkpt>
      <trkpt lat="45.63414" lon="6.05146">
        <ele>1576.2187</ele>
        <time>2011-06-12T11:29:20Z</time>
      </trkpt>
      <trkpt lat="45.63398" lon="6.05148">
        <ele>1576.6994</ele>
        <time>2011-06-12T11:29:26Z</time>
      </trkpt>
      <trkpt lat="45.63388" lon="6.0515">
        <ele>1577.1801</ele>
        <time>2011-06-12T11:29:30Z</time>
      </trkpt>
      <trkpt lat="45.63373" lon="6.05153">
        <ele>1578.622</ele>
        <time>2011-06-12T11:29:36Z</time>
      </trkpt>
      <trkpt lat="45.6336" lon="6.05154">
        <ele>1580.0642</ele>
        <time>2011-06-12T11:29:41Z</time>
      </trkpt>
      <trkpt lat="45.63347" lon="6.05153">
        <ele>1581.0256</ele>
        <time>2011-06-12T11:29:47Z</time>
      </trkpt>
      <trkpt lat="45.63328" lon="6.05151">
        <ele>1581.0256</ele>
        <time>2011-06-12T11:29:54Z</time>
      </trkpt>
      <trkpt lat="45.63313" lon="6.05147">
        <ele>1581.9868</ele>
        <time>2011-06-12T11:30:01Z</time>
      </trkpt>
      <trkpt lat="45.63298" lon="6.05138">
        <ele>1582.9479</ele>
        <time>2011-06-12T11:30:07Z</time>
      </trkpt>
      <trkpt lat="45.63284" lon="6.05131">
        <ele>1583.9094</ele>
        <time>2011-06-12T11:30:13Z</time>
      </trkpt>
      <trkpt lat="45.6328" lon="6.05129">
        <ele>1584.3901</ele>
        <time>2011-06-12T11:30:14Z</time>
      </trkpt>
      <trkpt lat="45.6328" lon="6.05128">
        <ele>1583.9094</ele>
        <time>2011-06-12T11:30:15Z</time>
      </trkpt>
      <trkpt lat="45.63275" lon="6.05126">
        <ele>1583.9094</ele>
        <time>2011-06-12T11:30:17Z</time>
      </trkpt>
      <trkpt lat="45.63274" lon="6.05126">
        <ele>1584.3901</ele>
        <time>2011-06-12T11:30:17Z</time>
      </trkpt>
      <trkpt lat="45.63274" lon="6.05127">
        <ele>1585.3513</ele>
        <time>2011-06-12T11:30:18Z</time>
      </trkpt>
      <trkpt lat="45.63269" lon="6.05127">
        <ele>1586.3127</ele>
        <time>2011-06-12T11:30:19Z</time>
      </trkpt>
      <trkpt lat="45.63264" lon="6.05127">
        <ele>1586.7932</ele>
        <time>2011-06-12T11:30:21Z</time>
      </trkpt>
      <trkpt lat="45.6326" lon="6.05128">
        <ele>1586.3127</ele>
        <time>2011-06-12T11:30:23Z</time>
      </trkpt>
      <trkpt lat="45.6325" lon="6.05136">
        <ele>1585.3513</ele>
        <time>2011-06-12T11:30:28Z</time>
      </trkpt>
      <trkpt lat="45.63238" lon="6.05149">
        <ele>1582.4675</ele>
        <time>2011-06-12T11:30:34Z</time>
      </trkpt>
      <trkpt lat="45.63225" lon="6.05163">
        <ele>1581.0256</ele>
        <time>2011-06-12T11:30:40Z</time>
      </trkpt>
      <trkpt lat="45.63223" lon="6.05165">
        <ele>1581.5061</ele>
        <time>2011-06-12T11:30:41Z</time>
      </trkpt>
      <trkpt lat="45.63223" lon="6.05166">
        <ele>1580.5449</ele>
        <time>2011-06-12T11:30:42Z</time>
      </trkpt>
      <trkpt lat="45.63223" lon="6.05168">
        <ele>1580.0642</ele>
        <time>2011-06-12T11:30:42Z</time>
      </trkpt>
      <trkpt lat="45.63226" lon="6.05178">
        <ele>1578.622</ele>
        <time>2011-06-12T11:30:45Z</time>
      </trkpt>
      <trkpt lat="45.63228" lon="6.05187">
        <ele>1577.6606</ele>
        <time>2011-06-12T11:30:48Z</time>
      </trkpt>
      <trkpt lat="45.63233" lon="6.052">
        <ele>1574.7768</ele>
        <time>2011-06-12T11:30:52Z</time>
      </trkpt>
      <trkpt lat="45.63229" lon="6.0521">
        <ele>1573.3349</ele>
        <time>2011-06-12T11:30:55Z</time>
      </trkpt>
      <trkpt lat="45.63222" lon="6.05212">
        <ele>1571.8928</ele>
        <time>2011-06-12T11:30:58Z</time>
      </trkpt>
      <trkpt lat="45.63221" lon="6.05212">
        <ele>1573.3349</ele>
        <time>2011-06-12T11:30:59Z</time>
      </trkpt>
      <trkpt lat="45.63221" lon="6.05213">
        <ele>1574.7768</ele>
        <time>2011-06-12T11:30:59Z</time>
      </trkpt>
      <trkpt lat="45.63217" lon="6.05215">
        <ele>1576.6994</ele>
        <time>2011-06-12T11:31:01Z</time>
      </trkpt>
      <trkpt lat="45.63207" lon="6.05214">
        <ele>1578.622</ele>
        <time>2011-06-12T11:31:05Z</time>
      </trkpt>
      <trkpt lat="45.63193" lon="6.05214">
        <ele>1580.5449</ele>
        <time>2011-06-12T11:31:10Z</time>
      </trkpt>
      <trkpt lat="45.63191" lon="6.05214">
        <ele>1581.0256</ele>
        <time>2011-06-12T11:31:11Z</time>
      </trkpt>
      <trkpt lat="45.63189" lon="6.05214">
        <ele>1581.5061</ele>
        <time>2011-06-12T11:31:12Z</time>
      </trkpt>
      <trkpt lat="45.63188" lon="6.05214">
        <ele>1580.5449</ele>
        <time>2011-06-12T11:31:12Z</time>
      </trkpt>
      <trkpt lat="45.63186" lon="6.05215">
        <ele>1580.5449</ele>
        <time>2011-06-12T11:31:13Z</time>
      </trkpt>
      <trkpt lat="45.63187" lon="6.05214">
        <ele>1580.5449</ele>
        <time>2011-06-12T11:31:13Z</time>
      </trkpt>
      <trkpt lat="45.63183" lon="6.05214">
        <ele>1581.0256</ele>
        <time>2011-06-12T11:31:15Z</time>
      </trkpt>
      <trkpt lat="45.63181" lon="6.05214">
        <ele>1581.9868</ele>
        <time>2011-06-12T11:31:16Z</time>
      </trkpt>
      <trkpt lat="45.63177" lon="6.05212">
        <ele>1582.9479</ele>
        <time>2011-06-12T11:31:17Z</time>
      </trkpt>
      <trkpt lat="45.63176" lon="6.05207">
        <ele>1583.9094</ele>
        <time>2011-06-12T11:31:19Z</time>
      </trkpt>
      <trkpt lat="45.63172" lon="6.05196">
        <ele>1585.3513</ele>
        <time>2011-06-12T11:31:22Z</time>
      </trkpt>
      <trkpt lat="45.63169" lon="6.05188">
        <ele>1586.7932</ele>
        <time>2011-06-12T11:31:25Z</time>
      </trkpt>
      <trkpt lat="45.63168" lon="6.05183">
        <ele>1587.7546</ele>
        <time>2011-06-12T11:31:26Z</time>
      </trkpt>
      <trkpt lat="45.63163" lon="6.05172">
        <ele>1589.6772</ele>
        <time>2011-06-12T11:31:30Z</time>
      </trkpt>
      <trkpt lat="45.63159" lon="6.05162">
        <ele>1591.5998</ele>
        <time>2011-06-12T11:31:33Z</time>
      </trkpt>
      <trkpt lat="45.63154" lon="6.05158">
        <ele>1592.5612</ele>
        <time>2011-06-12T11:31:35Z</time>
      </trkpt>
      <trkpt lat="45.63146" lon="6.05157">
        <ele>1594.0031</ele>
        <time>2011-06-12T11:31:39Z</time>
      </trkpt>
      <trkpt lat="45.63137" lon="6.05155">
        <ele>1595.9257</ele>
        <time>2011-06-12T11:31:42Z</time>
      </trkpt>
      <trkpt lat="45.63137" lon="6.05155">
        <ele>1595.9257</ele>
        <time>2011-06-12T11:31:42Z</time>
      </trkpt>
      <trkpt lat="45.63135" lon="6.05155">
        <ele>1596.4067</ele>
        <time>2011-06-12T11:31:43Z</time>
      </trkpt>
      <trkpt lat="45.63131" lon="6.0515">
        <ele>1597.3679</ele>
        <time>2011-06-12T11:31:45Z</time>
      </trkpt>
      <trkpt lat="45.63131" lon="6.05147">
        <ele>1597.8486</ele>
        <time>2011-06-12T11:31:46Z</time>
      </trkpt>
      <trkpt lat="45.63131" lon="6.05144">
        <ele>1597.8486</ele>
        <time>2011-06-12T11:31:47Z</time>
      </trkpt>
      <trkpt lat="45.63129" lon="6.0514">
        <ele>1598.8098</ele>
        <time>2011-06-12T11:31:48Z</time>
      </trkpt>
      <trkpt lat="45.63124" lon="6.05134">
        <ele>1599.7712</ele>
        <time>2011-06-12T11:31:51Z</time>
      </trkpt>
      <trkpt lat="45.63121" lon="6.05131">
        <ele>1600.2519</ele>
        <time>2011-06-12T11:31:52Z</time>
      </trkpt>
      <trkpt lat="45.63114" lon="6.05129">
        <ele>1601.6938</ele>
        <time>2011-06-12T11:31:55Z</time>
      </trkpt>
      <trkpt lat="45.63109" lon="6.05126">
        <ele>1603.1357</ele>
        <time>2011-06-12T11:31:57Z</time>
      </trkpt>
      <trkpt lat="45.63107" lon="6.05126">
        <ele>1603.1357</ele>
        <time>2011-06-12T11:31:58Z</time>
      </trkpt>
      <trkpt lat="45.63106" lon="6.05126">
        <ele>1604.0971</ele>
        <time>2011-06-12T11:31:58Z</time>
      </trkpt>
      <trkpt lat="45.63106" lon="6.05126">
        <ele>1604.0971</ele>
        <time>2011-06-12T11:31:58Z</time>
      </trkpt>
      <trkpt lat="45.63106" lon="6.05126">
        <ele>1604.5776</ele>
        <time>2011-06-12T11:31:59Z</time>
      </trkpt>
      <trkpt lat="45.63106" lon="6.05126">
        <ele>1604.5776</ele>
        <time>2011-06-12T11:31:59Z</time>
      </trkpt>
      <trkpt lat="45.63105" lon="6.05126">
        <ele>1603.6164</ele>
        <time>2011-06-12T11:31:59Z</time>
      </trkpt>
      <trkpt lat="45.63105" lon="6.05126">
        <ele>1604.0971</ele>
        <time>2011-06-12T11:31:59Z</time>
      </trkpt>
      <trkpt lat="45.63105" lon="6.05127">
        <ele>1604.0971</ele>
        <time>2011-06-12T11:31:59Z</time>
      </trkpt>
      <trkpt lat="45.63106" lon="6.05127">
        <ele>1604.5776</ele>
        <time>2011-06-12T11:31:59Z</time>
      </trkpt>
      <trkpt lat="45.63105" lon="6.05127">
        <ele>1604.0971</ele>
        <time>2011-06-12T11:32:00Z</time>
      </trkpt>
      <trkpt lat="45.63103" lon="6.05128">
        <ele>1604.5776</ele>
        <time>2011-06-12T11:32:01Z</time>
      </trkpt>
      <trkpt lat="45.63098" lon="6.05122">
        <ele>1605.539</ele>
        <time>2011-06-12T11:32:03Z</time>
      </trkpt>
      <trkpt lat="45.63094" lon="6.0512">
        <ele>1606.0195</ele>
        <time>2011-06-12T11:32:05Z</time>
      </trkpt>
      <trkpt lat="45.63093" lon="6.05119">
        <ele>1606.0195</ele>
        <time>2011-06-12T11:32:05Z</time>
      </trkpt>
      <trkpt lat="45.63091" lon="6.05113">
        <ele>1606.9809</ele>
        <time>2011-06-12T11:32:07Z</time>
      </trkpt>
      <trkpt lat="45.6309" lon="6.05112">
        <ele>1607.4616</ele>
        <time>2011-06-12T11:32:07Z</time>
      </trkpt>
      <trkpt lat="45.6309" lon="6.05113">
        <ele>1606.9809</ele>
        <time>2011-06-12T11:32:08Z</time>
      </trkpt>
      <trkpt lat="45.63089" lon="6.05107">
        <ele>1606.9809</ele>
        <time>2011-06-12T11:32:09Z</time>
      </trkpt>
      <trkpt lat="45.63089" lon="6.05103">
        <ele>1606.9809</ele>
        <time>2011-06-12T11:32:11Z</time>
      </trkpt>
      <trkpt lat="45.6309" lon="6.05098">
        <ele>1608.4228</ele>
        <time>2011-06-12T11:32:12Z</time>
      </trkpt>
      <trkpt lat="45.63087" lon="6.05093">
        <ele>1609.3842</ele>
        <time>2011-06-12T11:32:14Z</time>
      </trkpt>
      <trkpt lat="45.63086" lon="6.0509">
        <ele>1610.3454</ele>
        <time>2011-06-12T11:32:15Z</time>
      </trkpt>
      <trkpt lat="45.63086" lon="6.05084">
        <ele>1611.3068</ele>
        <time>2011-06-12T11:32:16Z</time>
      </trkpt>
      <trkpt lat="45.63084" lon="6.05078">
        <ele>1612.749</ele>
        <time>2011-06-12T11:32:18Z</time>
      </trkpt>
      <trkpt lat="45.63085" lon="6.05074">
        <ele>1612.749</ele>
        <time>2011-06-12T11:32:20Z</time>
      </trkpt>
      <trkpt lat="45.63085" lon="6.05071">
        <ele>1612.2683</ele>
        <time>2011-06-12T11:32:20Z</time>
      </trkpt>
      <trkpt lat="45.63085" lon="6.05067">
        <ele>1612.2683</ele>
        <time>2011-06-12T11:32:22Z</time>
      </trkpt>
      <trkpt lat="45.63085" lon="6.05067">
        <ele>1611.7875</ele>
        <time>2011-06-12T11:32:22Z</time>
      </trkpt>
      <trkpt lat="45.63085" lon="6.05067">
        <ele>1611.3068</ele>
        <time>2011-06-12T11:32:22Z</time>
      </trkpt>
      <trkpt lat="45.63085" lon="6.05067">
        <ele>1610.8261</ele>
        <time>2011-06-12T11:32:22Z</time>
      </trkpt>
      <trkpt lat="45.63085" lon="6.05067">
        <ele>1610.3454</ele>
        <time>2011-06-12T11:32:22Z</time>
      </trkpt>
      <trkpt lat="45.63085" lon="6.05068">
        <ele>1609.8647</ele>
        <time>2011-06-12T11:32:22Z</time>
      </trkpt>
      <trkpt lat="45.63085" lon="6.05068">
        <ele>1609.8647</ele>
        <time>2011-06-12T11:32:22Z</time>
      </trkpt>
      <trkpt lat="45.63083" lon="6.05064">
        <ele>1609.3842</ele>
        <time>2011-06-12T11:32:23Z</time>
      </trkpt>
      <trkpt lat="45.63076" lon="6.05058">
        <ele>1613.2297</ele>
        <time>2011-06-12T11:32:27Z</time>
      </trkpt>
      <trkpt lat="45.63072" lon="6.05056">
        <ele>1615.1523</ele>
        <time>2011-06-12T11:32:28Z</time>
      </trkpt>
      <trkpt lat="45.63069" lon="6.05054">
        <ele>1616.1135</ele>
        <time>2011-06-12T11:32:30Z</time>
      </trkpt>
      <trkpt lat="45.63066" lon="6.05053">
        <ele>1617.0749</ele>
        <time>2011-06-12T11:32:31Z</time>
      </trkpt>
      <trkpt lat="45.63061" lon="6.05051">
        <ele>1617.5554</ele>
        <time>2011-06-12T11:32:33Z</time>
      </trkpt>
      <trkpt lat="45.63061" lon="6.05052">
        <ele>1618.5168</ele>
        <time>2011-06-12T11:32:34Z</time>
      </trkpt>
      <trkpt lat="45.63061" lon="6.05052">
        <ele>1618.5168</ele>
        <time>2011-06-12T11:32:34Z</time>
      </trkpt>
      <trkpt lat="45.63061" lon="6.05052">
        <ele>1618.0361</ele>
        <time>2011-06-12T11:32:34Z</time>
      </trkpt>
      <trkpt lat="45.63061" lon="6.05052">
        <ele>1617.5554</ele>
        <time>2011-06-12T11:32:34Z</time>
      </trkpt>
      <trkpt lat="45.63061" lon="6.05051">
        <ele>1616.5942</ele>
        <time>2011-06-12T11:32:34Z</time>
      </trkpt>
      <trkpt lat="45.6306" lon="6.05051">
        <ele>1615.633</ele>
        <time>2011-06-12T11:32:34Z</time>
      </trkpt>
      <trkpt lat="45.63058" lon="6.0505">
        <ele>1616.1135</ele>
        <time>2011-06-12T11:32:35Z</time>
      </trkpt>
      <trkpt lat="45.63057" lon="6.05048">
        <ele>1616.5942</ele>
        <time>2011-06-12T11:32:36Z</time>
      </trkpt>
      <trkpt lat="45.63058" lon="6.05045">
        <ele>1617.0749</ele>
        <time>2011-06-12T11:32:37Z</time>
      </trkpt>
      <trkpt lat="45.63058" lon="6.05041">
        <ele>1617.0749</ele>
        <time>2011-06-12T11:32:38Z</time>
      </trkpt>
      <trkpt lat="45.63058" lon="6.05037">
        <ele>1616.1135</ele>
        <time>2011-06-12T11:32:39Z</time>
      </trkpt>
      <trkpt lat="45.63058" lon="6.05032">
        <ele>1616.1135</ele>
        <time>2011-06-12T11:32:40Z</time>
      </trkpt>
      <trkpt lat="45.63058" lon="6.05026">
        <ele>1617.5554</ele>
        <time>2011-06-12T11:32:42Z</time>
      </trkpt>
      <trkpt lat="45.6306" lon="6.0502">
        <ele>1618.5168</ele>
        <time>2011-06-12T11:32:44Z</time>
      </trkpt>
      <trkpt lat="45.63062" lon="6.05014">
        <ele>1618.0361</ele>
        <time>2011-06-12T11:32:46Z</time>
      </trkpt>
      <trkpt lat="45.63062" lon="6.05004">
        <ele>1618.0361</ele>
        <time>2011-06-12T11:32:48Z</time>
      </trkpt>
      <trkpt lat="45.63063" lon="6.04996">
        <ele>1618.5168</ele>
        <time>2011-06-12T11:32:51Z</time>
      </trkpt>
      <trkpt lat="45.63068" lon="6.04984">
        <ele>1619.4782</ele>
        <time>2011-06-12T11:32:55Z</time>
      </trkpt>
      <trkpt lat="45.63071" lon="6.04975">
        <ele>1620.4394</ele>
        <time>2011-06-12T11:32:57Z</time>
      </trkpt>
      <trkpt lat="45.63076" lon="6.04967">
        <ele>1621.4006</ele>
        <time>2011-06-12T11:33:00Z</time>
      </trkpt>
      <trkpt lat="45.63076" lon="6.04962">
        <ele>1623.3234</ele>
        <time>2011-06-12T11:33:02Z</time>
      </trkpt>
      <trkpt lat="45.63073" lon="6.04955">
        <ele>1625.7265</ele>
        <time>2011-06-12T11:33:04Z</time>
      </trkpt>
      <trkpt lat="45.63072" lon="6.04951">
        <ele>1627.1687</ele>
        <time>2011-06-12T11:33:05Z</time>
      </trkpt>
      <trkpt lat="45.63069" lon="6.04946">
        <ele>1629.0913</ele>
        <time>2011-06-12T11:33:07Z</time>
      </trkpt>
      <trkpt lat="45.63066" lon="6.04939">
        <ele>1631.0141</ele>
        <time>2011-06-12T11:33:09Z</time>
      </trkpt>
      <trkpt lat="45.63062" lon="6.0493">
        <ele>1633.4172</ele>
        <time>2011-06-12T11:33:12Z</time>
      </trkpt>
      <trkpt lat="45.63057" lon="6.04917">
        <ele>1636.7817</ele>
        <time>2011-06-12T11:33:17Z</time>
      </trkpt>
      <trkpt lat="45.63054" lon="6.0491">
        <ele>1638.7045</ele>
        <time>2011-06-12T11:33:19Z</time>
      </trkpt>
      <trkpt lat="45.63054" lon="6.04909">
        <ele>1639.6657</ele>
        <time>2011-06-12T11:33:19Z</time>
      </trkpt>
      <trkpt lat="45.63051" lon="6.04901">
        <ele>1640.6269</ele>
        <time>2011-06-12T11:33:22Z</time>
      </trkpt>
      <trkpt lat="45.63047" lon="6.04892">
        <ele>1642.069</ele>
        <time>2011-06-12T11:33:24Z</time>
      </trkpt>
      <trkpt lat="45.63042" lon="6.0488">
        <ele>1644.4724</ele>
        <time>2011-06-12T11:33:28Z</time>
      </trkpt>
      <trkpt lat="45.63038" lon="6.0487">
        <ele>1646.8757</ele>
        <time>2011-06-12T11:33:32Z</time>
      </trkpt>
      <trkpt lat="45.63038" lon="6.04871">
        <ele>1646.8757</ele>
        <time>2011-06-12T11:33:32Z</time>
      </trkpt>
      <trkpt lat="45.63038" lon="6.04871">
        <ele>1643.9916</ele>
        <time>2011-06-12T11:33:32Z</time>
      </trkpt>
      <trkpt lat="45.63035" lon="6.04867">
        <ele>1643.9916</ele>
        <time>2011-06-12T11:33:34Z</time>
      </trkpt>
      <trkpt lat="45.63033" lon="6.04862">
        <ele>1644.9531</ele>
        <time>2011-06-12T11:33:35Z</time>
      </trkpt>
      <trkpt lat="45.63029" lon="6.0485">
        <ele>1646.3952</ele>
        <time>2011-06-12T11:33:39Z</time>
      </trkpt>
      <trkpt lat="45.63024" lon="6.0484">
        <ele>1648.3176</ele>
        <time>2011-06-12T11:33:42Z</time>
      </trkpt>
      <trkpt lat="45.63023" lon="6.04838">
        <ele>1648.7983</ele>
        <time>2011-06-12T11:33:43Z</time>
      </trkpt>
      <trkpt lat="45.63022" lon="6.04834">
        <ele>1648.7983</ele>
        <time>2011-06-12T11:33:44Z</time>
      </trkpt>
      <trkpt lat="45.63021" lon="6.04834">
        <ele>1648.7983</ele>
        <time>2011-06-12T11:33:45Z</time>
      </trkpt>
      <trkpt lat="45.63018" lon="6.04828">
        <ele>1650.2404</ele>
        <time>2011-06-12T11:33:47Z</time>
      </trkpt>
      <trkpt lat="45.63017" lon="6.04826">
        <ele>1650.7209</ele>
        <time>2011-06-12T11:33:47Z</time>
      </trkpt>
      <trkpt lat="45.63017" lon="6.04821">
        <ele>1653.1242</ele>
        <time>2011-06-12T11:33:49Z</time>
      </trkpt>
      <trkpt lat="45.63012" lon="6.04809">
        <ele>1654.5661</ele>
        <time>2011-06-12T11:33:53Z</time>
      </trkpt>
      <trkpt lat="45.63011" lon="6.04806">
        <ele>1655.0468</ele>
        <time>2011-06-12T11:33:54Z</time>
      </trkpt>
      <trkpt lat="45.63005" lon="6.04793">
        <ele>1656.4887</ele>
        <time>2011-06-12T11:33:58Z</time>
      </trkpt>
      <trkpt lat="45.63001" lon="6.04784">
        <ele>1658.892</ele>
        <time>2011-06-12T11:34:01Z</time>
      </trkpt>
      <trkpt lat="45.63001" lon="6.04782">
        <ele>1659.3728</ele>
        <time>2011-06-12T11:34:02Z</time>
      </trkpt>
      <trkpt lat="45.62998" lon="6.04779">
        <ele>1660.8149</ele>
        <time>2011-06-12T11:34:03Z</time>
      </trkpt>
      <trkpt lat="45.62996" lon="6.04772">
        <ele>1662.2568</ele>
        <time>2011-06-12T11:34:05Z</time>
      </trkpt>
      <trkpt lat="45.62992" lon="6.04762">
        <ele>1666.5827</ele>
        <time>2011-06-12T11:34:08Z</time>
      </trkpt>
      <trkpt lat="45.62991" lon="6.04759">
        <ele>1667.0634</ele>
        <time>2011-06-12T11:34:09Z</time>
      </trkpt>
      <trkpt lat="45.62987" lon="6.04752">
        <ele>1669.9472</ele>
        <time>2011-06-12T11:34:12Z</time>
      </trkpt>
      <trkpt lat="45.62987" lon="6.04752">
        <ele>1670.9086</ele>
        <time>2011-06-12T11:34:12Z</time>
      </trkpt>
      <trkpt lat="45.62985" lon="6.04747">
        <ele>1672.3505</ele>
        <time>2011-06-12T11:34:13Z</time>
      </trkpt>
      <trkpt lat="45.62981" lon="6.04736">
        <ele>1675.2343</ele>
        <time>2011-06-12T11:34:17Z</time>
      </trkpt>
      <trkpt lat="45.62982" lon="6.04735">
        <ele>1673.7924</ele>
        <time>2011-06-12T11:34:17Z</time>
      </trkpt>
      <trkpt lat="45.62982" lon="6.04735">
        <ele>1673.312</ele>
        <time>2011-06-12T11:34:17Z</time>
      </trkpt>
      <trkpt lat="45.62979" lon="6.04729">
        <ele>1674.2731</ele>
        <time>2011-06-12T11:34:19Z</time>
      </trkpt>
      <trkpt lat="45.62973" lon="6.04713">
        <ele>1679.5605</ele>
        <time>2011-06-12T11:34:24Z</time>
      </trkpt>
      <trkpt lat="45.62972" lon="6.04711">
        <ele>1680.0412</ele>
        <time>2011-06-12T11:34:25Z</time>
      </trkpt>
      <trkpt lat="45.62971" lon="6.04708">
        <ele>1679.0798</ele>
        <time>2011-06-12T11:34:26Z</time>
      </trkpt>
      <trkpt lat="45.62972" lon="6.0471">
        <ele>1678.5993</ele>
        <time>2011-06-12T11:34:26Z</time>
      </trkpt>
      <trkpt lat="45.62971" lon="6.04709">
        <ele>1677.6379</ele>
        <time>2011-06-12T11:34:26Z</time>
      </trkpt>
      <trkpt lat="45.62968" lon="6.04706">
        <ele>1675.715</ele>
        <time>2011-06-12T11:34:28Z</time>
      </trkpt>
      <trkpt lat="45.62965" lon="6.04702">
        <ele>1675.2343</ele>
        <time>2011-06-12T11:34:30Z</time>
      </trkpt>
      <trkpt lat="45.62964" lon="6.047">
        <ele>1675.2343</ele>
        <time>2011-06-12T11:34:31Z</time>
      </trkpt>
      <trkpt lat="45.62958" lon="6.04688">
        <ele>1675.715</ele>
        <time>2011-06-12T11:34:35Z</time>
      </trkpt>
      <trkpt lat="45.62959" lon="6.04686">
        <ele>1676.6767</ele>
        <time>2011-06-12T11:34:35Z</time>
      </trkpt>
      <trkpt lat="45.62959" lon="6.04686">
        <ele>1677.1574</ele>
        <time>2011-06-12T11:34:35Z</time>
      </trkpt>
      <trkpt lat="45.62959" lon="6.04687">
        <ele>1675.715</ele>
        <time>2011-06-12T11:34:35Z</time>
      </trkpt>
      <trkpt lat="45.62959" lon="6.04688">
        <ele>1675.715</ele>
        <time>2011-06-12T11:34:36Z</time>
      </trkpt>
      <trkpt lat="45.62958" lon="6.04688">
        <ele>1676.196</ele>
        <time>2011-06-12T11:34:36Z</time>
      </trkpt>
      <trkpt lat="45.62954" lon="6.04686">
        <ele>1677.6379</ele>
        <time>2011-06-12T11:34:38Z</time>
      </trkpt>
      <trkpt lat="45.6295" lon="6.0468">
        <ele>1679.0798</ele>
        <time>2011-06-12T11:34:40Z</time>
      </trkpt>
      <trkpt lat="45.6295" lon="6.04678">
        <ele>1679.5605</ele>
        <time>2011-06-12T11:34:41Z</time>
      </trkpt>
      <trkpt lat="45.6295" lon="6.04675">
        <ele>1679.5605</ele>
        <time>2011-06-12T11:34:42Z</time>
      </trkpt>
      <trkpt lat="45.6295" lon="6.04674">
        <ele>1679.5605</ele>
        <time>2011-06-12T11:34:42Z</time>
      </trkpt>
      <trkpt lat="45.6295" lon="6.04666">
        <ele>1680.0412</ele>
        <time>2011-06-12T11:34:44Z</time>
      </trkpt>
      <trkpt lat="45.62946" lon="6.04656">
        <ele>1681.0026</ele>
        <time>2011-06-12T11:34:47Z</time>
      </trkpt>
      <trkpt lat="45.62945" lon="6.04645">
        <ele>1680.0412</ele>
        <time>2011-06-12T11:34:51Z</time>
      </trkpt>
      <trkpt lat="45.62945" lon="6.0464">
        <ele>1681.4831</ele>
        <time>2011-06-12T11:34:52Z</time>
      </trkpt>
      <trkpt lat="45.62946" lon="6.04635">
        <ele>1682.925</ele>
        <time>2011-06-12T11:34:53Z</time>
      </trkpt>
      <trkpt lat="45.62947" lon="6.04628">
        <ele>1684.8479</ele>
        <time>2011-06-12T11:34:55Z</time>
      </trkpt>
      <trkpt lat="45.62947" lon="6.04624">
        <ele>1686.2897</ele>
        <time>2011-06-12T11:34:56Z</time>
      </trkpt>
      <trkpt lat="45.62949" lon="6.04614">
        <ele>1688.6931</ele>
        <time>2011-06-12T11:34:59Z</time>
      </trkpt>
      <trkpt lat="45.6295" lon="6.04612">
        <ele>1689.6542</ele>
        <time>2011-06-12T11:35:00Z</time>
      </trkpt>
      <trkpt lat="45.6295" lon="6.0461">
        <ele>1689.6542</ele>
        <time>2011-06-12T11:35:01Z</time>
      </trkpt>
      <trkpt lat="45.62951" lon="6.04603">
        <ele>1689.6542</ele>
        <time>2011-06-12T11:35:02Z</time>
      </trkpt>
      <trkpt lat="45.62952" lon="6.04595">
        <ele>1690.6154</ele>
        <time>2011-06-12T11:35:05Z</time>
      </trkpt>
      <trkpt lat="45.62952" lon="6.04587">
        <ele>1691.5769</ele>
        <time>2011-06-12T11:35:07Z</time>
      </trkpt>
      <trkpt lat="45.62953" lon="6.04579">
        <ele>1693.9804</ele>
        <time>2011-06-12T11:35:09Z</time>
      </trkpt>
      <trkpt lat="45.62953" lon="6.04572">
        <ele>1695.903</ele>
        <time>2011-06-12T11:35:11Z</time>
      </trkpt>
      <trkpt lat="45.62953" lon="6.04573">
        <ele>1694.9416</ele>
        <time>2011-06-12T11:35:12Z</time>
      </trkpt>
      <trkpt lat="45.62952" lon="6.04573">
        <ele>1694.4609</ele>
        <time>2011-06-12T11:35:12Z</time>
      </trkpt>
      <trkpt lat="45.62953" lon="6.04572">
        <ele>1694.9416</ele>
        <time>2011-06-12T11:35:12Z</time>
      </trkpt>
      <trkpt lat="45.62952" lon="6.04565">
        <ele>1696.8642</ele>
        <time>2011-06-12T11:35:14Z</time>
      </trkpt>
      <trkpt lat="45.62952" lon="6.04553">
        <ele>1699.2675</ele>
        <time>2011-06-12T11:35:17Z</time>
      </trkpt>
      <trkpt lat="45.6295" lon="6.04547">
        <ele>1700.229</ele>
        <time>2011-06-12T11:35:19Z</time>
      </trkpt>
      <trkpt lat="45.62951" lon="6.04538">
        <ele>1702.1513</ele>
        <time>2011-06-12T11:35:22Z</time>
      </trkpt>
      <trkpt lat="45.6295" lon="6.04529">
        <ele>1704.0742</ele>
        <time>2011-06-12T11:35:24Z</time>
      </trkpt>
      <trkpt lat="45.6295" lon="6.04524">
        <ele>1705.9965</ele>
        <time>2011-06-12T11:35:26Z</time>
      </trkpt>
      <trkpt lat="45.6295" lon="6.04522">
        <ele>1706.4772</ele>
        <time>2011-06-12T11:35:26Z</time>
      </trkpt>
      <trkpt lat="45.62949" lon="6.04513">
        <ele>1708.4001</ele>
        <time>2011-06-12T11:35:29Z</time>
      </trkpt>
      <trkpt lat="45.62948" lon="6.04503">
        <ele>1708.4001</ele>
        <time>2011-06-12T11:35:32Z</time>
      </trkpt>
      <trkpt lat="45.62948" lon="6.04497">
        <ele>1707.9194</ele>
        <time>2011-06-12T11:35:33Z</time>
      </trkpt>
      <trkpt lat="45.6295" lon="6.04489">
        <ele>1707.4387</ele>
        <time>2011-06-12T11:35:36Z</time>
      </trkpt>
      <trkpt lat="45.62953" lon="6.04482">
        <ele>1707.4387</ele>
        <time>2011-06-12T11:35:38Z</time>
      </trkpt>
      <trkpt lat="45.62959" lon="6.04469">
        <ele>1708.8808</ele>
        <time>2011-06-12T11:35:42Z</time>
      </trkpt>
      <trkpt lat="45.62963" lon="6.04458">
        <ele>1710.8034</ele>
        <time>2011-06-12T11:35:46Z</time>
      </trkpt>
      <trkpt lat="45.62965" lon="6.04445">
        <ele>1710.8034</ele>
        <time>2011-06-12T11:35:50Z</time>
      </trkpt>
      <trkpt lat="45.62971" lon="6.04431">
        <ele>1711.2841</ele>
        <time>2011-06-12T11:35:54Z</time>
      </trkpt>
      <trkpt lat="45.62972" lon="6.0443">
        <ele>1711.2841</ele>
        <time>2011-06-12T11:35:54Z</time>
      </trkpt>
      <trkpt lat="45.62972" lon="6.04429">
        <ele>1712.2453</ele>
        <time>2011-06-12T11:35:55Z</time>
      </trkpt>
      <trkpt lat="45.6297" lon="6.04429">
        <ele>1712.2453</ele>
        <time>2011-06-12T11:35:55Z</time>
      </trkpt>
      <trkpt lat="45.62972" lon="6.04424">
        <ele>1712.2453</ele>
        <time>2011-06-12T11:35:57Z</time>
      </trkpt>
      <trkpt lat="45.62975" lon="6.04419">
        <ele>1712.2453</ele>
        <time>2011-06-12T11:35:59Z</time>
      </trkpt>
      <trkpt lat="45.62975" lon="6.04414">
        <ele>1712.726</ele>
        <time>2011-06-12T11:36:00Z</time>
      </trkpt>
      <trkpt lat="45.62975" lon="6.04413">
        <ele>1712.2453</ele>
        <time>2011-06-12T11:36:00Z</time>
      </trkpt>
      <trkpt lat="45.6298" lon="6.04406">
        <ele>1712.726</ele>
        <time>2011-06-12T11:36:03Z</time>
      </trkpt>
      <trkpt lat="45.62987" lon="6.04393">
        <ele>1713.6872</ele>
        <time>2011-06-12T11:36:08Z</time>
      </trkpt>
      <trkpt lat="45.62995" lon="6.04385">
        <ele>1716.0905</ele>
        <time>2011-06-12T11:36:12Z</time>
      </trkpt>
      <trkpt lat="45.62998" lon="6.04381">
        <ele>1716.5712</ele>
        <time>2011-06-12T11:36:13Z</time>
      </trkpt>
      <trkpt lat="45.63003" lon="6.04373">
        <ele>1718.0131</ele>
        <time>2011-06-12T11:36:16Z</time>
      </trkpt>
      <trkpt lat="45.63004" lon="6.04373">
        <ele>1718.4938</ele>
        <time>2011-06-12T11:36:16Z</time>
      </trkpt>
      <trkpt lat="45.63007" lon="6.04371">
        <ele>1718.9746</ele>
        <time>2011-06-12T11:36:18Z</time>
      </trkpt>
      <trkpt lat="45.6301" lon="6.0437">
        <ele>1719.9357</ele>
        <time>2011-06-12T11:36:19Z</time>
      </trkpt>
      <trkpt lat="45.63018" lon="6.04363">
        <ele>1721.3776</ele>
        <time>2011-06-12T11:36:23Z</time>
      </trkpt>
      <trkpt lat="45.63017" lon="6.04354">
        <ele>1721.3776</ele>
        <time>2011-06-12T11:36:25Z</time>
      </trkpt>
      <trkpt lat="45.63016" lon="6.04345">
        <ele>1721.8583</ele>
        <time>2011-06-12T11:36:28Z</time>
      </trkpt>
      <trkpt lat="45.63015" lon="6.04336">
        <ele>1723.781</ele>
        <time>2011-06-12T11:36:30Z</time>
      </trkpt>
      <trkpt lat="45.63014" lon="6.04333">
        <ele>1724.2619</ele>
        <time>2011-06-12T11:36:31Z</time>
      </trkpt>
      <trkpt lat="45.63013" lon="6.04324">
        <ele>1726.6652</ele>
        <time>2011-06-12T11:36:34Z</time>
      </trkpt>
      <trkpt lat="45.63011" lon="6.04317">
        <ele>1728.1071</ele>
        <time>2011-06-12T11:36:36Z</time>
      </trkpt>
      <trkpt lat="45.63012" lon="6.04314">
        <ele>1729.0683</ele>
        <time>2011-06-12T11:36:37Z</time>
      </trkpt>
      <trkpt lat="45.63012" lon="6.04307">
        <ele>1730.9912</ele>
        <time>2011-06-12T11:36:39Z</time>
      </trkpt>
      <trkpt lat="45.63009" lon="6.04302">
        <ele>1732.4331</ele>
        <time>2011-06-12T11:36:41Z</time>
      </trkpt>
      <trkpt lat="45.63007" lon="6.04297">
        <ele>1731.9523</ele>
        <time>2011-06-12T11:36:42Z</time>
      </trkpt>
      <trkpt lat="45.63006" lon="6.04292">
        <ele>1730.0297</ele>
        <time>2011-06-12T11:36:44Z</time>
      </trkpt>
      <trkpt lat="45.63004" lon="6.04279">
        <ele>1731.9523</ele>
        <time>2011-06-12T11:36:48Z</time>
      </trkpt>
      <trkpt lat="45.63004" lon="6.04275">
        <ele>1732.9135</ele>
        <time>2011-06-12T11:36:49Z</time>
      </trkpt>
      <trkpt lat="45.63005" lon="6.04266">
        <ele>1735.3168</ele>
        <time>2011-06-12T11:36:51Z</time>
      </trkpt>
      <trkpt lat="45.63005" lon="6.04262">
        <ele>1736.2783</ele>
        <time>2011-06-12T11:36:52Z</time>
      </trkpt>
      <trkpt lat="45.63007" lon="6.04254">
        <ele>1737.7202</ele>
        <time>2011-06-12T11:36:55Z</time>
      </trkpt>
      <trkpt lat="45.63009" lon="6.04248">
        <ele>1739.1621</ele>
        <time>2011-06-12T11:36:56Z</time>
      </trkpt>
      <trkpt lat="45.63012" lon="6.04237">
        <ele>1741.0849</ele>
        <time>2011-06-12T11:37:00Z</time>
      </trkpt>
      <trkpt lat="45.6301" lon="6.04232">
        <ele>1740.6042</ele>
        <time>2011-06-12T11:37:01Z</time>
      </trkpt>
      <trkpt lat="45.63011" lon="6.04232">
        <ele>1740.6042</ele>
        <time>2011-06-12T11:37:01Z</time>
      </trkpt>
      <trkpt lat="45.63009" lon="6.04231">
        <ele>1740.6042</ele>
        <time>2011-06-12T11:37:02Z</time>
      </trkpt>
      <trkpt lat="45.63004" lon="6.04225">
        <ele>1741.5656</ele>
        <time>2011-06-12T11:37:05Z</time>
      </trkpt>
      <trkpt lat="45.63001" lon="6.04221">
        <ele>1742.0463</ele>
        <time>2011-06-12T11:37:06Z</time>
      </trkpt>
      <trkpt lat="45.63" lon="6.0422">
        <ele>1742.0463</ele>
        <time>2011-06-12T11:37:07Z</time>
      </trkpt>
      <trkpt lat="45.62995" lon="6.04206">
        <ele>1742.0463</ele>
        <time>2011-06-12T11:37:11Z</time>
      </trkpt>
      <trkpt lat="45.62993" lon="6.04201">
        <ele>1742.0463</ele>
        <time>2011-06-12T11:37:13Z</time>
      </trkpt>
      <trkpt lat="45.62993" lon="6.04201">
        <ele>1742.0463</ele>
        <time>2011-06-12T11:37:13Z</time>
      </trkpt>
      <trkpt lat="45.62992" lon="6.04202">
        <ele>1742.0463</ele>
        <time>2011-06-12T11:37:13Z</time>
      </trkpt>
      <trkpt lat="45.62992" lon="6.04202">
        <ele>1742.0463</ele>
        <time>2011-06-12T11:37:13Z</time>
      </trkpt>
      <trkpt lat="45.62992" lon="6.04203">
        <ele>1742.527</ele>
        <time>2011-06-12T11:37:14Z</time>
      </trkpt>
      <trkpt lat="45.62991" lon="6.04202">
        <ele>1742.527</ele>
        <time>2011-06-12T11:37:14Z</time>
      </trkpt>
      <trkpt lat="45.62989" lon="6.04202">
        <ele>1743.0075</ele>
        <time>2011-06-12T11:37:15Z</time>
      </trkpt>
      <trkpt lat="45.62982" lon="6.04188">
        <ele>1744.9301</ele>
        <time>2011-06-12T11:37:19Z</time>
      </trkpt>
      <trkpt lat="45.62978" lon="6.04175">
        <ele>1747.3334</ele>
        <time>2011-06-12T11:37:23Z</time>
      </trkpt>
      <trkpt lat="45.62977" lon="6.0417">
        <ele>1747.8142</ele>
        <time>2011-06-12T11:37:25Z</time>
      </trkpt>
      <trkpt lat="45.62976" lon="6.04165">
        <ele>1748.7753</ele>
        <time>2011-06-12T11:37:26Z</time>
      </trkpt>
      <trkpt lat="45.62976" lon="6.04164">
        <ele>1748.7753</ele>
        <time>2011-06-12T11:37:27Z</time>
      </trkpt>
      <trkpt lat="45.62974" lon="6.04161">
        <ele>1749.7368</ele>
        <time>2011-06-12T11:37:28Z</time>
      </trkpt>
      <trkpt lat="45.62973" lon="6.04159">
        <ele>1750.6979</ele>
        <time>2011-06-12T11:37:28Z</time>
      </trkpt>
      <trkpt lat="45.62969" lon="6.04148">
        <ele>1752.1398</ele>
        <time>2011-06-12T11:37:32Z</time>
      </trkpt>
      <trkpt lat="45.62966" lon="6.04136">
        <ele>1753.1013</ele>
        <time>2011-06-12T11:37:35Z</time>
      </trkpt>
      <trkpt lat="45.62964" lon="6.04134">
        <ele>1753.582</ele>
        <time>2011-06-12T11:37:36Z</time>
      </trkpt>
      <trkpt lat="45.62962" lon="6.04133">
        <ele>1754.0627</ele>
        <time>2011-06-12T11:37:37Z</time>
      </trkpt>
      <trkpt lat="45.62957" lon="6.04137">
        <ele>1753.582</ele>
        <time>2011-06-12T11:37:40Z</time>
      </trkpt>
      <trkpt lat="45.62955" lon="6.04138">
        <ele>1754.0627</ele>
        <time>2011-06-12T11:37:40Z</time>
      </trkpt>
      <trkpt lat="45.62954" lon="6.0413">
        <ele>1753.582</ele>
        <time>2011-06-12T11:37:42Z</time>
      </trkpt>
      <trkpt lat="45.6295" lon="6.04122">
        <ele>1753.582</ele>
        <time>2011-06-12T11:37:45Z</time>
      </trkpt>
      <trkpt lat="45.62946" lon="6.04124">
        <ele>1753.582</ele>
        <time>2011-06-12T11:37:47Z</time>
      </trkpt>
      <trkpt lat="45.62945" lon="6.04124">
        <ele>1754.0627</ele>
        <time>2011-06-12T11:37:47Z</time>
      </trkpt>
      <trkpt lat="45.62947" lon="6.04121">
        <ele>1754.5432</ele>
        <time>2011-06-12T11:37:48Z</time>
      </trkpt>
      <trkpt lat="45.62947" lon="6.04121">
        <ele>1754.0627</ele>
        <time>2011-06-12T11:37:49Z</time>
      </trkpt>
      <trkpt lat="45.62945" lon="6.04119">
        <ele>1755.5046</ele>
        <time>2011-06-12T11:37:49Z</time>
      </trkpt>
      <trkpt lat="45.62945" lon="6.04118">
        <ele>1755.9851</ele>
        <time>2011-06-12T11:37:50Z</time>
      </trkpt>
      <trkpt lat="45.62946" lon="6.04118">
        <ele>1755.0239</ele>
        <time>2011-06-12T11:37:50Z</time>
      </trkpt>
      <trkpt lat="45.62946" lon="6.04122">
        <ele>1755.0239</ele>
        <time>2011-06-12T11:37:51Z</time>
      </trkpt>
      <trkpt lat="45.62947" lon="6.04122">
        <ele>1754.0627</ele>
        <time>2011-06-12T11:37:52Z</time>
      </trkpt>
      <trkpt lat="45.62947" lon="6.04118">
        <ele>1754.0627</ele>
        <time>2011-06-12T11:37:53Z</time>
      </trkpt>
      <trkpt lat="45.62946" lon="6.04116">
        <ele>1754.5432</ele>
        <time>2011-06-12T11:37:54Z</time>
      </trkpt>
      <trkpt lat="45.62947" lon="6.04112">
        <ele>1756.9467</ele>
        <time>2011-06-12T11:37:55Z</time>
      </trkpt>
      <trkpt lat="45.62947" lon="6.04111">
        <ele>1757.9082</ele>
        <time>2011-06-12T11:37:55Z</time>
      </trkpt>
      <trkpt lat="45.62946" lon="6.0411">
        <ele>1758.3886</ele>
        <time>2011-06-12T11:37:56Z</time>
      </trkpt>
      <trkpt lat="45.62947" lon="6.0411">
        <ele>1758.3886</ele>
        <time>2011-06-12T11:37:56Z</time>
      </trkpt>
      <trkpt lat="45.62947" lon="6.04111">
        <ele>1757.4274</ele>
        <time>2011-06-12T11:37:56Z</time>
      </trkpt>
      <trkpt lat="45.62948" lon="6.04111">
        <ele>1757.4274</ele>
        <time>2011-06-12T11:37:56Z</time>
      </trkpt>
      <trkpt lat="45.62948" lon="6.04112">
        <ele>1757.4274</ele>
        <time>2011-06-12T11:37:56Z</time>
      </trkpt>
      <trkpt lat="45.62947" lon="6.04112">
        <ele>1756.9467</ele>
        <time>2011-06-12T11:37:57Z</time>
      </trkpt>
      <trkpt lat="45.62947" lon="6.04115">
        <ele>1757.4274</ele>
        <time>2011-06-12T11:37:58Z</time>
      </trkpt>
      <trkpt lat="45.62946" lon="6.04119">
        <ele>1755.9851</ele>
        <time>2011-06-12T11:37:59Z</time>
      </trkpt>
      <trkpt lat="45.62948" lon="6.04125">
        <ele>1755.5046</ele>
        <time>2011-06-12T11:38:01Z</time>
      </trkpt>
      <trkpt lat="45.62947" lon="6.04124">
        <ele>1755.5046</ele>
        <time>2011-06-12T11:38:01Z</time>
      </trkpt>
      <trkpt lat="45.62948" lon="6.04125">
        <ele>1755.9851</ele>
        <time>2011-06-12T11:38:01Z</time>
      </trkpt>
      <trkpt lat="45.62948" lon="6.04124">
        <ele>1756.466</ele>
        <time>2011-06-12T11:38:02Z</time>
      </trkpt>
      <trkpt lat="45.62947" lon="6.04124">
        <ele>1755.9851</ele>
        <time>2011-06-12T11:38:02Z</time>
      </trkpt>
      <trkpt lat="45.62947" lon="6.04124">
        <ele>1755.5046</ele>
        <time>2011-06-12T11:38:02Z</time>
      </trkpt>
      <trkpt lat="45.62946" lon="6.04123">
        <ele>1755.5046</ele>
        <time>2011-06-12T11:38:02Z</time>
      </trkpt>
      <trkpt lat="45.62946" lon="6.04122">
        <ele>1755.5046</ele>
        <time>2011-06-12T11:38:02Z</time>
      </trkpt>
      <trkpt lat="45.62946" lon="6.04123">
        <ele>1756.466</ele>
        <time>2011-06-12T11:38:03Z</time>
      </trkpt>
      <trkpt lat="45.62947" lon="6.04122">
        <ele>1756.466</ele>
        <time>2011-06-12T11:38:03Z</time>
      </trkpt>
      <trkpt lat="45.62947" lon="6.04122">
        <ele>1755.5046</ele>
        <time>2011-06-12T11:38:03Z</time>
      </trkpt>
      <trkpt lat="45.62947" lon="6.04123">
        <ele>1755.5046</ele>
        <time>2011-06-12T11:38:03Z</time>
      </trkpt>
      <trkpt lat="45.62948" lon="6.04124">
        <ele>1755.9851</ele>
        <time>2011-06-12T11:38:04Z</time>
      </trkpt>
      <trkpt lat="45.62951" lon="6.04127">
        <ele>1755.5046</ele>
        <time>2011-06-12T11:38:05Z</time>
      </trkpt>
      <trkpt lat="45.62951" lon="6.04127">
        <ele>1755.0239</ele>
        <time>2011-06-12T11:38:06Z</time>
      </trkpt>
      <trkpt lat="45.62952" lon="6.04128">
        <ele>1755.0239</ele>
        <time>2011-06-12T11:38:06Z</time>
      </trkpt>
      <trkpt lat="45.62953" lon="6.0413">
        <ele>1755.5046</ele>
        <time>2011-06-12T11:38:07Z</time>
      </trkpt>
      <trkpt lat="45.62954" lon="6.04135">
        <ele>1755.0239</ele>
        <time>2011-06-12T11:38:08Z</time>
      </trkpt>
      <trkpt lat="45.62955" lon="6.04142">
        <ele>1756.466</ele>
        <time>2011-06-12T11:38:10Z</time>
      </trkpt>
      <trkpt lat="45.62949" lon="6.04145">
        <ele>1756.466</ele>
        <time>2011-06-12T11:38:12Z</time>
      </trkpt>
      <trkpt lat="45.62943" lon="6.04146">
        <ele>1755.5046</ele>
        <time>2011-06-12T11:38:15Z</time>
      </trkpt>
      <trkpt lat="45.62935" lon="6.04153">
        <ele>1754.0627</ele>
        <time>2011-06-12T11:38:19Z</time>
      </trkpt>
      <trkpt lat="45.62931" lon="6.04159">
        <ele>1753.582</ele>
        <time>2011-06-12T11:38:21Z</time>
      </trkpt>
      <trkpt lat="45.62926" lon="6.04165">
        <ele>1753.582</ele>
        <time>2011-06-12T11:38:24Z</time>
      </trkpt>
      <trkpt lat="45.62926" lon="6.04165">
        <ele>1753.582</ele>
        <time>2011-06-12T11:38:24Z</time>
      </trkpt>
      <trkpt lat="45.62925" lon="6.04167">
        <ele>1753.582</ele>
        <time>2011-06-12T11:38:24Z</time>
      </trkpt>
      <trkpt lat="45.6292" lon="6.04171">
        <ele>1754.5432</ele>
        <time>2011-06-12T11:38:27Z</time>
      </trkpt>
      <trkpt lat="45.62921" lon="6.04173">
        <ele>1754.5432</ele>
        <time>2011-06-12T11:38:27Z</time>
      </trkpt>
      <trkpt lat="45.62921" lon="6.04175">
        <ele>1754.5432</ele>
        <time>2011-06-12T11:38:28Z</time>
      </trkpt>
      <trkpt lat="45.62921" lon="6.04176">
        <ele>1754.0627</ele>
        <time>2011-06-12T11:38:28Z</time>
      </trkpt>
      <trkpt lat="45.62922" lon="6.04177">
        <ele>1753.1013</ele>
        <time>2011-06-12T11:38:29Z</time>
      </trkpt>
      <trkpt lat="45.62923" lon="6.04179">
        <ele>1753.582</ele>
        <time>2011-06-12T11:38:29Z</time>
      </trkpt>
      <trkpt lat="45.62925" lon="6.04183">
        <ele>1754.0627</ele>
        <time>2011-06-12T11:38:31Z</time>
      </trkpt>
      <trkpt lat="45.62926" lon="6.04183">
        <ele>1753.582</ele>
        <time>2011-06-12T11:38:31Z</time>
      </trkpt>
      <trkpt lat="45.62925" lon="6.04184">
        <ele>1752.6206</ele>
        <time>2011-06-12T11:38:32Z</time>
      </trkpt>
      <trkpt lat="45.62922" lon="6.0418">
        <ele>1752.6206</ele>
        <time>2011-06-12T11:38:33Z</time>
      </trkpt>
      <trkpt lat="45.62921" lon="6.0418">
        <ele>1752.6206</ele>
        <time>2011-06-12T11:38:34Z</time>
      </trkpt>
      <trkpt lat="45.6292" lon="6.04181">
        <ele>1752.1398</ele>
        <time>2011-06-12T11:38:34Z</time>
      </trkpt>
      <trkpt lat="45.6292" lon="6.04181">
        <ele>1752.1398</ele>
        <time>2011-06-12T11:38:34Z</time>
      </trkpt>
      <trkpt lat="45.62921" lon="6.04181">
        <ele>1751.6594</ele>
        <time>2011-06-12T11:38:35Z</time>
      </trkpt>
      <trkpt lat="45.62921" lon="6.04181">
        <ele>1751.6594</ele>
        <time>2011-06-12T11:38:35Z</time>
      </trkpt>
      <trkpt lat="45.62921" lon="6.04179">
        <ele>1751.6594</ele>
        <time>2011-06-12T11:38:35Z</time>
      </trkpt>
      <trkpt lat="45.62921" lon="6.0418">
        <ele>1752.1398</ele>
        <time>2011-06-12T11:38:36Z</time>
      </trkpt>
      <trkpt lat="45.62921" lon="6.0418">
        <ele>1753.1013</ele>
        <time>2011-06-12T11:38:36Z</time>
      </trkpt>
      <trkpt lat="45.62921" lon="6.0418">
        <ele>1753.1013</ele>
        <time>2011-06-12T11:38:36Z</time>
      </trkpt>
      <trkpt lat="45.62921" lon="6.04181">
        <ele>1752.6206</ele>
        <time>2011-06-12T11:38:36Z</time>
      </trkpt>
      <trkpt lat="45.6292" lon="6.0418">
        <ele>1752.1398</ele>
        <time>2011-06-12T11:38:36Z</time>
      </trkpt>
      <trkpt lat="45.62921" lon="6.04183">
        <ele>1751.6594</ele>
        <time>2011-06-12T11:38:37Z</time>
      </trkpt>
      <trkpt lat="45.62919" lon="6.04192">
        <ele>1750.2175</ele>
        <time>2011-06-12T11:38:40Z</time>
      </trkpt>
      <trkpt lat="45.62921" lon="6.04199">
        <ele>1749.2561</ele>
        <time>2011-06-12T11:38:42Z</time>
      </trkpt>
      <trkpt lat="45.62921" lon="6.04198">
        <ele>1748.7753</ele>
        <time>2011-06-12T11:38:42Z</time>
      </trkpt>
      <trkpt lat="45.62921" lon="6.04199">
        <ele>1747.3334</ele>
        <time>2011-06-12T11:38:42Z</time>
      </trkpt>
      <trkpt lat="45.62921" lon="6.04198">
        <ele>1745.8916</ele>
        <time>2011-06-12T11:38:42Z</time>
      </trkpt>
      <trkpt lat="45.62922" lon="6.04198">
        <ele>1745.8916</ele>
        <time>2011-06-12T11:38:43Z</time>
      </trkpt>
      <trkpt lat="45.62921" lon="6.04204">
        <ele>1745.4108</ele>
        <time>2011-06-12T11:38:44Z</time>
      </trkpt>
      <trkpt lat="45.6292" lon="6.04207">
        <ele>1744.9301</ele>
        <time>2011-06-12T11:38:45Z</time>
      </trkpt>
      <trkpt lat="45.62921" lon="6.04209">
        <ele>1744.4494</ele>
        <time>2011-06-12T11:38:46Z</time>
      </trkpt>
      <trkpt lat="45.62923" lon="6.04214">
        <ele>1743.9689</ele>
        <time>2011-06-12T11:38:47Z</time>
      </trkpt>
      <trkpt lat="45.62921" lon="6.04228">
        <ele>1741.5656</ele>
        <time>2011-06-12T11:38:52Z</time>
      </trkpt>
      <trkpt lat="45.6292" lon="6.0424">
        <ele>1740.6042</ele>
        <time>2011-06-12T11:38:55Z</time>
      </trkpt>
      <trkpt lat="45.62919" lon="6.04243">
        <ele>1740.6042</ele>
        <time>2011-06-12T11:38:56Z</time>
      </trkpt>
      <trkpt lat="45.62918" lon="6.04244">
        <ele>1741.5656</ele>
        <time>2011-06-12T11:38:56Z</time>
      </trkpt>
      <trkpt lat="45.62918" lon="6.04246">
        <ele>1741.5656</ele>
        <time>2011-06-12T11:38:57Z</time>
      </trkpt>
      <trkpt lat="45.62917" lon="6.04256">
        <ele>1741.0849</ele>
        <time>2011-06-12T11:39:00Z</time>
      </trkpt>
      <trkpt lat="45.62916" lon="6.04262">
        <ele>1741.0849</ele>
        <time>2011-06-12T11:39:01Z</time>
      </trkpt>
      <trkpt lat="45.62916" lon="6.04263">
        <ele>1740.1237</ele>
        <time>2011-06-12T11:39:02Z</time>
      </trkpt>
      <trkpt lat="45.62915" lon="6.04269">
        <ele>1739.1621</ele>
        <time>2011-06-12T11:39:03Z</time>
      </trkpt>
      <trkpt lat="45.62913" lon="6.04277">
        <ele>1738.6816</ele>
        <time>2011-06-12T11:39:06Z</time>
      </trkpt>
      <trkpt lat="45.62914" lon="6.04283">
        <ele>1737.2395</ele>
        <time>2011-06-12T11:39:07Z</time>
      </trkpt>
      <trkpt lat="45.62916" lon="6.04286">
        <ele>1735.3168</ele>
        <time>2011-06-12T11:39:09Z</time>
      </trkpt>
      <trkpt lat="45.62916" lon="6.04287">
        <ele>1734.8364</ele>
        <time>2011-06-12T11:39:09Z</time>
      </trkpt>
      <trkpt lat="45.62917" lon="6.0429">
        <ele>1733.875</ele>
        <time>2011-06-12T11:39:10Z</time>
      </trkpt>
      <trkpt lat="45.62914" lon="6.04295">
        <ele>1733.3942</ele>
        <time>2011-06-12T11:39:12Z</time>
      </trkpt>
      <trkpt lat="45.62914" lon="6.04297">
        <ele>1731.9523</ele>
        <time>2011-06-12T11:39:12Z</time>
      </trkpt>
      <trkpt lat="45.62916" lon="6.04298">
        <ele>1731.4716</ele>
        <time>2011-06-12T11:39:13Z</time>
      </trkpt>
      <trkpt lat="45.62917" lon="6.04301">
        <ele>1731.4716</ele>
        <time>2011-06-12T11:39:14Z</time>
      </trkpt>
      <trkpt lat="45.62921" lon="6.04309">
        <ele>1729.549</ele>
        <time>2011-06-12T11:39:17Z</time>
      </trkpt>
      <trkpt lat="45.62919" lon="6.04317">
        <ele>1729.549</ele>
        <time>2011-06-12T11:39:19Z</time>
      </trkpt>
      <trkpt lat="45.62919" lon="6.04321">
        <ele>1729.549</ele>
        <time>2011-06-12T11:39:20Z</time>
      </trkpt>
      <trkpt lat="45.62918" lon="6.04332">
        <ele>1729.549</ele>
        <time>2011-06-12T11:39:23Z</time>
      </trkpt>
      <trkpt lat="45.62917" lon="6.04334">
        <ele>1729.0683</ele>
        <time>2011-06-12T11:39:24Z</time>
      </trkpt>
      <trkpt lat="45.62916" lon="6.04347">
        <ele>1727.1459</ele>
        <time>2011-06-12T11:39:28Z</time>
      </trkpt>
      <trkpt lat="45.62915" lon="6.04348">
        <ele>1726.6652</ele>
        <time>2011-06-12T11:39:28Z</time>
      </trkpt>
      <trkpt lat="45.62911" lon="6.04359">
        <ele>1725.2231</ele>
        <time>2011-06-12T11:39:31Z</time>
      </trkpt>
      <trkpt lat="45.62908" lon="6.04375">
        <ele>1723.781</ele>
        <time>2011-06-12T11:39:36Z</time>
      </trkpt>
      <trkpt lat="45.62909" lon="6.04388">
        <ele>1720.4165</ele>
        <time>2011-06-12T11:39:40Z</time>
      </trkpt>
      <trkpt lat="45.62911" lon="6.04407">
        <ele>1717.052</ele>
        <time>2011-06-12T11:39:45Z</time>
      </trkpt>
      <trkpt lat="45.6291" lon="6.04424">
        <ele>1716.0905</ele>
        <time>2011-06-12T11:39:50Z</time>
      </trkpt>
      <trkpt lat="45.62909" lon="6.04425">
        <ele>1716.0905</ele>
        <time>2011-06-12T11:39:50Z</time>
      </trkpt>
      <trkpt lat="45.62907" lon="6.04425">
        <ele>1716.0905</ele>
        <time>2011-06-12T11:39:51Z</time>
      </trkpt>
      <trkpt lat="45.62907" lon="6.04424">
        <ele>1715.1293</ele>
        <time>2011-06-12T11:39:51Z</time>
      </trkpt>
      <trkpt lat="45.62907" lon="6.04425">
        <ele>1714.6486</ele>
        <time>2011-06-12T11:39:52Z</time>
      </trkpt>
      <trkpt lat="45.62906" lon="6.04427">
        <ele>1714.6486</ele>
        <time>2011-06-12T11:39:52Z</time>
      </trkpt>
      <trkpt lat="45.62906" lon="6.04429">
        <ele>1714.6486</ele>
        <time>2011-06-12T11:39:53Z</time>
      </trkpt>
      <trkpt lat="45.62901" lon="6.04439">
        <ele>1716.0905</ele>
        <time>2011-06-12T11:39:56Z</time>
      </trkpt>
      <trkpt lat="45.62897" lon="6.04447">
        <ele>1716.0905</ele>
        <time>2011-06-12T11:39:59Z</time>
      </trkpt>
      <trkpt lat="45.62895" lon="6.0445">
        <ele>1716.0905</ele>
        <time>2011-06-12T11:40:00Z</time>
      </trkpt>
      <trkpt lat="45.62896" lon="6.04453">
        <ele>1716.0905</ele>
        <time>2011-06-12T11:40:01Z</time>
      </trkpt>
      <trkpt lat="45.62896" lon="6.04456">
        <ele>1715.6101</ele>
        <time>2011-06-12T11:40:02Z</time>
      </trkpt>
      <trkpt lat="45.62893" lon="6.0446">
        <ele>1714.6486</ele>
        <time>2011-06-12T11:40:03Z</time>
      </trkpt>
      <trkpt lat="45.62892" lon="6.04464">
        <ele>1715.1293</ele>
        <time>2011-06-12T11:40:05Z</time>
      </trkpt>
      <trkpt lat="45.6289" lon="6.04467">
        <ele>1714.6486</ele>
        <time>2011-06-12T11:40:06Z</time>
      </trkpt>
      <trkpt lat="45.62888" lon="6.04471">
        <ele>1714.6486</ele>
        <time>2011-06-12T11:40:07Z</time>
      </trkpt>
      <trkpt lat="45.62886" lon="6.04476">
        <ele>1713.6872</ele>
        <time>2011-06-12T11:40:09Z</time>
      </trkpt>
      <trkpt lat="45.62881" lon="6.04482">
        <ele>1713.6872</ele>
        <time>2011-06-12T11:40:11Z</time>
      </trkpt>
      <trkpt lat="45.62881" lon="6.04481">
        <ele>1713.2067</ele>
        <time>2011-06-12T11:40:12Z</time>
      </trkpt>
      <trkpt lat="45.62881" lon="6.04483">
        <ele>1713.2067</ele>
        <time>2011-06-12T11:40:12Z</time>
      </trkpt>
      <trkpt lat="45.62883" lon="6.04484">
        <ele>1712.2453</ele>
        <time>2011-06-12T11:40:13Z</time>
      </trkpt>
      <trkpt lat="45.62881" lon="6.04489">
        <ele>1712.2453</ele>
        <time>2011-06-12T11:40:14Z</time>
      </trkpt>
      <trkpt lat="45.62879" lon="6.04493">
        <ele>1712.2453</ele>
        <time>2011-06-12T11:40:16Z</time>
      </trkpt>
      <trkpt lat="45.62875" lon="6.04496">
        <ele>1711.7648</ele>
        <time>2011-06-12T11:40:17Z</time>
      </trkpt>
      <trkpt lat="45.62874" lon="6.04497">
        <ele>1711.7648</ele>
        <time>2011-06-12T11:40:18Z</time>
      </trkpt>
      <trkpt lat="45.62872" lon="6.045">
        <ele>1711.7648</ele>
        <time>2011-06-12T11:40:19Z</time>
      </trkpt>
      <trkpt lat="45.62871" lon="6.04504">
        <ele>1710.8034</ele>
        <time>2011-06-12T11:40:20Z</time>
      </trkpt>
      <trkpt lat="45.62869" lon="6.04508">
        <ele>1709.842</ele>
        <time>2011-06-12T11:40:22Z</time>
      </trkpt>
      <trkpt lat="45.62867" lon="6.04512">
        <ele>1709.842</ele>
        <time>2011-06-12T11:40:23Z</time>
      </trkpt>
      <trkpt lat="45.62867" lon="6.04518">
        <ele>1708.8808</ele>
        <time>2011-06-12T11:40:25Z</time>
      </trkpt>
      <trkpt lat="45.62864" lon="6.0453">
        <ele>1706.4772</ele>
        <time>2011-06-12T11:40:28Z</time>
      </trkpt>
      <trkpt lat="45.6286" lon="6.04533">
        <ele>1705.5161</ele>
        <time>2011-06-12T11:40:30Z</time>
      </trkpt>
      <trkpt lat="45.62854" lon="6.04536">
        <ele>1703.5935</ele>
        <time>2011-06-12T11:40:33Z</time>
      </trkpt>
      <trkpt lat="45.62853" lon="6.04537">
        <ele>1703.1127</ele>
        <time>2011-06-12T11:40:33Z</time>
      </trkpt>
      <trkpt lat="45.62848" lon="6.04539">
        <ele>1702.632</ele>
        <time>2011-06-12T11:40:35Z</time>
      </trkpt>
      <trkpt lat="45.62842" lon="6.04547">
        <ele>1701.6708</ele>
        <time>2011-06-12T11:40:39Z</time>
      </trkpt>
      <trkpt lat="45.62837" lon="6.04555">
        <ele>1701.1901</ele>
        <time>2011-06-12T11:40:42Z</time>
      </trkpt>
      <trkpt lat="45.62832" lon="6.04562">
        <ele>1700.7094</ele>
        <time>2011-06-12T11:40:45Z</time>
      </trkpt>
      <trkpt lat="45.62831" lon="6.04565">
        <ele>1700.229</ele>
        <time>2011-06-12T11:40:45Z</time>
      </trkpt>
      <trkpt lat="45.6283" lon="6.04565">
        <ele>1700.229</ele>
        <time>2011-06-12T11:40:46Z</time>
      </trkpt>
      <trkpt lat="45.6283" lon="6.04564">
        <ele>1701.1901</ele>
        <time>2011-06-12T11:40:46Z</time>
      </trkpt>
      <trkpt lat="45.6283" lon="6.04564">
        <ele>1701.1901</ele>
        <time>2011-06-12T11:40:46Z</time>
      </trkpt>
      <trkpt lat="45.6283" lon="6.04564">
        <ele>1701.1901</ele>
        <time>2011-06-12T11:40:46Z</time>
      </trkpt>
      <trkpt lat="45.6283" lon="6.04564">
        <ele>1701.1901</ele>
        <time>2011-06-12T11:40:46Z</time>
      </trkpt>
      <trkpt lat="45.62831" lon="6.04565">
        <ele>1701.1901</ele>
        <time>2011-06-12T11:40:46Z</time>
      </trkpt>
      <trkpt lat="45.62831" lon="6.04565">
        <ele>1700.7094</ele>
        <time>2011-06-12T11:40:46Z</time>
      </trkpt>
      <trkpt lat="45.62832" lon="6.04565">
        <ele>1701.1901</ele>
        <time>2011-06-12T11:40:47Z</time>
      </trkpt>
      <trkpt lat="45.62832" lon="6.04566">
        <ele>1701.6708</ele>
        <time>2011-06-12T11:40:47Z</time>
      </trkpt>
      <trkpt lat="45.62832" lon="6.04566">
        <ele>1701.1901</ele>
        <time>2011-06-12T11:40:47Z</time>
      </trkpt>
      <trkpt lat="45.62832" lon="6.04566">
        <ele>1701.6708</ele>
        <time>2011-06-12T11:40:47Z</time>
      </trkpt>
      <trkpt lat="45.62832" lon="6.04566">
        <ele>1703.1127</ele>
        <time>2011-06-12T11:40:47Z</time>
      </trkpt>
      <trkpt lat="45.62832" lon="6.04566">
        <ele>1703.1127</ele>
        <time>2011-06-12T11:40:47Z</time>
      </trkpt>
      <trkpt lat="45.62832" lon="6.04567">
        <ele>1702.632</ele>
        <time>2011-06-12T11:40:47Z</time>
      </trkpt>
      <trkpt lat="45.62832" lon="6.04567">
        <ele>1702.632</ele>
        <time>2011-06-12T11:40:48Z</time>
      </trkpt>
      <trkpt lat="45.62832" lon="6.04567">
        <ele>1702.1513</ele>
        <time>2011-06-12T11:40:48Z</time>
      </trkpt>
      <trkpt lat="45.62832" lon="6.04566">
        <ele>1703.1127</ele>
        <time>2011-06-12T11:40:48Z</time>
      </trkpt>
      <trkpt lat="45.62831" lon="6.04567">
        <ele>1702.1513</ele>
        <time>2011-06-12T11:40:48Z</time>
      </trkpt>
      <trkpt lat="45.62818" lon="6.04587">
        <ele>1697.3449</ele>
        <time>2011-06-12T11:40:56Z</time>
      </trkpt>
      <trkpt lat="45.62799" lon="6.04614">
        <ele>1691.0961</ele>
        <time>2011-06-12T11:41:06Z</time>
      </trkpt>
      <trkpt lat="45.62786" lon="6.0463">
        <ele>1686.7702</ele>
        <time>2011-06-12T11:41:13Z</time>
      </trkpt>
      <trkpt lat="45.6277" lon="6.04646">
        <ele>1682.4445</ele>
        <time>2011-06-12T11:41:21Z</time>
      </trkpt>
      <trkpt lat="45.62761" lon="6.04659">
        <ele>1680.0412</ele>
        <time>2011-06-12T11:41:26Z</time>
      </trkpt>
      <trkpt lat="45.62754" lon="6.04671">
        <ele>1677.1574</ele>
        <time>2011-06-12T11:41:31Z</time>
      </trkpt>
      <trkpt lat="45.62747" lon="6.04676">
        <ele>1674.7539</ele>
        <time>2011-06-12T11:41:34Z</time>
      </trkpt>
      <trkpt lat="45.62737" lon="6.04692">
        <ele>1671.8698</ele>
        <time>2011-06-12T11:41:40Z</time>
      </trkpt>
      <trkpt lat="45.62722" lon="6.04714">
        <ele>1668.5053</ele>
        <time>2011-06-12T11:41:49Z</time>
      </trkpt>
      <trkpt lat="45.62705" lon="6.04743">
        <ele>1665.1408</ele>
        <time>2011-06-12T11:41:59Z</time>
      </trkpt>
      <trkpt lat="45.62702" lon="6.04747">
        <ele>1664.1794</ele>
        <time>2011-06-12T11:42:01Z</time>
      </trkpt>
      <trkpt lat="45.62703" lon="6.04748">
        <ele>1664.1794</ele>
        <time>2011-06-12T11:42:01Z</time>
      </trkpt>
      <trkpt lat="45.62704" lon="6.04748">
        <ele>1661.7763</ele>
        <time>2011-06-12T11:42:02Z</time>
      </trkpt>
      <trkpt lat="45.62704" lon="6.04749">
        <ele>1661.7763</ele>
        <time>2011-06-12T11:42:02Z</time>
      </trkpt>
      <trkpt lat="45.62702" lon="6.04749">
        <ele>1661.7763</ele>
        <time>2011-06-12T11:42:03Z</time>
      </trkpt>
      <trkpt lat="45.6269" lon="6.04759">
        <ele>1661.2956</ele>
        <time>2011-06-12T11:42:08Z</time>
      </trkpt>
      <trkpt lat="45.62675" lon="6.04766">
        <ele>1659.3728</ele>
        <time>2011-06-12T11:42:14Z</time>
      </trkpt>
      <trkpt lat="45.62653" lon="6.04776">
        <ele>1656.4887</ele>
        <time>2011-06-12T11:42:24Z</time>
      </trkpt>
      <trkpt lat="45.62637" lon="6.04782">
        <ele>1656.008</ele>
        <time>2011-06-12T11:42:30Z</time>
      </trkpt>
      <trkpt lat="45.62624" lon="6.04792">
        <ele>1655.0468</ele>
        <time>2011-06-12T11:42:36Z</time>
      </trkpt>
      <trkpt lat="45.62611" lon="6.04803">
        <ele>1655.0468</ele>
        <time>2011-06-12T11:42:42Z</time>
      </trkpt>
      <trkpt lat="45.62604" lon="6.0481">
        <ele>1654.5661</ele>
        <time>2011-06-12T11:42:46Z</time>
      </trkpt>
      <trkpt lat="45.62602" lon="6.04811">
        <ele>1654.5661</ele>
        <time>2011-06-12T11:42:46Z</time>
      </trkpt>
      <trkpt lat="45.62596" lon="6.04816">
        <ele>1654.0856</ele>
        <time>2011-06-12T11:42:49Z</time>
      </trkpt>
      <trkpt lat="45.62587" lon="6.04827">
        <ele>1652.6435</ele>
        <time>2011-06-12T11:42:54Z</time>
      </trkpt>
      <trkpt lat="45.62585" lon="6.04829">
        <ele>1652.1628</ele>
        <time>2011-06-12T11:42:55Z</time>
      </trkpt>
      <trkpt lat="45.62578" lon="6.04843">
        <ele>1650.2404</ele>
        <time>2011-06-12T11:43:00Z</time>
      </trkpt>
      <trkpt lat="45.62563" lon="6.04867">
        <ele>1647.8371</ele>
        <time>2011-06-12T11:43:09Z</time>
      </trkpt>
      <trkpt lat="45.62547" lon="6.04894">
        <ele>1645.4338</ele>
        <time>2011-06-12T11:43:18Z</time>
      </trkpt>
      <trkpt lat="45.62534" lon="6.04915">
        <ele>1644.9531</ele>
        <time>2011-06-12T11:43:26Z</time>
      </trkpt>
      <trkpt lat="45.62521" lon="6.04933">
        <ele>1644.4724</ele>
        <time>2011-06-12T11:43:34Z</time>
      </trkpt>
      <trkpt lat="45.62508" lon="6.04953">
        <ele>1643.5109</ele>
        <time>2011-06-12T11:43:41Z</time>
      </trkpt>
      <trkpt lat="45.62493" lon="6.04975">
        <ele>1640.6269</ele>
        <time>2011-06-12T11:43:50Z</time>
      </trkpt>
      <trkpt lat="45.62477" lon="6.04999">
        <ele>1638.7045</ele>
        <time>2011-06-12T11:43:59Z</time>
      </trkpt>
      <trkpt lat="45.62463" lon="6.05017">
        <ele>1638.7045</ele>
        <time>2011-06-12T11:44:07Z</time>
      </trkpt>
      <trkpt lat="45.62463" lon="6.05018">
        <ele>1638.2238</ele>
        <time>2011-06-12T11:44:07Z</time>
      </trkpt>
      <trkpt lat="45.62463" lon="6.05017">
        <ele>1637.7431</ele>
        <time>2011-06-12T11:44:07Z</time>
      </trkpt>
      <trkpt lat="45.62463" lon="6.05018">
        <ele>1636.7817</ele>
        <time>2011-06-12T11:44:08Z</time>
      </trkpt>
      <trkpt lat="45.62463" lon="6.05018">
        <ele>1635.8205</ele>
        <time>2011-06-12T11:44:08Z</time>
      </trkpt>
      <trkpt lat="45.62463" lon="6.05019">
        <ele>1635.3398</ele>
        <time>2011-06-12T11:44:08Z</time>
      </trkpt>
      <trkpt lat="45.62459" lon="6.05026">
        <ele>1634.8593</ele>
        <time>2011-06-12T11:44:10Z</time>
      </trkpt>
      <trkpt lat="45.62448" lon="6.05045">
        <ele>1632.9365</ele>
        <time>2011-06-12T11:44:17Z</time>
      </trkpt>
      <trkpt lat="45.6244" lon="6.05058">
        <ele>1630.0527</ele>
        <time>2011-06-12T11:44:22Z</time>
      </trkpt>
      <trkpt lat="45.62428" lon="6.05073">
        <ele>1627.6491</ele>
        <time>2011-06-12T11:44:29Z</time>
      </trkpt>
      <trkpt lat="45.62419" lon="6.05085">
        <ele>1625.2458</ele>
        <time>2011-06-12T11:44:34Z</time>
      </trkpt>
      <trkpt lat="45.62417" lon="6.05088">
        <ele>1624.7653</ele>
        <time>2011-06-12T11:44:35Z</time>
      </trkpt>
      <trkpt lat="45.62408" lon="6.05094">
        <ele>1623.3234</ele>
        <time>2011-06-12T11:44:38Z</time>
      </trkpt>
      <trkpt lat="45.62394" lon="6.05099">
        <ele>1618.9975</ele>
        <time>2011-06-12T11:44:44Z</time>
      </trkpt>
      <trkpt lat="45.62386" lon="6.05098">
        <ele>1615.1523</ele>
        <time>2011-06-12T11:44:48Z</time>
      </trkpt>
      <trkpt lat="45.62368" lon="6.05096">
        <ele>1609.8647</ele>
        <time>2011-06-12T11:44:55Z</time>
      </trkpt>
      <trkpt lat="45.62358" lon="6.05096">
        <ele>1607.4616</ele>
        <time>2011-06-12T11:44:59Z</time>
      </trkpt>
      <trkpt lat="45.62357" lon="6.05094">
        <ele>1606.9809</ele>
        <time>2011-06-12T11:45:00Z</time>
      </trkpt>
      <trkpt lat="45.62357" lon="6.05095">
        <ele>1607.4616</ele>
        <time>2011-06-12T11:45:00Z</time>
      </trkpt>
      <trkpt lat="45.62357" lon="6.05095">
        <ele>1606.9809</ele>
        <time>2011-06-12T11:45:00Z</time>
      </trkpt>
      <trkpt lat="45.62358" lon="6.05097">
        <ele>1606.0195</ele>
        <time>2011-06-12T11:45:01Z</time>
      </trkpt>
      <trkpt lat="45.62354" lon="6.05097">
        <ele>1606.9809</ele>
        <time>2011-06-12T11:45:02Z</time>
      </trkpt>
      <trkpt lat="45.62346" lon="6.05094">
        <ele>1605.0583</ele>
        <time>2011-06-12T11:45:06Z</time>
      </trkpt>
      <trkpt lat="45.62337" lon="6.05093">
        <ele>1604.0971</ele>
        <time>2011-06-12T11:45:09Z</time>
      </trkpt>
      <trkpt lat="45.62333" lon="6.051">
        <ele>1603.1357</ele>
        <time>2011-06-12T11:45:12Z</time>
      </trkpt>
      <trkpt lat="45.62333" lon="6.051">
        <ele>1603.6164</ele>
        <time>2011-06-12T11:45:12Z</time>
      </trkpt>
      <trkpt lat="45.62335" lon="6.05103">
        <ele>1603.1357</ele>
        <time>2011-06-12T11:45:13Z</time>
      </trkpt>
      <trkpt lat="45.62333" lon="6.05105">
        <ele>1601.6938</ele>
        <time>2011-06-12T11:45:14Z</time>
      </trkpt>
      <trkpt lat="45.62332" lon="6.05105">
        <ele>1600.7324</ele>
        <time>2011-06-12T11:45:14Z</time>
      </trkpt>
      <trkpt lat="45.62336" lon="6.05108">
        <ele>1600.7324</ele>
        <time>2011-06-12T11:45:16Z</time>
      </trkpt>
      <trkpt lat="45.62336" lon="6.05112">
        <ele>1600.7324</ele>
        <time>2011-06-12T11:45:17Z</time>
      </trkpt>
      <trkpt lat="45.62336" lon="6.05115">
        <ele>1600.2519</ele>
        <time>2011-06-12T11:45:18Z</time>
      </trkpt>
      <trkpt lat="45.6234" lon="6.0513">
        <ele>1598.3291</ele>
        <time>2011-06-12T11:45:22Z</time>
      </trkpt>
      <trkpt lat="45.62344" lon="6.0515">
        <ele>1594.9643</ele>
        <time>2011-06-12T11:45:28Z</time>
      </trkpt>
      <trkpt lat="45.62348" lon="6.05164">
        <ele>1593.5224</ele>
        <time>2011-06-12T11:45:33Z</time>
      </trkpt>
      <trkpt lat="45.62347" lon="6.05174">
        <ele>1592.5612</ele>
        <time>2011-06-12T11:45:35Z</time>
      </trkpt>
      <trkpt lat="45.62345" lon="6.05185">
        <ele>1592.0805</ele>
        <time>2011-06-12T11:45:38Z</time>
      </trkpt>
      <trkpt lat="45.62344" lon="6.05201">
        <ele>1590.6384</ele>
        <time>2011-06-12T11:45:43Z</time>
      </trkpt>
      <trkpt lat="45.62344" lon="6.05207">
        <ele>1589.6772</ele>
        <time>2011-06-12T11:45:45Z</time>
      </trkpt>
      <trkpt lat="45.62343" lon="6.05212">
        <ele>1588.2353</ele>
        <time>2011-06-12T11:45:46Z</time>
      </trkpt>
      <trkpt lat="45.62339" lon="6.0523">
        <ele>1587.7546</ele>
        <time>2011-06-12T11:45:51Z</time>
      </trkpt>
      <trkpt lat="45.62338" lon="6.05233">
        <ele>1587.7546</ele>
        <time>2011-06-12T11:45:52Z</time>
      </trkpt>
      <trkpt lat="45.62335" lon="6.05245">
        <ele>1586.7932</ele>
        <time>2011-06-12T11:45:56Z</time>
      </trkpt>
      <trkpt lat="45.62332" lon="6.05256">
        <ele>1585.3513</ele>
        <time>2011-06-12T11:45:59Z</time>
      </trkpt>
      <trkpt lat="45.62328" lon="6.05275">
        <ele>1583.9094</ele>
        <time>2011-06-12T11:46:05Z</time>
      </trkpt>
      <trkpt lat="45.62323" lon="6.05289">
        <ele>1583.4287</ele>
        <time>2011-06-12T11:46:09Z</time>
      </trkpt>
      <trkpt lat="45.62322" lon="6.05289">
        <ele>1582.9479</ele>
        <time>2011-06-12T11:46:09Z</time>
      </trkpt>
      <trkpt lat="45.62321" lon="6.05291">
        <ele>1581.9868</ele>
        <time>2011-06-12T11:46:10Z</time>
      </trkpt>
      <trkpt lat="45.62319" lon="6.05302">
        <ele>1581.5061</ele>
        <time>2011-06-12T11:46:13Z</time>
      </trkpt>
      <trkpt lat="45.62317" lon="6.05309">
        <ele>1579.5832</ele>
        <time>2011-06-12T11:46:15Z</time>
      </trkpt>
      <trkpt lat="45.62315" lon="6.05312">
        <ele>1578.622</ele>
        <time>2011-06-12T11:46:16Z</time>
      </trkpt>
      <trkpt lat="45.62314" lon="6.0532">
        <ele>1578.1413</ele>
        <time>2011-06-12T11:46:19Z</time>
      </trkpt>
      <trkpt lat="45.62313" lon="6.05323">
        <ele>1578.1413</ele>
        <time>2011-06-12T11:46:20Z</time>
      </trkpt>
      <trkpt lat="45.62313" lon="6.05325">
        <ele>1577.6606</ele>
        <time>2011-06-12T11:46:20Z</time>
      </trkpt>
      <trkpt lat="45.62305" lon="6.05341">
        <ele>1575.738</ele>
        <time>2011-06-12T11:46:26Z</time>
      </trkpt>
      <trkpt lat="45.62298" lon="6.05359">
        <ele>1573.3349</ele>
        <time>2011-06-12T11:46:31Z</time>
      </trkpt>
      <trkpt lat="45.62293" lon="6.05367">
        <ele>1571.8928</ele>
        <time>2011-06-12T11:46:34Z</time>
      </trkpt>
      <trkpt lat="45.62286" lon="6.05387">
        <ele>1567.5668</ele>
        <time>2011-06-12T11:46:40Z</time>
      </trkpt>
      <trkpt lat="45.62284" lon="6.05399">
        <ele>1564.6831</ele>
        <time>2011-06-12T11:46:44Z</time>
      </trkpt>
      <trkpt lat="45.62276" lon="6.05404">
        <ele>1559.8762</ele>
        <time>2011-06-12T11:46:48Z</time>
      </trkpt>
      <trkpt lat="45.62273" lon="6.05407">
        <ele>1557.4731</ele>
        <time>2011-06-12T11:46:49Z</time>
      </trkpt>
      <trkpt lat="45.62271" lon="6.05413">
        <ele>1557.4731</ele>
        <time>2011-06-12T11:46:51Z</time>
      </trkpt>
      <trkpt lat="45.62267" lon="6.05425">
        <ele>1555.5505</ele>
        <time>2011-06-12T11:46:55Z</time>
      </trkpt>
      <trkpt lat="45.62264" lon="6.05428">
        <ele>1553.6279</ele>
        <time>2011-06-12T11:46:56Z</time>
      </trkpt>
      <trkpt lat="45.62265" lon="6.05428">
        <ele>1554.5891</ele>
        <time>2011-06-12T11:46:57Z</time>
      </trkpt>
      <trkpt lat="45.62265" lon="6.05428">
        <ele>1554.1086</ele>
        <time>2011-06-12T11:46:57Z</time>
      </trkpt>
      <trkpt lat="45.62265" lon="6.05428">
        <ele>1554.5891</ele>
        <time>2011-06-12T11:46:57Z</time>
      </trkpt>
      <trkpt lat="45.62263" lon="6.05428">
        <ele>1554.1086</ele>
        <time>2011-06-12T11:46:58Z</time>
      </trkpt>
      <trkpt lat="45.62261" lon="6.05429">
        <ele>1553.6279</ele>
        <time>2011-06-12T11:46:59Z</time>
      </trkpt>
      <trkpt lat="45.62259" lon="6.05429">
        <ele>1552.6665</ele>
        <time>2011-06-12T11:46:59Z</time>
      </trkpt>
      <trkpt lat="45.62258" lon="6.05426">
        <ele>1551.2246</ele>
        <time>2011-06-12T11:47:00Z</time>
      </trkpt>
      <trkpt lat="45.62256" lon="6.05421">
        <ele>1550.2634</ele>
        <time>2011-06-12T11:47:02Z</time>
      </trkpt>
      <trkpt lat="45.62254" lon="6.0542">
        <ele>1549.302</ele>
        <time>2011-06-12T11:47:02Z</time>
      </trkpt>
      <trkpt lat="45.62251" lon="6.05421">
        <ele>1548.3405</ele>
        <time>2011-06-12T11:47:04Z</time>
      </trkpt>
      <trkpt lat="45.62251" lon="6.05415">
        <ele>1546.8984</ele>
        <time>2011-06-12T11:47:05Z</time>
      </trkpt>
      <trkpt lat="45.6225" lon="6.05413">
        <ele>1545.4565</ele>
        <time>2011-06-12T11:47:06Z</time>
      </trkpt>
      <trkpt lat="45.62245" lon="6.05394">
        <ele>1539.208</ele>
        <time>2011-06-12T11:47:12Z</time>
      </trkpt>
      <trkpt lat="45.62239" lon="6.05382">
        <ele>1534.4016</ele>
        <time>2011-06-12T11:47:16Z</time>
      </trkpt>
      <trkpt lat="45.62237" lon="6.0538">
        <ele>1533.4401</ele>
        <time>2011-06-12T11:47:17Z</time>
      </trkpt>
      <trkpt lat="45.62229" lon="6.05376">
        <ele>1530.0754</ele>
        <time>2011-06-12T11:47:20Z</time>
      </trkpt>
      <trkpt lat="45.62228" lon="6.05375">
        <ele>1532.479</ele>
        <time>2011-06-12T11:47:21Z</time>
      </trkpt>
      <trkpt lat="45.62226" lon="6.05371">
        <ele>1531.5173</ele>
        <time>2011-06-12T11:47:22Z</time>
      </trkpt>
      <trkpt lat="45.62225" lon="6.05371">
        <ele>1531.0368</ele>
        <time>2011-06-12T11:47:22Z</time>
      </trkpt>
      <trkpt lat="45.62223" lon="6.05365">
        <ele>1532.479</ele>
        <time>2011-06-12T11:47:24Z</time>
      </trkpt>
      <trkpt lat="45.62221" lon="6.05364">
        <ele>1531.5173</ele>
        <time>2011-06-12T11:47:25Z</time>
      </trkpt>
      <trkpt lat="45.62221" lon="6.05362">
        <ele>1531.5173</ele>
        <time>2011-06-12T11:47:26Z</time>
      </trkpt>
      <trkpt lat="45.6222" lon="6.05359">
        <ele>1531.0368</ele>
        <time>2011-06-12T11:47:27Z</time>
      </trkpt>
      <trkpt lat="45.62217" lon="6.05359">
        <ele>1529.114</ele>
        <time>2011-06-12T11:47:28Z</time>
      </trkpt>
      <trkpt lat="45.62213" lon="6.05355">
        <ele>1527.1916</ele>
        <time>2011-06-12T11:47:30Z</time>
      </trkpt>
      <trkpt lat="45.62213" lon="6.0535">
        <ele>1525.2687</ele>
        <time>2011-06-12T11:47:31Z</time>
      </trkpt>
      <trkpt lat="45.62208" lon="6.05344">
        <ele>1525.7495</ele>
        <time>2011-06-12T11:47:34Z</time>
      </trkpt>
      <trkpt lat="45.62207" lon="6.05343">
        <ele>1525.2687</ele>
        <time>2011-06-12T11:47:34Z</time>
      </trkpt>
      <trkpt lat="45.62192" lon="6.05326">
        <ele>1523.3464</ele>
        <time>2011-06-12T11:47:42Z</time>
      </trkpt>
      <trkpt lat="45.62188" lon="6.05325">
        <ele>1522.385</ele>
        <time>2011-06-12T11:47:44Z</time>
      </trkpt>
      <trkpt lat="45.6217" lon="6.05314">
        <ele>1522.8657</ele>
        <time>2011-06-12T11:47:51Z</time>
      </trkpt>
      <trkpt lat="45.62167" lon="6.05313">
        <ele>1524.3076</ele>
        <time>2011-06-12T11:47:53Z</time>
      </trkpt>
      <trkpt lat="45.62162" lon="6.05314">
        <ele>1544.4951</ele>
        <time>2011-06-12T11:47:55Z</time>
      </trkpt>
      <trkpt lat="45.62167" lon="6.05315">
        <ele>1534.8823</ele>
        <time>2011-06-12T11:47:56Z</time>
      </trkpt>
      <trkpt lat="45.62166" lon="6.05313">
        <ele>1521.9042</ele>
        <time>2011-06-12T11:47:57Z</time>
      </trkpt>
      <trkpt lat="45.62163" lon="6.05313">
        <ele>1520.4624</ele>
        <time>2011-06-12T11:47:58Z</time>
      </trkpt>
      <trkpt lat="45.62158" lon="6.05309">
        <ele>1514.6943</ele>
        <time>2011-06-12T11:48:00Z</time>
      </trkpt>
      <trkpt lat="45.62155" lon="6.05305">
        <ele>1512.7717</ele>
        <time>2011-06-12T11:48:02Z</time>
      </trkpt>
      <trkpt lat="45.62145" lon="6.05294">
        <ele>1515.175</ele>
        <time>2011-06-12T11:48:07Z</time>
      </trkpt>
      <trkpt lat="45.62145" lon="6.05289">
        <ele>1511.8105</ele>
        <time>2011-06-12T11:48:08Z</time>
      </trkpt>
      <trkpt lat="45.62143" lon="6.0529">
        <ele>1512.7717</ele>
        <time>2011-06-12T11:48:09Z</time>
      </trkpt>
      <trkpt lat="45.62141" lon="6.05289">
        <ele>1509.8876</ele>
        <time>2011-06-12T11:48:10Z</time>
      </trkpt>
      <trkpt lat="45.62141" lon="6.05289">
        <ele>1508.4458</ele>
        <time>2011-06-12T11:48:10Z</time>
      </trkpt>
      <trkpt lat="45.6214" lon="6.05291">
        <ele>1518.059</ele>
        <time>2011-06-12T11:48:11Z</time>
      </trkpt>
      <trkpt lat="45.62138" lon="6.05295">
        <ele>1518.5397</ele>
        <time>2011-06-12T11:48:12Z</time>
      </trkpt>
      <trkpt lat="45.62139" lon="6.05295">
        <ele>1524.7883</ele>
        <time>2011-06-12T11:48:13Z</time>
      </trkpt>
      <trkpt lat="45.6214" lon="6.05295">
        <ele>1526.2302</ele>
        <time>2011-06-12T11:48:13Z</time>
      </trkpt>
      <trkpt lat="45.62142" lon="6.05296">
        <ele>1530.0754</ele>
        <time>2011-06-12T11:48:14Z</time>
      </trkpt>
      <trkpt lat="45.62142" lon="6.05296">
        <ele>1530.5561</ele>
        <time>2011-06-12T11:48:14Z</time>
      </trkpt>
      <trkpt lat="45.62141" lon="6.05297">
        <ele>1524.7883</ele>
        <time>2011-06-12T11:48:15Z</time>
      </trkpt>
      <trkpt lat="45.62141" lon="6.05298">
        <ele>1521.9042</ele>
        <time>2011-06-12T11:48:15Z</time>
      </trkpt>
      <trkpt lat="45.62141" lon="6.05298">
        <ele>1522.385</ele>
        <time>2011-06-12T11:48:15Z</time>
      </trkpt>
      <trkpt lat="45.62138" lon="6.05293">
        <ele>1519.9816</ele>
        <time>2011-06-12T11:48:17Z</time>
      </trkpt>
      <trkpt lat="45.62138" lon="6.05291">
        <ele>1515.175</ele>
        <time>2011-06-12T11:48:18Z</time>
      </trkpt>
      <trkpt lat="45.62139" lon="6.05288">
        <ele>1515.6557</ele>
        <time>2011-06-12T11:48:19Z</time>
      </trkpt>
      <trkpt lat="45.62136" lon="6.05283">
        <ele>1511.3298</ele>
        <time>2011-06-12T11:48:21Z</time>
      </trkpt>
      <trkpt lat="45.62132" lon="6.05277">
        <ele>1513.2524</ele>
        <time>2011-06-12T11:48:23Z</time>
      </trkpt>
      <trkpt lat="45.62128" lon="6.0527">
        <ele>1513.7329</ele>
        <time>2011-06-12T11:48:25Z</time>
      </trkpt>
      <trkpt lat="45.62124" lon="6.05267">
        <ele>1515.175</ele>
        <time>2011-06-12T11:48:27Z</time>
      </trkpt>
      <trkpt lat="45.6212" lon="6.05262">
        <ele>1514.2136</ele>
        <time>2011-06-12T11:48:29Z</time>
      </trkpt>
      <trkpt lat="45.62115" lon="6.0525">
        <ele>1512.291</ele>
        <time>2011-06-12T11:48:33Z</time>
      </trkpt>
      <trkpt lat="45.62112" lon="6.05238">
        <ele>1510.8491</ele>
        <time>2011-06-12T11:48:37Z</time>
      </trkpt>
      <trkpt lat="45.62112" lon="6.05237">
        <ele>1510.8491</ele>
        <time>2011-06-12T11:48:37Z</time>
      </trkpt>
      <trkpt lat="45.6211" lon="6.05235">
        <ele>1513.7329</ele>
        <time>2011-06-12T11:48:38Z</time>
      </trkpt>
      <trkpt lat="45.6211" lon="6.05236">
        <ele>1515.6557</ele>
        <time>2011-06-12T11:48:39Z</time>
      </trkpt>
      <trkpt lat="45.62112" lon="6.0524">
        <ele>1515.175</ele>
        <time>2011-06-12T11:48:40Z</time>
      </trkpt>
      <trkpt lat="45.62114" lon="6.05244">
        <ele>1514.6943</ele>
        <time>2011-06-12T11:48:41Z</time>
      </trkpt>
      <trkpt lat="45.62116" lon="6.05251">
        <ele>1515.175</ele>
        <time>2011-06-12T11:48:43Z</time>
      </trkpt>
      <trkpt lat="45.6212" lon="6.05258">
        <ele>1513.2524</ele>
        <time>2011-06-12T11:48:46Z</time>
      </trkpt>
      <trkpt lat="45.62123" lon="6.05263">
        <ele>1511.8105</ele>
        <time>2011-06-12T11:48:48Z</time>
      </trkpt>
      <trkpt lat="45.62124" lon="6.05262">
        <ele>1511.3298</ele>
        <time>2011-06-12T11:48:48Z</time>
      </trkpt>
      <trkpt lat="45.62125" lon="6.05264">
        <ele>1513.2524</ele>
        <time>2011-06-12T11:48:49Z</time>
      </trkpt>
      <trkpt lat="45.62126" lon="6.05265">
        <ele>1512.291</ele>
        <time>2011-06-12T11:48:49Z</time>
      </trkpt>
      <trkpt lat="45.62127" lon="6.05264">
        <ele>1513.2524</ele>
        <time>2011-06-12T11:48:50Z</time>
      </trkpt>
      <trkpt lat="45.62123" lon="6.05271">
        <ele>1517.0979</ele>
        <time>2011-06-12T11:48:52Z</time>
      </trkpt>
      <trkpt lat="45.62123" lon="6.05271">
        <ele>1517.0979</ele>
        <time>2011-06-12T11:48:52Z</time>
      </trkpt>
      <trkpt lat="45.62122" lon="6.0527">
        <ele>1516.6171</ele>
        <time>2011-06-12T11:48:53Z</time>
      </trkpt>
      <trkpt lat="45.62121" lon="6.05272">
        <ele>1514.6943</ele>
        <time>2011-06-12T11:48:53Z</time>
      </trkpt>
      <trkpt lat="45.62122" lon="6.05271">
        <ele>1513.7329</ele>
        <time>2011-06-12T11:48:54Z</time>
      </trkpt>
      <trkpt lat="45.62123" lon="6.05271">
        <ele>1513.2524</ele>
        <time>2011-06-12T11:48:54Z</time>
      </trkpt>
      <trkpt lat="45.62127" lon="6.05272">
        <ele>1521.9042</ele>
        <time>2011-06-12T11:48:56Z</time>
      </trkpt>
      <trkpt lat="45.62125" lon="6.05273">
        <ele>1520.4624</ele>
        <time>2011-06-12T11:48:57Z</time>
      </trkpt>
      <trkpt lat="45.6212" lon="6.05276">
        <ele>1520.4624</ele>
        <time>2011-06-12T11:48:59Z</time>
      </trkpt>
      <trkpt lat="45.6212" lon="6.05275">
        <ele>1518.5397</ele>
        <time>2011-06-12T11:48:59Z</time>
      </trkpt>
      <trkpt lat="45.62121" lon="6.05274">
        <ele>1525.7495</ele>
        <time>2011-06-12T11:49:00Z</time>
      </trkpt>
      <trkpt lat="45.62119" lon="6.05276">
        <ele>1526.2302</ele>
        <time>2011-06-12T11:49:00Z</time>
      </trkpt>
      <trkpt lat="45.62121" lon="6.05272">
        <ele>1524.7883</ele>
        <time>2011-06-12T11:49:02Z</time>
      </trkpt>
      <trkpt lat="45.6212" lon="6.05274">
        <ele>1522.385</ele>
        <time>2011-06-12T11:49:02Z</time>
      </trkpt>
      <trkpt lat="45.62121" lon="6.05276">
        <ele>1521.4235</ele>
        <time>2011-06-12T11:49:03Z</time>
      </trkpt>
      <trkpt lat="45.62121" lon="6.05276">
        <ele>1521.9042</ele>
        <time>2011-06-12T11:49:03Z</time>
      </trkpt>
      <trkpt lat="45.62125" lon="6.05267">
        <ele>1519.9816</ele>
        <time>2011-06-12T11:49:06Z</time>
      </trkpt>
      <trkpt lat="45.62123" lon="6.0527">
        <ele>1517.0979</ele>
        <time>2011-06-12T11:49:07Z</time>
      </trkpt>
      <trkpt lat="45.62125" lon="6.05269">
        <ele>1519.5012</ele>
        <time>2011-06-12T11:49:08Z</time>
      </trkpt>
      <trkpt lat="45.62125" lon="6.05269">
        <ele>1519.0205</ele>
        <time>2011-06-12T11:49:08Z</time>
      </trkpt>
      <trkpt lat="45.62125" lon="6.0527">
        <ele>1520.9431</ele>
        <time>2011-06-12T11:49:08Z</time>
      </trkpt>
      <trkpt lat="45.62126" lon="6.05269">
        <ele>1519.9816</ele>
        <time>2011-06-12T11:49:09Z</time>
      </trkpt>
      <trkpt lat="45.62126" lon="6.05269">
        <ele>1519.5012</ele>
        <time>2011-06-12T11:49:09Z</time>
      </trkpt>
      <trkpt lat="45.62126" lon="6.05269">
        <ele>1518.5397</ele>
        <time>2011-06-12T11:49:09Z</time>
      </trkpt>
      <trkpt lat="45.62124" lon="6.0527">
        <ele>1514.6943</ele>
        <time>2011-06-12T11:49:10Z</time>
      </trkpt>
      <trkpt lat="45.62123" lon="6.05271">
        <ele>1515.175</ele>
        <time>2011-06-12T11:49:10Z</time>
      </trkpt>
      <trkpt lat="45.62123" lon="6.05271">
        <ele>1516.1364</ele>
        <time>2011-06-12T11:49:11Z</time>
      </trkpt>
      <trkpt lat="45.62124" lon="6.05271">
        <ele>1517.0979</ele>
        <time>2011-06-12T11:49:11Z</time>
      </trkpt>
      <trkpt lat="45.62124" lon="6.0527">
        <ele>1516.6171</ele>
        <time>2011-06-12T11:49:11Z</time>
      </trkpt>
      <trkpt lat="45.62123" lon="6.0527">
        <ele>1514.6943</ele>
        <time>2011-06-12T11:49:11Z</time>
      </trkpt>
      <trkpt lat="45.62122" lon="6.05272">
        <ele>1509.4072</ele>
        <time>2011-06-12T11:49:12Z</time>
      </trkpt>
      <trkpt lat="45.62122" lon="6.05271">
        <ele>1512.291</ele>
        <time>2011-06-12T11:49:12Z</time>
      </trkpt>
      <trkpt lat="45.62121" lon="6.05274">
        <ele>1513.2524</ele>
        <time>2011-06-12T11:49:13Z</time>
      </trkpt>
      <trkpt lat="45.62119" lon="6.05274">
        <ele>1512.7717</ele>
        <time>2011-06-12T11:49:13Z</time>
      </trkpt>
      <trkpt lat="45.62119" lon="6.05274">
        <ele>1516.1364</ele>
        <time>2011-06-12T11:49:14Z</time>
      </trkpt>
      <trkpt lat="45.62118" lon="6.05277">
        <ele>1517.0979</ele>
        <time>2011-06-12T11:49:14Z</time>
      </trkpt>
      <trkpt lat="45.62121" lon="6.05277">
        <ele>1520.9431</ele>
        <time>2011-06-12T11:49:16Z</time>
      </trkpt>
      <trkpt lat="45.62125" lon="6.05273">
        <ele>1522.8657</ele>
        <time>2011-06-12T11:49:17Z</time>
      </trkpt>
      <trkpt lat="45.62124" lon="6.05271">
        <ele>1520.9431</ele>
        <time>2011-06-12T11:49:18Z</time>
      </trkpt>
      <trkpt lat="45.62124" lon="6.05269">
        <ele>1521.4235</ele>
        <time>2011-06-12T11:49:19Z</time>
      </trkpt>
      <trkpt lat="45.62126" lon="6.05268">
        <ele>1519.5012</ele>
        <time>2011-06-12T11:49:20Z</time>
      </trkpt>
      <trkpt lat="45.62127" lon="6.0527">
        <ele>1517.0979</ele>
        <time>2011-06-12T11:49:20Z</time>
      </trkpt>
      <trkpt lat="45.62127" lon="6.05271">
        <ele>1516.1364</ele>
        <time>2011-06-12T11:49:21Z</time>
      </trkpt>
      <trkpt lat="45.62124" lon="6.05275">
        <ele>1515.175</ele>
        <time>2011-06-12T11:49:22Z</time>
      </trkpt>
      <trkpt lat="45.62119" lon="6.0528">
        <ele>1519.0205</ele>
        <time>2011-06-12T11:49:25Z</time>
      </trkpt>
      <trkpt lat="45.62119" lon="6.0528">
        <ele>1519.0205</ele>
        <time>2011-06-12T11:49:25Z</time>
      </trkpt>
      <trkpt lat="45.62122" lon="6.0529">
        <ele>1531.5173</ele>
        <time>2011-06-12T11:49:28Z</time>
      </trkpt>
      <trkpt lat="45.62118" lon="6.05295">
        <ele>1526.2302</ele>
        <time>2011-06-12T11:49:30Z</time>
      </trkpt>
      <trkpt lat="45.62115" lon="6.05297">
        <ele>1519.5012</ele>
        <time>2011-06-12T11:49:31Z</time>
      </trkpt>
      <trkpt lat="45.62112" lon="6.05294">
        <ele>1528.1528</ele>
        <time>2011-06-12T11:49:33Z</time>
      </trkpt>
      <trkpt lat="45.62111" lon="6.05293">
        <ele>1531.998</ele>
        <time>2011-06-12T11:49:33Z</time>
      </trkpt>
      <trkpt lat="45.62117" lon="6.05287">
        <ele>1531.998</ele>
        <time>2011-06-12T11:49:36Z</time>
      </trkpt>
      <trkpt lat="45.62119" lon="6.05283">
        <ele>1525.7495</ele>
        <time>2011-06-12T11:49:38Z</time>
      </trkpt>
      <trkpt lat="45.62117" lon="6.05286">
        <ele>1523.8269</ele>
        <time>2011-06-12T11:49:39Z</time>
      </trkpt>
      <trkpt lat="45.62128" lon="6.05285">
        <ele>1515.6557</ele>
        <time>2011-06-12T11:49:43Z</time>
      </trkpt>
      <trkpt lat="45.62126" lon="6.05291">
        <ele>1519.5012</ele>
        <time>2011-06-12T11:49:44Z</time>
      </trkpt>
      <trkpt lat="45.62123" lon="6.05288">
        <ele>1521.9042</ele>
        <time>2011-06-12T11:49:46Z</time>
      </trkpt>
      <trkpt lat="45.62118" lon="6.05288">
        <ele>1516.1364</ele>
        <time>2011-06-12T11:49:48Z</time>
      </trkpt>
      <trkpt lat="45.62122" lon="6.05283">
        <ele>1511.8105</ele>
        <time>2011-06-12T11:49:50Z</time>
      </trkpt>
      <trkpt lat="45.62125" lon="6.05279">
        <ele>1513.7329</ele>
        <time>2011-06-12T11:49:52Z</time>
      </trkpt>
      <trkpt lat="45.62123" lon="6.05277">
        <ele>1509.8876</ele>
        <time>2011-06-12T11:49:53Z</time>
      </trkpt>
      <trkpt lat="45.62123" lon="6.05276">
        <ele>1514.2136</ele>
        <time>2011-06-12T11:49:53Z</time>
      </trkpt>
      <trkpt lat="45.62123" lon="6.05274">
        <ele>1516.6171</ele>
        <time>2011-06-12T11:49:54Z</time>
      </trkpt>
      <trkpt lat="45.62121" lon="6.05272">
        <ele>1519.0205</ele>
        <time>2011-06-12T11:49:55Z</time>
      </trkpt>
      <trkpt lat="45.62123" lon="6.05272">
        <ele>1516.6171</ele>
        <time>2011-06-12T11:49:55Z</time>
      </trkpt>
      <trkpt lat="45.62123" lon="6.05266">
        <ele>1521.9042</ele>
        <time>2011-06-12T11:49:57Z</time>
      </trkpt>
      <trkpt lat="45.62125" lon="6.05264">
        <ele>1522.385</ele>
        <time>2011-06-12T11:49:58Z</time>
      </trkpt>
      <trkpt lat="45.62123" lon="6.05267">
        <ele>1520.4624</ele>
        <time>2011-06-12T11:49:59Z</time>
      </trkpt>
      <trkpt lat="45.62124" lon="6.05271">
        <ele>1520.4624</ele>
        <time>2011-06-12T11:50:00Z</time>
      </trkpt>
      <trkpt lat="45.62125" lon="6.05278">
        <ele>1516.1364</ele>
        <time>2011-06-12T11:50:02Z</time>
      </trkpt>
      <trkpt lat="45.62131" lon="6.05279">
        <ele>1526.2302</ele>
        <time>2011-06-12T11:50:04Z</time>
      </trkpt>
      <trkpt lat="45.62131" lon="6.05278">
        <ele>1526.7109</ele>
        <time>2011-06-12T11:50:05Z</time>
      </trkpt>
      <trkpt lat="45.62131" lon="6.05278">
        <ele>1526.7109</ele>
        <time>2011-06-12T11:50:05Z</time>
      </trkpt>
      <trkpt lat="45.62131" lon="6.05277">
        <ele>1527.1916</ele>
        <time>2011-06-12T11:50:05Z</time>
      </trkpt>
      <trkpt lat="45.62131" lon="6.05273">
        <ele>1527.6721</ele>
        <time>2011-06-12T11:50:06Z</time>
      </trkpt>
      <trkpt lat="45.62129" lon="6.05271">
        <ele>1524.3076</ele>
        <time>2011-06-12T11:50:07Z</time>
      </trkpt>
      <trkpt lat="45.62125" lon="6.05276">
        <ele>1522.385</ele>
        <time>2011-06-12T11:50:09Z</time>
      </trkpt>
      <trkpt lat="45.62124" lon="6.05277">
        <ele>1518.5397</ele>
        <time>2011-06-12T11:50:10Z</time>
      </trkpt>
      <trkpt lat="45.62131" lon="6.05274">
        <ele>1525.2687</ele>
        <time>2011-06-12T11:50:13Z</time>
      </trkpt>
      <trkpt lat="45.62135" lon="6.05274">
        <ele>1526.7109</ele>
        <time>2011-06-12T11:50:14Z</time>
      </trkpt>
      <trkpt lat="45.62127" lon="6.05278">
        <ele>1524.7883</ele>
        <time>2011-06-12T11:50:17Z</time>
      </trkpt>
      <trkpt lat="45.62127" lon="6.0528">
        <ele>1523.8269</ele>
        <time>2011-06-12T11:50:18Z</time>
      </trkpt>
      <trkpt lat="45.62128" lon="6.05279">
        <ele>1517.0979</ele>
        <time>2011-06-12T11:50:19Z</time>
      </trkpt>
      <trkpt lat="45.62129" lon="6.05277">
        <ele>1518.5397</ele>
        <time>2011-06-12T11:50:19Z</time>
      </trkpt>
      <trkpt lat="45.6213" lon="6.05275">
        <ele>1515.6557</ele>
        <time>2011-06-12T11:50:20Z</time>
      </trkpt>
      <trkpt lat="45.62128" lon="6.05271">
        <ele>1513.7329</ele>
        <time>2011-06-12T11:50:21Z</time>
      </trkpt>
      <trkpt lat="45.62127" lon="6.0527">
        <ele>1513.7329</ele>
        <time>2011-06-12T11:50:22Z</time>
      </trkpt>
      <trkpt lat="45.62122" lon="6.05274">
        <ele>1508.9265</ele>
        <time>2011-06-12T11:50:24Z</time>
      </trkpt>
      <trkpt lat="45.62121" lon="6.05271">
        <ele>1517.0979</ele>
        <time>2011-06-12T11:50:25Z</time>
      </trkpt>
      <trkpt lat="45.62124" lon="6.05273">
        <ele>1518.059</ele>
        <time>2011-06-12T11:50:26Z</time>
      </trkpt>
      <trkpt lat="45.62124" lon="6.05272">
        <ele>1512.7717</ele>
        <time>2011-06-12T11:50:27Z</time>
      </trkpt>
      <trkpt lat="45.62122" lon="6.05274">
        <ele>1510.3684</ele>
        <time>2011-06-12T11:50:28Z</time>
      </trkpt>
      <trkpt lat="45.62119" lon="6.05275">
        <ele>1513.7329</ele>
        <time>2011-06-12T11:50:29Z</time>
      </trkpt>
      <trkpt lat="45.62119" lon="6.05271">
        <ele>1518.5397</ele>
        <time>2011-06-12T11:50:30Z</time>
      </trkpt>
      <trkpt lat="45.62121" lon="6.05273">
        <ele>1518.5397</ele>
        <time>2011-06-12T11:50:31Z</time>
      </trkpt>
      <trkpt lat="45.62123" lon="6.05272">
        <ele>1522.8657</ele>
        <time>2011-06-12T11:50:32Z</time>
      </trkpt>
      <trkpt lat="45.62128" lon="6.05267">
        <ele>1521.4235</ele>
        <time>2011-06-12T11:50:34Z</time>
      </trkpt>
      <trkpt lat="45.62129" lon="6.05264">
        <ele>1520.9431</ele>
        <time>2011-06-12T11:50:35Z</time>
      </trkpt>
      <trkpt lat="45.62128" lon="6.05266">
        <ele>1519.5012</ele>
        <time>2011-06-12T11:50:36Z</time>
      </trkpt>
      <trkpt lat="45.62124" lon="6.05272">
        <ele>1518.059</ele>
        <time>2011-06-12T11:50:38Z</time>
      </trkpt>
      <trkpt lat="45.62121" lon="6.05276">
        <ele>1519.0205</ele>
        <time>2011-06-12T11:50:40Z</time>
      </trkpt>
      <trkpt lat="45.62118" lon="6.05275">
        <ele>1517.5783</ele>
        <time>2011-06-12T11:50:41Z</time>
      </trkpt>
      <trkpt lat="45.6212" lon="6.05272">
        <ele>1519.9816</ele>
        <time>2011-06-12T11:50:42Z</time>
      </trkpt>
      <trkpt lat="45.6212" lon="6.05276">
        <ele>1512.291</ele>
        <time>2011-06-12T11:50:43Z</time>
      </trkpt>
      <trkpt lat="45.62118" lon="6.05275">
        <ele>1515.6557</ele>
        <time>2011-06-12T11:50:44Z</time>
      </trkpt>
      <trkpt lat="45.62121" lon="6.05273">
        <ele>1516.6171</ele>
        <time>2011-06-12T11:50:45Z</time>
      </trkpt>
      <trkpt lat="45.62118" lon="6.05275">
        <ele>1525.2687</ele>
        <time>2011-06-12T11:50:46Z</time>
      </trkpt>
      <trkpt lat="45.62119" lon="6.05275">
        <ele>1515.6557</ele>
        <time>2011-06-12T11:50:47Z</time>
      </trkpt>
      <trkpt lat="45.62118" lon="6.05278">
        <ele>1515.6557</ele>
        <time>2011-06-12T11:50:48Z</time>
      </trkpt>
      <trkpt lat="45.62119" lon="6.05274">
        <ele>1524.3076</ele>
        <time>2011-06-12T11:50:49Z</time>
      </trkpt>
      <trkpt lat="45.6212" lon="6.05274">
        <ele>1525.7495</ele>
        <time>2011-06-12T11:50:50Z</time>
      </trkpt>
      <trkpt lat="45.62116" lon="6.05274">
        <ele>1530.5561</ele>
        <time>2011-06-12T11:50:52Z</time>
      </trkpt>
      <trkpt lat="45.62116" lon="6.05269">
        <ele>1530.5561</ele>
        <time>2011-06-12T11:50:53Z</time>
      </trkpt>
      <trkpt lat="45.62117" lon="6.05269">
        <ele>1527.6721</ele>
        <time>2011-06-12T11:50:53Z</time>
      </trkpt>
      <trkpt lat="45.62115" lon="6.05273">
        <ele>1519.9816</ele>
        <time>2011-06-12T11:50:55Z</time>
      </trkpt>
      <trkpt lat="45.62114" lon="6.05276">
        <ele>1516.6171</ele>
        <time>2011-06-12T11:50:56Z</time>
      </trkpt>
      <trkpt lat="45.62118" lon="6.05272">
        <ele>1518.059</ele>
        <time>2011-06-12T11:50:58Z</time>
      </trkpt>
      <trkpt lat="45.62121" lon="6.05272">
        <ele>1517.5783</ele>
        <time>2011-06-12T11:50:59Z</time>
      </trkpt>
      <trkpt lat="45.62121" lon="6.05273">
        <ele>1516.1364</ele>
        <time>2011-06-12T11:50:59Z</time>
      </trkpt>
      <trkpt lat="45.62122" lon="6.05274">
        <ele>1516.6171</ele>
        <time>2011-06-12T11:50:59Z</time>
      </trkpt>
      <trkpt lat="45.62121" lon="6.05275">
        <ele>1515.6557</ele>
        <time>2011-06-12T11:51:00Z</time>
      </trkpt>
      <trkpt lat="45.62117" lon="6.05272">
        <ele>1523.8269</ele>
        <time>2011-06-12T11:51:02Z</time>
      </trkpt>
      <trkpt lat="45.6212" lon="6.05271">
        <ele>1522.8657</ele>
        <time>2011-06-12T11:51:03Z</time>
      </trkpt>
      <trkpt lat="45.62125" lon="6.05269">
        <ele>1521.9042</ele>
        <time>2011-06-12T11:51:05Z</time>
      </trkpt>
      <trkpt lat="45.62125" lon="6.05273">
        <ele>1529.5947</ele>
        <time>2011-06-12T11:51:06Z</time>
      </trkpt>
      <trkpt lat="45.62124" lon="6.05272">
        <ele>1529.114</ele>
        <time>2011-06-12T11:51:06Z</time>
      </trkpt>
      <trkpt lat="45.62127" lon="6.0527">
        <ele>1528.1528</ele>
        <time>2011-06-12T11:51:08Z</time>
      </trkpt>
      <trkpt lat="45.62126" lon="6.05271">
        <ele>1527.1916</ele>
        <time>2011-06-12T11:51:08Z</time>
      </trkpt>
      <trkpt lat="45.62128" lon="6.05271">
        <ele>1527.6721</ele>
        <time>2011-06-12T11:51:09Z</time>
      </trkpt>
      <trkpt lat="45.6213" lon="6.05271">
        <ele>1527.1916</ele>
        <time>2011-06-12T11:51:10Z</time>
      </trkpt>
      <trkpt lat="45.6213" lon="6.05269">
        <ele>1527.6721</ele>
        <time>2011-06-12T11:51:10Z</time>
      </trkpt>
      <trkpt lat="45.62128" lon="6.05269">
        <ele>1528.1528</ele>
        <time>2011-06-12T11:51:11Z</time>
      </trkpt>
      <trkpt lat="45.62129" lon="6.05267">
        <ele>1527.6721</ele>
        <time>2011-06-12T11:51:11Z</time>
      </trkpt>
      <trkpt lat="45.62127" lon="6.05269">
        <ele>1524.7883</ele>
        <time>2011-06-12T11:51:13Z</time>
      </trkpt>
      <trkpt lat="45.62127" lon="6.05272">
        <ele>1522.8657</ele>
        <time>2011-06-12T11:51:14Z</time>
      </trkpt>
      <trkpt lat="45.62126" lon="6.05273">
        <ele>1520.4624</ele>
        <time>2011-06-12T11:51:14Z</time>
      </trkpt>
      <trkpt lat="45.62124" lon="6.05272">
        <ele>1518.059</ele>
        <time>2011-06-12T11:51:15Z</time>
      </trkpt>
      <trkpt lat="45.62124" lon="6.0527">
        <ele>1521.4235</ele>
        <time>2011-06-12T11:51:16Z</time>
      </trkpt>
      <trkpt lat="45.62122" lon="6.05266">
        <ele>1510.8491</ele>
        <time>2011-06-12T11:51:17Z</time>
      </trkpt>
      <trkpt lat="45.62122" lon="6.05267">
        <ele>1511.8105</ele>
        <time>2011-06-12T11:51:17Z</time>
      </trkpt>
      <trkpt lat="45.62122" lon="6.05265">
        <ele>1515.175</ele>
        <time>2011-06-12T11:51:18Z</time>
      </trkpt>
      <trkpt lat="45.62121" lon="6.05265">
        <ele>1518.059</ele>
        <time>2011-06-12T11:51:18Z</time>
      </trkpt>
      <trkpt lat="45.62122" lon="6.05264">
        <ele>1520.4624</ele>
        <time>2011-06-12T11:51:18Z</time>
      </trkpt>
      <trkpt lat="45.62123" lon="6.05264">
        <ele>1522.385</ele>
        <time>2011-06-12T11:51:19Z</time>
      </trkpt>
      <trkpt lat="45.62123" lon="6.05267">
        <ele>1521.4235</ele>
        <time>2011-06-12T11:51:20Z</time>
      </trkpt>
      <trkpt lat="45.62122" lon="6.05268">
        <ele>1520.9431</ele>
        <time>2011-06-12T11:51:20Z</time>
      </trkpt>
      <trkpt lat="45.62121" lon="6.05269">
        <ele>1520.4624</ele>
        <time>2011-06-12T11:51:21Z</time>
      </trkpt>
      <trkpt lat="45.6212" lon="6.05273">
        <ele>1519.0205</ele>
        <time>2011-06-12T11:51:22Z</time>
      </trkpt>
      <trkpt lat="45.62119" lon="6.05271">
        <ele>1518.5397</ele>
        <time>2011-06-12T11:51:22Z</time>
      </trkpt>
      <trkpt lat="45.62117" lon="6.05271">
        <ele>1519.5012</ele>
        <time>2011-06-12T11:51:23Z</time>
      </trkpt>
      <trkpt lat="45.62115" lon="6.05269">
        <ele>1522.8657</ele>
        <time>2011-06-12T11:51:24Z</time>
      </trkpt>
      <trkpt lat="45.62116" lon="6.05268">
        <ele>1524.7883</ele>
        <time>2011-06-12T11:51:25Z</time>
      </trkpt>
      <trkpt lat="45.62122" lon="6.05267">
        <ele>1526.7109</ele>
        <time>2011-06-12T11:51:27Z</time>
      </trkpt>
      <trkpt lat="45.62123" lon="6.05265">
        <ele>1525.2687</ele>
        <time>2011-06-12T11:51:28Z</time>
      </trkpt>
      <trkpt lat="45.62125" lon="6.05263">
        <ele>1524.7883</ele>
        <time>2011-06-12T11:51:29Z</time>
      </trkpt>
      <trkpt lat="45.62125" lon="6.05264">
        <ele>1522.8657</ele>
        <time>2011-06-12T11:51:29Z</time>
      </trkpt>
      <trkpt lat="45.62124" lon="6.05263">
        <ele>1523.3464</ele>
        <time>2011-06-12T11:51:30Z</time>
      </trkpt>
      <trkpt lat="45.62123" lon="6.05266">
        <ele>1522.8657</ele>
        <time>2011-06-12T11:51:31Z</time>
      </trkpt>
      <trkpt lat="45.62122" lon="6.05267">
        <ele>1522.8657</ele>
        <time>2011-06-12T11:51:31Z</time>
      </trkpt>
      <trkpt lat="45.6212" lon="6.05269">
        <ele>1526.2302</ele>
        <time>2011-06-12T11:51:32Z</time>
      </trkpt>
      <trkpt lat="45.62116" lon="6.05272">
        <ele>1524.3076</ele>
        <time>2011-06-12T11:51:34Z</time>
      </trkpt>
      <trkpt lat="45.62118" lon="6.05274">
        <ele>1531.5173</ele>
        <time>2011-06-12T11:51:35Z</time>
      </trkpt>
      <trkpt lat="45.62119" lon="6.05278">
        <ele>1533.4401</ele>
        <time>2011-06-12T11:51:36Z</time>
      </trkpt>
      <trkpt lat="45.62119" lon="6.0528">
        <ele>1532.9594</ele>
        <time>2011-06-12T11:51:36Z</time>
      </trkpt>
      <trkpt lat="45.62119" lon="6.05281">
        <ele>1532.9594</ele>
        <time>2011-06-12T11:51:37Z</time>
      </trkpt>
      <trkpt lat="45.62119" lon="6.05281">
        <ele>1532.9594</ele>
        <time>2011-06-12T11:51:37Z</time>
      </trkpt>
      <trkpt lat="45.62118" lon="6.0528">
        <ele>1531.5173</ele>
        <time>2011-06-12T11:51:37Z</time>
      </trkpt>
      <trkpt lat="45.62119" lon="6.05279">
        <ele>1531.998</ele>
        <time>2011-06-12T11:51:37Z</time>
      </trkpt>
      <trkpt lat="45.62122" lon="6.05276">
        <ele>1531.5173</ele>
        <time>2011-06-12T11:51:39Z</time>
      </trkpt>
      <trkpt lat="45.62122" lon="6.05275">
        <ele>1531.0368</ele>
        <time>2011-06-12T11:51:39Z</time>
      </trkpt>
      <trkpt lat="45.6212" lon="6.05275">
        <ele>1529.114</ele>
        <time>2011-06-12T11:51:40Z</time>
      </trkpt>
      <trkpt lat="45.62119" lon="6.05275">
        <ele>1528.1528</ele>
        <time>2011-06-12T11:51:40Z</time>
      </trkpt>
      <trkpt lat="45.6212" lon="6.05276">
        <ele>1527.6721</ele>
        <time>2011-06-12T11:51:41Z</time>
      </trkpt>
      <trkpt lat="45.62119" lon="6.05277">
        <ele>1526.7109</ele>
        <time>2011-06-12T11:51:41Z</time>
      </trkpt>
      <trkpt lat="45.62119" lon="6.05278">
        <ele>1526.2302</ele>
        <time>2011-06-12T11:51:41Z</time>
      </trkpt>
      <trkpt lat="45.62122" lon="6.05272">
        <ele>1526.2302</ele>
        <time>2011-06-12T11:51:43Z</time>
      </trkpt>
      <trkpt lat="45.62125" lon="6.05265">
        <ele>1531.5173</ele>
        <time>2011-06-12T11:51:45Z</time>
      </trkpt>
      <trkpt lat="45.62124" lon="6.05263">
        <ele>1533.9208</ele>
        <time>2011-06-12T11:51:46Z</time>
      </trkpt>
      <trkpt lat="45.62125" lon="6.05263">
        <ele>1534.8823</ele>
        <time>2011-06-12T11:51:46Z</time>
      </trkpt>
      <trkpt lat="45.6213" lon="6.05258">
        <ele>1545.4565</ele>
        <time>2011-06-12T11:51:49Z</time>
      </trkpt>
      <trkpt lat="45.62132" lon="6.05263">
        <ele>1544.9758</ele>
        <time>2011-06-12T11:51:50Z</time>
      </trkpt>
      <trkpt lat="45.62131" lon="6.05263">
        <ele>1544.9758</ele>
        <time>2011-06-12T11:51:50Z</time>
      </trkpt>
      <trkpt lat="45.62127" lon="6.05261">
        <ele>1541.1306</ele>
        <time>2011-06-12T11:51:52Z</time>
      </trkpt>
      <trkpt lat="45.62123" lon="6.05264">
        <ele>1536.8046</ele>
        <time>2011-06-12T11:51:54Z</time>
      </trkpt>
      <trkpt lat="45.62123" lon="6.05265">
        <ele>1531.998</ele>
        <time>2011-06-12T11:51:54Z</time>
      </trkpt>
      <trkpt lat="45.62123" lon="6.05263">
        <ele>1531.5173</ele>
        <time>2011-06-12T11:51:55Z</time>
      </trkpt>
      <trkpt lat="45.6213" lon="6.05261">
        <ele>1525.2687</ele>
        <time>2011-06-12T11:51:58Z</time>
      </trkpt>
      <trkpt lat="45.62132" lon="6.05264">
        <ele>1522.8657</ele>
        <time>2011-06-12T11:51:59Z</time>
      </trkpt>
      <trkpt lat="45.62129" lon="6.05267">
        <ele>1518.5397</ele>
        <time>2011-06-12T11:52:01Z</time>
      </trkpt>
      <trkpt lat="45.6213" lon="6.05269">
        <ele>1521.4235</ele>
        <time>2011-06-12T11:52:01Z</time>
      </trkpt>
      <trkpt lat="45.62128" lon="6.0527">
        <ele>1523.3464</ele>
        <time>2011-06-12T11:52:02Z</time>
      </trkpt>
      <trkpt lat="45.62126" lon="6.05269">
        <ele>1526.7109</ele>
        <time>2011-06-12T11:52:03Z</time>
      </trkpt>
      <trkpt lat="45.62127" lon="6.05264">
        <ele>1528.1528</ele>
        <time>2011-06-12T11:52:04Z</time>
      </trkpt>
      <trkpt lat="45.62128" lon="6.0526">
        <ele>1528.6335</ele>
        <time>2011-06-12T11:52:05Z</time>
      </trkpt>
      <trkpt lat="45.62125" lon="6.05264">
        <ele>1526.2302</ele>
        <time>2011-06-12T11:52:07Z</time>
      </trkpt>
      <trkpt lat="45.62125" lon="6.05273">
        <ele>1517.0979</ele>
        <time>2011-06-12T11:52:09Z</time>
      </trkpt>
      <trkpt lat="45.62123" lon="6.05274">
        <ele>1513.7329</ele>
        <time>2011-06-12T11:52:10Z</time>
      </trkpt>
      <trkpt lat="45.62119" lon="6.05271">
        <ele>1516.6171</ele>
        <time>2011-06-12T11:52:12Z</time>
      </trkpt>
      <trkpt lat="45.62112" lon="6.05267">
        <ele>1522.8657</ele>
        <time>2011-06-12T11:52:15Z</time>
      </trkpt>
      <trkpt lat="45.62112" lon="6.05268">
        <ele>1522.8657</ele>
        <time>2011-06-12T11:52:16Z</time>
      </trkpt>
      <trkpt lat="45.62118" lon="6.05271">
        <ele>1520.4624</ele>
        <time>2011-06-12T11:52:18Z</time>
      </trkpt>
      <trkpt lat="45.62122" lon="6.05275">
        <ele>1520.9431</ele>
        <time>2011-06-12T11:52:20Z</time>
      </trkpt>
      <trkpt lat="45.62121" lon="6.05275">
        <ele>1529.114</ele>
        <time>2011-06-12T11:52:20Z</time>
      </trkpt>
      <trkpt lat="45.62121" lon="6.05275">
        <ele>1529.5947</ele>
        <time>2011-06-12T11:52:21Z</time>
      </trkpt>
      <trkpt lat="45.62121" lon="6.05275">
        <ele>1529.5947</ele>
        <time>2011-06-12T11:52:21Z</time>
      </trkpt>
      <trkpt lat="45.62123" lon="6.05271">
        <ele>1524.7883</ele>
        <time>2011-06-12T11:52:22Z</time>
      </trkpt>
      <trkpt lat="45.62127" lon="6.05264">
        <ele>1525.7495</ele>
        <time>2011-06-12T11:52:25Z</time>
      </trkpt>
      <trkpt lat="45.62126" lon="6.05265">
        <ele>1530.0754</ele>
        <time>2011-06-12T11:52:25Z</time>
      </trkpt>
      <trkpt lat="45.62126" lon="6.05264">
        <ele>1531.5173</ele>
        <time>2011-06-12T11:52:25Z</time>
      </trkpt>
      <trkpt lat="45.62125" lon="6.05269">
        <ele>1528.6335</ele>
        <time>2011-06-12T11:52:26Z</time>
      </trkpt>
      <trkpt lat="45.62119" lon="6.05262">
        <ele>1529.114</ele>
        <time>2011-06-12T11:52:29Z</time>
      </trkpt>
      <trkpt lat="45.62119" lon="6.05262">
        <ele>1529.114</ele>
        <time>2011-06-12T11:52:30Z</time>
      </trkpt>
      <trkpt lat="45.62113" lon="6.05264">
        <ele>1534.4016</ele>
        <time>2011-06-12T11:52:32Z</time>
      </trkpt>
      <trkpt lat="45.62118" lon="6.05267">
        <ele>1530.0754</ele>
        <time>2011-06-12T11:52:34Z</time>
      </trkpt>
      <trkpt lat="45.62119" lon="6.05269">
        <ele>1524.3076</ele>
        <time>2011-06-12T11:52:35Z</time>
      </trkpt>
      <trkpt lat="45.62121" lon="6.05272">
        <ele>1523.3464</ele>
        <time>2011-06-12T11:52:36Z</time>
      </trkpt>
      <trkpt lat="45.62122" lon="6.05274">
        <ele>1519.5012</ele>
        <time>2011-06-12T11:52:37Z</time>
      </trkpt>
      <trkpt lat="45.62126" lon="6.0527">
        <ele>1528.1528</ele>
        <time>2011-06-12T11:52:39Z</time>
      </trkpt>
      <trkpt lat="45.62126" lon="6.05271">
        <ele>1533.9208</ele>
        <time>2011-06-12T11:52:39Z</time>
      </trkpt>
      <trkpt lat="45.62124" lon="6.05272">
        <ele>1533.9208</ele>
        <time>2011-06-12T11:52:40Z</time>
      </trkpt>
      <trkpt lat="45.62125" lon="6.05273">
        <ele>1529.5947</ele>
        <time>2011-06-12T11:52:40Z</time>
      </trkpt>
      <trkpt lat="45.62124" lon="6.05273">
        <ele>1529.5947</ele>
        <time>2011-06-12T11:52:40Z</time>
      </trkpt>
      <trkpt lat="45.6213" lon="6.05272">
        <ele>1521.9042</ele>
        <time>2011-06-12T11:52:42Z</time>
      </trkpt>
      <trkpt lat="45.62127" lon="6.0527">
        <ele>1525.2687</ele>
        <time>2011-06-12T11:52:44Z</time>
      </trkpt>
      <trkpt lat="45.62126" lon="6.05269">
        <ele>1524.7883</ele>
        <time>2011-06-12T11:52:44Z</time>
      </trkpt>
      <trkpt lat="45.62122" lon="6.05272">
        <ele>1523.3464</ele>
        <time>2011-06-12T11:52:46Z</time>
      </trkpt>
      <trkpt lat="45.62126" lon="6.0527">
        <ele>1522.385</ele>
        <time>2011-06-12T11:52:48Z</time>
      </trkpt>
      <trkpt lat="45.62127" lon="6.05268">
        <ele>1523.3464</ele>
        <time>2011-06-12T11:52:48Z</time>
      </trkpt>
      <trkpt lat="45.62132" lon="6.05272">
        <ele>1522.385</ele>
        <time>2011-06-12T11:52:50Z</time>
      </trkpt>
      <trkpt lat="45.62132" lon="6.05272">
        <ele>1521.9042</ele>
        <time>2011-06-12T11:52:50Z</time>
      </trkpt>
      <trkpt lat="45.62128" lon="6.05272">
        <ele>1516.6171</ele>
        <time>2011-06-12T11:52:52Z</time>
      </trkpt>
      <trkpt lat="45.62128" lon="6.05271">
        <ele>1518.5397</ele>
        <time>2011-06-12T11:52:52Z</time>
      </trkpt>
      <trkpt lat="45.62125" lon="6.05273">
        <ele>1519.9816</ele>
        <time>2011-06-12T11:52:54Z</time>
      </trkpt>
      <trkpt lat="45.62125" lon="6.0527">
        <ele>1522.385</ele>
        <time>2011-06-12T11:52:54Z</time>
      </trkpt>
      <trkpt lat="45.62128" lon="6.05268">
        <ele>1527.6721</ele>
        <time>2011-06-12T11:52:56Z</time>
      </trkpt>
      <trkpt lat="45.62128" lon="6.0527">
        <ele>1526.2302</ele>
        <time>2011-06-12T11:52:56Z</time>
      </trkpt>
      <trkpt lat="45.62127" lon="6.0527">
        <ele>1524.7883</ele>
        <time>2011-06-12T11:52:56Z</time>
      </trkpt>
      <trkpt lat="45.6213" lon="6.05264">
        <ele>1515.6557</ele>
        <time>2011-06-12T11:52:58Z</time>
      </trkpt>
      <trkpt lat="45.6213" lon="6.05267">
        <ele>1518.059</ele>
        <time>2011-06-12T11:52:59Z</time>
      </trkpt>
      <trkpt lat="45.62129" lon="6.05269">
        <ele>1517.5783</ele>
        <time>2011-06-12T11:53:00Z</time>
      </trkpt>
      <trkpt lat="45.62128" lon="6.0527">
        <ele>1517.0979</ele>
        <time>2011-06-12T11:53:00Z</time>
      </trkpt>
      <trkpt lat="45.62128" lon="6.0527">
        <ele>1520.9431</ele>
        <time>2011-06-12T11:53:00Z</time>
      </trkpt>
      <trkpt lat="45.62127" lon="6.05272">
        <ele>1518.059</ele>
        <time>2011-06-12T11:53:01Z</time>
      </trkpt>
      <trkpt lat="45.62127" lon="6.05274">
        <ele>1514.2136</ele>
        <time>2011-06-12T11:53:02Z</time>
      </trkpt>
      <trkpt lat="45.62126" lon="6.05275">
        <ele>1514.6943</ele>
        <time>2011-06-12T11:53:02Z</time>
      </trkpt>
      <trkpt lat="45.62125" lon="6.05275">
        <ele>1514.2136</ele>
        <time>2011-06-12T11:53:02Z</time>
      </trkpt>
      <trkpt lat="45.62122" lon="6.05277">
        <ele>1514.6943</ele>
        <time>2011-06-12T11:53:04Z</time>
      </trkpt>
      <trkpt lat="45.6212" lon="6.05276">
        <ele>1516.6171</ele>
        <time>2011-06-12T11:53:05Z</time>
      </trkpt>
      <trkpt lat="45.6212" lon="6.05275">
        <ele>1517.0979</ele>
        <time>2011-06-12T11:53:05Z</time>
      </trkpt>
      <trkpt lat="45.6212" lon="6.05279">
        <ele>1517.5783</ele>
        <time>2011-06-12T11:53:06Z</time>
      </trkpt>
      <trkpt lat="45.62123" lon="6.05281">
        <ele>1517.5783</ele>
        <time>2011-06-12T11:53:07Z</time>
      </trkpt>
      <trkpt lat="45.62118" lon="6.05288">
        <ele>1517.5783</ele>
        <time>2011-06-12T11:53:10Z</time>
      </trkpt>
      <trkpt lat="45.62118" lon="6.05287">
        <ele>1519.0205</ele>
        <time>2011-06-12T11:53:10Z</time>
      </trkpt>
      <trkpt lat="45.62119" lon="6.05283">
        <ele>1521.4235</ele>
        <time>2011-06-12T11:53:11Z</time>
      </trkpt>
      <trkpt lat="45.62119" lon="6.05277">
        <ele>1518.059</ele>
        <time>2011-06-12T11:53:13Z</time>
      </trkpt>
      <trkpt lat="45.62117" lon="6.05276">
        <ele>1521.9042</ele>
        <time>2011-06-12T11:53:14Z</time>
      </trkpt>
      <trkpt lat="45.6212" lon="6.05273">
        <ele>1522.8657</ele>
        <time>2011-06-12T11:53:16Z</time>
      </trkpt>
      <trkpt lat="45.62118" lon="6.05272">
        <ele>1523.3464</ele>
        <time>2011-06-12T11:53:17Z</time>
      </trkpt>
      <trkpt lat="45.62117" lon="6.05275">
        <ele>1517.0979</ele>
        <time>2011-06-12T11:53:18Z</time>
      </trkpt>
      <trkpt lat="45.62118" lon="6.05277">
        <ele>1513.7329</ele>
        <time>2011-06-12T11:53:18Z</time>
      </trkpt>
      <trkpt lat="45.62116" lon="6.05276">
        <ele>1522.385</ele>
        <time>2011-06-12T11:53:19Z</time>
      </trkpt>
      <trkpt lat="45.62122" lon="6.05273">
        <ele>1528.1528</ele>
        <time>2011-06-12T11:53:21Z</time>
      </trkpt>
      <trkpt lat="45.62123" lon="6.05271">
        <ele>1528.6335</ele>
        <time>2011-06-12T11:53:22Z</time>
      </trkpt>
      <trkpt lat="45.62127" lon="6.05264">
        <ele>1523.8269</ele>
        <time>2011-06-12T11:53:24Z</time>
      </trkpt>
      <trkpt lat="45.6213" lon="6.05265">
        <ele>1518.5397</ele>
        <time>2011-06-12T11:53:26Z</time>
      </trkpt>
      <trkpt lat="45.6213" lon="6.05264">
        <ele>1515.6557</ele>
        <time>2011-06-12T11:53:26Z</time>
      </trkpt>
      <trkpt lat="45.62129" lon="6.05263">
        <ele>1518.059</ele>
        <time>2011-06-12T11:53:27Z</time>
      </trkpt>
      <trkpt lat="45.62125" lon="6.05267">
        <ele>1521.9042</ele>
        <time>2011-06-12T11:53:29Z</time>
      </trkpt>
      <trkpt lat="45.62126" lon="6.0527">
        <ele>1519.5012</ele>
        <time>2011-06-12T11:53:30Z</time>
      </trkpt>
      <trkpt lat="45.62126" lon="6.05268">
        <ele>1520.4624</ele>
        <time>2011-06-12T11:53:30Z</time>
      </trkpt>
      <trkpt lat="45.6212" lon="6.05268">
        <ele>1527.6721</ele>
        <time>2011-06-12T11:53:33Z</time>
      </trkpt>
      <trkpt lat="45.62116" lon="6.05271">
        <ele>1535.3627</ele>
        <time>2011-06-12T11:53:34Z</time>
      </trkpt>
      <trkpt lat="45.62121" lon="6.05273">
        <ele>1531.5173</ele>
        <time>2011-06-12T11:53:37Z</time>
      </trkpt>
      <trkpt lat="45.62125" lon="6.05273">
        <ele>1530.5561</ele>
        <time>2011-06-12T11:53:38Z</time>
      </trkpt>
      <trkpt lat="45.62127" lon="6.05277">
        <ele>1517.5783</ele>
        <time>2011-06-12T11:53:40Z</time>
      </trkpt>
      <trkpt lat="45.6213" lon="6.05277">
        <ele>1511.3298</ele>
        <time>2011-06-12T11:53:41Z</time>
      </trkpt>
      <trkpt lat="45.62134" lon="6.05276">
        <ele>1511.8105</ele>
        <time>2011-06-12T11:53:43Z</time>
      </trkpt>
      <trkpt lat="45.62138" lon="6.05273">
        <ele>1511.3298</ele>
        <time>2011-06-12T11:53:44Z</time>
      </trkpt>
      <trkpt lat="45.62133" lon="6.05274">
        <ele>1509.8876</ele>
        <time>2011-06-12T11:53:46Z</time>
      </trkpt>
      <trkpt lat="45.62127" lon="6.05278">
        <ele>1510.8491</ele>
        <time>2011-06-12T11:53:49Z</time>
      </trkpt>
      <trkpt lat="45.6212" lon="6.0528">
        <ele>1511.8105</ele>
        <time>2011-06-12T11:53:51Z</time>
      </trkpt>
      <trkpt lat="45.62124" lon="6.05279">
        <ele>1515.6557</ele>
        <time>2011-06-12T11:53:53Z</time>
      </trkpt>
      <trkpt lat="45.62125" lon="6.05278">
        <ele>1517.5783</ele>
        <time>2011-06-12T11:53:53Z</time>
      </trkpt>
      <trkpt lat="45.62126" lon="6.05278">
        <ele>1519.0205</ele>
        <time>2011-06-12T11:53:54Z</time>
      </trkpt>
      <trkpt lat="45.62127" lon="6.05281">
        <ele>1520.4624</ele>
        <time>2011-06-12T11:53:55Z</time>
      </trkpt>
      <trkpt lat="45.6213" lon="6.0527">
        <ele>1517.0979</ele>
        <time>2011-06-12T11:53:58Z</time>
      </trkpt>
      <trkpt lat="45.62133" lon="6.05268">
        <ele>1515.6557</ele>
        <time>2011-06-12T11:53:59Z</time>
      </trkpt>
      <trkpt lat="45.62129" lon="6.05271">
        <ele>1518.5397</ele>
        <time>2011-06-12T11:54:01Z</time>
      </trkpt>
      <trkpt lat="45.62133" lon="6.0527">
        <ele>1515.6557</ele>
        <time>2011-06-12T11:54:02Z</time>
      </trkpt>
      <trkpt lat="45.62132" lon="6.05269">
        <ele>1520.9431</ele>
        <time>2011-06-12T11:54:03Z</time>
      </trkpt>
      <trkpt lat="45.62132" lon="6.05266">
        <ele>1523.3464</ele>
        <time>2011-06-12T11:54:04Z</time>
      </trkpt>
      <trkpt lat="45.62132" lon="6.05265">
        <ele>1523.8269</ele>
        <time>2011-06-12T11:54:04Z</time>
      </trkpt>
      <trkpt lat="45.6213" lon="6.05264">
        <ele>1524.7883</ele>
        <time>2011-06-12T11:54:05Z</time>
      </trkpt>
      <trkpt lat="45.6213" lon="6.05264">
        <ele>1525.7495</ele>
        <time>2011-06-12T11:54:05Z</time>
      </trkpt>
      <trkpt lat="45.62131" lon="6.05263">
        <ele>1530.5561</ele>
        <time>2011-06-12T11:54:05Z</time>
      </trkpt>
      <trkpt lat="45.62132" lon="6.05261">
        <ele>1525.2687</ele>
        <time>2011-06-12T11:54:06Z</time>
      </trkpt>
      <trkpt lat="45.62133" lon="6.05262">
        <ele>1523.8269</ele>
        <time>2011-06-12T11:54:06Z</time>
      </trkpt>
      <trkpt lat="45.62134" lon="6.05261">
        <ele>1512.7717</ele>
        <time>2011-06-12T11:54:07Z</time>
      </trkpt>
      <trkpt lat="45.62134" lon="6.05263">
        <ele>1513.7329</ele>
        <time>2011-06-12T11:54:08Z</time>
      </trkpt>
      <trkpt lat="45.62127" lon="6.05268">
        <ele>1516.1364</ele>
        <time>2011-06-12T11:54:11Z</time>
      </trkpt>
      <trkpt lat="45.62127" lon="6.0527">
        <ele>1518.059</ele>
        <time>2011-06-12T11:54:11Z</time>
      </trkpt>
      <trkpt lat="45.62129" lon="6.05269">
        <ele>1520.4624</ele>
        <time>2011-06-12T11:54:12Z</time>
      </trkpt>
      <trkpt lat="45.6213" lon="6.05268">
        <ele>1521.4235</ele>
        <time>2011-06-12T11:54:13Z</time>
      </trkpt>
      <trkpt lat="45.62129" lon="6.05272">
        <ele>1522.385</ele>
        <time>2011-06-12T11:54:14Z</time>
      </trkpt>
      <trkpt lat="45.62127" lon="6.05274">
        <ele>1522.8657</ele>
        <time>2011-06-12T11:54:14Z</time>
      </trkpt>
      <trkpt lat="45.6213" lon="6.05273">
        <ele>1523.3464</ele>
        <time>2011-06-12T11:54:15Z</time>
      </trkpt>
      <trkpt lat="45.62131" lon="6.05273">
        <ele>1523.8269</ele>
        <time>2011-06-12T11:54:16Z</time>
      </trkpt>
      <trkpt lat="45.62132" lon="6.05275">
        <ele>1524.7883</ele>
        <time>2011-06-12T11:54:17Z</time>
      </trkpt>
      <trkpt lat="45.62128" lon="6.05274">
        <ele>1521.9042</ele>
        <time>2011-06-12T11:54:18Z</time>
      </trkpt>
      <trkpt lat="45.62123" lon="6.05271">
        <ele>1520.9431</ele>
        <time>2011-06-12T11:54:20Z</time>
      </trkpt>
      <trkpt lat="45.62125" lon="6.05265">
        <ele>1522.385</ele>
        <time>2011-06-12T11:54:22Z</time>
      </trkpt>
      <trkpt lat="45.62126" lon="6.05264">
        <ele>1523.8269</ele>
        <time>2011-06-12T11:54:22Z</time>
      </trkpt>
      <trkpt lat="45.62126" lon="6.05263">
        <ele>1523.8269</ele>
        <time>2011-06-12T11:54:23Z</time>
      </trkpt>
      <trkpt lat="45.62126" lon="6.05268">
        <ele>1525.7495</ele>
        <time>2011-06-12T11:54:24Z</time>
      </trkpt>
      <trkpt lat="45.62128" lon="6.05267">
        <ele>1520.9431</ele>
        <time>2011-06-12T11:54:25Z</time>
      </trkpt>
      <trkpt lat="45.62128" lon="6.05268">
        <ele>1521.4235</ele>
        <time>2011-06-12T11:54:25Z</time>
      </trkpt>
      <trkpt lat="45.6213" lon="6.05273">
        <ele>1519.0205</ele>
        <time>2011-06-12T11:54:27Z</time>
      </trkpt>
      <trkpt lat="45.62129" lon="6.05275">
        <ele>1521.4235</ele>
        <time>2011-06-12T11:54:27Z</time>
      </trkpt>
      <trkpt lat="45.62124" lon="6.05276">
        <ele>1524.7883</ele>
        <time>2011-06-12T11:54:29Z</time>
      </trkpt>
      <trkpt lat="45.62124" lon="6.05274">
        <ele>1522.385</ele>
        <time>2011-06-12T11:54:30Z</time>
      </trkpt>
      <trkpt lat="45.62126" lon="6.05273">
        <ele>1523.3464</ele>
        <time>2011-06-12T11:54:31Z</time>
      </trkpt>
      <trkpt lat="45.6213" lon="6.05272">
        <ele>1522.8657</ele>
        <time>2011-06-12T11:54:32Z</time>
      </trkpt>
      <trkpt lat="45.62131" lon="6.0527">
        <ele>1519.5012</ele>
        <time>2011-06-12T11:54:33Z</time>
      </trkpt>
      <trkpt lat="45.62132" lon="6.05268">
        <ele>1519.0205</ele>
        <time>2011-06-12T11:54:34Z</time>
      </trkpt>
      <trkpt lat="45.62137" lon="6.05265">
        <ele>1519.9816</ele>
        <time>2011-06-12T11:54:36Z</time>
      </trkpt>
      <trkpt lat="45.62137" lon="6.05263">
        <ele>1524.3076</ele>
        <time>2011-06-12T11:54:36Z</time>
      </trkpt>
      <trkpt lat="45.62138" lon="6.05264">
        <ele>1524.7883</ele>
        <time>2011-06-12T11:54:36Z</time>
      </trkpt>
      <trkpt lat="45.62138" lon="6.05265">
        <ele>1523.3464</ele>
        <time>2011-06-12T11:54:37Z</time>
      </trkpt>
      <trkpt lat="45.62138" lon="6.05266">
        <ele>1521.4235</ele>
        <time>2011-06-12T11:54:37Z</time>
      </trkpt>
      <trkpt lat="45.62135" lon="6.05266">
        <ele>1512.7717</ele>
        <time>2011-06-12T11:54:38Z</time>
      </trkpt>
      <trkpt lat="45.62132" lon="6.05268">
        <ele>1511.8105</ele>
        <time>2011-06-12T11:54:40Z</time>
      </trkpt>
      <trkpt lat="45.62129" lon="6.05271">
        <ele>1517.0979</ele>
        <time>2011-06-12T11:54:41Z</time>
      </trkpt>
      <trkpt lat="45.62126" lon="6.05272">
        <ele>1520.4624</ele>
        <time>2011-06-12T11:54:42Z</time>
      </trkpt>
      <trkpt lat="45.62124" lon="6.05272">
        <ele>1519.0205</ele>
        <time>2011-06-12T11:54:43Z</time>
      </trkpt>
      <trkpt lat="45.62124" lon="6.05266">
        <ele>1519.5012</ele>
        <time>2011-06-12T11:54:45Z</time>
      </trkpt>
      <trkpt lat="45.62124" lon="6.05266">
        <ele>1519.9816</ele>
        <time>2011-06-12T11:54:45Z</time>
      </trkpt>
      <trkpt lat="45.62127" lon="6.0527">
        <ele>1520.9431</ele>
        <time>2011-06-12T11:54:47Z</time>
      </trkpt>
      <trkpt lat="45.62127" lon="6.05271">
        <ele>1516.1364</ele>
        <time>2011-06-12T11:54:47Z</time>
      </trkpt>
      <trkpt lat="45.62126" lon="6.05272">
        <ele>1517.0979</ele>
        <time>2011-06-12T11:54:47Z</time>
      </trkpt>
      <trkpt lat="45.62126" lon="6.05272">
        <ele>1517.0979</ele>
        <time>2011-06-12T11:54:48Z</time>
      </trkpt>
      <trkpt lat="45.62128" lon="6.05271">
        <ele>1517.0979</ele>
        <time>2011-06-12T11:54:49Z</time>
      </trkpt>
      <trkpt lat="45.62128" lon="6.05272">
        <ele>1511.8105</ele>
        <time>2011-06-12T11:54:49Z</time>
      </trkpt>
      <trkpt lat="45.62128" lon="6.05273">
        <ele>1506.5231</ele>
        <time>2011-06-12T11:54:49Z</time>
      </trkpt>
      <trkpt lat="45.6213" lon="6.05272">
        <ele>1503.6394</ele>
        <time>2011-06-12T11:54:50Z</time>
      </trkpt>
      <trkpt lat="45.62138" lon="6.0527">
        <ele>1505.0812</ele>
        <time>2011-06-12T11:54:53Z</time>
      </trkpt>
      <trkpt lat="45.62141" lon="6.05269">
        <ele>1512.7717</ele>
        <time>2011-06-12T11:54:54Z</time>
      </trkpt>
      <trkpt lat="45.62134" lon="6.0527">
        <ele>1525.2687</ele>
        <time>2011-06-12T11:54:57Z</time>
      </trkpt>
      <trkpt lat="45.62121" lon="6.05269">
        <ele>1542.5727</ele>
        <time>2011-06-12T11:55:02Z</time>
      </trkpt>
      <trkpt lat="45.62118" lon="6.05271">
        <ele>1544.9758</ele>
        <time>2011-06-12T11:55:04Z</time>
      </trkpt>
      <trkpt lat="45.62127" lon="6.05269">
        <ele>1526.7109</ele>
        <time>2011-06-12T11:55:07Z</time>
      </trkpt>
      <trkpt lat="45.62141" lon="6.05261">
        <ele>1502.6779</ele>
        <time>2011-06-12T11:55:13Z</time>
      </trkpt>
      <trkpt lat="45.62144" lon="6.05262">
        <ele>1510.8491</ele>
        <time>2011-06-12T11:55:15Z</time>
      </trkpt>
      <trkpt lat="45.62142" lon="6.05264">
        <ele>1518.5397</ele>
        <time>2011-06-12T11:55:15Z</time>
      </trkpt>
      <trkpt lat="45.62134" lon="6.05264">
        <ele>1526.2302</ele>
        <time>2011-06-12T11:55:19Z</time>
      </trkpt>
      <trkpt lat="45.62134" lon="6.05266">
        <ele>1522.8657</ele>
        <time>2011-06-12T11:55:19Z</time>
      </trkpt>
      <trkpt lat="45.62134" lon="6.05268">
        <ele>1525.7495</ele>
        <time>2011-06-12T11:55:20Z</time>
      </trkpt>
      <trkpt lat="45.62133" lon="6.05269">
        <ele>1527.1916</ele>
        <time>2011-06-12T11:55:20Z</time>
      </trkpt>
      <trkpt lat="45.62133" lon="6.05269">
        <ele>1528.1528</ele>
        <time>2011-06-12T11:55:21Z</time>
      </trkpt>
      <trkpt lat="45.62131" lon="6.0527">
        <ele>1526.7109</ele>
        <time>2011-06-12T11:55:22Z</time>
      </trkpt>
      <trkpt lat="45.62128" lon="6.05271">
        <ele>1526.2302</ele>
        <time>2011-06-12T11:55:23Z</time>
      </trkpt>
      <trkpt lat="45.6213" lon="6.05269">
        <ele>1520.4624</ele>
        <time>2011-06-12T11:55:24Z</time>
      </trkpt>
      <trkpt lat="45.62132" lon="6.0527">
        <ele>1517.5783</ele>
        <time>2011-06-12T11:55:25Z</time>
      </trkpt>
      <trkpt lat="45.62124" lon="6.05273">
        <ele>1517.5783</ele>
        <time>2011-06-12T11:55:28Z</time>
      </trkpt>
      <trkpt lat="45.62127" lon="6.05272">
        <ele>1524.3076</ele>
        <time>2011-06-12T11:55:30Z</time>
      </trkpt>
      <trkpt lat="45.6213" lon="6.0527">
        <ele>1536.8046</ele>
        <time>2011-06-12T11:55:31Z</time>
      </trkpt>
      <trkpt lat="45.62123" lon="6.05271">
        <ele>1538.7275</ele>
        <time>2011-06-12T11:55:33Z</time>
      </trkpt>
      <trkpt lat="45.62122" lon="6.05275">
        <ele>1534.8823</ele>
        <time>2011-06-12T11:55:34Z</time>
      </trkpt>
      <trkpt lat="45.62123" lon="6.05275">
        <ele>1531.998</ele>
        <time>2011-06-12T11:55:35Z</time>
      </trkpt>
      <trkpt lat="45.62129" lon="6.05271">
        <ele>1521.4235</ele>
        <time>2011-06-12T11:55:38Z</time>
      </trkpt>
      <trkpt lat="45.62131" lon="6.0527">
        <ele>1517.5783</ele>
        <time>2011-06-12T11:55:38Z</time>
      </trkpt>
      <trkpt lat="45.62131" lon="6.05269">
        <ele>1517.0979</ele>
        <time>2011-06-12T11:55:39Z</time>
      </trkpt>
      <trkpt lat="45.62131" lon="6.05269">
        <ele>1517.0979</ele>
        <time>2011-06-12T11:55:39Z</time>
      </trkpt>
      <trkpt lat="45.62132" lon="6.05268">
        <ele>1516.6171</ele>
        <time>2011-06-12T11:55:39Z</time>
      </trkpt>
      <trkpt lat="45.62131" lon="6.05267">
        <ele>1517.0979</ele>
        <time>2011-06-12T11:55:40Z</time>
      </trkpt>
      <trkpt lat="45.62131" lon="6.05267">
        <ele>1517.0979</ele>
        <time>2011-06-12T11:55:40Z</time>
      </trkpt>
      <trkpt lat="45.62128" lon="6.05268">
        <ele>1515.6557</ele>
        <time>2011-06-12T11:55:41Z</time>
      </trkpt>
      <trkpt lat="45.62123" lon="6.05269">
        <ele>1513.7329</ele>
        <time>2011-06-12T11:55:43Z</time>
      </trkpt>
      <trkpt lat="45.62123" lon="6.05268">
        <ele>1515.175</ele>
        <time>2011-06-12T11:55:43Z</time>
      </trkpt>
      <trkpt lat="45.62125" lon="6.05266">
        <ele>1520.9431</ele>
        <time>2011-06-12T11:55:44Z</time>
      </trkpt>
      <trkpt lat="45.62132" lon="6.05264">
        <ele>1519.0205</ele>
        <time>2011-06-12T11:55:47Z</time>
      </trkpt>
      <trkpt lat="45.62132" lon="6.05266">
        <ele>1518.059</ele>
        <time>2011-06-12T11:55:48Z</time>
      </trkpt>
      <trkpt lat="45.62131" lon="6.05267">
        <ele>1517.0979</ele>
        <time>2011-06-12T11:55:48Z</time>
      </trkpt>
      <trkpt lat="45.6213" lon="6.05266">
        <ele>1518.5397</ele>
        <time>2011-06-12T11:55:49Z</time>
      </trkpt>
      <trkpt lat="45.62129" lon="6.0527">
        <ele>1519.9816</ele>
        <time>2011-06-12T11:55:50Z</time>
      </trkpt>
      <trkpt lat="45.62127" lon="6.05273">
        <ele>1519.9816</ele>
        <time>2011-06-12T11:55:51Z</time>
      </trkpt>
      <trkpt lat="45.62122" lon="6.05284">
        <ele>1527.1916</ele>
        <time>2011-06-12T11:55:55Z</time>
      </trkpt>
      <trkpt lat="45.62123" lon="6.05281">
        <ele>1524.3076</ele>
        <time>2011-06-12T11:55:55Z</time>
      </trkpt>
      <trkpt lat="45.62125" lon="6.0528">
        <ele>1524.7883</ele>
        <time>2011-06-12T11:55:56Z</time>
      </trkpt>
      <trkpt lat="45.62124" lon="6.05283">
        <ele>1526.7109</ele>
        <time>2011-06-12T11:55:57Z</time>
      </trkpt>
      <trkpt lat="45.62122" lon="6.05282">
        <ele>1524.7883</ele>
        <time>2011-06-12T11:55:58Z</time>
      </trkpt>
      <trkpt lat="45.62123" lon="6.05278">
        <ele>1522.8657</ele>
        <time>2011-06-12T11:56:00Z</time>
      </trkpt>
      <trkpt lat="45.62123" lon="6.0527">
        <ele>1513.2524</ele>
        <time>2011-06-12T11:56:02Z</time>
      </trkpt>
      <trkpt lat="45.62123" lon="6.05269">
        <ele>1511.3298</ele>
        <time>2011-06-12T11:56:02Z</time>
      </trkpt>
      <trkpt lat="45.62125" lon="6.05269">
        <ele>1510.3684</ele>
        <time>2011-06-12T11:56:03Z</time>
      </trkpt>
      <trkpt lat="45.62127" lon="6.05269">
        <ele>1508.4458</ele>
        <time>2011-06-12T11:56:04Z</time>
      </trkpt>
      <trkpt lat="45.6213" lon="6.05268">
        <ele>1512.7717</ele>
        <time>2011-06-12T11:56:05Z</time>
      </trkpt>
      <trkpt lat="45.6213" lon="6.05269">
        <ele>1514.6943</ele>
        <time>2011-06-12T11:56:05Z</time>
      </trkpt>
      <trkpt lat="45.6213" lon="6.05269">
        <ele>1514.6943</ele>
        <time>2011-06-12T11:56:05Z</time>
      </trkpt>
      <trkpt lat="45.62129" lon="6.05269">
        <ele>1514.6943</ele>
        <time>2011-06-12T11:56:06Z</time>
      </trkpt>
      <trkpt lat="45.6213" lon="6.0527">
        <ele>1515.175</ele>
        <time>2011-06-12T11:56:06Z</time>
      </trkpt>
      <trkpt lat="45.62127" lon="6.05271">
        <ele>1515.175</ele>
        <time>2011-06-12T11:56:08Z</time>
      </trkpt>
      <trkpt lat="45.62126" lon="6.05265">
        <ele>1514.2136</ele>
        <time>2011-06-12T11:56:09Z</time>
      </trkpt>
      <trkpt lat="45.62126" lon="6.05268">
        <ele>1518.059</ele>
        <time>2011-06-12T11:56:10Z</time>
      </trkpt>
      <trkpt lat="45.62124" lon="6.05269">
        <ele>1520.4624</ele>
        <time>2011-06-12T11:56:11Z</time>
      </trkpt>
      <trkpt lat="45.62135" lon="6.05268">
        <ele>1525.7495</ele>
        <time>2011-06-12T11:56:15Z</time>
      </trkpt>
      <trkpt lat="45.62136" lon="6.05267">
        <ele>1525.7495</ele>
        <time>2011-06-12T11:56:16Z</time>
      </trkpt>
      <trkpt lat="45.62138" lon="6.05264">
        <ele>1522.8657</ele>
        <time>2011-06-12T11:56:17Z</time>
      </trkpt>
      <trkpt lat="45.62138" lon="6.05264">
        <ele>1522.385</ele>
        <time>2011-06-12T11:56:17Z</time>
      </trkpt>
      <trkpt lat="45.6214" lon="6.0526">
        <ele>1519.0205</ele>
        <time>2011-06-12T11:56:18Z</time>
      </trkpt>
      <trkpt lat="45.62142" lon="6.0526">
        <ele>1516.1364</ele>
        <time>2011-06-12T11:56:19Z</time>
      </trkpt>
      <trkpt lat="45.62139" lon="6.0526">
        <ele>1514.2136</ele>
        <time>2011-06-12T11:56:20Z</time>
      </trkpt>
      <trkpt lat="45.62135" lon="6.05265">
        <ele>1516.1364</ele>
        <time>2011-06-12T11:56:22Z</time>
      </trkpt>
      <trkpt lat="45.62133" lon="6.05267">
        <ele>1518.059</ele>
        <time>2011-06-12T11:56:23Z</time>
      </trkpt>
      <trkpt lat="45.62133" lon="6.05266">
        <ele>1519.0205</ele>
        <time>2011-06-12T11:56:23Z</time>
      </trkpt>
      <trkpt lat="45.62135" lon="6.05265">
        <ele>1519.0205</ele>
        <time>2011-06-12T11:56:24Z</time>
      </trkpt>
      <trkpt lat="45.62136" lon="6.05262">
        <ele>1517.0979</ele>
        <time>2011-06-12T11:56:25Z</time>
      </trkpt>
      <trkpt lat="45.62132" lon="6.05261">
        <ele>1518.5397</ele>
        <time>2011-06-12T11:56:27Z</time>
      </trkpt>
      <trkpt lat="45.6213" lon="6.05268">
        <ele>1521.4235</ele>
        <time>2011-06-12T11:56:29Z</time>
      </trkpt>
      <trkpt lat="45.6213" lon="6.05264">
        <ele>1519.9816</ele>
        <time>2011-06-12T11:56:30Z</time>
      </trkpt>
      <trkpt lat="45.62127" lon="6.05266">
        <ele>1521.9042</ele>
        <time>2011-06-12T11:56:32Z</time>
      </trkpt>
      <trkpt lat="45.62127" lon="6.05268">
        <ele>1520.9431</ele>
        <time>2011-06-12T11:56:32Z</time>
      </trkpt>
      <trkpt lat="45.62131" lon="6.05264">
        <ele>1523.8269</ele>
        <time>2011-06-12T11:56:34Z</time>
      </trkpt>
      <trkpt lat="45.62128" lon="6.05263">
        <ele>1522.385</ele>
        <time>2011-06-12T11:56:35Z</time>
      </trkpt>
      <trkpt lat="45.62134" lon="6.05261">
        <ele>1522.385</ele>
        <time>2011-06-12T11:56:37Z</time>
      </trkpt>
      <trkpt lat="45.62136" lon="6.05262">
        <ele>1520.4624</ele>
        <time>2011-06-12T11:56:38Z</time>
      </trkpt>
      <trkpt lat="45.62133" lon="6.05265">
        <ele>1518.059</ele>
        <time>2011-06-12T11:56:39Z</time>
      </trkpt>
      <trkpt lat="45.62134" lon="6.05267">
        <ele>1517.5783</ele>
        <time>2011-06-12T11:56:40Z</time>
      </trkpt>
      <trkpt lat="45.62131" lon="6.05268">
        <ele>1517.5783</ele>
        <time>2011-06-12T11:56:41Z</time>
      </trkpt>
      <trkpt lat="45.6213" lon="6.05267">
        <ele>1517.5783</ele>
        <time>2011-06-12T11:56:41Z</time>
      </trkpt>
      <trkpt lat="45.62129" lon="6.05267">
        <ele>1517.5783</ele>
        <time>2011-06-12T11:56:42Z</time>
      </trkpt>
      <trkpt lat="45.62129" lon="6.05269">
        <ele>1517.0979</ele>
        <time>2011-06-12T11:56:42Z</time>
      </trkpt>
      <trkpt lat="45.62132" lon="6.05269">
        <ele>1521.9042</ele>
        <time>2011-06-12T11:56:44Z</time>
      </trkpt>
      <trkpt lat="45.62131" lon="6.05271">
        <ele>1522.385</ele>
        <time>2011-06-12T11:56:44Z</time>
      </trkpt>
      <trkpt lat="45.62129" lon="6.05273">
        <ele>1522.8657</ele>
        <time>2011-06-12T11:56:45Z</time>
      </trkpt>
      <trkpt lat="45.62125" lon="6.05269">
        <ele>1513.2524</ele>
        <time>2011-06-12T11:56:48Z</time>
      </trkpt>
      <trkpt lat="45.6212" lon="6.05273">
        <ele>1516.1364</ele>
        <time>2011-06-12T11:56:50Z</time>
      </trkpt>
      <trkpt lat="45.62122" lon="6.05273">
        <ele>1516.6171</ele>
        <time>2011-06-12T11:56:50Z</time>
      </trkpt>
      <trkpt lat="45.62124" lon="6.05271">
        <ele>1519.5012</ele>
        <time>2011-06-12T11:56:51Z</time>
      </trkpt>
      <trkpt lat="45.62126" lon="6.05269">
        <ele>1519.9816</ele>
        <time>2011-06-12T11:56:53Z</time>
      </trkpt>
      <trkpt lat="45.62127" lon="6.05268">
        <ele>1520.4624</ele>
        <time>2011-06-12T11:56:53Z</time>
      </trkpt>
      <trkpt lat="45.62128" lon="6.05268">
        <ele>1520.4624</ele>
        <time>2011-06-12T11:56:53Z</time>
      </trkpt>
      <trkpt lat="45.62129" lon="6.05269">
        <ele>1522.385</ele>
        <time>2011-06-12T11:56:54Z</time>
      </trkpt>
      <trkpt lat="45.62128" lon="6.05273">
        <ele>1520.4624</ele>
        <time>2011-06-12T11:56:55Z</time>
      </trkpt>
      <trkpt lat="45.62124" lon="6.05273">
        <ele>1508.9265</ele>
        <time>2011-06-12T11:56:57Z</time>
      </trkpt>
      <trkpt lat="45.62125" lon="6.0527">
        <ele>1511.3298</ele>
        <time>2011-06-12T11:56:58Z</time>
      </trkpt>
      <trkpt lat="45.62124" lon="6.05271">
        <ele>1515.175</ele>
        <time>2011-06-12T11:56:58Z</time>
      </trkpt>
      <trkpt lat="45.62126" lon="6.05272">
        <ele>1519.5012</ele>
        <time>2011-06-12T11:56:59Z</time>
      </trkpt>
      <trkpt lat="45.62127" lon="6.05272">
        <ele>1521.4235</ele>
        <time>2011-06-12T11:56:59Z</time>
      </trkpt>
      <trkpt lat="45.62128" lon="6.05271">
        <ele>1521.4235</ele>
        <time>2011-06-12T11:57:00Z</time>
      </trkpt>
      <trkpt lat="45.62131" lon="6.05273">
        <ele>1527.1916</ele>
        <time>2011-06-12T11:57:01Z</time>
      </trkpt>
      <trkpt lat="45.62132" lon="6.05271">
        <ele>1526.7109</ele>
        <time>2011-06-12T11:57:01Z</time>
      </trkpt>
      <trkpt lat="45.62132" lon="6.05271">
        <ele>1526.2302</ele>
        <time>2011-06-12T11:57:02Z</time>
      </trkpt>
      <trkpt lat="45.62131" lon="6.05272">
        <ele>1531.5173</ele>
        <time>2011-06-12T11:57:02Z</time>
      </trkpt>
      <trkpt lat="45.62133" lon="6.05273">
        <ele>1534.8823</ele>
        <time>2011-06-12T11:57:03Z</time>
      </trkpt>
      <trkpt lat="45.62141" lon="6.05272">
        <ele>1545.9372</ele>
        <time>2011-06-12T11:57:06Z</time>
      </trkpt>
      <trkpt lat="45.62142" lon="6.05271">
        <ele>1547.8598</ele>
        <time>2011-06-12T11:57:07Z</time>
      </trkpt>
      <trkpt lat="45.62143" lon="6.0527">
        <ele>1545.4565</ele>
        <time>2011-06-12T11:57:07Z</time>
      </trkpt>
      <trkpt lat="45.62141" lon="6.05269">
        <ele>1540.6499</ele>
        <time>2011-06-12T11:57:08Z</time>
      </trkpt>
      <trkpt lat="45.6214" lon="6.05267">
        <ele>1531.0368</ele>
        <time>2011-06-12T11:57:08Z</time>
      </trkpt>
      <trkpt lat="45.62139" lon="6.05265">
        <ele>1527.6721</ele>
        <time>2011-06-12T11:57:09Z</time>
      </trkpt>
      <trkpt lat="45.62137" lon="6.05264">
        <ele>1527.1916</ele>
        <time>2011-06-12T11:57:10Z</time>
      </trkpt>
      <trkpt lat="45.62137" lon="6.05266">
        <ele>1525.7495</ele>
        <time>2011-06-12T11:57:10Z</time>
      </trkpt>
      <trkpt lat="45.62136" lon="6.05267">
        <ele>1523.8269</ele>
        <time>2011-06-12T11:57:11Z</time>
      </trkpt>
      <trkpt lat="45.62132" lon="6.05267">
        <ele>1520.4624</ele>
        <time>2011-06-12T11:57:12Z</time>
      </trkpt>
      <trkpt lat="45.62127" lon="6.05265">
        <ele>1520.9431</ele>
        <time>2011-06-12T11:57:14Z</time>
      </trkpt>
      <trkpt lat="45.62129" lon="6.05267">
        <ele>1522.385</ele>
        <time>2011-06-12T11:57:15Z</time>
      </trkpt>
      <trkpt lat="45.62129" lon="6.05266">
        <ele>1523.3464</ele>
        <time>2011-06-12T11:57:16Z</time>
      </trkpt>
      <trkpt lat="45.6213" lon="6.05265">
        <ele>1529.5947</ele>
        <time>2011-06-12T11:57:16Z</time>
      </trkpt>
      <trkpt lat="45.62129" lon="6.05266">
        <ele>1524.7883</ele>
        <time>2011-06-12T11:57:17Z</time>
      </trkpt>
      <trkpt lat="45.62129" lon="6.05267">
        <ele>1522.8657</ele>
        <time>2011-06-12T11:57:17Z</time>
      </trkpt>
      <trkpt lat="45.62128" lon="6.05268">
        <ele>1521.9042</ele>
        <time>2011-06-12T11:57:18Z</time>
      </trkpt>
      <trkpt lat="45.62125" lon="6.05272">
        <ele>1517.5783</ele>
        <time>2011-06-12T11:57:19Z</time>
      </trkpt>
      <trkpt lat="45.62124" lon="6.05277">
        <ele>1510.8491</ele>
        <time>2011-06-12T11:57:21Z</time>
      </trkpt>
      <trkpt lat="45.62122" lon="6.05273">
        <ele>1510.3684</ele>
        <time>2011-06-12T11:57:22Z</time>
      </trkpt>
      <trkpt lat="45.62121" lon="6.05271">
        <ele>1510.8491</ele>
        <time>2011-06-12T11:57:23Z</time>
      </trkpt>
      <trkpt lat="45.62127" lon="6.05272">
        <ele>1509.4072</ele>
        <time>2011-06-12T11:57:25Z</time>
      </trkpt>
      <trkpt lat="45.62123" lon="6.05274">
        <ele>1511.8105</ele>
        <time>2011-06-12T11:57:26Z</time>
      </trkpt>
      <trkpt lat="45.62123" lon="6.05274">
        <ele>1512.291</ele>
        <time>2011-06-12T11:57:26Z</time>
      </trkpt>
      <trkpt lat="45.62126" lon="6.05277">
        <ele>1521.9042</ele>
        <time>2011-06-12T11:57:28Z</time>
      </trkpt>
      <trkpt lat="45.62125" lon="6.05275">
        <ele>1519.5012</ele>
        <time>2011-06-12T11:57:29Z</time>
      </trkpt>
      <trkpt lat="45.62124" lon="6.05274">
        <ele>1515.6557</ele>
        <time>2011-06-12T11:57:29Z</time>
      </trkpt>
      <trkpt lat="45.62126" lon="6.05275">
        <ele>1513.7329</ele>
        <time>2011-06-12T11:57:30Z</time>
      </trkpt>
      <trkpt lat="45.62126" lon="6.05273">
        <ele>1516.1364</ele>
        <time>2011-06-12T11:57:30Z</time>
      </trkpt>
      <trkpt lat="45.62125" lon="6.05271">
        <ele>1517.5783</ele>
        <time>2011-06-12T11:57:31Z</time>
      </trkpt>
      <trkpt lat="45.62125" lon="6.0527">
        <ele>1517.5783</ele>
        <time>2011-06-12T11:57:31Z</time>
      </trkpt>
      <trkpt lat="45.62126" lon="6.0527">
        <ele>1518.5397</ele>
        <time>2011-06-12T11:57:31Z</time>
      </trkpt>
      <trkpt lat="45.62129" lon="6.05268">
        <ele>1516.1364</ele>
        <time>2011-06-12T11:57:33Z</time>
      </trkpt>
      <trkpt lat="45.62131" lon="6.05268">
        <ele>1515.175</ele>
        <time>2011-06-12T11:57:34Z</time>
      </trkpt>
      <trkpt lat="45.62129" lon="6.05268">
        <ele>1517.0979</ele>
        <time>2011-06-12T11:57:34Z</time>
      </trkpt>
      <trkpt lat="45.6213" lon="6.05268">
        <ele>1518.5397</ele>
        <time>2011-06-12T11:57:34Z</time>
      </trkpt>
      <trkpt lat="45.6213" lon="6.05269">
        <ele>1523.3464</ele>
        <time>2011-06-12T11:57:35Z</time>
      </trkpt>
      <trkpt lat="45.62132" lon="6.05267">
        <ele>1523.3464</ele>
        <time>2011-06-12T11:57:36Z</time>
      </trkpt>
      <trkpt lat="45.62129" lon="6.05266">
        <ele>1520.9431</ele>
        <time>2011-06-12T11:57:37Z</time>
      </trkpt>
      <trkpt lat="45.62126" lon="6.05267">
        <ele>1518.5397</ele>
        <time>2011-06-12T11:57:38Z</time>
      </trkpt>
      <trkpt lat="45.62132" lon="6.05257">
        <ele>1516.1364</ele>
        <time>2011-06-12T11:57:42Z</time>
      </trkpt>
      <trkpt lat="45.62131" lon="6.05258">
        <ele>1517.0979</ele>
        <time>2011-06-12T11:57:42Z</time>
      </trkpt>
      <trkpt lat="45.62129" lon="6.05265">
        <ele>1519.5012</ele>
        <time>2011-06-12T11:57:44Z</time>
      </trkpt>
      <trkpt lat="45.62129" lon="6.05267">
        <ele>1521.4235</ele>
        <time>2011-06-12T11:57:45Z</time>
      </trkpt>
      <trkpt lat="45.62128" lon="6.05271">
        <ele>1530.0754</ele>
        <time>2011-06-12T11:57:46Z</time>
      </trkpt>
      <trkpt lat="45.62129" lon="6.0527">
        <ele>1528.6335</ele>
        <time>2011-06-12T11:57:46Z</time>
      </trkpt>
      <trkpt lat="45.62128" lon="6.05271">
        <ele>1526.2302</ele>
        <time>2011-06-12T11:57:46Z</time>
      </trkpt>
      <trkpt lat="45.62129" lon="6.0527">
        <ele>1522.8657</ele>
        <time>2011-06-12T11:57:47Z</time>
      </trkpt>
      <trkpt lat="45.62127" lon="6.05269">
        <ele>1522.8657</ele>
        <time>2011-06-12T11:57:47Z</time>
      </trkpt>
      <trkpt lat="45.62129" lon="6.0527">
        <ele>1522.8657</ele>
        <time>2011-06-12T11:57:48Z</time>
      </trkpt>
      <trkpt lat="45.6213" lon="6.05269">
        <ele>1532.479</ele>
        <time>2011-06-12T11:57:49Z</time>
      </trkpt>
      <trkpt lat="45.62126" lon="6.05268">
        <ele>1535.3627</ele>
        <time>2011-06-12T11:57:51Z</time>
      </trkpt>
      <trkpt lat="45.62128" lon="6.05268">
        <ele>1527.6721</ele>
        <time>2011-06-12T11:57:51Z</time>
      </trkpt>
      <trkpt lat="45.62128" lon="6.05266">
        <ele>1522.8657</ele>
        <time>2011-06-12T11:57:52Z</time>
      </trkpt>
      <trkpt lat="45.62127" lon="6.05265">
        <ele>1516.6171</ele>
        <time>2011-06-12T11:57:52Z</time>
      </trkpt>
      <trkpt lat="45.62125" lon="6.05265">
        <ele>1519.9816</ele>
        <time>2011-06-12T11:57:53Z</time>
      </trkpt>
      <trkpt lat="45.62126" lon="6.05269">
        <ele>1520.9431</ele>
        <time>2011-06-12T11:57:54Z</time>
      </trkpt>
      <trkpt lat="45.62125" lon="6.05269">
        <ele>1519.0205</ele>
        <time>2011-06-12T11:57:54Z</time>
      </trkpt>
      <trkpt lat="45.62126" lon="6.05269">
        <ele>1520.4624</ele>
        <time>2011-06-12T11:57:55Z</time>
      </trkpt>
      <trkpt lat="45.62126" lon="6.05268">
        <ele>1518.059</ele>
        <time>2011-06-12T11:57:55Z</time>
      </trkpt>
      <trkpt lat="45.62126" lon="6.05268">
        <ele>1518.059</ele>
        <time>2011-06-12T11:57:55Z</time>
      </trkpt>
      <trkpt lat="45.62126" lon="6.05269">
        <ele>1517.5783</ele>
        <time>2011-06-12T11:57:55Z</time>
      </trkpt>
      <trkpt lat="45.62126" lon="6.05269">
        <ele>1517.0979</ele>
        <time>2011-06-12T11:57:56Z</time>
      </trkpt>
      <trkpt lat="45.62125" lon="6.05272">
        <ele>1519.5012</ele>
        <time>2011-06-12T11:57:56Z</time>
      </trkpt>
      <trkpt lat="45.62126" lon="6.05271">
        <ele>1519.9816</ele>
        <time>2011-06-12T11:57:57Z</time>
      </trkpt>
      <trkpt lat="45.62128" lon="6.05269">
        <ele>1513.7329</ele>
        <time>2011-06-12T11:57:58Z</time>
      </trkpt>
      <trkpt lat="45.62128" lon="6.05268">
        <ele>1510.8491</ele>
        <time>2011-06-12T11:57:58Z</time>
      </trkpt>
      <trkpt lat="45.62126" lon="6.05268">
        <ele>1509.8876</ele>
        <time>2011-06-12T11:57:59Z</time>
      </trkpt>
      <trkpt lat="45.62128" lon="6.05275">
        <ele>1517.5783</ele>
        <time>2011-06-12T11:58:01Z</time>
      </trkpt>
      <trkpt lat="45.62131" lon="6.05272">
        <ele>1516.1364</ele>
        <time>2011-06-12T11:58:03Z</time>
      </trkpt>
      <trkpt lat="45.62141" lon="6.05269">
        <ele>1515.6557</ele>
        <time>2011-06-12T11:58:06Z</time>
      </trkpt>
      <trkpt lat="45.62143" lon="6.05269">
        <ele>1517.5783</ele>
        <time>2011-06-12T11:58:07Z</time>
      </trkpt>
      <trkpt lat="45.62141" lon="6.05272">
        <ele>1524.7883</ele>
        <time>2011-06-12T11:58:08Z</time>
      </trkpt>
      <trkpt lat="45.62139" lon="6.05278">
        <ele>1534.4016</ele>
        <time>2011-06-12T11:58:10Z</time>
      </trkpt>
      <trkpt lat="45.62137" lon="6.05283">
        <ele>1536.8046</ele>
        <time>2011-06-12T11:58:12Z</time>
      </trkpt>
      <trkpt lat="45.62137" lon="6.05284">
        <ele>1537.7661</ele>
        <time>2011-06-12T11:58:12Z</time>
      </trkpt>
      <trkpt lat="45.62137" lon="6.05284">
        <ele>1537.2854</ele>
        <time>2011-06-12T11:58:12Z</time>
      </trkpt>
      <trkpt lat="45.62136" lon="6.05283">
        <ele>1535.3627</ele>
        <time>2011-06-12T11:58:13Z</time>
      </trkpt>
      <trkpt lat="45.62132" lon="6.0528">
        <ele>1529.114</ele>
        <time>2011-06-12T11:58:14Z</time>
      </trkpt>
      <trkpt lat="45.62131" lon="6.05279">
        <ele>1528.6335</ele>
        <time>2011-06-12T11:58:15Z</time>
      </trkpt>
      <trkpt lat="45.62129" lon="6.05273">
        <ele>1528.1528</ele>
        <time>2011-06-12T11:58:17Z</time>
      </trkpt>
      <trkpt lat="45.62128" lon="6.05279">
        <ele>1531.998</ele>
        <time>2011-06-12T11:58:19Z</time>
      </trkpt>
      <trkpt lat="45.6213" lon="6.05278">
        <ele>1535.3627</ele>
        <time>2011-06-12T11:58:19Z</time>
      </trkpt>
      <trkpt lat="45.62131" lon="6.05275">
        <ele>1534.8823</ele>
        <time>2011-06-12T11:58:20Z</time>
      </trkpt>
      <trkpt lat="45.62126" lon="6.0527">
        <ele>1531.5173</ele>
        <time>2011-06-12T11:58:23Z</time>
      </trkpt>
      <trkpt lat="45.62123" lon="6.05264">
        <ele>1525.2687</ele>
        <time>2011-06-12T11:58:25Z</time>
      </trkpt>
      <trkpt lat="45.62123" lon="6.05264">
        <ele>1520.4624</ele>
        <time>2011-06-12T11:58:25Z</time>
      </trkpt>
      <trkpt lat="45.62125" lon="6.05268">
        <ele>1521.4235</ele>
        <time>2011-06-12T11:58:26Z</time>
      </trkpt>
      <trkpt lat="45.62123" lon="6.05271">
        <ele>1519.5012</ele>
        <time>2011-06-12T11:58:27Z</time>
      </trkpt>
      <trkpt lat="45.62123" lon="6.05271">
        <ele>1519.9816</ele>
        <time>2011-06-12T11:58:28Z</time>
      </trkpt>
      <trkpt lat="45.62121" lon="6.0527">
        <ele>1524.3076</ele>
        <time>2011-06-12T11:58:28Z</time>
      </trkpt>
      <trkpt lat="45.62122" lon="6.05275">
        <ele>1525.7495</ele>
        <time>2011-06-12T11:58:30Z</time>
      </trkpt>
      <trkpt lat="45.62124" lon="6.05275">
        <ele>1526.2302</ele>
        <time>2011-06-12T11:58:30Z</time>
      </trkpt>
      <trkpt lat="45.62126" lon="6.05272">
        <ele>1522.8657</ele>
        <time>2011-06-12T11:58:32Z</time>
      </trkpt>
      <trkpt lat="45.62125" lon="6.05268">
        <ele>1525.2687</ele>
        <time>2011-06-12T11:58:33Z</time>
      </trkpt>
      <trkpt lat="45.62122" lon="6.05267">
        <ele>1524.7883</ele>
        <time>2011-06-12T11:58:34Z</time>
      </trkpt>
      <trkpt lat="45.62122" lon="6.05269">
        <ele>1516.1364</ele>
        <time>2011-06-12T11:58:35Z</time>
      </trkpt>
      <trkpt lat="45.62125" lon="6.05275">
        <ele>1524.3076</ele>
        <time>2011-06-12T11:58:37Z</time>
      </trkpt>
      <trkpt lat="45.62126" lon="6.05281">
        <ele>1532.9594</ele>
        <time>2011-06-12T11:58:39Z</time>
      </trkpt>
      <trkpt lat="45.62128" lon="6.05277">
        <ele>1535.3627</ele>
        <time>2011-06-12T11:58:40Z</time>
      </trkpt>
      <trkpt lat="45.62129" lon="6.05275">
        <ele>1536.8046</ele>
        <time>2011-06-12T11:58:41Z</time>
      </trkpt>
      <trkpt lat="45.62131" lon="6.05268">
        <ele>1540.6499</ele>
        <time>2011-06-12T11:58:43Z</time>
      </trkpt>
      <trkpt lat="45.62129" lon="6.05269">
        <ele>1538.2468</ele>
        <time>2011-06-12T11:58:44Z</time>
      </trkpt>
      <trkpt lat="45.62125" lon="6.05272">
        <ele>1531.998</ele>
        <time>2011-06-12T11:58:45Z</time>
      </trkpt>
      <trkpt lat="45.62126" lon="6.05268">
        <ele>1525.2687</ele>
        <time>2011-06-12T11:58:46Z</time>
      </trkpt>
      <trkpt lat="45.62125" lon="6.05263">
        <ele>1523.8269</ele>
        <time>2011-06-12T11:58:48Z</time>
      </trkpt>
      <trkpt lat="45.62127" lon="6.05262">
        <ele>1527.1916</ele>
        <time>2011-06-12T11:58:48Z</time>
      </trkpt>
      <trkpt lat="45.62131" lon="6.05266">
        <ele>1524.3076</ele>
        <time>2011-06-12T11:58:50Z</time>
      </trkpt>
      <trkpt lat="45.62128" lon="6.05269">
        <ele>1516.1364</ele>
        <time>2011-06-12T11:58:52Z</time>
      </trkpt>
      <trkpt lat="45.62128" lon="6.05271">
        <ele>1515.175</ele>
        <time>2011-06-12T11:58:52Z</time>
      </trkpt>
      <trkpt lat="45.62125" lon="6.0527">
        <ele>1512.7717</ele>
        <time>2011-06-12T11:58:53Z</time>
      </trkpt>
      <trkpt lat="45.62126" lon="6.0527">
        <ele>1510.8491</ele>
        <time>2011-06-12T11:58:54Z</time>
      </trkpt>
      <trkpt lat="45.62126" lon="6.05271">
        <ele>1510.3684</ele>
        <time>2011-06-12T11:58:54Z</time>
      </trkpt>
      <trkpt lat="45.62126" lon="6.05271">
        <ele>1508.9265</ele>
        <time>2011-06-12T11:58:54Z</time>
      </trkpt>
      <trkpt lat="45.62129" lon="6.05273">
        <ele>1505.562</ele>
        <time>2011-06-12T11:58:56Z</time>
      </trkpt>
      <trkpt lat="45.62128" lon="6.0527">
        <ele>1505.562</ele>
        <time>2011-06-12T11:58:57Z</time>
      </trkpt>
      <trkpt lat="45.62124" lon="6.05267">
        <ele>1503.6394</ele>
        <time>2011-06-12T11:58:58Z</time>
      </trkpt>
      <trkpt lat="45.62122" lon="6.05266">
        <ele>1505.0812</ele>
        <time>2011-06-12T11:58:59Z</time>
      </trkpt>
      <trkpt lat="45.6212" lon="6.05266">
        <ele>1505.562</ele>
        <time>2011-06-12T11:59:00Z</time>
      </trkpt>
      <trkpt lat="45.62123" lon="6.05267">
        <ele>1513.7329</ele>
        <time>2011-06-12T11:59:02Z</time>
      </trkpt>
      <trkpt lat="45.62127" lon="6.05277">
        <ele>1533.4401</ele>
        <time>2011-06-12T11:59:05Z</time>
      </trkpt>
      <trkpt lat="45.62127" lon="6.05277">
        <ele>1533.4401</ele>
        <time>2011-06-12T11:59:05Z</time>
      </trkpt>
      <trkpt lat="45.62127" lon="6.05277">
        <ele>1531.5173</ele>
        <time>2011-06-12T11:59:05Z</time>
      </trkpt>
      <trkpt lat="45.62127" lon="6.05276">
        <ele>1527.6721</ele>
        <time>2011-06-12T11:59:05Z</time>
      </trkpt>
      <trkpt lat="45.62125" lon="6.05274">
        <ele>1525.7495</ele>
        <time>2011-06-12T11:59:07Z</time>
      </trkpt>
      <trkpt lat="45.62124" lon="6.05271">
        <ele>1521.9042</ele>
        <time>2011-06-12T11:59:08Z</time>
      </trkpt>
      <trkpt lat="45.62128" lon="6.05266">
        <ele>1512.291</ele>
        <time>2011-06-12T11:59:10Z</time>
      </trkpt>
      <trkpt lat="45.62128" lon="6.05267">
        <ele>1514.6943</ele>
        <time>2011-06-12T11:59:10Z</time>
      </trkpt>
      <trkpt lat="45.62128" lon="6.05272">
        <ele>1520.4624</ele>
        <time>2011-06-12T11:59:11Z</time>
      </trkpt>
      <trkpt lat="45.6213" lon="6.05273">
        <ele>1521.9042</ele>
        <time>2011-06-12T11:59:12Z</time>
      </trkpt>
      <trkpt lat="45.62129" lon="6.05272">
        <ele>1522.385</ele>
        <time>2011-06-12T11:59:13Z</time>
      </trkpt>
      <trkpt lat="45.62126" lon="6.05267">
        <ele>1523.8269</ele>
        <time>2011-06-12T11:59:14Z</time>
      </trkpt>
      <trkpt lat="45.62124" lon="6.05262">
        <ele>1524.3076</ele>
        <time>2011-06-12T11:59:16Z</time>
      </trkpt>
      <trkpt lat="45.62131" lon="6.05261">
        <ele>1521.4235</ele>
        <time>2011-06-12T11:59:19Z</time>
      </trkpt>
      <trkpt lat="45.62134" lon="6.05261">
        <ele>1519.9816</ele>
        <time>2011-06-12T11:59:20Z</time>
      </trkpt>
      <trkpt lat="45.62134" lon="6.05262">
        <ele>1521.9042</ele>
        <time>2011-06-12T11:59:20Z</time>
      </trkpt>
      <trkpt lat="45.62131" lon="6.05265">
        <ele>1522.385</ele>
        <time>2011-06-12T11:59:22Z</time>
      </trkpt>
      <trkpt lat="45.62127" lon="6.05268">
        <ele>1521.4235</ele>
        <time>2011-06-12T11:59:24Z</time>
      </trkpt>
      <trkpt lat="45.62127" lon="6.05274">
        <ele>1525.2687</ele>
        <time>2011-06-12T11:59:25Z</time>
      </trkpt>
      <trkpt lat="45.62125" lon="6.05272">
        <ele>1523.3464</ele>
        <time>2011-06-12T11:59:26Z</time>
      </trkpt>
      <trkpt lat="45.62125" lon="6.05271">
        <ele>1522.8657</ele>
        <time>2011-06-12T11:59:26Z</time>
      </trkpt>
      <trkpt lat="45.6213" lon="6.05273">
        <ele>1526.2302</ele>
        <time>2011-06-12T11:59:29Z</time>
      </trkpt>
      <trkpt lat="45.6213" lon="6.05271">
        <ele>1522.385</ele>
        <time>2011-06-12T11:59:29Z</time>
      </trkpt>
      <trkpt lat="45.62131" lon="6.05271">
        <ele>1521.9042</ele>
        <time>2011-06-12T11:59:30Z</time>
      </trkpt>
      <trkpt lat="45.62129" lon="6.0527">
        <ele>1522.8657</ele>
        <time>2011-06-12T11:59:30Z</time>
      </trkpt>
      <trkpt lat="45.6213" lon="6.05272">
        <ele>1523.3464</ele>
        <time>2011-06-12T11:59:31Z</time>
      </trkpt>
      <trkpt lat="45.62129" lon="6.05274">
        <ele>1520.9431</ele>
        <time>2011-06-12T11:59:32Z</time>
      </trkpt>
      <trkpt lat="45.62126" lon="6.05279">
        <ele>1539.208</ele>
        <time>2011-06-12T11:59:34Z</time>
      </trkpt>
      <trkpt lat="45.62118" lon="6.05272">
        <ele>1541.6113</ele>
        <time>2011-06-12T11:59:38Z</time>
      </trkpt>
      <trkpt lat="45.62123" lon="6.05264">
        <ele>1524.7883</ele>
        <time>2011-06-12T11:59:41Z</time>
      </trkpt>
      <trkpt lat="45.62131" lon="6.05261">
        <ele>1516.6171</ele>
        <time>2011-06-12T11:59:44Z</time>
      </trkpt>
      <trkpt lat="45.62127" lon="6.05263">
        <ele>1518.5397</ele>
        <time>2011-06-12T11:59:45Z</time>
      </trkpt>
      <trkpt lat="45.62132" lon="6.05266">
        <ele>1521.4235</ele>
        <time>2011-06-12T11:59:47Z</time>
      </trkpt>
      <trkpt lat="45.62125" lon="6.05265">
        <ele>1532.9594</ele>
        <time>2011-06-12T11:59:50Z</time>
      </trkpt>
      <trkpt lat="45.62127" lon="6.05268">
        <ele>1530.5561</ele>
        <time>2011-06-12T11:59:51Z</time>
      </trkpt>
      <trkpt lat="45.62133" lon="6.05275">
        <ele>1521.4235</ele>
        <time>2011-06-12T11:59:54Z</time>
      </trkpt>
      <trkpt lat="45.62133" lon="6.05279">
        <ele>1522.8657</ele>
        <time>2011-06-12T11:59:56Z</time>
      </trkpt>
      <trkpt lat="45.62137" lon="6.05279">
        <ele>1532.479</ele>
        <time>2011-06-12T11:59:57Z</time>
      </trkpt>
      <trkpt lat="45.62139" lon="6.05271">
        <ele>1526.2302</ele>
        <time>2011-06-12T11:59:59Z</time>
      </trkpt>
      <trkpt lat="45.62138" lon="6.05271">
        <ele>1531.0368</ele>
        <time>2011-06-12T12:00:00Z</time>
      </trkpt>
      <trkpt lat="45.62136" lon="6.05271">
        <ele>1533.4401</ele>
        <time>2011-06-12T12:00:01Z</time>
      </trkpt>
      <trkpt lat="45.62137" lon="6.05269">
        <ele>1535.3627</ele>
        <time>2011-06-12T12:00:02Z</time>
      </trkpt>
      <trkpt lat="45.62142" lon="6.05264">
        <ele>1529.5947</ele>
        <time>2011-06-12T12:00:04Z</time>
      </trkpt>
      <trkpt lat="45.62146" lon="6.05261">
        <ele>1522.385</ele>
        <time>2011-06-12T12:00:06Z</time>
      </trkpt>
      <trkpt lat="45.62142" lon="6.05263">
        <ele>1519.9816</ele>
        <time>2011-06-12T12:00:07Z</time>
      </trkpt>
      <trkpt lat="45.62132" lon="6.05276">
        <ele>1527.1916</ele>
        <time>2011-06-12T12:00:13Z</time>
      </trkpt>
      <trkpt lat="45.62131" lon="6.05274">
        <ele>1528.6335</ele>
        <time>2011-06-12T12:00:14Z</time>
      </trkpt>
      <trkpt lat="45.6213" lon="6.05277">
        <ele>1529.114</ele>
        <time>2011-06-12T12:00:15Z</time>
      </trkpt>
      <trkpt lat="45.6213" lon="6.05276">
        <ele>1529.5947</ele>
        <time>2011-06-12T12:00:15Z</time>
      </trkpt>
      <trkpt lat="45.62128" lon="6.05275">
        <ele>1533.4401</ele>
        <time>2011-06-12T12:00:16Z</time>
      </trkpt>
      <trkpt lat="45.62125" lon="6.05273">
        <ele>1533.4401</ele>
        <time>2011-06-12T12:00:17Z</time>
      </trkpt>
      <trkpt lat="45.62123" lon="6.05271">
        <ele>1534.8823</ele>
        <time>2011-06-12T12:00:18Z</time>
      </trkpt>
      <trkpt lat="45.62132" lon="6.05269">
        <ele>1539.208</ele>
        <time>2011-06-12T12:00:22Z</time>
      </trkpt>
      <trkpt lat="45.62137" lon="6.05268">
        <ele>1540.1694</ele>
        <time>2011-06-12T12:00:24Z</time>
      </trkpt>
      <trkpt lat="45.62137" lon="6.05269">
        <ele>1556.031</ele>
        <time>2011-06-12T12:00:24Z</time>
      </trkpt>
      <trkpt lat="45.62136" lon="6.05268">
        <ele>1554.5891</ele>
        <time>2011-06-12T12:00:24Z</time>
      </trkpt>
      <trkpt lat="45.62138" lon="6.05267">
        <ele>1544.9758</ele>
        <time>2011-06-12T12:00:25Z</time>
      </trkpt>
      <trkpt lat="45.62139" lon="6.05269">
        <ele>1541.1306</ele>
        <time>2011-06-12T12:00:26Z</time>
      </trkpt>
      <trkpt lat="45.62132" lon="6.05267">
        <ele>1526.7109</ele>
        <time>2011-06-12T12:00:29Z</time>
      </trkpt>
      <trkpt lat="45.62134" lon="6.0527">
        <ele>1529.114</ele>
        <time>2011-06-12T12:00:30Z</time>
      </trkpt>
      <trkpt lat="45.62137" lon="6.05276">
        <ele>1535.3627</ele>
        <time>2011-06-12T12:00:32Z</time>
      </trkpt>
      <trkpt lat="45.62136" lon="6.05278">
        <ele>1536.3242</ele>
        <time>2011-06-12T12:00:33Z</time>
      </trkpt>
      <trkpt lat="45.62131" lon="6.05273">
        <ele>1535.3627</ele>
        <time>2011-06-12T12:00:35Z</time>
      </trkpt>
      <trkpt lat="45.62129" lon="6.05273">
        <ele>1534.4016</ele>
        <time>2011-06-12T12:00:36Z</time>
      </trkpt>
      <trkpt lat="45.62126" lon="6.05272">
        <ele>1535.3627</ele>
        <time>2011-06-12T12:00:37Z</time>
      </trkpt>
      <trkpt lat="45.62125" lon="6.05268">
        <ele>1531.998</ele>
        <time>2011-06-12T12:00:38Z</time>
      </trkpt>
      <trkpt lat="45.62123" lon="6.0526">
        <ele>1522.8657</ele>
        <time>2011-06-12T12:00:41Z</time>
      </trkpt>
      <trkpt lat="45.62126" lon="6.05264">
        <ele>1521.9042</ele>
        <time>2011-06-12T12:00:42Z</time>
      </trkpt>
      <trkpt lat="45.62128" lon="6.05269">
        <ele>1525.7495</ele>
        <time>2011-06-12T12:00:44Z</time>
      </trkpt>
      <trkpt lat="45.62126" lon="6.05275">
        <ele>1523.3464</ele>
        <time>2011-06-12T12:00:46Z</time>
      </trkpt>
      <trkpt lat="45.62126" lon="6.05274">
        <ele>1528.6335</ele>
        <time>2011-06-12T12:00:46Z</time>
      </trkpt>
      <trkpt lat="45.62129" lon="6.05276">
        <ele>1536.3242</ele>
        <time>2011-06-12T12:00:48Z</time>
      </trkpt>
      <trkpt lat="45.62125" lon="6.05268">
        <ele>1520.9431</ele>
        <time>2011-06-12T12:00:51Z</time>
      </trkpt>
      <trkpt lat="45.62125" lon="6.05267">
        <ele>1517.0979</ele>
        <time>2011-06-12T12:00:51Z</time>
      </trkpt>
      <trkpt lat="45.62124" lon="6.05266">
        <ele>1516.1364</ele>
        <time>2011-06-12T12:00:52Z</time>
      </trkpt>
      <trkpt lat="45.62126" lon="6.05272">
        <ele>1525.2687</ele>
        <time>2011-06-12T12:00:53Z</time>
      </trkpt>
      <trkpt lat="45.62123" lon="6.05269">
        <ele>1520.9431</ele>
        <time>2011-06-12T12:00:55Z</time>
      </trkpt>
      <trkpt lat="45.62126" lon="6.0527">
        <ele>1521.4235</ele>
        <time>2011-06-12T12:00:56Z</time>
      </trkpt>
      <trkpt lat="45.62127" lon="6.05274">
        <ele>1526.2302</ele>
        <time>2011-06-12T12:00:57Z</time>
      </trkpt>
      <trkpt lat="45.62129" lon="6.05269">
        <ele>1526.2302</ele>
        <time>2011-06-12T12:00:59Z</time>
      </trkpt>
      <trkpt lat="45.62129" lon="6.05269">
        <ele>1526.7109</ele>
        <time>2011-06-12T12:00:59Z</time>
      </trkpt>
      <trkpt lat="45.62129" lon="6.05269">
        <ele>1526.7109</ele>
        <time>2011-06-12T12:00:59Z</time>
      </trkpt>
      <trkpt lat="45.6213" lon="6.05269">
        <ele>1527.1916</ele>
        <time>2011-06-12T12:00:59Z</time>
      </trkpt>
      <trkpt lat="45.62131" lon="6.05272">
        <ele>1538.7275</ele>
        <time>2011-06-12T12:01:00Z</time>
      </trkpt>
      <trkpt lat="45.6213" lon="6.05274">
        <ele>1546.4179</ele>
        <time>2011-06-12T12:01:01Z</time>
      </trkpt>
      <trkpt lat="45.62132" lon="6.05283">
        <ele>1545.9372</ele>
        <time>2011-06-12T12:01:03Z</time>
      </trkpt>
      <trkpt lat="45.62125" lon="6.05279">
        <ele>1540.6499</ele>
        <time>2011-06-12T12:01:06Z</time>
      </trkpt>
      <trkpt lat="45.62124" lon="6.05269">
        <ele>1527.6721</ele>
        <time>2011-06-12T12:01:09Z</time>
      </trkpt>
      <trkpt lat="45.62127" lon="6.05271">
        <ele>1529.5947</ele>
        <time>2011-06-12T12:01:11Z</time>
      </trkpt>
      <trkpt lat="45.62129" lon="6.05273">
        <ele>1536.3242</ele>
        <time>2011-06-12T12:01:12Z</time>
      </trkpt>
      <trkpt lat="45.62129" lon="6.05273">
        <ele>1535.8435</ele>
        <time>2011-06-12T12:01:12Z</time>
      </trkpt>
      <trkpt lat="45.62127" lon="6.05272">
        <ele>1533.9208</ele>
        <time>2011-06-12T12:01:13Z</time>
      </trkpt>
      <trkpt lat="45.62128" lon="6.05269">
        <ele>1536.3242</ele>
        <time>2011-06-12T12:01:14Z</time>
      </trkpt>
      <trkpt lat="45.62131" lon="6.05275">
        <ele>1556.5117</ele>
        <time>2011-06-12T12:01:16Z</time>
      </trkpt>
      <trkpt lat="45.62132" lon="6.05275">
        <ele>1545.4565</ele>
        <time>2011-06-12T12:01:16Z</time>
      </trkpt>
      <trkpt lat="45.6213" lon="6.05277">
        <ele>1536.8046</ele>
        <time>2011-06-12T12:01:17Z</time>
      </trkpt>
      <trkpt lat="45.6213" lon="6.05275">
        <ele>1526.7109</ele>
        <time>2011-06-12T12:01:18Z</time>
      </trkpt>
      <trkpt lat="45.62132" lon="6.05273">
        <ele>1524.3076</ele>
        <time>2011-06-12T12:01:19Z</time>
      </trkpt>
      <trkpt lat="45.62132" lon="6.05271">
        <ele>1524.3076</ele>
        <time>2011-06-12T12:01:19Z</time>
      </trkpt>
      <trkpt lat="45.62129" lon="6.05264">
        <ele>1527.1916</ele>
        <time>2011-06-12T12:01:22Z</time>
      </trkpt>
      <trkpt lat="45.62129" lon="6.0527">
        <ele>1526.7109</ele>
        <time>2011-06-12T12:01:23Z</time>
      </trkpt>
      <trkpt lat="45.62129" lon="6.05278">
        <ele>1535.3627</ele>
        <time>2011-06-12T12:01:26Z</time>
      </trkpt>
      <trkpt lat="45.62125" lon="6.05275">
        <ele>1536.3242</ele>
        <time>2011-06-12T12:01:27Z</time>
      </trkpt>
      <trkpt lat="45.62124" lon="6.05268">
        <ele>1529.114</ele>
        <time>2011-06-12T12:01:29Z</time>
      </trkpt>
      <trkpt lat="45.62123" lon="6.05272">
        <ele>1519.5012</ele>
        <time>2011-06-12T12:01:30Z</time>
      </trkpt>
      <trkpt lat="45.62125" lon="6.05266">
        <ele>1496.9099</ele>
        <time>2011-06-12T12:01:32Z</time>
      </trkpt>
      <trkpt lat="45.62127" lon="6.05271">
        <ele>1507.9653</ele>
        <time>2011-06-12T12:01:34Z</time>
      </trkpt>
      <trkpt lat="45.62128" lon="6.05272">
        <ele>1509.8876</ele>
        <time>2011-06-12T12:01:34Z</time>
      </trkpt>
      <trkpt lat="45.62128" lon="6.05272">
        <ele>1513.2524</ele>
        <time>2011-06-12T12:01:34Z</time>
      </trkpt>
      <trkpt lat="45.62128" lon="6.05274">
        <ele>1519.9816</ele>
        <time>2011-06-12T12:01:35Z</time>
      </trkpt>
      <trkpt lat="45.62125" lon="6.05273">
        <ele>1520.9431</ele>
        <time>2011-06-12T12:01:36Z</time>
      </trkpt>
      <trkpt lat="45.62122" lon="6.05272">
        <ele>1521.4235</ele>
        <time>2011-06-12T12:01:37Z</time>
      </trkpt>
      <trkpt lat="45.62129" lon="6.05273">
        <ele>1523.8269</ele>
        <time>2011-06-12T12:01:40Z</time>
      </trkpt>
      <trkpt lat="45.6213" lon="6.05273">
        <ele>1524.3076</ele>
        <time>2011-06-12T12:01:40Z</time>
      </trkpt>
      <trkpt lat="45.62131" lon="6.05275">
        <ele>1527.1916</ele>
        <time>2011-06-12T12:01:41Z</time>
      </trkpt>
      <trkpt lat="45.62131" lon="6.05273">
        <ele>1531.5173</ele>
        <time>2011-06-12T12:01:42Z</time>
      </trkpt>
      <trkpt lat="45.62127" lon="6.05266">
        <ele>1529.114</ele>
        <time>2011-06-12T12:01:44Z</time>
      </trkpt>
      <trkpt lat="45.62129" lon="6.05266">
        <ele>1529.114</ele>
        <time>2011-06-12T12:01:45Z</time>
      </trkpt>
      <trkpt lat="45.62128" lon="6.05268">
        <ele>1524.7883</ele>
        <time>2011-06-12T12:01:46Z</time>
      </trkpt>
      <trkpt lat="45.62132" lon="6.05269">
        <ele>1525.7495</ele>
        <time>2011-06-12T12:01:48Z</time>
      </trkpt>
      <trkpt lat="45.62131" lon="6.0527">
        <ele>1523.8269</ele>
        <time>2011-06-12T12:01:48Z</time>
      </trkpt>
      <trkpt lat="45.62132" lon="6.0527">
        <ele>1524.3076</ele>
        <time>2011-06-12T12:01:49Z</time>
      </trkpt>
      <trkpt lat="45.62131" lon="6.05268">
        <ele>1524.3076</ele>
        <time>2011-06-12T12:01:50Z</time>
      </trkpt>
      <trkpt lat="45.62128" lon="6.05267">
        <ele>1525.2687</ele>
        <time>2011-06-12T12:01:51Z</time>
      </trkpt>
      <trkpt lat="45.62128" lon="6.05268">
        <ele>1521.4235</ele>
        <time>2011-06-12T12:01:51Z</time>
      </trkpt>
      <trkpt lat="45.62122" lon="6.05265">
        <ele>1518.5397</ele>
        <time>2011-06-12T12:01:54Z</time>
      </trkpt>
      <trkpt lat="45.62109" lon="6.05261">
        <ele>1520.9431</ele>
        <time>2011-06-12T12:01:59Z</time>
      </trkpt>
      <trkpt lat="45.62115" lon="6.05265">
        <ele>1525.7495</ele>
        <time>2011-06-12T12:02:02Z</time>
      </trkpt>
      <trkpt lat="45.62115" lon="6.05271">
        <ele>1522.8657</ele>
        <time>2011-06-12T12:02:04Z</time>
      </trkpt>
      <trkpt lat="45.62121" lon="6.0527">
        <ele>1518.5397</ele>
        <time>2011-06-12T12:02:06Z</time>
      </trkpt>
      <trkpt lat="45.62122" lon="6.05269">
        <ele>1518.5397</ele>
        <time>2011-06-12T12:02:06Z</time>
      </trkpt>
      <trkpt lat="45.62125" lon="6.0527">
        <ele>1519.9816</ele>
        <time>2011-06-12T12:02:08Z</time>
      </trkpt>
      <trkpt lat="45.62135" lon="6.05267">
        <ele>1519.9816</ele>
        <time>2011-06-12T12:02:11Z</time>
      </trkpt>
      <trkpt lat="45.62133" lon="6.05267">
        <ele>1518.5397</ele>
        <time>2011-06-12T12:02:12Z</time>
      </trkpt>
      <trkpt lat="45.62128" lon="6.05269">
        <ele>1517.0979</ele>
        <time>2011-06-12T12:02:14Z</time>
      </trkpt>
      <trkpt lat="45.6213" lon="6.05268">
        <ele>1519.9816</ele>
        <time>2011-06-12T12:02:15Z</time>
      </trkpt>
      <trkpt lat="45.62129" lon="6.05268">
        <ele>1522.385</ele>
        <time>2011-06-12T12:02:15Z</time>
      </trkpt>
      <trkpt lat="45.62125" lon="6.05268">
        <ele>1523.8269</ele>
        <time>2011-06-12T12:02:17Z</time>
      </trkpt>
      <trkpt lat="45.62131" lon="6.0527">
        <ele>1525.7495</ele>
        <time>2011-06-12T12:02:19Z</time>
      </trkpt>
      <trkpt lat="45.62128" lon="6.05271">
        <ele>1531.0368</ele>
        <time>2011-06-12T12:02:20Z</time>
      </trkpt>
      <trkpt lat="45.62126" lon="6.0528">
        <ele>1532.479</ele>
        <time>2011-06-12T12:02:23Z</time>
      </trkpt>
      <trkpt lat="45.62124" lon="6.05278">
        <ele>1528.1528</ele>
        <time>2011-06-12T12:02:24Z</time>
      </trkpt>
      <trkpt lat="45.6213" lon="6.05267">
        <ele>1517.0979</ele>
        <time>2011-06-12T12:02:28Z</time>
      </trkpt>
      <trkpt lat="45.62132" lon="6.05262">
        <ele>1508.9265</ele>
        <time>2011-06-12T12:02:29Z</time>
      </trkpt>
      <trkpt lat="45.62127" lon="6.05266">
        <ele>1511.8105</ele>
        <time>2011-06-12T12:02:32Z</time>
      </trkpt>
      <trkpt lat="45.62124" lon="6.05264">
        <ele>1514.2136</ele>
        <time>2011-06-12T12:02:33Z</time>
      </trkpt>
      <trkpt lat="45.62126" lon="6.05263">
        <ele>1514.2136</ele>
        <time>2011-06-12T12:02:34Z</time>
      </trkpt>
      <trkpt lat="45.62127" lon="6.05262">
        <ele>1515.6557</ele>
        <time>2011-06-12T12:02:34Z</time>
      </trkpt>
      <trkpt lat="45.62126" lon="6.05266">
        <ele>1518.059</ele>
        <time>2011-06-12T12:02:36Z</time>
      </trkpt>
      <trkpt lat="45.62126" lon="6.05267">
        <ele>1518.059</ele>
        <time>2011-06-12T12:02:36Z</time>
      </trkpt>
      <trkpt lat="45.62127" lon="6.05269">
        <ele>1517.5783</ele>
        <time>2011-06-12T12:02:36Z</time>
      </trkpt>
      <trkpt lat="45.62126" lon="6.0527">
        <ele>1519.0205</ele>
        <time>2011-06-12T12:02:37Z</time>
      </trkpt>
      <trkpt lat="45.62125" lon="6.05272">
        <ele>1520.4624</ele>
        <time>2011-06-12T12:02:38Z</time>
      </trkpt>
      <trkpt lat="45.62124" lon="6.05271">
        <ele>1520.4624</ele>
        <time>2011-06-12T12:02:38Z</time>
      </trkpt>
      <trkpt lat="45.62124" lon="6.05272">
        <ele>1516.6171</ele>
        <time>2011-06-12T12:02:38Z</time>
      </trkpt>
      <trkpt lat="45.62118" lon="6.05273">
        <ele>1517.0979</ele>
        <time>2011-06-12T12:02:41Z</time>
      </trkpt>
      <trkpt lat="45.62118" lon="6.05274">
        <ele>1520.9431</ele>
        <time>2011-06-12T12:02:41Z</time>
      </trkpt>
      <trkpt lat="45.62117" lon="6.05271">
        <ele>1523.8269</ele>
        <time>2011-06-12T12:02:42Z</time>
      </trkpt>
      <trkpt lat="45.62114" lon="6.05274">
        <ele>1523.8269</ele>
        <time>2011-06-12T12:02:43Z</time>
      </trkpt>
      <trkpt lat="45.62116" lon="6.05275">
        <ele>1526.2302</ele>
        <time>2011-06-12T12:02:44Z</time>
      </trkpt>
      <trkpt lat="45.62118" lon="6.05277">
        <ele>1525.7495</ele>
        <time>2011-06-12T12:02:45Z</time>
      </trkpt>
      <trkpt lat="45.6212" lon="6.05279">
        <ele>1526.2302</ele>
        <time>2011-06-12T12:02:46Z</time>
      </trkpt>
      <trkpt lat="45.62124" lon="6.05279">
        <ele>1524.7883</ele>
        <time>2011-06-12T12:02:48Z</time>
      </trkpt>
      <trkpt lat="45.62122" lon="6.05276">
        <ele>1522.8657</ele>
        <time>2011-06-12T12:02:49Z</time>
      </trkpt>
      <trkpt lat="45.62122" lon="6.05277">
        <ele>1521.4235</ele>
        <time>2011-06-12T12:02:49Z</time>
      </trkpt>
      <trkpt lat="45.62123" lon="6.05274">
        <ele>1517.5783</ele>
        <time>2011-06-12T12:02:50Z</time>
      </trkpt>
      <trkpt lat="45.62123" lon="6.05276">
        <ele>1517.5783</ele>
        <time>2011-06-12T12:02:50Z</time>
      </trkpt>
      <trkpt lat="45.62125" lon="6.05279">
        <ele>1528.6335</ele>
        <time>2011-06-12T12:02:52Z</time>
      </trkpt>
      <trkpt lat="45.62122" lon="6.05277">
        <ele>1529.114</ele>
        <time>2011-06-12T12:02:53Z</time>
      </trkpt>
      <trkpt lat="45.62124" lon="6.05276">
        <ele>1524.7883</ele>
        <time>2011-06-12T12:02:54Z</time>
      </trkpt>
      <trkpt lat="45.62123" lon="6.05274">
        <ele>1523.3464</ele>
        <time>2011-06-12T12:02:54Z</time>
      </trkpt>
      <trkpt lat="45.62126" lon="6.05273">
        <ele>1524.3076</ele>
        <time>2011-06-12T12:02:55Z</time>
      </trkpt>
      <trkpt lat="45.62127" lon="6.05271">
        <ele>1522.385</ele>
        <time>2011-06-12T12:02:56Z</time>
      </trkpt>
      <trkpt lat="45.62125" lon="6.05272">
        <ele>1521.9042</ele>
        <time>2011-06-12T12:02:57Z</time>
      </trkpt>
      <trkpt lat="45.62124" lon="6.05273">
        <ele>1519.9816</ele>
        <time>2011-06-12T12:02:57Z</time>
      </trkpt>
      <trkpt lat="45.62124" lon="6.05273">
        <ele>1519.5012</ele>
        <time>2011-06-12T12:02:57Z</time>
      </trkpt>
      <trkpt lat="45.62124" lon="6.05273">
        <ele>1512.7717</ele>
        <time>2011-06-12T12:02:58Z</time>
      </trkpt>
      <trkpt lat="45.62123" lon="6.05275">
        <ele>1519.0205</ele>
        <time>2011-06-12T12:02:58Z</time>
      </trkpt>
      <trkpt lat="45.62123" lon="6.05274">
        <ele>1519.0205</ele>
        <time>2011-06-12T12:02:59Z</time>
      </trkpt>
      <trkpt lat="45.62125" lon="6.05272">
        <ele>1523.3464</ele>
        <time>2011-06-12T12:03:00Z</time>
      </trkpt>
      <trkpt lat="45.62123" lon="6.0527">
        <ele>1523.8269</ele>
        <time>2011-06-12T12:03:01Z</time>
      </trkpt>
      <trkpt lat="45.62125" lon="6.05272">
        <ele>1522.8657</ele>
        <time>2011-06-12T12:03:02Z</time>
      </trkpt>
      <trkpt lat="45.62124" lon="6.05278">
        <ele>1519.5012</ele>
        <time>2011-06-12T12:03:03Z</time>
      </trkpt>
      <trkpt lat="45.62125" lon="6.05281">
        <ele>1525.2687</ele>
        <time>2011-06-12T12:03:04Z</time>
      </trkpt>
      <trkpt lat="45.62127" lon="6.05278">
        <ele>1520.9431</ele>
        <time>2011-06-12T12:03:05Z</time>
      </trkpt>
      <trkpt lat="45.62122" lon="6.05272">
        <ele>1519.0205</ele>
        <time>2011-06-12T12:03:08Z</time>
      </trkpt>
      <trkpt lat="45.6212" lon="6.05269">
        <ele>1520.9431</ele>
        <time>2011-06-12T12:03:09Z</time>
      </trkpt>
      <trkpt lat="45.62124" lon="6.05267">
        <ele>1525.7495</ele>
        <time>2011-06-12T12:03:11Z</time>
      </trkpt>
      <trkpt lat="45.62124" lon="6.05266">
        <ele>1526.7109</ele>
        <time>2011-06-12T12:03:11Z</time>
      </trkpt>
      <trkpt lat="45.62128" lon="6.05266">
        <ele>1524.7883</ele>
        <time>2011-06-12T12:03:13Z</time>
      </trkpt>
      <trkpt lat="45.62126" lon="6.05266">
        <ele>1526.7109</ele>
        <time>2011-06-12T12:03:14Z</time>
      </trkpt>
      <trkpt lat="45.62132" lon="6.0526">
        <ele>1523.3464</ele>
        <time>2011-06-12T12:03:16Z</time>
      </trkpt>
      <trkpt lat="45.62132" lon="6.05257">
        <ele>1510.3684</ele>
        <time>2011-06-12T12:03:17Z</time>
      </trkpt>
      <trkpt lat="45.62132" lon="6.05256">
        <ele>1507.0039</ele>
        <time>2011-06-12T12:03:18Z</time>
      </trkpt>
      <trkpt lat="45.62131" lon="6.05264">
        <ele>1520.4624</ele>
        <time>2011-06-12T12:03:20Z</time>
      </trkpt>
      <trkpt lat="45.62132" lon="6.05272">
        <ele>1517.5783</ele>
        <time>2011-06-12T12:03:22Z</time>
      </trkpt>
      <trkpt lat="45.62133" lon="6.05272">
        <ele>1514.6943</ele>
        <time>2011-06-12T12:03:22Z</time>
      </trkpt>
      <trkpt lat="45.62134" lon="6.0527">
        <ele>1512.7717</ele>
        <time>2011-06-12T12:03:23Z</time>
      </trkpt>
      <trkpt lat="45.62144" lon="6.05266">
        <ele>1505.0812</ele>
        <time>2011-06-12T12:03:27Z</time>
      </trkpt>
      <trkpt lat="45.62145" lon="6.05266">
        <ele>1504.6005</ele>
        <time>2011-06-12T12:03:28Z</time>
      </trkpt>
      <trkpt lat="45.62144" lon="6.05266">
        <ele>1508.4458</ele>
        <time>2011-06-12T12:03:28Z</time>
      </trkpt>
      <trkpt lat="45.62142" lon="6.05267">
        <ele>1517.0979</ele>
        <time>2011-06-12T12:03:29Z</time>
      </trkpt>
      <trkpt lat="45.62139" lon="6.05269">
        <ele>1526.2302</ele>
        <time>2011-06-12T12:03:30Z</time>
      </trkpt>
      <trkpt lat="45.62138" lon="6.05273">
        <ele>1533.9208</ele>
        <time>2011-06-12T12:03:32Z</time>
      </trkpt>
      <trkpt lat="45.6214" lon="6.05284">
        <ele>1552.6665</ele>
        <time>2011-06-12T12:03:35Z</time>
      </trkpt>
      <trkpt lat="45.62136" lon="6.05275">
        <ele>1534.8823</ele>
        <time>2011-06-12T12:03:38Z</time>
      </trkpt>
      <trkpt lat="45.62134" lon="6.05273">
        <ele>1531.0368</ele>
        <time>2011-06-12T12:03:39Z</time>
      </trkpt>
      <trkpt lat="45.62128" lon="6.05265">
        <ele>1533.9208</ele>
        <time>2011-06-12T12:03:42Z</time>
      </trkpt>
      <trkpt lat="45.62126" lon="6.05265">
        <ele>1523.8269</ele>
        <time>2011-06-12T12:03:43Z</time>
      </trkpt>
      <trkpt lat="45.62132" lon="6.05262">
        <ele>1513.7329</ele>
        <time>2011-06-12T12:03:45Z</time>
      </trkpt>
      <trkpt lat="45.62136" lon="6.05262">
        <ele>1528.6335</ele>
        <time>2011-06-12T12:03:47Z</time>
      </trkpt>
      <trkpt lat="45.62132" lon="6.0526">
        <ele>1530.5561</ele>
        <time>2011-06-12T12:03:48Z</time>
      </trkpt>
      <trkpt lat="45.62127" lon="6.05263">
        <ele>1514.6943</ele>
        <time>2011-06-12T12:03:51Z</time>
      </trkpt>
      <trkpt lat="45.62128" lon="6.05269">
        <ele>1521.9042</ele>
        <time>2011-06-12T12:03:52Z</time>
      </trkpt>
      <trkpt lat="45.62126" lon="6.05268">
        <ele>1521.4235</ele>
        <time>2011-06-12T12:03:53Z</time>
      </trkpt>
      <trkpt lat="45.62123" lon="6.05267">
        <ele>1520.9431</ele>
        <time>2011-06-12T12:03:55Z</time>
      </trkpt>
      <trkpt lat="45.62123" lon="6.05268">
        <ele>1524.3076</ele>
        <time>2011-06-12T12:03:55Z</time>
      </trkpt>
      <trkpt lat="45.62123" lon="6.05267">
        <ele>1522.8657</ele>
        <time>2011-06-12T12:03:55Z</time>
      </trkpt>
      <trkpt lat="45.62123" lon="6.05267">
        <ele>1523.3464</ele>
        <time>2011-06-12T12:03:55Z</time>
      </trkpt>
      <trkpt lat="45.62124" lon="6.05266">
        <ele>1522.385</ele>
        <time>2011-06-12T12:03:55Z</time>
      </trkpt>
      <trkpt lat="45.62124" lon="6.05261">
        <ele>1518.5397</ele>
        <time>2011-06-12T12:03:57Z</time>
      </trkpt>
      <trkpt lat="45.62125" lon="6.05261">
        <ele>1513.2524</ele>
        <time>2011-06-12T12:03:57Z</time>
      </trkpt>
      <trkpt lat="45.62126" lon="6.05261">
        <ele>1514.2136</ele>
        <time>2011-06-12T12:03:58Z</time>
      </trkpt>
      <trkpt lat="45.62129" lon="6.0526">
        <ele>1511.3298</ele>
        <time>2011-06-12T12:03:59Z</time>
      </trkpt>
      <trkpt lat="45.62128" lon="6.05263">
        <ele>1507.9653</ele>
        <time>2011-06-12T12:04:00Z</time>
      </trkpt>
      <trkpt lat="45.62128" lon="6.05262">
        <ele>1502.6779</ele>
        <time>2011-06-12T12:04:00Z</time>
      </trkpt>
      <trkpt lat="45.62131" lon="6.05259">
        <ele>1505.0812</ele>
        <time>2011-06-12T12:04:02Z</time>
      </trkpt>
      <trkpt lat="45.62128" lon="6.0526">
        <ele>1509.4072</ele>
        <time>2011-06-12T12:04:03Z</time>
      </trkpt>
      <trkpt lat="45.62127" lon="6.05262">
        <ele>1507.4846</ele>
        <time>2011-06-12T12:04:04Z</time>
      </trkpt>
      <trkpt lat="45.62126" lon="6.05262">
        <ele>1509.4072</ele>
        <time>2011-06-12T12:04:04Z</time>
      </trkpt>
      <trkpt lat="45.62125" lon="6.05262">
        <ele>1510.3684</ele>
        <time>2011-06-12T12:04:04Z</time>
      </trkpt>
      <trkpt lat="45.62122" lon="6.05267">
        <ele>1514.6943</ele>
        <time>2011-06-12T12:04:06Z</time>
      </trkpt>
      <trkpt lat="45.62131" lon="6.05273">
        <ele>1529.5947</ele>
        <time>2011-06-12T12:04:10Z</time>
      </trkpt>
      <trkpt lat="45.62127" lon="6.0527">
        <ele>1523.8269</ele>
        <time>2011-06-12T12:04:12Z</time>
      </trkpt>
      <trkpt lat="45.62126" lon="6.05272">
        <ele>1521.9042</ele>
        <time>2011-06-12T12:04:12Z</time>
      </trkpt>
      <trkpt lat="45.62127" lon="6.05274">
        <ele>1521.9042</ele>
        <time>2011-06-12T12:04:13Z</time>
      </trkpt>
      <trkpt lat="45.62125" lon="6.05273">
        <ele>1522.8657</ele>
        <time>2011-06-12T12:04:14Z</time>
      </trkpt>
      <trkpt lat="45.62126" lon="6.05269">
        <ele>1517.5783</ele>
        <time>2011-06-12T12:04:15Z</time>
      </trkpt>
      <trkpt lat="45.62129" lon="6.05269">
        <ele>1516.1364</ele>
        <time>2011-06-12T12:04:16Z</time>
      </trkpt>
      <trkpt lat="45.62129" lon="6.05269">
        <ele>1516.6171</ele>
        <time>2011-06-12T12:04:17Z</time>
      </trkpt>
      <trkpt lat="45.62128" lon="6.05268">
        <ele>1516.6171</ele>
        <time>2011-06-12T12:04:17Z</time>
      </trkpt>
      <trkpt lat="45.62124" lon="6.05269">
        <ele>1516.6171</ele>
        <time>2011-06-12T12:04:19Z</time>
      </trkpt>
      <trkpt lat="45.62123" lon="6.05269">
        <ele>1518.059</ele>
        <time>2011-06-12T12:04:19Z</time>
      </trkpt>
      <trkpt lat="45.62125" lon="6.05266">
        <ele>1521.9042</ele>
        <time>2011-06-12T12:04:21Z</time>
      </trkpt>
      <trkpt lat="45.62129" lon="6.05265">
        <ele>1518.5397</ele>
        <time>2011-06-12T12:04:22Z</time>
      </trkpt>
      <trkpt lat="45.62133" lon="6.05267">
        <ele>1520.4624</ele>
        <time>2011-06-12T12:04:24Z</time>
      </trkpt>
      <trkpt lat="45.62135" lon="6.05268">
        <ele>1521.4235</ele>
        <time>2011-06-12T12:04:25Z</time>
      </trkpt>
      <trkpt lat="45.62136" lon="6.05268">
        <ele>1525.2687</ele>
        <time>2011-06-12T12:04:25Z</time>
      </trkpt>
      <trkpt lat="45.62133" lon="6.05266">
        <ele>1520.9431</ele>
        <time>2011-06-12T12:04:26Z</time>
      </trkpt>
      <trkpt lat="45.62132" lon="6.05266">
        <ele>1521.9042</ele>
        <time>2011-06-12T12:04:27Z</time>
      </trkpt>
      <trkpt lat="45.6213" lon="6.05263">
        <ele>1519.0205</ele>
        <time>2011-06-12T12:04:28Z</time>
      </trkpt>
      <trkpt lat="45.6213" lon="6.05263">
        <ele>1519.0205</ele>
        <time>2011-06-12T12:04:28Z</time>
      </trkpt>
      <trkpt lat="45.62129" lon="6.05263">
        <ele>1518.5397</ele>
        <time>2011-06-12T12:04:29Z</time>
      </trkpt>
      <trkpt lat="45.62128" lon="6.05262">
        <ele>1522.8657</ele>
        <time>2011-06-12T12:04:29Z</time>
      </trkpt>
      <trkpt lat="45.62125" lon="6.0526">
        <ele>1521.4235</ele>
        <time>2011-06-12T12:04:31Z</time>
      </trkpt>
      <trkpt lat="45.62124" lon="6.0526">
        <ele>1520.4624</ele>
        <time>2011-06-12T12:04:31Z</time>
      </trkpt>
      <trkpt lat="45.62123" lon="6.05261">
        <ele>1519.5012</ele>
        <time>2011-06-12T12:04:32Z</time>
      </trkpt>
      <trkpt lat="45.62122" lon="6.05261">
        <ele>1518.5397</ele>
        <time>2011-06-12T12:04:32Z</time>
      </trkpt>
      <trkpt lat="45.6212" lon="6.05268">
        <ele>1515.6557</ele>
        <time>2011-06-12T12:04:34Z</time>
      </trkpt>
      <trkpt lat="45.62121" lon="6.05266">
        <ele>1513.7329</ele>
        <time>2011-06-12T12:04:34Z</time>
      </trkpt>
      <trkpt lat="45.62121" lon="6.05266">
        <ele>1513.2524</ele>
        <time>2011-06-12T12:04:35Z</time>
      </trkpt>
      <trkpt lat="45.62122" lon="6.05262">
        <ele>1511.8105</ele>
        <time>2011-06-12T12:04:36Z</time>
      </trkpt>
      <trkpt lat="45.62126" lon="6.05264">
        <ele>1509.4072</ele>
        <time>2011-06-12T12:04:37Z</time>
      </trkpt>
      <trkpt lat="45.62126" lon="6.05264">
        <ele>1508.9265</ele>
        <time>2011-06-12T12:04:38Z</time>
      </trkpt>
      <trkpt lat="45.62125" lon="6.05263">
        <ele>1511.8105</ele>
        <time>2011-06-12T12:04:38Z</time>
      </trkpt>
      <trkpt lat="45.62128" lon="6.05265">
        <ele>1513.7329</ele>
        <time>2011-06-12T12:04:39Z</time>
      </trkpt>
      <trkpt lat="45.6213" lon="6.0527">
        <ele>1525.7495</ele>
        <time>2011-06-12T12:04:41Z</time>
      </trkpt>
      <trkpt lat="45.6213" lon="6.05269">
        <ele>1525.2687</ele>
        <time>2011-06-12T12:04:41Z</time>
      </trkpt>
      <trkpt lat="45.62129" lon="6.05269">
        <ele>1524.7883</ele>
        <time>2011-06-12T12:04:41Z</time>
      </trkpt>
      <trkpt lat="45.62124" lon="6.05267">
        <ele>1517.0979</ele>
        <time>2011-06-12T12:04:43Z</time>
      </trkpt>
      <trkpt lat="45.62123" lon="6.05266">
        <ele>1512.291</ele>
        <time>2011-06-12T12:04:44Z</time>
      </trkpt>
      <trkpt lat="45.62128" lon="6.0527">
        <ele>1506.0424</ele>
        <time>2011-06-12T12:04:46Z</time>
      </trkpt>
      <trkpt lat="45.62129" lon="6.05268">
        <ele>1509.4072</ele>
        <time>2011-06-12T12:04:47Z</time>
      </trkpt>
      <trkpt lat="45.62125" lon="6.05266">
        <ele>1513.2524</ele>
        <time>2011-06-12T12:04:48Z</time>
      </trkpt>
      <trkpt lat="45.62123" lon="6.05267">
        <ele>1517.5783</ele>
        <time>2011-06-12T12:04:49Z</time>
      </trkpt>
      <trkpt lat="45.62124" lon="6.05266">
        <ele>1517.0979</ele>
        <time>2011-06-12T12:04:50Z</time>
      </trkpt>
      <trkpt lat="45.62125" lon="6.05265">
        <ele>1516.1364</ele>
        <time>2011-06-12T12:04:51Z</time>
      </trkpt>
      <trkpt lat="45.62125" lon="6.05264">
        <ele>1514.2136</ele>
        <time>2011-06-12T12:04:51Z</time>
      </trkpt>
      <trkpt lat="45.62126" lon="6.0526">
        <ele>1519.5012</ele>
        <time>2011-06-12T12:04:52Z</time>
      </trkpt>
      <trkpt lat="45.62126" lon="6.0526">
        <ele>1524.3076</ele>
        <time>2011-06-12T12:04:52Z</time>
      </trkpt>
      <trkpt lat="45.62125" lon="6.05261">
        <ele>1522.385</ele>
        <time>2011-06-12T12:04:52Z</time>
      </trkpt>
      <trkpt lat="45.62127" lon="6.0526">
        <ele>1523.8269</ele>
        <time>2011-06-12T12:04:53Z</time>
      </trkpt>
      <trkpt lat="45.62126" lon="6.05259">
        <ele>1524.3076</ele>
        <time>2011-06-12T12:04:53Z</time>
      </trkpt>
      <trkpt lat="45.62126" lon="6.05257">
        <ele>1525.2687</ele>
        <time>2011-06-12T12:04:54Z</time>
      </trkpt>
      <trkpt lat="45.62126" lon="6.05257">
        <ele>1524.7883</ele>
        <time>2011-06-12T12:04:54Z</time>
      </trkpt>
      <trkpt lat="45.62125" lon="6.05258">
        <ele>1523.8269</ele>
        <time>2011-06-12T12:04:55Z</time>
      </trkpt>
      <trkpt lat="45.62126" lon="6.05262">
        <ele>1516.1364</ele>
        <time>2011-06-12T12:04:56Z</time>
      </trkpt>
      <trkpt lat="45.62126" lon="6.05261">
        <ele>1515.6557</ele>
        <time>2011-06-12T12:04:56Z</time>
      </trkpt>
      <trkpt lat="45.62121" lon="6.05265">
        <ele>1517.0979</ele>
        <time>2011-06-12T12:04:58Z</time>
      </trkpt>
      <trkpt lat="45.62124" lon="6.05267">
        <ele>1513.7329</ele>
        <time>2011-06-12T12:05:00Z</time>
      </trkpt>
      <trkpt lat="45.62124" lon="6.05268">
        <ele>1511.3298</ele>
        <time>2011-06-12T12:05:00Z</time>
      </trkpt>
      <trkpt lat="45.62125" lon="6.05273">
        <ele>1513.2524</ele>
        <time>2011-06-12T12:05:01Z</time>
      </trkpt>
      <trkpt lat="45.62125" lon="6.05272">
        <ele>1513.2524</ele>
        <time>2011-06-12T12:05:02Z</time>
      </trkpt>
      <trkpt lat="45.62127" lon="6.05273">
        <ele>1513.2524</ele>
        <time>2011-06-12T12:05:02Z</time>
      </trkpt>
      <trkpt lat="45.62127" lon="6.05273">
        <ele>1516.6171</ele>
        <time>2011-06-12T12:05:03Z</time>
      </trkpt>
      <trkpt lat="45.62127" lon="6.05267">
        <ele>1516.6171</ele>
        <time>2011-06-12T12:05:04Z</time>
      </trkpt>
      <trkpt lat="45.62124" lon="6.05265">
        <ele>1515.175</ele>
        <time>2011-06-12T12:05:05Z</time>
      </trkpt>
      <trkpt lat="45.62126" lon="6.05263">
        <ele>1515.6557</ele>
        <time>2011-06-12T12:05:06Z</time>
      </trkpt>
      <trkpt lat="45.62125" lon="6.05265">
        <ele>1514.2136</ele>
        <time>2011-06-12T12:05:07Z</time>
      </trkpt>
      <trkpt lat="45.62127" lon="6.05264">
        <ele>1514.2136</ele>
        <time>2011-06-12T12:05:07Z</time>
      </trkpt>
      <trkpt lat="45.62129" lon="6.05266">
        <ele>1515.6557</ele>
        <time>2011-06-12T12:05:08Z</time>
      </trkpt>
      <trkpt lat="45.62126" lon="6.05266">
        <ele>1513.2524</ele>
        <time>2011-06-12T12:05:09Z</time>
      </trkpt>
      <trkpt lat="45.62125" lon="6.05264">
        <ele>1520.4624</ele>
        <time>2011-06-12T12:05:10Z</time>
      </trkpt>
      <trkpt lat="45.62124" lon="6.05264">
        <ele>1513.7329</ele>
        <time>2011-06-12T12:05:10Z</time>
      </trkpt>
      <trkpt lat="45.62126" lon="6.05266">
        <ele>1512.7717</ele>
        <time>2011-06-12T12:05:11Z</time>
      </trkpt>
      <trkpt lat="45.62129" lon="6.05263">
        <ele>1500.2749</ele>
        <time>2011-06-12T12:05:13Z</time>
      </trkpt>
      <trkpt lat="45.62123" lon="6.05272">
        <ele>1503.1586</ele>
        <time>2011-06-12T12:05:16Z</time>
      </trkpt>
      <trkpt lat="45.62126" lon="6.05266">
        <ele>1516.6171</ele>
        <time>2011-06-12T12:05:19Z</time>
      </trkpt>
      <trkpt lat="45.62125" lon="6.05263">
        <ele>1522.8657</ele>
        <time>2011-06-12T12:05:20Z</time>
      </trkpt>
      <trkpt lat="45.62123" lon="6.05258">
        <ele>1528.1528</ele>
        <time>2011-06-12T12:05:21Z</time>
      </trkpt>
      <trkpt lat="45.62123" lon="6.05257">
        <ele>1528.6335</ele>
        <time>2011-06-12T12:05:22Z</time>
      </trkpt>
      <trkpt lat="45.62123" lon="6.05259">
        <ele>1526.2302</ele>
        <time>2011-06-12T12:05:22Z</time>
      </trkpt>
      <trkpt lat="45.62124" lon="6.05259">
        <ele>1517.5783</ele>
        <time>2011-06-12T12:05:23Z</time>
      </trkpt>
      <trkpt lat="45.62126" lon="6.05261">
        <ele>1519.0205</ele>
        <time>2011-06-12T12:05:23Z</time>
      </trkpt>
      <trkpt lat="45.62127" lon="6.05261">
        <ele>1514.2136</ele>
        <time>2011-06-12T12:05:24Z</time>
      </trkpt>
      <trkpt lat="45.62125" lon="6.05262">
        <ele>1514.2136</ele>
        <time>2011-06-12T12:05:25Z</time>
      </trkpt>
      <trkpt lat="45.62122" lon="6.05261">
        <ele>1514.2136</ele>
        <time>2011-06-12T12:05:26Z</time>
      </trkpt>
      <trkpt lat="45.62121" lon="6.05261">
        <ele>1517.0979</ele>
        <time>2011-06-12T12:05:26Z</time>
      </trkpt>
      <trkpt lat="45.62122" lon="6.05261">
        <ele>1518.059</ele>
        <time>2011-06-12T12:05:27Z</time>
      </trkpt>
      <trkpt lat="45.62124" lon="6.05264">
        <ele>1514.2136</ele>
        <time>2011-06-12T12:05:28Z</time>
      </trkpt>
      <trkpt lat="45.62124" lon="6.05261">
        <ele>1513.2524</ele>
        <time>2011-06-12T12:05:28Z</time>
      </trkpt>
      <trkpt lat="45.62124" lon="6.0526">
        <ele>1516.6171</ele>
        <time>2011-06-12T12:05:29Z</time>
      </trkpt>
      <trkpt lat="45.62124" lon="6.05259">
        <ele>1514.6943</ele>
        <time>2011-06-12T12:05:29Z</time>
      </trkpt>
      <trkpt lat="45.62124" lon="6.05258">
        <ele>1512.7717</ele>
        <time>2011-06-12T12:05:29Z</time>
      </trkpt>
      <trkpt lat="45.62124" lon="6.0526">
        <ele>1512.7717</ele>
        <time>2011-06-12T12:05:30Z</time>
      </trkpt>
      <trkpt lat="45.62124" lon="6.0526">
        <ele>1512.7717</ele>
        <time>2011-06-12T12:05:30Z</time>
      </trkpt>
      <trkpt lat="45.62124" lon="6.05257">
        <ele>1513.2524</ele>
        <time>2011-06-12T12:05:31Z</time>
      </trkpt>
      <trkpt lat="45.62123" lon="6.05257">
        <ele>1514.6943</ele>
        <time>2011-06-12T12:05:31Z</time>
      </trkpt>
      <trkpt lat="45.62123" lon="6.05256">
        <ele>1515.6557</ele>
        <time>2011-06-12T12:05:31Z</time>
      </trkpt>
      <trkpt lat="45.62122" lon="6.05255">
        <ele>1521.4235</ele>
        <time>2011-06-12T12:05:32Z</time>
      </trkpt>
      <trkpt lat="45.62122" lon="6.05256">
        <ele>1523.3464</ele>
        <time>2011-06-12T12:05:32Z</time>
      </trkpt>
      <trkpt lat="45.62125" lon="6.05254">
        <ele>1518.5397</ele>
        <time>2011-06-12T12:05:33Z</time>
      </trkpt>
      <trkpt lat="45.62125" lon="6.05257">
        <ele>1516.1364</ele>
        <time>2011-06-12T12:05:34Z</time>
      </trkpt>
      <trkpt lat="45.62124" lon="6.05259">
        <ele>1514.6943</ele>
        <time>2011-06-12T12:05:35Z</time>
      </trkpt>
      <trkpt lat="45.62124" lon="6.05259">
        <ele>1518.059</ele>
        <time>2011-06-12T12:05:35Z</time>
      </trkpt>
      <trkpt lat="45.62124" lon="6.05257">
        <ele>1519.0205</ele>
        <time>2011-06-12T12:05:36Z</time>
      </trkpt>
      <trkpt lat="45.62123" lon="6.05256">
        <ele>1517.5783</ele>
        <time>2011-06-12T12:05:36Z</time>
      </trkpt>
      <trkpt lat="45.62126" lon="6.05259">
        <ele>1515.6557</ele>
        <time>2011-06-12T12:05:38Z</time>
      </trkpt>
      <trkpt lat="45.62128" lon="6.05264">
        <ele>1518.059</ele>
        <time>2011-06-12T12:05:39Z</time>
      </trkpt>
      <trkpt lat="45.62127" lon="6.05269">
        <ele>1519.0205</ele>
        <time>2011-06-12T12:05:41Z</time>
      </trkpt>
      <trkpt lat="45.62126" lon="6.05273">
        <ele>1526.2302</ele>
        <time>2011-06-12T12:05:42Z</time>
      </trkpt>
      <trkpt lat="45.62124" lon="6.05272">
        <ele>1525.2687</ele>
        <time>2011-06-12T12:05:42Z</time>
      </trkpt>
      <trkpt lat="45.62123" lon="6.05266">
        <ele>1519.0205</ele>
        <time>2011-06-12T12:05:44Z</time>
      </trkpt>
      <trkpt lat="45.62121" lon="6.05268">
        <ele>1518.5397</ele>
        <time>2011-06-12T12:05:45Z</time>
      </trkpt>
      <trkpt lat="45.62123" lon="6.0527">
        <ele>1519.5012</ele>
        <time>2011-06-12T12:05:46Z</time>
      </trkpt>
      <trkpt lat="45.62126" lon="6.0527">
        <ele>1519.9816</ele>
        <time>2011-06-12T12:05:47Z</time>
      </trkpt>
      <trkpt lat="45.62127" lon="6.05269">
        <ele>1521.4235</ele>
        <time>2011-06-12T12:05:47Z</time>
      </trkpt>
      <trkpt lat="45.62131" lon="6.05266">
        <ele>1526.2302</ele>
        <time>2011-06-12T12:05:49Z</time>
      </trkpt>
      <trkpt lat="45.6213" lon="6.05265">
        <ele>1528.1528</ele>
        <time>2011-06-12T12:05:50Z</time>
      </trkpt>
      <trkpt lat="45.6213" lon="6.05264">
        <ele>1522.8657</ele>
        <time>2011-06-12T12:05:50Z</time>
      </trkpt>
      <trkpt lat="45.62132" lon="6.05259">
        <ele>1525.7495</ele>
        <time>2011-06-12T12:05:52Z</time>
      </trkpt>
      <trkpt lat="45.6213" lon="6.0526">
        <ele>1520.9431</ele>
        <time>2011-06-12T12:05:52Z</time>
      </trkpt>
      <trkpt lat="45.62128" lon="6.05262">
        <ele>1519.9816</ele>
        <time>2011-06-12T12:05:53Z</time>
      </trkpt>
      <trkpt lat="45.62128" lon="6.05264">
        <ele>1517.0979</ele>
        <time>2011-06-12T12:05:54Z</time>
      </trkpt>
      <trkpt lat="45.62128" lon="6.05266">
        <ele>1519.0205</ele>
        <time>2011-06-12T12:05:54Z</time>
      </trkpt>
      <trkpt lat="45.62125" lon="6.05271">
        <ele>1519.0205</ele>
        <time>2011-06-12T12:05:56Z</time>
      </trkpt>
      <trkpt lat="45.62124" lon="6.05272">
        <ele>1516.6171</ele>
        <time>2011-06-12T12:05:57Z</time>
      </trkpt>
      <trkpt lat="45.62125" lon="6.05273">
        <ele>1517.5783</ele>
        <time>2011-06-12T12:05:57Z</time>
      </trkpt>
      <trkpt lat="45.62125" lon="6.05272">
        <ele>1517.0979</ele>
        <time>2011-06-12T12:05:57Z</time>
      </trkpt>
      <trkpt lat="45.62129" lon="6.05266">
        <ele>1514.2136</ele>
        <time>2011-06-12T12:06:00Z</time>
      </trkpt>
      <trkpt lat="45.6213" lon="6.05267">
        <ele>1513.2524</ele>
        <time>2011-06-12T12:06:00Z</time>
      </trkpt>
      <trkpt lat="45.62129" lon="6.05262">
        <ele>1508.9265</ele>
        <time>2011-06-12T12:06:02Z</time>
      </trkpt>
      <trkpt lat="45.62129" lon="6.05259">
        <ele>1510.3684</ele>
        <time>2011-06-12T12:06:03Z</time>
      </trkpt>
      <trkpt lat="45.62136" lon="6.05263">
        <ele>1515.6557</ele>
        <time>2011-06-12T12:06:06Z</time>
      </trkpt>
      <trkpt lat="45.62135" lon="6.05267">
        <ele>1521.4235</ele>
        <time>2011-06-12T12:06:07Z</time>
      </trkpt>
      <trkpt lat="45.62136" lon="6.05263">
        <ele>1514.6943</ele>
        <time>2011-06-12T12:06:08Z</time>
      </trkpt>
      <trkpt lat="45.62135" lon="6.05262">
        <ele>1509.8876</ele>
        <time>2011-06-12T12:06:09Z</time>
      </trkpt>
      <trkpt lat="45.62138" lon="6.05265">
        <ele>1508.9265</ele>
        <time>2011-06-12T12:06:10Z</time>
      </trkpt>
      <trkpt lat="45.62133" lon="6.05279">
        <ele>1521.9042</ele>
        <time>2011-06-12T12:06:15Z</time>
      </trkpt>
      <trkpt lat="45.6213" lon="6.05291">
        <ele>1544.4951</ele>
        <time>2011-06-12T12:06:18Z</time>
      </trkpt>
      <trkpt lat="45.62132" lon="6.05295">
        <ele>1552.1857</ele>
        <time>2011-06-12T12:06:19Z</time>
      </trkpt>
      <trkpt lat="45.62134" lon="6.05291">
        <ele>1547.3791</ele>
        <time>2011-06-12T12:06:21Z</time>
      </trkpt>
      <trkpt lat="45.62135" lon="6.05288">
        <ele>1549.302</ele>
        <time>2011-06-12T12:06:22Z</time>
      </trkpt>
      <trkpt lat="45.62135" lon="6.05286">
        <ele>1549.7827</ele>
        <time>2011-06-12T12:06:22Z</time>
      </trkpt>
      <trkpt lat="45.62132" lon="6.0528">
        <ele>1539.208</ele>
        <time>2011-06-12T12:06:25Z</time>
      </trkpt>
      <trkpt lat="45.62127" lon="6.05276">
        <ele>1532.9594</ele>
        <time>2011-06-12T12:06:27Z</time>
      </trkpt>
      <trkpt lat="45.62125" lon="6.05275">
        <ele>1530.0754</ele>
        <time>2011-06-12T12:06:28Z</time>
      </trkpt>
      <trkpt lat="45.62124" lon="6.05273">
        <ele>1527.1916</ele>
        <time>2011-06-12T12:06:28Z</time>
      </trkpt>
      <trkpt lat="45.62122" lon="6.0527">
        <ele>1519.5012</ele>
        <time>2011-06-12T12:06:29Z</time>
      </trkpt>
      <trkpt lat="45.62122" lon="6.0527">
        <ele>1513.2524</ele>
        <time>2011-06-12T12:06:30Z</time>
      </trkpt>
      <trkpt lat="45.62124" lon="6.05268">
        <ele>1511.8105</ele>
        <time>2011-06-12T12:06:31Z</time>
      </trkpt>
      <trkpt lat="45.6213" lon="6.05269">
        <ele>1519.0205</ele>
        <time>2011-06-12T12:06:33Z</time>
      </trkpt>
      <trkpt lat="45.62134" lon="6.05264">
        <ele>1515.175</ele>
        <time>2011-06-12T12:06:35Z</time>
      </trkpt>
      <trkpt lat="45.62136" lon="6.05263">
        <ele>1515.175</ele>
        <time>2011-06-12T12:06:36Z</time>
      </trkpt>
      <trkpt lat="45.62138" lon="6.05262">
        <ele>1516.1364</ele>
        <time>2011-06-12T12:06:37Z</time>
      </trkpt>
      <trkpt lat="45.62132" lon="6.05261">
        <ele>1517.5783</ele>
        <time>2011-06-12T12:06:39Z</time>
      </trkpt>
      <trkpt lat="45.62129" lon="6.05261">
        <ele>1519.0205</ele>
        <time>2011-06-12T12:06:41Z</time>
      </trkpt>
      <trkpt lat="45.62134" lon="6.05273">
        <ele>1540.6499</ele>
        <time>2011-06-12T12:06:45Z</time>
      </trkpt>
      <trkpt lat="45.62134" lon="6.05273">
        <ele>1536.8046</ele>
        <time>2011-06-12T12:06:45Z</time>
      </trkpt>
      <trkpt lat="45.62133" lon="6.05272">
        <ele>1538.2468</ele>
        <time>2011-06-12T12:06:45Z</time>
      </trkpt>
      <trkpt lat="45.62134" lon="6.05272">
        <ele>1538.2468</ele>
        <time>2011-06-12T12:06:45Z</time>
      </trkpt>
      <trkpt lat="45.62129" lon="6.0527">
        <ele>1529.114</ele>
        <time>2011-06-12T12:06:47Z</time>
      </trkpt>
      <trkpt lat="45.62125" lon="6.05269">
        <ele>1524.3076</ele>
        <time>2011-06-12T12:06:49Z</time>
      </trkpt>
      <trkpt lat="45.62125" lon="6.05266">
        <ele>1524.7883</ele>
        <time>2011-06-12T12:06:49Z</time>
      </trkpt>
      <trkpt lat="45.62125" lon="6.05267">
        <ele>1522.8657</ele>
        <time>2011-06-12T12:06:50Z</time>
      </trkpt>
      <trkpt lat="45.62126" lon="6.05263">
        <ele>1521.4235</ele>
        <time>2011-06-12T12:06:51Z</time>
      </trkpt>
      <trkpt lat="45.62125" lon="6.05255">
        <ele>1528.1528</ele>
        <time>2011-06-12T12:06:53Z</time>
      </trkpt>
      <trkpt lat="45.62127" lon="6.05251">
        <ele>1529.114</ele>
        <time>2011-06-12T12:06:54Z</time>
      </trkpt>
      <trkpt lat="45.62125" lon="6.05254">
        <ele>1523.8269</ele>
        <time>2011-06-12T12:06:56Z</time>
      </trkpt>
      <trkpt lat="45.62125" lon="6.05257">
        <ele>1519.5012</ele>
        <time>2011-06-12T12:06:57Z</time>
      </trkpt>
      <trkpt lat="45.62128" lon="6.0526">
        <ele>1518.5397</ele>
        <time>2011-06-12T12:06:58Z</time>
      </trkpt>
      <trkpt lat="45.62124" lon="6.05261">
        <ele>1516.6171</ele>
        <time>2011-06-12T12:06:59Z</time>
      </trkpt>
      <trkpt lat="45.62127" lon="6.05262">
        <ele>1516.1364</ele>
        <time>2011-06-12T12:07:00Z</time>
      </trkpt>
      <trkpt lat="45.62132" lon="6.05264">
        <ele>1521.9042</ele>
        <time>2011-06-12T12:07:02Z</time>
      </trkpt>
      <trkpt lat="45.62127" lon="6.05265">
        <ele>1518.5397</ele>
        <time>2011-06-12T12:07:04Z</time>
      </trkpt>
      <trkpt lat="45.62126" lon="6.05265">
        <ele>1517.0979</ele>
        <time>2011-06-12T12:07:05Z</time>
      </trkpt>
      <trkpt lat="45.62125" lon="6.05265">
        <ele>1515.6557</ele>
        <time>2011-06-12T12:07:05Z</time>
      </trkpt>
      <trkpt lat="45.62121" lon="6.05265">
        <ele>1519.9816</ele>
        <time>2011-06-12T12:07:07Z</time>
      </trkpt>
      <trkpt lat="45.62121" lon="6.05264">
        <ele>1515.6557</ele>
        <time>2011-06-12T12:07:07Z</time>
      </trkpt>
      <trkpt lat="45.6212" lon="6.05265">
        <ele>1512.7717</ele>
        <time>2011-06-12T12:07:07Z</time>
      </trkpt>
      <trkpt lat="45.62122" lon="6.05265">
        <ele>1510.8491</ele>
        <time>2011-06-12T12:07:08Z</time>
      </trkpt>
      <trkpt lat="45.62122" lon="6.05266">
        <ele>1510.3684</ele>
        <time>2011-06-12T12:07:08Z</time>
      </trkpt>
      <trkpt lat="45.62123" lon="6.05267">
        <ele>1514.6943</ele>
        <time>2011-06-12T12:07:09Z</time>
      </trkpt>
      <trkpt lat="45.62125" lon="6.05263">
        <ele>1513.2524</ele>
        <time>2011-06-12T12:07:10Z</time>
      </trkpt>
      <trkpt lat="45.62123" lon="6.05264">
        <ele>1513.2524</ele>
        <time>2011-06-12T12:07:11Z</time>
      </trkpt>
      <trkpt lat="45.62123" lon="6.05266">
        <ele>1521.9042</ele>
        <time>2011-06-12T12:07:11Z</time>
      </trkpt>
      <trkpt lat="45.62121" lon="6.05268">
        <ele>1522.8657</ele>
        <time>2011-06-12T12:07:12Z</time>
      </trkpt>
      <trkpt lat="45.6212" lon="6.05272">
        <ele>1521.9042</ele>
        <time>2011-06-12T12:07:13Z</time>
      </trkpt>
      <trkpt lat="45.6212" lon="6.05272">
        <ele>1521.9042</ele>
        <time>2011-06-12T12:07:13Z</time>
      </trkpt>
      <trkpt lat="45.62121" lon="6.05271">
        <ele>1521.4235</ele>
        <time>2011-06-12T12:07:14Z</time>
      </trkpt>
      <trkpt lat="45.62121" lon="6.0527">
        <ele>1521.9042</ele>
        <time>2011-06-12T12:07:14Z</time>
      </trkpt>
      <trkpt lat="45.62117" lon="6.05271">
        <ele>1520.9431</ele>
        <time>2011-06-12T12:07:15Z</time>
      </trkpt>
      <trkpt lat="45.62119" lon="6.05269">
        <ele>1520.4624</ele>
        <time>2011-06-12T12:07:16Z</time>
      </trkpt>
      <trkpt lat="45.62123" lon="6.0527">
        <ele>1523.3464</ele>
        <time>2011-06-12T12:07:18Z</time>
      </trkpt>
      <trkpt lat="45.62125" lon="6.05271">
        <ele>1519.5012</ele>
        <time>2011-06-12T12:07:19Z</time>
      </trkpt>
      <trkpt lat="45.62125" lon="6.05269">
        <ele>1515.6557</ele>
        <time>2011-06-12T12:07:20Z</time>
      </trkpt>
      <trkpt lat="45.62125" lon="6.05272">
        <ele>1516.1364</ele>
        <time>2011-06-12T12:07:20Z</time>
      </trkpt>
      <trkpt lat="45.62125" lon="6.05267">
        <ele>1517.0979</ele>
        <time>2011-06-12T12:07:22Z</time>
      </trkpt>
      <trkpt lat="45.62124" lon="6.05264">
        <ele>1518.5397</ele>
        <time>2011-06-12T12:07:23Z</time>
      </trkpt>
      <trkpt lat="45.62124" lon="6.05263">
        <ele>1518.059</ele>
        <time>2011-06-12T12:07:23Z</time>
      </trkpt>
      <trkpt lat="45.62123" lon="6.05262">
        <ele>1518.5397</ele>
        <time>2011-06-12T12:07:23Z</time>
      </trkpt>
      <trkpt lat="45.62123" lon="6.0526">
        <ele>1516.1364</ele>
        <time>2011-06-12T12:07:24Z</time>
      </trkpt>
      <trkpt lat="45.62122" lon="6.05258">
        <ele>1513.2524</ele>
        <time>2011-06-12T12:07:24Z</time>
      </trkpt>
      <trkpt lat="45.62121" lon="6.0526">
        <ele>1511.8105</ele>
        <time>2011-06-12T12:07:25Z</time>
      </trkpt>
      <trkpt lat="45.62122" lon="6.0526">
        <ele>1513.2524</ele>
        <time>2011-06-12T12:07:25Z</time>
      </trkpt>
      <trkpt lat="45.62125" lon="6.05262">
        <ele>1518.059</ele>
        <time>2011-06-12T12:07:27Z</time>
      </trkpt>
      <trkpt lat="45.62129" lon="6.05262">
        <ele>1513.2524</ele>
        <time>2011-06-12T12:07:28Z</time>
      </trkpt>
      <trkpt lat="45.62125" lon="6.05265">
        <ele>1516.1364</ele>
        <time>2011-06-12T12:07:30Z</time>
      </trkpt>
      <trkpt lat="45.62122" lon="6.05268">
        <ele>1518.059</ele>
        <time>2011-06-12T12:07:32Z</time>
      </trkpt>
      <trkpt lat="45.62126" lon="6.05273">
        <ele>1515.6557</ele>
        <time>2011-06-12T12:07:34Z</time>
      </trkpt>
      <trkpt lat="45.62128" lon="6.05273">
        <ele>1517.5783</ele>
        <time>2011-06-12T12:07:35Z</time>
      </trkpt>
      <trkpt lat="45.62127" lon="6.0527">
        <ele>1514.6943</ele>
        <time>2011-06-12T12:07:35Z</time>
      </trkpt>
      <trkpt lat="45.62126" lon="6.05267">
        <ele>1511.3298</ele>
        <time>2011-06-12T12:07:36Z</time>
      </trkpt>
      <trkpt lat="45.62126" lon="6.05269">
        <ele>1515.6557</ele>
        <time>2011-06-12T12:07:37Z</time>
      </trkpt>
      <trkpt lat="45.62127" lon="6.05267">
        <ele>1512.7717</ele>
        <time>2011-06-12T12:07:37Z</time>
      </trkpt>
      <trkpt lat="45.62126" lon="6.05269">
        <ele>1514.2136</ele>
        <time>2011-06-12T12:07:38Z</time>
      </trkpt>
      <trkpt lat="45.62124" lon="6.0527">
        <ele>1516.6171</ele>
        <time>2011-06-12T12:07:39Z</time>
      </trkpt>
      <trkpt lat="45.62123" lon="6.0527">
        <ele>1513.7329</ele>
        <time>2011-06-12T12:07:39Z</time>
      </trkpt>
      <trkpt lat="45.62123" lon="6.0527">
        <ele>1514.2136</ele>
        <time>2011-06-12T12:07:39Z</time>
      </trkpt>
      <trkpt lat="45.62125" lon="6.0527">
        <ele>1516.1364</ele>
        <time>2011-06-12T12:07:40Z</time>
      </trkpt>
      <trkpt lat="45.62124" lon="6.05268">
        <ele>1514.6943</ele>
        <time>2011-06-12T12:07:41Z</time>
      </trkpt>
      <trkpt lat="45.62125" lon="6.05269">
        <ele>1516.6171</ele>
        <time>2011-06-12T12:07:42Z</time>
      </trkpt>
      <trkpt lat="45.62123" lon="6.05273">
        <ele>1518.5397</ele>
        <time>2011-06-12T12:07:43Z</time>
      </trkpt>
      <trkpt lat="45.6212" lon="6.05275">
        <ele>1518.5397</ele>
        <time>2011-06-12T12:07:44Z</time>
      </trkpt>
      <trkpt lat="45.6212" lon="6.05274">
        <ele>1516.1364</ele>
        <time>2011-06-12T12:07:45Z</time>
      </trkpt>
      <trkpt lat="45.62121" lon="6.05272">
        <ele>1513.7329</ele>
        <time>2011-06-12T12:07:46Z</time>
      </trkpt>
      <trkpt lat="45.62122" lon="6.05266">
        <ele>1515.6557</ele>
        <time>2011-06-12T12:07:47Z</time>
      </trkpt>
      <trkpt lat="45.62122" lon="6.05266">
        <ele>1512.7717</ele>
        <time>2011-06-12T12:07:47Z</time>
      </trkpt>
      <trkpt lat="45.62122" lon="6.05266">
        <ele>1511.3298</ele>
        <time>2011-06-12T12:07:48Z</time>
      </trkpt>
      <trkpt lat="45.62121" lon="6.05268">
        <ele>1511.3298</ele>
        <time>2011-06-12T12:07:48Z</time>
      </trkpt>
      <trkpt lat="45.62122" lon="6.05267">
        <ele>1510.8491</ele>
        <time>2011-06-12T12:07:48Z</time>
      </trkpt>
      <trkpt lat="45.62125" lon="6.05266">
        <ele>1510.8491</ele>
        <time>2011-06-12T12:07:50Z</time>
      </trkpt>
      <trkpt lat="45.62124" lon="6.05266">
        <ele>1510.8491</ele>
        <time>2011-06-12T12:07:50Z</time>
      </trkpt>
      <trkpt lat="45.62123" lon="6.05264">
        <ele>1516.1364</ele>
        <time>2011-06-12T12:07:51Z</time>
      </trkpt>
      <trkpt lat="45.62123" lon="6.05265">
        <ele>1519.5012</ele>
        <time>2011-06-12T12:07:51Z</time>
      </trkpt>
      <trkpt lat="45.62123" lon="6.05267">
        <ele>1521.4235</ele>
        <time>2011-06-12T12:07:52Z</time>
      </trkpt>
      <trkpt lat="45.62124" lon="6.05271">
        <ele>1527.6721</ele>
        <time>2011-06-12T12:07:53Z</time>
      </trkpt>
      <trkpt lat="45.62125" lon="6.05268">
        <ele>1525.2687</ele>
        <time>2011-06-12T12:07:54Z</time>
      </trkpt>
      <trkpt lat="45.62124" lon="6.05268">
        <ele>1519.5012</ele>
        <time>2011-06-12T12:07:54Z</time>
      </trkpt>
      <trkpt lat="45.62123" lon="6.05267">
        <ele>1518.5397</ele>
        <time>2011-06-12T12:07:55Z</time>
      </trkpt>
      <trkpt lat="45.62125" lon="6.05264">
        <ele>1519.0205</ele>
        <time>2011-06-12T12:07:56Z</time>
      </trkpt>
      <trkpt lat="45.62124" lon="6.05265">
        <ele>1517.0979</ele>
        <time>2011-06-12T12:07:56Z</time>
      </trkpt>
      <trkpt lat="45.62124" lon="6.05267">
        <ele>1518.059</ele>
        <time>2011-06-12T12:07:57Z</time>
      </trkpt>
      <trkpt lat="45.62123" lon="6.05268">
        <ele>1518.5397</ele>
        <time>2011-06-12T12:07:57Z</time>
      </trkpt>
      <trkpt lat="45.62122" lon="6.05268">
        <ele>1519.0205</ele>
        <time>2011-06-12T12:07:58Z</time>
      </trkpt>
      <trkpt lat="45.62123" lon="6.05267">
        <ele>1519.0205</ele>
        <time>2011-06-12T12:07:59Z</time>
      </trkpt>
      <trkpt lat="45.62135" lon="6.05267">
        <ele>1532.479</ele>
        <time>2011-06-12T12:08:04Z</time>
      </trkpt>
      <trkpt lat="45.62138" lon="6.05265">
        <ele>1527.1916</ele>
        <time>2011-06-12T12:08:05Z</time>
      </trkpt>
      <trkpt lat="45.62138" lon="6.05263">
        <ele>1524.3076</ele>
        <time>2011-06-12T12:08:05Z</time>
      </trkpt>
      <trkpt lat="45.62134" lon="6.05264">
        <ele>1516.1364</ele>
        <time>2011-06-12T12:08:07Z</time>
      </trkpt>
      <trkpt lat="45.62133" lon="6.05263">
        <ele>1512.7717</ele>
        <time>2011-06-12T12:08:07Z</time>
      </trkpt>
      <trkpt lat="45.62132" lon="6.05261">
        <ele>1508.9265</ele>
        <time>2011-06-12T12:08:08Z</time>
      </trkpt>
      <trkpt lat="45.62132" lon="6.05261">
        <ele>1508.9265</ele>
        <time>2011-06-12T12:08:08Z</time>
      </trkpt>
      <trkpt lat="45.62132" lon="6.0526">
        <ele>1510.8491</ele>
        <time>2011-06-12T12:08:09Z</time>
      </trkpt>
      <trkpt lat="45.6213" lon="6.05262">
        <ele>1515.175</ele>
        <time>2011-06-12T12:08:09Z</time>
      </trkpt>
      <trkpt lat="45.62129" lon="6.05257">
        <ele>1510.3684</ele>
        <time>2011-06-12T12:08:11Z</time>
      </trkpt>
      <trkpt lat="45.62131" lon="6.05253">
        <ele>1508.4458</ele>
        <time>2011-06-12T12:08:12Z</time>
      </trkpt>
      <trkpt lat="45.62134" lon="6.0525">
        <ele>1507.9653</ele>
        <time>2011-06-12T12:08:13Z</time>
      </trkpt>
      <trkpt lat="45.62132" lon="6.05251">
        <ele>1506.0424</ele>
        <time>2011-06-12T12:08:14Z</time>
      </trkpt>
      <trkpt lat="45.62129" lon="6.05253">
        <ele>1503.1586</ele>
        <time>2011-06-12T12:08:15Z</time>
      </trkpt>
      <trkpt lat="45.62126" lon="6.05256">
        <ele>1497.8713</ele>
        <time>2011-06-12T12:08:17Z</time>
      </trkpt>
      <trkpt lat="45.62126" lon="6.05257">
        <ele>1498.8325</ele>
        <time>2011-06-12T12:08:17Z</time>
      </trkpt>
      <trkpt lat="45.62126" lon="6.05263">
        <ele>1508.9265</ele>
        <time>2011-06-12T12:08:19Z</time>
      </trkpt>
      <trkpt lat="45.62132" lon="6.05263">
        <ele>1522.385</ele>
        <time>2011-06-12T12:08:21Z</time>
      </trkpt>
      <trkpt lat="45.62129" lon="6.05261">
        <ele>1525.2687</ele>
        <time>2011-06-12T12:08:23Z</time>
      </trkpt>
      <trkpt lat="45.62125" lon="6.05264">
        <ele>1523.3464</ele>
        <time>2011-06-12T12:08:24Z</time>
      </trkpt>
      <trkpt lat="45.62123" lon="6.05265">
        <ele>1522.385</ele>
        <time>2011-06-12T12:08:25Z</time>
      </trkpt>
      <trkpt lat="45.62122" lon="6.05269">
        <ele>1521.4235</ele>
        <time>2011-06-12T12:08:26Z</time>
      </trkpt>
      <trkpt lat="45.62124" lon="6.05266">
        <ele>1521.9042</ele>
        <time>2011-06-12T12:08:28Z</time>
      </trkpt>
      <trkpt lat="45.62127" lon="6.05263">
        <ele>1523.8269</ele>
        <time>2011-06-12T12:08:29Z</time>
      </trkpt>
      <trkpt lat="45.6213" lon="6.05257">
        <ele>1520.4624</ele>
        <time>2011-06-12T12:08:31Z</time>
      </trkpt>
      <trkpt lat="45.62127" lon="6.05259">
        <ele>1516.6171</ele>
        <time>2011-06-12T12:08:33Z</time>
      </trkpt>
      <trkpt lat="45.62127" lon="6.0526">
        <ele>1519.0205</ele>
        <time>2011-06-12T12:08:33Z</time>
      </trkpt>
      <trkpt lat="45.62122" lon="6.05267">
        <ele>1523.3464</ele>
        <time>2011-06-12T12:08:36Z</time>
      </trkpt>
      <trkpt lat="45.62122" lon="6.05269">
        <ele>1522.8657</ele>
        <time>2011-06-12T12:08:36Z</time>
      </trkpt>
      <trkpt lat="45.62121" lon="6.05273">
        <ele>1523.8269</ele>
        <time>2011-06-12T12:08:37Z</time>
      </trkpt>
      <trkpt lat="45.6212" lon="6.05272">
        <ele>1521.9042</ele>
        <time>2011-06-12T12:08:38Z</time>
      </trkpt>
      <trkpt lat="45.62119" lon="6.05273">
        <ele>1524.3076</ele>
        <time>2011-06-12T12:08:38Z</time>
      </trkpt>
      <trkpt lat="45.62115" lon="6.05273">
        <ele>1522.8657</ele>
        <time>2011-06-12T12:08:40Z</time>
      </trkpt>
      <trkpt lat="45.62117" lon="6.05272">
        <ele>1530.5561</ele>
        <time>2011-06-12T12:08:41Z</time>
      </trkpt>
      <trkpt lat="45.62118" lon="6.05271">
        <ele>1529.5947</ele>
        <time>2011-06-12T12:08:41Z</time>
      </trkpt>
      <trkpt lat="45.6212" lon="6.05273">
        <ele>1512.7717</ele>
        <time>2011-06-12T12:08:42Z</time>
      </trkpt>
      <trkpt lat="45.6212" lon="6.05271">
        <ele>1511.8105</ele>
        <time>2011-06-12T12:08:43Z</time>
      </trkpt>
      <trkpt lat="45.6212" lon="6.05271">
        <ele>1511.8105</ele>
        <time>2011-06-12T12:08:43Z</time>
      </trkpt>
      <trkpt lat="45.62121" lon="6.05269">
        <ele>1513.7329</ele>
        <time>2011-06-12T12:08:44Z</time>
      </trkpt>
      <trkpt lat="45.62121" lon="6.05268">
        <ele>1515.6557</ele>
        <time>2011-06-12T12:08:44Z</time>
      </trkpt>
      <trkpt lat="45.62124" lon="6.05264">
        <ele>1509.4072</ele>
        <time>2011-06-12T12:08:45Z</time>
      </trkpt>
      <trkpt lat="45.62124" lon="6.05264">
        <ele>1509.8876</ele>
        <time>2011-06-12T12:08:46Z</time>
      </trkpt>
      <trkpt lat="45.62123" lon="6.05267">
        <ele>1515.6557</ele>
        <time>2011-06-12T12:08:47Z</time>
      </trkpt>
      <trkpt lat="45.62123" lon="6.05267">
        <ele>1520.9431</ele>
        <time>2011-06-12T12:08:47Z</time>
      </trkpt>
      <trkpt lat="45.62123" lon="6.05265">
        <ele>1521.4235</ele>
        <time>2011-06-12T12:08:48Z</time>
      </trkpt>
      <trkpt lat="45.62126" lon="6.05263">
        <ele>1515.175</ele>
        <time>2011-06-12T12:08:49Z</time>
      </trkpt>
      <trkpt lat="45.62129" lon="6.05264">
        <ele>1513.7329</ele>
        <time>2011-06-12T12:08:50Z</time>
      </trkpt>
      <trkpt lat="45.6213" lon="6.05264">
        <ele>1515.175</ele>
        <time>2011-06-12T12:08:50Z</time>
      </trkpt>
      <trkpt lat="45.6213" lon="6.05263">
        <ele>1514.2136</ele>
        <time>2011-06-12T12:08:51Z</time>
      </trkpt>
      <trkpt lat="45.62127" lon="6.05263">
        <ele>1509.8876</ele>
        <time>2011-06-12T12:08:52Z</time>
      </trkpt>
      <trkpt lat="45.62126" lon="6.05263">
        <ele>1509.4072</ele>
        <time>2011-06-12T12:08:52Z</time>
      </trkpt>
      <trkpt lat="45.62125" lon="6.05264">
        <ele>1508.9265</ele>
        <time>2011-06-12T12:08:53Z</time>
      </trkpt>
      <trkpt lat="45.62125" lon="6.05264">
        <ele>1508.4458</ele>
        <time>2011-06-12T12:08:53Z</time>
      </trkpt>
      <trkpt lat="45.62125" lon="6.05264">
        <ele>1507.4846</ele>
        <time>2011-06-12T12:08:53Z</time>
      </trkpt>
      <trkpt lat="45.62124" lon="6.05259">
        <ele>1512.291</ele>
        <time>2011-06-12T12:08:54Z</time>
      </trkpt>
      <trkpt lat="45.62125" lon="6.0526">
        <ele>1515.6557</ele>
        <time>2011-06-12T12:08:55Z</time>
      </trkpt>
      <trkpt lat="45.62127" lon="6.05262">
        <ele>1517.5783</ele>
        <time>2011-06-12T12:08:56Z</time>
      </trkpt>
      <trkpt lat="45.62131" lon="6.05264">
        <ele>1519.9816</ele>
        <time>2011-06-12T12:08:57Z</time>
      </trkpt>
      <trkpt lat="45.6213" lon="6.05271">
        <ele>1530.0754</ele>
        <time>2011-06-12T12:08:59Z</time>
      </trkpt>
      <trkpt lat="45.62127" lon="6.05273">
        <ele>1532.9594</ele>
        <time>2011-06-12T12:09:00Z</time>
      </trkpt>
      <trkpt lat="45.62124" lon="6.05274">
        <ele>1538.7275</ele>
        <time>2011-06-12T12:09:02Z</time>
      </trkpt>
      <trkpt lat="45.62123" lon="6.05273">
        <ele>1538.7275</ele>
        <time>2011-06-12T12:09:02Z</time>
      </trkpt>
      <trkpt lat="45.62122" lon="6.05279">
        <ele>1536.8046</ele>
        <time>2011-06-12T12:09:04Z</time>
      </trkpt>
      <trkpt lat="45.62121" lon="6.05276">
        <ele>1527.1916</ele>
        <time>2011-06-12T12:09:05Z</time>
      </trkpt>
      <trkpt lat="45.62124" lon="6.05272">
        <ele>1522.385</ele>
        <time>2011-06-12T12:09:06Z</time>
      </trkpt>
      <trkpt lat="45.62123" lon="6.05272">
        <ele>1521.4235</ele>
        <time>2011-06-12T12:09:07Z</time>
      </trkpt>
      <trkpt lat="45.62123" lon="6.05271">
        <ele>1524.3076</ele>
        <time>2011-06-12T12:09:07Z</time>
      </trkpt>
      <trkpt lat="45.62125" lon="6.05268">
        <ele>1523.3464</ele>
        <time>2011-06-12T12:09:08Z</time>
      </trkpt>
      <trkpt lat="45.62126" lon="6.05268">
        <ele>1524.3076</ele>
        <time>2011-06-12T12:09:09Z</time>
      </trkpt>
      <trkpt lat="45.62125" lon="6.05266">
        <ele>1523.8269</ele>
        <time>2011-06-12T12:09:09Z</time>
      </trkpt>
      <trkpt lat="45.62125" lon="6.05265">
        <ele>1521.9042</ele>
        <time>2011-06-12T12:09:10Z</time>
      </trkpt>
      <trkpt lat="45.62127" lon="6.05263">
        <ele>1520.9431</ele>
        <time>2011-06-12T12:09:11Z</time>
      </trkpt>
      <trkpt lat="45.62126" lon="6.05262">
        <ele>1522.8657</ele>
        <time>2011-06-12T12:09:11Z</time>
      </trkpt>
      <trkpt lat="45.62124" lon="6.05263">
        <ele>1523.8269</ele>
        <time>2011-06-12T12:09:12Z</time>
      </trkpt>
      <trkpt lat="45.62125" lon="6.05265">
        <ele>1522.8657</ele>
        <time>2011-06-12T12:09:12Z</time>
      </trkpt>
      <trkpt lat="45.62126" lon="6.05265">
        <ele>1519.5012</ele>
        <time>2011-06-12T12:09:13Z</time>
      </trkpt>
      <trkpt lat="45.62124" lon="6.05268">
        <ele>1520.4624</ele>
        <time>2011-06-12T12:09:14Z</time>
      </trkpt>
      <trkpt lat="45.62129" lon="6.05265">
        <ele>1517.5783</ele>
        <time>2011-06-12T12:09:16Z</time>
      </trkpt>
      <trkpt lat="45.62127" lon="6.05263">
        <ele>1519.5012</ele>
        <time>2011-06-12T12:09:17Z</time>
      </trkpt>
      <trkpt lat="45.62128" lon="6.05265">
        <ele>1517.0979</ele>
        <time>2011-06-12T12:09:18Z</time>
      </trkpt>
      <trkpt lat="45.62128" lon="6.05268">
        <ele>1512.7717</ele>
        <time>2011-06-12T12:09:19Z</time>
      </trkpt>
      <trkpt lat="45.62129" lon="6.05268">
        <ele>1511.3298</ele>
        <time>2011-06-12T12:09:19Z</time>
      </trkpt>
      <trkpt lat="45.6213" lon="6.05266">
        <ele>1512.7717</ele>
        <time>2011-06-12T12:09:20Z</time>
      </trkpt>
      <trkpt lat="45.62127" lon="6.05264">
        <ele>1513.7329</ele>
        <time>2011-06-12T12:09:21Z</time>
      </trkpt>
      <trkpt lat="45.62124" lon="6.05263">
        <ele>1514.2136</ele>
        <time>2011-06-12T12:09:22Z</time>
      </trkpt>
      <trkpt lat="45.62121" lon="6.05258">
        <ele>1513.7329</ele>
        <time>2011-06-12T12:09:24Z</time>
      </trkpt>
      <trkpt lat="45.6212" lon="6.05254">
        <ele>1512.7717</ele>
        <time>2011-06-12T12:09:26Z</time>
      </trkpt>
      <trkpt lat="45.62118" lon="6.05249">
        <ele>1512.291</ele>
        <time>2011-06-12T12:09:27Z</time>
      </trkpt>
      <trkpt lat="45.62113" lon="6.05239">
        <ele>1510.3684</ele>
        <time>2011-06-12T12:09:30Z</time>
      </trkpt>
      <trkpt lat="45.62112" lon="6.05236">
        <ele>1510.3684</ele>
        <time>2011-06-12T12:09:31Z</time>
      </trkpt>
      <trkpt lat="45.62109" lon="6.05233">
        <ele>1509.8876</ele>
        <time>2011-06-12T12:09:33Z</time>
      </trkpt>
      <trkpt lat="45.62106" lon="6.05234">
        <ele>1510.3684</ele>
        <time>2011-06-12T12:09:34Z</time>
      </trkpt>
      <trkpt lat="45.62103" lon="6.05233">
        <ele>1509.4072</ele>
        <time>2011-06-12T12:09:35Z</time>
      </trkpt>
      <trkpt lat="45.621" lon="6.05231">
        <ele>1508.4458</ele>
        <time>2011-06-12T12:09:37Z</time>
      </trkpt>
      <trkpt lat="45.62098" lon="6.05228">
        <ele>1507.4846</ele>
        <time>2011-06-12T12:09:38Z</time>
      </trkpt>
      <trkpt lat="45.62094" lon="6.05224">
        <ele>1506.5231</ele>
        <time>2011-06-12T12:09:40Z</time>
      </trkpt>
      <trkpt lat="45.62093" lon="6.0522">
        <ele>1509.8876</ele>
        <time>2011-06-12T12:09:41Z</time>
      </trkpt>
      <trkpt lat="45.62092" lon="6.05221">
        <ele>1509.8876</ele>
        <time>2011-06-12T12:09:42Z</time>
      </trkpt>
      <trkpt lat="45.6209" lon="6.05219">
        <ele>1511.8105</ele>
        <time>2011-06-12T12:09:43Z</time>
      </trkpt>
      <trkpt lat="45.62091" lon="6.05218">
        <ele>1513.7329</ele>
        <time>2011-06-12T12:09:43Z</time>
      </trkpt>
      <trkpt lat="45.62094" lon="6.05217">
        <ele>1513.2524</ele>
        <time>2011-06-12T12:09:44Z</time>
      </trkpt>
      <trkpt lat="45.62097" lon="6.05212">
        <ele>1512.291</ele>
        <time>2011-06-12T12:09:46Z</time>
      </trkpt>
      <trkpt lat="45.621" lon="6.05211">
        <ele>1508.9265</ele>
        <time>2011-06-12T12:09:47Z</time>
      </trkpt>
      <trkpt lat="45.62101" lon="6.0521">
        <ele>1506.0424</ele>
        <time>2011-06-12T12:09:48Z</time>
      </trkpt>
      <trkpt lat="45.621" lon="6.05211">
        <ele>1507.0039</ele>
        <time>2011-06-12T12:09:48Z</time>
      </trkpt>
      <trkpt lat="45.621" lon="6.05209">
        <ele>1511.3298</ele>
        <time>2011-06-12T12:09:49Z</time>
      </trkpt>
      <trkpt lat="45.62099" lon="6.0521">
        <ele>1512.7717</ele>
        <time>2011-06-12T12:09:49Z</time>
      </trkpt>
      <trkpt lat="45.621" lon="6.05206">
        <ele>1508.9265</ele>
        <time>2011-06-12T12:09:50Z</time>
      </trkpt>
      <trkpt lat="45.621" lon="6.05204">
        <ele>1504.6005</ele>
        <time>2011-06-12T12:09:51Z</time>
      </trkpt>
      <trkpt lat="45.62096" lon="6.052">
        <ele>1502.6779</ele>
        <time>2011-06-12T12:09:53Z</time>
      </trkpt>
      <trkpt lat="45.62096" lon="6.05201">
        <ele>1498.8325</ele>
        <time>2011-06-12T12:09:53Z</time>
      </trkpt>
      <trkpt lat="45.62094" lon="6.05202">
        <ele>1494.5065</ele>
        <time>2011-06-12T12:09:54Z</time>
      </trkpt>
      <trkpt lat="45.62094" lon="6.05202">
        <ele>1489.7001</ele>
        <time>2011-06-12T12:09:54Z</time>
      </trkpt>
      <trkpt lat="45.62097" lon="6.052">
        <ele>1483.9321</ele>
        <time>2011-06-12T12:09:56Z</time>
      </trkpt>
      <trkpt lat="45.62092" lon="6.05198">
        <ele>1484.8937</ele>
        <time>2011-06-12T12:09:58Z</time>
      </trkpt>
      <trkpt lat="45.62088" lon="6.05198">
        <ele>1484.8937</ele>
        <time>2011-06-12T12:10:00Z</time>
      </trkpt>
      <trkpt lat="45.62084" lon="6.05191">
        <ele>1484.413</ele>
        <time>2011-06-12T12:10:02Z</time>
      </trkpt>
      <trkpt lat="45.62082" lon="6.05189">
        <ele>1484.8937</ele>
        <time>2011-06-12T12:10:03Z</time>
      </trkpt>
      <trkpt lat="45.62082" lon="6.05187">
        <ele>1482.9707</ele>
        <time>2011-06-12T12:10:03Z</time>
      </trkpt>
      <trkpt lat="45.62077" lon="6.05189">
        <ele>1484.413</ele>
        <time>2011-06-12T12:10:05Z</time>
      </trkpt>
      <trkpt lat="45.62072" lon="6.05186">
        <ele>1488.2583</ele>
        <time>2011-06-12T12:10:07Z</time>
      </trkpt>
      <trkpt lat="45.6207" lon="6.05184">
        <ele>1489.7001</ele>
        <time>2011-06-12T12:10:08Z</time>
      </trkpt>
      <trkpt lat="45.62068" lon="6.05184">
        <ele>1489.7001</ele>
        <time>2011-06-12T12:10:09Z</time>
      </trkpt>
      <trkpt lat="45.62065" lon="6.05182">
        <ele>1492.5842</ele>
        <time>2011-06-12T12:10:10Z</time>
      </trkpt>
      <trkpt lat="45.62058" lon="6.05187">
        <ele>1492.1035</ele>
        <time>2011-06-12T12:10:13Z</time>
      </trkpt>
      <trkpt lat="45.62055" lon="6.05188">
        <ele>1491.6228</ele>
        <time>2011-06-12T12:10:15Z</time>
      </trkpt>
      <trkpt lat="45.62054" lon="6.05188">
        <ele>1488.739</ele>
        <time>2011-06-12T12:10:15Z</time>
      </trkpt>
      <trkpt lat="45.62057" lon="6.05187">
        <ele>1484.8937</ele>
        <time>2011-06-12T12:10:16Z</time>
      </trkpt>
      <trkpt lat="45.62057" lon="6.05188">
        <ele>1483.9321</ele>
        <time>2011-06-12T12:10:16Z</time>
      </trkpt>
      <trkpt lat="45.62058" lon="6.05184">
        <ele>1484.8937</ele>
        <time>2011-06-12T12:10:17Z</time>
      </trkpt>
      <trkpt lat="45.62056" lon="6.05184">
        <ele>1480.0869</ele>
        <time>2011-06-12T12:10:18Z</time>
      </trkpt>
      <trkpt lat="45.62049" lon="6.05185">
        <ele>1479.1254</ele>
        <time>2011-06-12T12:10:21Z</time>
      </trkpt>
      <trkpt lat="45.62042" lon="6.05188">
        <ele>1479.1254</ele>
        <time>2011-06-12T12:10:24Z</time>
      </trkpt>
      <trkpt lat="45.62039" lon="6.05183">
        <ele>1478.645</ele>
        <time>2011-06-12T12:10:25Z</time>
      </trkpt>
      <trkpt lat="45.62025" lon="6.05187">
        <ele>1475.7609</ele>
        <time>2011-06-12T12:10:31Z</time>
      </trkpt>
      <trkpt lat="45.62008" lon="6.05189">
        <ele>1473.8383</ele>
        <time>2011-06-12T12:10:38Z</time>
      </trkpt>
      <trkpt lat="45.62001" lon="6.05187">
        <ele>1476.2416</ele>
        <time>2011-06-12T12:10:41Z</time>
      </trkpt>
      <trkpt lat="45.62005" lon="6.05205">
        <ele>1462.7832</ele>
        <time>2011-06-12T12:10:46Z</time>
      </trkpt>
      <trkpt lat="45.62002" lon="6.05203">
        <ele>1462.3024</ele>
        <time>2011-06-12T12:10:47Z</time>
      </trkpt>
      <trkpt lat="45.61997" lon="6.05203">
        <ele>1464.7058</ele>
        <time>2011-06-12T12:10:49Z</time>
      </trkpt>
      <trkpt lat="45.61996" lon="6.05197">
        <ele>1467.5895</ele>
        <time>2011-06-12T12:10:51Z</time>
      </trkpt>
      <trkpt lat="45.61983" lon="6.05194">
        <ele>1469.9931</ele>
        <time>2011-06-12T12:10:57Z</time>
      </trkpt>
      <trkpt lat="45.61979" lon="6.05193">
        <ele>1469.0319</ele>
        <time>2011-06-12T12:10:58Z</time>
      </trkpt>
      <trkpt lat="45.61977" lon="6.05194">
        <ele>1469.9931</ele>
        <time>2011-06-12T12:10:59Z</time>
      </trkpt>
      <trkpt lat="45.6197" lon="6.05194">
        <ele>1469.5126</ele>
        <time>2011-06-12T12:11:02Z</time>
      </trkpt>
      <trkpt lat="45.61967" lon="6.05193">
        <ele>1466.1477</ele>
        <time>2011-06-12T12:11:03Z</time>
      </trkpt>
      <trkpt lat="45.61963" lon="6.05194">
        <ele>1467.5895</ele>
        <time>2011-06-12T12:11:04Z</time>
      </trkpt>
      <trkpt lat="45.6196" lon="6.05192">
        <ele>1467.1091</ele>
        <time>2011-06-12T12:11:06Z</time>
      </trkpt>
      <trkpt lat="45.61956" lon="6.05194">
        <ele>1462.3024</ele>
        <time>2011-06-12T12:11:08Z</time>
      </trkpt>
      <trkpt lat="45.61953" lon="6.05195">
        <ele>1462.3024</ele>
        <time>2011-06-12T12:11:09Z</time>
      </trkpt>
      <trkpt lat="45.61948" lon="6.05192">
        <ele>1462.3024</ele>
        <time>2011-06-12T12:11:11Z</time>
      </trkpt>
      <trkpt lat="45.61947" lon="6.05196">
        <ele>1458.9379</ele>
        <time>2011-06-12T12:11:12Z</time>
      </trkpt>
      <trkpt lat="45.61944" lon="6.05196">
        <ele>1457.0153</ele>
        <time>2011-06-12T12:11:13Z</time>
      </trkpt>
      <trkpt lat="45.61939" lon="6.05198">
        <ele>1455.5734</ele>
        <time>2011-06-12T12:11:16Z</time>
      </trkpt>
      <trkpt lat="45.61933" lon="6.05198">
        <ele>1457.496</ele>
        <time>2011-06-12T12:11:18Z</time>
      </trkpt>
      <trkpt lat="45.61928" lon="6.05202">
        <ele>1452.6894</ele>
        <time>2011-06-12T12:11:20Z</time>
      </trkpt>
      <trkpt lat="45.61923" lon="6.05205">
        <ele>1450.2861</ele>
        <time>2011-06-12T12:11:22Z</time>
      </trkpt>
      <trkpt lat="45.6192" lon="6.05202">
        <ele>1450.2861</ele>
        <time>2011-06-12T12:11:24Z</time>
      </trkpt>
      <trkpt lat="45.61919" lon="6.05205">
        <ele>1446.4409</ele>
        <time>2011-06-12T12:11:24Z</time>
      </trkpt>
      <trkpt lat="45.61914" lon="6.05204">
        <ele>1444.9987</ele>
        <time>2011-06-12T12:11:27Z</time>
      </trkpt>
      <trkpt lat="45.61909" lon="6.05203">
        <ele>1445.9602</ele>
        <time>2011-06-12T12:11:29Z</time>
      </trkpt>
      <trkpt lat="45.61906" lon="6.052">
        <ele>1445.9602</ele>
        <time>2011-06-12T12:11:30Z</time>
      </trkpt>
      <trkpt lat="45.61902" lon="6.05198">
        <ele>1444.0375</ele>
        <time>2011-06-12T12:11:32Z</time>
      </trkpt>
      <trkpt lat="45.61898" lon="6.05198">
        <ele>1443.0761</ele>
        <time>2011-06-12T12:11:33Z</time>
      </trkpt>
      <trkpt lat="45.61895" lon="6.05198">
        <ele>1441.1535</ele>
        <time>2011-06-12T12:11:35Z</time>
      </trkpt>
      <trkpt lat="45.61892" lon="6.05196">
        <ele>1440.1923</ele>
        <time>2011-06-12T12:11:36Z</time>
      </trkpt>
      <trkpt lat="45.61887" lon="6.05197">
        <ele>1438.7504</ele>
        <time>2011-06-12T12:11:38Z</time>
      </trkpt>
      <trkpt lat="45.61881" lon="6.05198">
        <ele>1436.3471</ele>
        <time>2011-06-12T12:11:40Z</time>
      </trkpt>
      <trkpt lat="45.61878" lon="6.05199">
        <ele>1433.9436</ele>
        <time>2011-06-12T12:11:41Z</time>
      </trkpt>
      <trkpt lat="45.6188" lon="6.05196">
        <ele>1429.6176</ele>
        <time>2011-06-12T12:11:42Z</time>
      </trkpt>
      <trkpt lat="45.61874" lon="6.05196">
        <ele>1424.8112</ele>
        <time>2011-06-12T12:11:45Z</time>
      </trkpt>
      <trkpt lat="45.61869" lon="6.05196">
        <ele>1424.3305</ele>
        <time>2011-06-12T12:11:47Z</time>
      </trkpt>
      <trkpt lat="45.61868" lon="6.05195">
        <ele>1424.3305</ele>
        <time>2011-06-12T12:11:47Z</time>
      </trkpt>
      <trkpt lat="45.61862" lon="6.05194">
        <ele>1425.7724</ele>
        <time>2011-06-12T12:11:50Z</time>
      </trkpt>
      <trkpt lat="45.61859" lon="6.05193">
        <ele>1431.0598</ele>
        <time>2011-06-12T12:11:51Z</time>
      </trkpt>
      <trkpt lat="45.61857" lon="6.05193">
        <ele>1433.4628</ele>
        <time>2011-06-12T12:11:52Z</time>
      </trkpt>
      <trkpt lat="45.61854" lon="6.05191">
        <ele>1430.5791</ele>
        <time>2011-06-12T12:11:53Z</time>
      </trkpt>
      <trkpt lat="45.61846" lon="6.05189">
        <ele>1427.2145</ele>
        <time>2011-06-12T12:11:56Z</time>
      </trkpt>
      <trkpt lat="45.61842" lon="6.05194">
        <ele>1421.4465</ele>
        <time>2011-06-12T12:11:58Z</time>
      </trkpt>
      <trkpt lat="45.61839" lon="6.05196">
        <ele>1416.6398</ele>
        <time>2011-06-12T12:12:00Z</time>
      </trkpt>
      <trkpt lat="45.61836" lon="6.05195">
        <ele>1413.2753</ele>
        <time>2011-06-12T12:12:01Z</time>
      </trkpt>
      <trkpt lat="45.61832" lon="6.05196">
        <ele>1409.4301</ele>
        <time>2011-06-12T12:12:02Z</time>
      </trkpt>
      <trkpt lat="45.61829" lon="6.05195">
        <ele>1409.9106</ele>
        <time>2011-06-12T12:12:04Z</time>
      </trkpt>
      <trkpt lat="45.61822" lon="6.05193">
        <ele>1407.9882</ele>
        <time>2011-06-12T12:12:06Z</time>
      </trkpt>
      <trkpt lat="45.61821" lon="6.05192">
        <ele>1407.0268</ele>
        <time>2011-06-12T12:12:07Z</time>
      </trkpt>
      <trkpt lat="45.61821" lon="6.05194">
        <ele>1402.7006</ele>
        <time>2011-06-12T12:12:08Z</time>
      </trkpt>
      <trkpt lat="45.61816" lon="6.05191">
        <ele>1397.8942</ele>
        <time>2011-06-12T12:12:10Z</time>
      </trkpt>
      <trkpt lat="45.61812" lon="6.05185">
        <ele>1397.4135</ele>
        <time>2011-06-12T12:12:12Z</time>
      </trkpt>
      <trkpt lat="45.61809" lon="6.05182">
        <ele>1393.5683</ele>
        <time>2011-06-12T12:12:14Z</time>
      </trkpt>
      <trkpt lat="45.61804" lon="6.05174">
        <ele>1392.6071</ele>
        <time>2011-06-12T12:12:17Z</time>
      </trkpt>
      <trkpt lat="45.618" lon="6.05169">
        <ele>1391.165</ele>
        <time>2011-06-12T12:12:19Z</time>
      </trkpt>
      <trkpt lat="45.618" lon="6.05166">
        <ele>1389.2424</ele>
        <time>2011-06-12T12:12:20Z</time>
      </trkpt>
      <trkpt lat="45.61798" lon="6.05165">
        <ele>1389.7231</ele>
        <time>2011-06-12T12:12:20Z</time>
      </trkpt>
      <trkpt lat="45.61796" lon="6.05167">
        <ele>1383.4743</ele>
        <time>2011-06-12T12:12:21Z</time>
      </trkpt>
      <trkpt lat="45.61791" lon="6.05149">
        <ele>1382.5131</ele>
        <time>2011-06-12T12:12:27Z</time>
      </trkpt>
      <trkpt lat="45.61789" lon="6.05148">
        <ele>1380.1098</ele>
        <time>2011-06-12T12:12:27Z</time>
      </trkpt>
      <trkpt lat="45.61788" lon="6.05147">
        <ele>1378.6679</ele>
        <time>2011-06-12T12:12:28Z</time>
      </trkpt>
      <trkpt lat="45.61784" lon="6.05145">
        <ele>1379.6291</ele>
        <time>2011-06-12T12:12:30Z</time>
      </trkpt>
      <trkpt lat="45.6178" lon="6.0514">
        <ele>1381.5517</ele>
        <time>2011-06-12T12:12:32Z</time>
      </trkpt>
      <trkpt lat="45.61775" lon="6.0514">
        <ele>1378.6679</ele>
        <time>2011-06-12T12:12:34Z</time>
      </trkpt>
      <trkpt lat="45.6177" lon="6.05143">
        <ele>1376.7453</ele>
        <time>2011-06-12T12:12:36Z</time>
      </trkpt>
      <trkpt lat="45.61767" lon="6.05141">
        <ele>1375.7839</ele>
        <time>2011-06-12T12:12:37Z</time>
      </trkpt>
      <trkpt lat="45.61765" lon="6.0514">
        <ele>1378.1872</ele>
        <time>2011-06-12T12:12:38Z</time>
      </trkpt>
      <trkpt lat="45.61759" lon="6.05146">
        <ele>1371.9384</ele>
        <time>2011-06-12T12:12:41Z</time>
      </trkpt>
      <trkpt lat="45.61757" lon="6.05142">
        <ele>1371.4577</ele>
        <time>2011-06-12T12:12:42Z</time>
      </trkpt>
      <trkpt lat="45.61754" lon="6.0514">
        <ele>1372.4194</ele>
        <time>2011-06-12T12:12:43Z</time>
      </trkpt>
      <trkpt lat="45.61754" lon="6.05141">
        <ele>1371.4577</ele>
        <time>2011-06-12T12:12:44Z</time>
      </trkpt>
      <trkpt lat="45.61753" lon="6.05141">
        <ele>1369.5354</ele>
        <time>2011-06-12T12:12:44Z</time>
      </trkpt>
      <trkpt lat="45.61751" lon="6.0514">
        <ele>1369.5354</ele>
        <time>2011-06-12T12:12:45Z</time>
      </trkpt>
      <trkpt lat="45.61751" lon="6.05138">
        <ele>1371.4577</ele>
        <time>2011-06-12T12:12:46Z</time>
      </trkpt>
      <trkpt lat="45.61751" lon="6.05138">
        <ele>1371.4577</ele>
        <time>2011-06-12T12:12:46Z</time>
      </trkpt>
      <trkpt lat="45.61752" lon="6.05135">
        <ele>1375.3032</ele>
        <time>2011-06-12T12:12:47Z</time>
      </trkpt>
      <trkpt lat="45.61751" lon="6.05132">
        <ele>1382.0324</ele>
        <time>2011-06-12T12:12:48Z</time>
      </trkpt>
      <trkpt lat="45.61752" lon="6.05132">
        <ele>1387.8002</ele>
        <time>2011-06-12T12:12:48Z</time>
      </trkpt>
      <trkpt lat="45.61743" lon="6.05137">
        <ele>1383.4743</ele>
        <time>2011-06-12T12:12:52Z</time>
      </trkpt>
      <trkpt lat="45.61745" lon="6.05144">
        <ele>1370.4965</ele>
        <time>2011-06-12T12:12:55Z</time>
      </trkpt>
      <trkpt lat="45.61741" lon="6.05137">
        <ele>1370.0158</ele>
        <time>2011-06-12T12:12:57Z</time>
      </trkpt>
      <trkpt lat="45.61736" lon="6.05132">
        <ele>1360.4028</ele>
        <time>2011-06-12T12:13:00Z</time>
      </trkpt>
      <trkpt lat="45.61735" lon="6.05127">
        <ele>1358.9609</ele>
        <time>2011-06-12T12:13:01Z</time>
      </trkpt>
      <trkpt lat="45.61734" lon="6.05126">
        <ele>1357.0383</ele>
        <time>2011-06-12T12:13:02Z</time>
      </trkpt>
      <trkpt lat="45.61735" lon="6.05126">
        <ele>1355.1154</ele>
        <time>2011-06-12T12:13:02Z</time>
      </trkpt>
      <trkpt lat="45.61735" lon="6.05124">
        <ele>1356.5576</ele>
        <time>2011-06-12T12:13:02Z</time>
      </trkpt>
      <trkpt lat="45.61736" lon="6.05126">
        <ele>1356.5576</ele>
        <time>2011-06-12T12:13:03Z</time>
      </trkpt>
      <trkpt lat="45.61736" lon="6.05127">
        <ele>1356.0769</ele>
        <time>2011-06-12T12:13:03Z</time>
      </trkpt>
      <trkpt lat="45.61735" lon="6.05127">
        <ele>1356.5576</ele>
        <time>2011-06-12T12:13:04Z</time>
      </trkpt>
      <trkpt lat="45.61733" lon="6.05126">
        <ele>1355.1154</ele>
        <time>2011-06-12T12:13:05Z</time>
      </trkpt>
      <trkpt lat="45.61733" lon="6.05128">
        <ele>1351.7509</ele>
        <time>2011-06-12T12:13:05Z</time>
      </trkpt>
      <trkpt lat="45.61733" lon="6.05127">
        <ele>1351.2702</ele>
        <time>2011-06-12T12:13:05Z</time>
      </trkpt>
      <trkpt lat="45.61733" lon="6.05127">
        <ele>1352.7121</ele>
        <time>2011-06-12T12:13:05Z</time>
      </trkpt>
      <trkpt lat="45.6173" lon="6.05133">
        <ele>1349.3476</ele>
        <time>2011-06-12T12:13:07Z</time>
      </trkpt>
      <trkpt lat="45.61729" lon="6.05134">
        <ele>1350.309</ele>
        <time>2011-06-12T12:13:08Z</time>
      </trkpt>
      <trkpt lat="45.61732" lon="6.0513">
        <ele>1349.3476</ele>
        <time>2011-06-12T12:13:09Z</time>
      </trkpt>
      <trkpt lat="45.61728" lon="6.05129">
        <ele>1347.425</ele>
        <time>2011-06-12T12:13:11Z</time>
      </trkpt>
      <trkpt lat="45.61724" lon="6.05129">
        <ele>1347.425</ele>
        <time>2011-06-12T12:13:13Z</time>
      </trkpt>
      <trkpt lat="45.61723" lon="6.0513">
        <ele>1347.425</ele>
        <time>2011-06-12T12:13:13Z</time>
      </trkpt>
      <trkpt lat="45.61723" lon="6.0513">
        <ele>1347.425</ele>
        <time>2011-06-12T12:13:13Z</time>
      </trkpt>
      <trkpt lat="45.61721" lon="6.05131">
        <ele>1346.4638</ele>
        <time>2011-06-12T12:13:14Z</time>
      </trkpt>
      <trkpt lat="45.61718" lon="6.05129">
        <ele>1344.541</ele>
        <time>2011-06-12T12:13:15Z</time>
      </trkpt>
      <trkpt lat="45.61714" lon="6.05129">
        <ele>1343.0991</ele>
        <time>2011-06-12T12:13:17Z</time>
      </trkpt>
      <trkpt lat="45.61715" lon="6.0513">
        <ele>1343.5798</ele>
        <time>2011-06-12T12:13:17Z</time>
      </trkpt>
      <trkpt lat="45.61716" lon="6.05132">
        <ele>1341.1765</ele>
        <time>2011-06-12T12:13:18Z</time>
      </trkpt>
      <trkpt lat="45.61716" lon="6.05132">
        <ele>1341.6572</ele>
        <time>2011-06-12T12:13:18Z</time>
      </trkpt>
      <trkpt lat="45.61714" lon="6.0513">
        <ele>1343.5798</ele>
        <time>2011-06-12T12:13:19Z</time>
      </trkpt>
      <trkpt lat="45.61711" lon="6.05129">
        <ele>1343.0991</ele>
        <time>2011-06-12T12:13:20Z</time>
      </trkpt>
      <trkpt lat="45.61707" lon="6.05129">
        <ele>1342.1379</ele>
        <time>2011-06-12T12:13:21Z</time>
      </trkpt>
      <trkpt lat="45.61703" lon="6.05132">
        <ele>1340.6958</ele>
        <time>2011-06-12T12:13:24Z</time>
      </trkpt>
      <trkpt lat="45.617" lon="6.05137">
        <ele>1339.7343</ele>
        <time>2011-06-12T12:13:25Z</time>
      </trkpt>
      <trkpt lat="45.61694" lon="6.05138">
        <ele>1339.2536</ele>
        <time>2011-06-12T12:13:28Z</time>
      </trkpt>
      <trkpt lat="45.61693" lon="6.05137">
        <ele>1339.7343</ele>
        <time>2011-06-12T12:13:28Z</time>
      </trkpt>
      <trkpt lat="45.6169" lon="6.05136">
        <ele>1339.7343</ele>
        <time>2011-06-12T12:13:29Z</time>
      </trkpt>
      <trkpt lat="45.6169" lon="6.05135">
        <ele>1340.6958</ele>
        <time>2011-06-12T12:13:30Z</time>
      </trkpt>
      <trkpt lat="45.61688" lon="6.05134">
        <ele>1341.1765</ele>
        <time>2011-06-12T12:13:30Z</time>
      </trkpt>
      <trkpt lat="45.61685" lon="6.05133">
        <ele>1340.6958</ele>
        <time>2011-06-12T12:13:32Z</time>
      </trkpt>
      <trkpt lat="45.6168" lon="6.05132">
        <ele>1339.2536</ele>
        <time>2011-06-12T12:13:34Z</time>
      </trkpt>
      <trkpt lat="45.61678" lon="6.05132">
        <ele>1339.2536</ele>
        <time>2011-06-12T12:13:34Z</time>
      </trkpt>
      <trkpt lat="45.61677" lon="6.05132">
        <ele>1342.6186</ele>
        <time>2011-06-12T12:13:35Z</time>
      </trkpt>
      <trkpt lat="45.61677" lon="6.05133">
        <ele>1341.6572</ele>
        <time>2011-06-12T12:13:35Z</time>
      </trkpt>
      <trkpt lat="45.61673" lon="6.05135">
        <ele>1339.7343</ele>
        <time>2011-06-12T12:13:37Z</time>
      </trkpt>
      <trkpt lat="45.61672" lon="6.05135">
        <ele>1339.7343</ele>
        <time>2011-06-12T12:13:37Z</time>
      </trkpt>
      <trkpt lat="45.61671" lon="6.05137">
        <ele>1338.7731</ele>
        <time>2011-06-12T12:13:38Z</time>
      </trkpt>
      <trkpt lat="45.61667" lon="6.05139">
        <ele>1337.8117</ele>
        <time>2011-06-12T12:13:39Z</time>
      </trkpt>
      <trkpt lat="45.61664" lon="6.05142">
        <ele>1337.331</ele>
        <time>2011-06-12T12:13:41Z</time>
      </trkpt>
      <trkpt lat="45.61658" lon="6.05145">
        <ele>1336.8503</ele>
        <time>2011-06-12T12:13:43Z</time>
      </trkpt>
      <trkpt lat="45.61655" lon="6.05141">
        <ele>1336.3698</ele>
        <time>2011-06-12T12:13:45Z</time>
      </trkpt>
      <trkpt lat="45.61653" lon="6.05138">
        <ele>1335.8891</ele>
        <time>2011-06-12T12:13:46Z</time>
      </trkpt>
      <trkpt lat="45.61651" lon="6.05136">
        <ele>1334.9279</ele>
        <time>2011-06-12T12:13:47Z</time>
      </trkpt>
      <trkpt lat="45.61649" lon="6.05133">
        <ele>1333.9665</ele>
        <time>2011-06-12T12:13:48Z</time>
      </trkpt>
      <trkpt lat="45.61649" lon="6.05133">
        <ele>1332.0439</ele>
        <time>2011-06-12T12:13:48Z</time>
      </trkpt>
      <trkpt lat="45.6165" lon="6.0513">
        <ele>1332.0439</ele>
        <time>2011-06-12T12:13:49Z</time>
      </trkpt>
      <trkpt lat="45.61647" lon="6.05128">
        <ele>1331.0827</ele>
        <time>2011-06-12T12:13:50Z</time>
      </trkpt>
      <trkpt lat="45.61645" lon="6.05128">
        <ele>1330.602</ele>
        <time>2011-06-12T12:13:51Z</time>
      </trkpt>
      <trkpt lat="45.61639" lon="6.05127">
        <ele>1331.5632</ele>
        <time>2011-06-12T12:13:54Z</time>
      </trkpt>
      <trkpt lat="45.61638" lon="6.05126">
        <ele>1334.4472</ele>
        <time>2011-06-12T12:13:54Z</time>
      </trkpt>
      <trkpt lat="45.61637" lon="6.05122">
        <ele>1336.3698</ele>
        <time>2011-06-12T12:13:55Z</time>
      </trkpt>
      <trkpt lat="45.61635" lon="6.05118">
        <ele>1338.2924</ele>
        <time>2011-06-12T12:13:57Z</time>
      </trkpt>
      <trkpt lat="45.61632" lon="6.05113">
        <ele>1337.8117</ele>
        <time>2011-06-12T12:13:58Z</time>
      </trkpt>
      <trkpt lat="45.61631" lon="6.05112">
        <ele>1327.2375</ele>
        <time>2011-06-12T12:13:59Z</time>
      </trkpt>
      <trkpt lat="45.61631" lon="6.05113">
        <ele>1322.4306</ele>
        <time>2011-06-12T12:13:59Z</time>
      </trkpt>
      <trkpt lat="45.6163" lon="6.05113">
        <ele>1320.508</ele>
        <time>2011-06-12T12:14:00Z</time>
      </trkpt>
      <trkpt lat="45.61629" lon="6.0511">
        <ele>1324.3535</ele>
        <time>2011-06-12T12:14:01Z</time>
      </trkpt>
      <trkpt lat="45.61628" lon="6.05109">
        <ele>1323.392</ele>
        <time>2011-06-12T12:14:01Z</time>
      </trkpt>
      <trkpt lat="45.61628" lon="6.05107">
        <ele>1325.7954</ele>
        <time>2011-06-12T12:14:02Z</time>
      </trkpt>
      <trkpt lat="45.61627" lon="6.05107">
        <ele>1325.3146</ele>
        <time>2011-06-12T12:14:02Z</time>
      </trkpt>
      <trkpt lat="45.61627" lon="6.05106">
        <ele>1325.7954</ele>
        <time>2011-06-12T12:14:02Z</time>
      </trkpt>
      <trkpt lat="45.61626" lon="6.05107">
        <ele>1327.2375</ele>
        <time>2011-06-12T12:14:03Z</time>
      </trkpt>
      <trkpt lat="45.61623" lon="6.05104">
        <ele>1327.2375</ele>
        <time>2011-06-12T12:14:04Z</time>
      </trkpt>
      <trkpt lat="45.61622" lon="6.051">
        <ele>1325.7954</ele>
        <time>2011-06-12T12:14:05Z</time>
      </trkpt>
      <trkpt lat="45.6162" lon="6.05094">
        <ele>1324.8342</ele>
        <time>2011-06-12T12:14:07Z</time>
      </trkpt>
      <trkpt lat="45.61617" lon="6.05095">
        <ele>1321.4692</ele>
        <time>2011-06-12T12:14:09Z</time>
      </trkpt>
      <trkpt lat="45.61612" lon="6.05094">
        <ele>1319.5468</ele>
        <time>2011-06-12T12:14:11Z</time>
      </trkpt>
      <trkpt lat="45.61607" lon="6.05091">
        <ele>1317.1435</ele>
        <time>2011-06-12T12:14:13Z</time>
      </trkpt>
      <trkpt lat="45.61602" lon="6.05087">
        <ele>1316.1821</ele>
        <time>2011-06-12T12:14:15Z</time>
      </trkpt>
      <trkpt lat="45.616" lon="6.05081">
        <ele>1316.6628</ele>
        <time>2011-06-12T12:14:17Z</time>
      </trkpt>
      <trkpt lat="45.61593" lon="6.05078">
        <ele>1316.1821</ele>
        <time>2011-06-12T12:14:20Z</time>
      </trkpt>
      <trkpt lat="45.61591" lon="6.05075">
        <ele>1317.1435</ele>
        <time>2011-06-12T12:14:21Z</time>
      </trkpt>
      <trkpt lat="45.61588" lon="6.0507">
        <ele>1318.5854</ele>
        <time>2011-06-12T12:14:23Z</time>
      </trkpt>
      <trkpt lat="45.61582" lon="6.05067">
        <ele>1318.1047</ele>
        <time>2011-06-12T12:14:26Z</time>
      </trkpt>
      <trkpt lat="45.61576" lon="6.05064">
        <ele>1314.2595</ele>
        <time>2011-06-12T12:14:28Z</time>
      </trkpt>
      <trkpt lat="45.61573" lon="6.05061">
        <ele>1315.2209</ele>
        <time>2011-06-12T12:14:29Z</time>
      </trkpt>
      <trkpt lat="45.61567" lon="6.05058">
        <ele>1314.2595</ele>
        <time>2011-06-12T12:14:32Z</time>
      </trkpt>
      <trkpt lat="45.61566" lon="6.0506">
        <ele>1315.2209</ele>
        <time>2011-06-12T12:14:33Z</time>
      </trkpt>
      <trkpt lat="45.61564" lon="6.05059">
        <ele>1315.7016</ele>
        <time>2011-06-12T12:14:34Z</time>
      </trkpt>
      <trkpt lat="45.61561" lon="6.05058">
        <ele>1312.3369</ele>
        <time>2011-06-12T12:14:35Z</time>
      </trkpt>
      <trkpt lat="45.61561" lon="6.05057">
        <ele>1312.3369</ele>
        <time>2011-06-12T12:14:35Z</time>
      </trkpt>
      <trkpt lat="45.6156" lon="6.05054">
        <ele>1313.2983</ele>
        <time>2011-06-12T12:14:36Z</time>
      </trkpt>
      <trkpt lat="45.61559" lon="6.05054">
        <ele>1310.4143</ele>
        <time>2011-06-12T12:14:36Z</time>
      </trkpt>
      <trkpt lat="45.61555" lon="6.05056">
        <ele>1307.0495</ele>
        <time>2011-06-12T12:14:38Z</time>
      </trkpt>
      <trkpt lat="45.61552" lon="6.05056">
        <ele>1305.1269</ele>
        <time>2011-06-12T12:14:39Z</time>
      </trkpt>
      <trkpt lat="45.61549" lon="6.05056">
        <ele>1304.1657</ele>
        <time>2011-06-12T12:14:41Z</time>
      </trkpt>
      <trkpt lat="45.61545" lon="6.05054">
        <ele>1303.2043</ele>
        <time>2011-06-12T12:14:42Z</time>
      </trkpt>
      <trkpt lat="45.61548" lon="6.05051">
        <ele>1299.8398</ele>
        <time>2011-06-12T12:14:44Z</time>
      </trkpt>
      <trkpt lat="45.61551" lon="6.05048">
        <ele>1299.3591</ele>
        <time>2011-06-12T12:14:45Z</time>
      </trkpt>
      <trkpt lat="45.61553" lon="6.0504">
        <ele>1297.9172</ele>
        <time>2011-06-12T12:14:48Z</time>
      </trkpt>
      <trkpt lat="45.61549" lon="6.05039">
        <ele>1295.5139</ele>
        <time>2011-06-12T12:14:49Z</time>
      </trkpt>
      <trkpt lat="45.61545" lon="6.05042">
        <ele>1295.0332</ele>
        <time>2011-06-12T12:14:51Z</time>
      </trkpt>
      <trkpt lat="45.6154" lon="6.05047">
        <ele>1291.1877</ele>
        <time>2011-06-12T12:14:53Z</time>
      </trkpt>
      <trkpt lat="45.61535" lon="6.05049">
        <ele>1288.7846</ele>
        <time>2011-06-12T12:14:56Z</time>
      </trkpt>
      <trkpt lat="45.61533" lon="6.05052">
        <ele>1288.3039</ele>
        <time>2011-06-12T12:14:57Z</time>
      </trkpt>
      <trkpt lat="45.61532" lon="6.05051">
        <ele>1287.8232</ele>
        <time>2011-06-12T12:14:57Z</time>
      </trkpt>
      <trkpt lat="45.61527" lon="6.05051">
        <ele>1288.7846</ele>
        <time>2011-06-12T12:14:59Z</time>
      </trkpt>
      <trkpt lat="45.61524" lon="6.05054">
        <ele>1285.4199</ele>
        <time>2011-06-12T12:15:01Z</time>
      </trkpt>
      <trkpt lat="45.6152" lon="6.05055">
        <ele>1284.4587</ele>
        <time>2011-06-12T12:15:02Z</time>
      </trkpt>
      <trkpt lat="45.61517" lon="6.05054">
        <ele>1284.4587</ele>
        <time>2011-06-12T12:15:03Z</time>
      </trkpt>
      <trkpt lat="45.61518" lon="6.05051">
        <ele>1284.9394</ele>
        <time>2011-06-12T12:15:04Z</time>
      </trkpt>
      <trkpt lat="45.61519" lon="6.05046">
        <ele>1284.4587</ele>
        <time>2011-06-12T12:15:06Z</time>
      </trkpt>
      <trkpt lat="45.6152" lon="6.05041">
        <ele>1283.0166</ele>
        <time>2011-06-12T12:15:07Z</time>
      </trkpt>
      <trkpt lat="45.61521" lon="6.0504">
        <ele>1283.0166</ele>
        <time>2011-06-12T12:15:08Z</time>
      </trkpt>
      <trkpt lat="45.61518" lon="6.05037">
        <ele>1283.0166</ele>
        <time>2011-06-12T12:15:09Z</time>
      </trkpt>
      <trkpt lat="45.61518" lon="6.05035">
        <ele>1282.5361</ele>
        <time>2011-06-12T12:15:10Z</time>
      </trkpt>
      <trkpt lat="45.61517" lon="6.05032">
        <ele>1280.6135</ele>
        <time>2011-06-12T12:15:11Z</time>
      </trkpt>
      <trkpt lat="45.61516" lon="6.0503">
        <ele>1279.652</ele>
        <time>2011-06-12T12:15:11Z</time>
      </trkpt>
      <trkpt lat="45.61515" lon="6.0503">
        <ele>1277.7294</ele>
        <time>2011-06-12T12:15:12Z</time>
      </trkpt>
      <trkpt lat="45.61513" lon="6.05026">
        <ele>1277.7294</ele>
        <time>2011-06-12T12:15:13Z</time>
      </trkpt>
      <trkpt lat="45.61511" lon="6.05024">
        <ele>1276.7683</ele>
        <time>2011-06-12T12:15:14Z</time>
      </trkpt>
      <trkpt lat="45.61507" lon="6.05021">
        <ele>1274.3647</ele>
        <time>2011-06-12T12:15:16Z</time>
      </trkpt>
      <trkpt lat="45.61504" lon="6.05017">
        <ele>1270.5195</ele>
        <time>2011-06-12T12:15:18Z</time>
      </trkpt>
      <trkpt lat="45.61503" lon="6.05015">
        <ele>1269.5583</ele>
        <time>2011-06-12T12:15:18Z</time>
      </trkpt>
      <trkpt lat="45.615" lon="6.05011">
        <ele>1267.6354</ele>
        <time>2011-06-12T12:15:20Z</time>
      </trkpt>
      <trkpt lat="45.61498" lon="6.05007">
        <ele>1266.1936</ele>
        <time>2011-06-12T12:15:21Z</time>
      </trkpt>
      <trkpt lat="45.61498" lon="6.05006">
        <ele>1266.6743</ele>
        <time>2011-06-12T12:15:22Z</time>
      </trkpt>
      <trkpt lat="45.61496" lon="6.04998">
        <ele>1269.5583</ele>
        <time>2011-06-12T12:15:24Z</time>
      </trkpt>
      <trkpt lat="45.61494" lon="6.04995">
        <ele>1269.0776</ele>
        <time>2011-06-12T12:15:25Z</time>
      </trkpt>
      <trkpt lat="45.61493" lon="6.04991">
        <ele>1269.0776</ele>
        <time>2011-06-12T12:15:26Z</time>
      </trkpt>
      <trkpt lat="45.61491" lon="6.04997">
        <ele>1263.3098</ele>
        <time>2011-06-12T12:15:28Z</time>
      </trkpt>
      <trkpt lat="45.61491" lon="6.04996">
        <ele>1262.8291</ele>
        <time>2011-06-12T12:15:28Z</time>
      </trkpt>
      <trkpt lat="45.6149" lon="6.04994">
        <ele>1261.3872</ele>
        <time>2011-06-12T12:15:29Z</time>
      </trkpt>
      <trkpt lat="45.61488" lon="6.04987">
        <ele>1261.8679</ele>
        <time>2011-06-12T12:15:31Z</time>
      </trkpt>
      <trkpt lat="45.61483" lon="6.04984">
        <ele>1263.3098</ele>
        <time>2011-06-12T12:15:33Z</time>
      </trkpt>
      <trkpt lat="45.61481" lon="6.04978">
        <ele>1265.2324</ele>
        <time>2011-06-12T12:15:35Z</time>
      </trkpt>
      <trkpt lat="45.6148" lon="6.04976">
        <ele>1262.8291</ele>
        <time>2011-06-12T12:15:36Z</time>
      </trkpt>
      <trkpt lat="45.6148" lon="6.04977">
        <ele>1261.3872</ele>
        <time>2011-06-12T12:15:36Z</time>
      </trkpt>
      <trkpt lat="45.61479" lon="6.04975">
        <ele>1260.9064</ele>
        <time>2011-06-12T12:15:36Z</time>
      </trkpt>
      <trkpt lat="45.61478" lon="6.04975">
        <ele>1260.4257</ele>
        <time>2011-06-12T12:15:36Z</time>
      </trkpt>
      <trkpt lat="45.61475" lon="6.04973">
        <ele>1260.9064</ele>
        <time>2011-06-12T12:15:38Z</time>
      </trkpt>
      <trkpt lat="45.61473" lon="6.04972">
        <ele>1260.4257</ele>
        <time>2011-06-12T12:15:39Z</time>
      </trkpt>
      <trkpt lat="45.61466" lon="6.04969">
        <ele>1256.5803</ele>
        <time>2011-06-12T12:15:42Z</time>
      </trkpt>
      <trkpt lat="45.61463" lon="6.04968">
        <ele>1254.6577</ele>
        <time>2011-06-12T12:15:43Z</time>
      </trkpt>
      <trkpt lat="45.6146" lon="6.04964">
        <ele>1257.061</ele>
        <time>2011-06-12T12:15:44Z</time>
      </trkpt>
      <trkpt lat="45.61459" lon="6.04962">
        <ele>1254.1772</ele>
        <time>2011-06-12T12:15:45Z</time>
      </trkpt>
      <trkpt lat="45.61456" lon="6.04959">
        <ele>1255.6191</ele>
        <time>2011-06-12T12:15:47Z</time>
      </trkpt>
      <trkpt lat="45.61451" lon="6.04955">
        <ele>1252.7351</ele>
        <time>2011-06-12T12:15:49Z</time>
      </trkpt>
      <trkpt lat="45.61453" lon="6.04955">
        <ele>1248.4091</ele>
        <time>2011-06-12T12:15:50Z</time>
      </trkpt>
      <trkpt lat="45.61453" lon="6.04946">
        <ele>1242.6413</ele>
        <time>2011-06-12T12:15:52Z</time>
      </trkpt>
      <trkpt lat="45.61448" lon="6.04941">
        <ele>1238.3154</ele>
        <time>2011-06-12T12:15:55Z</time>
      </trkpt>
      <trkpt lat="45.61445" lon="6.04934">
        <ele>1240.7185</ele>
        <time>2011-06-12T12:15:57Z</time>
      </trkpt>
      <trkpt lat="45.61443" lon="6.0493">
        <ele>1239.7573</ele>
        <time>2011-06-12T12:15:58Z</time>
      </trkpt>
      <trkpt lat="45.61439" lon="6.04924">
        <ele>1239.2766</ele>
        <time>2011-06-12T12:16:01Z</time>
      </trkpt>
      <trkpt lat="45.61435" lon="6.04922">
        <ele>1238.3154</ele>
        <time>2011-06-12T12:16:02Z</time>
      </trkpt>
      <trkpt lat="45.61429" lon="6.0492">
        <ele>1235.4313</ele>
        <time>2011-06-12T12:16:05Z</time>
      </trkpt>
      <trkpt lat="45.61434" lon="6.04919">
        <ele>1233.028</ele>
        <time>2011-06-12T12:16:07Z</time>
      </trkpt>
      <trkpt lat="45.6144" lon="6.04918">
        <ele>1229.6635</ele>
        <time>2011-06-12T12:16:09Z</time>
      </trkpt>
      <trkpt lat="45.61446" lon="6.04914">
        <ele>1226.7795</ele>
        <time>2011-06-12T12:16:12Z</time>
      </trkpt>
      <trkpt lat="45.61451" lon="6.04907">
        <ele>1223.8955</ele>
        <time>2011-06-12T12:16:14Z</time>
      </trkpt>
      <trkpt lat="45.61448" lon="6.04901">
        <ele>1223.415</ele>
        <time>2011-06-12T12:16:16Z</time>
      </trkpt>
      <trkpt lat="45.61443" lon="6.04897">
        <ele>1223.415</ele>
        <time>2011-06-12T12:16:19Z</time>
      </trkpt>
      <trkpt lat="45.61437" lon="6.04887">
        <ele>1222.9343</ele>
        <time>2011-06-12T12:16:23Z</time>
      </trkpt>
      <trkpt lat="45.61437" lon="6.04879">
        <ele>1219.5698</ele>
        <time>2011-06-12T12:16:25Z</time>
      </trkpt>
      <trkpt lat="45.61437" lon="6.04877">
        <ele>1220.531</ele>
        <time>2011-06-12T12:16:25Z</time>
      </trkpt>
      <trkpt lat="45.61441" lon="6.04867">
        <ele>1228.7023</ele>
        <time>2011-06-12T12:16:29Z</time>
      </trkpt>
      <trkpt lat="45.61447" lon="6.04869">
        <ele>1223.8955</ele>
        <time>2011-06-12T12:16:31Z</time>
      </trkpt>
      <trkpt lat="45.6145" lon="6.04866">
        <ele>1220.531</ele>
        <time>2011-06-12T12:16:33Z</time>
      </trkpt>
      <trkpt lat="45.61442" lon="6.04862">
        <ele>1213.3212</ele>
        <time>2011-06-12T12:16:36Z</time>
      </trkpt>
      <trkpt lat="45.61437" lon="6.04854">
        <ele>1209.4758</ele>
        <time>2011-06-12T12:16:39Z</time>
      </trkpt>
      <trkpt lat="45.61432" lon="6.0485">
        <ele>1205.1499</ele>
        <time>2011-06-12T12:16:41Z</time>
      </trkpt>
      <trkpt lat="45.61431" lon="6.04848">
        <ele>1205.6306</ele>
        <time>2011-06-12T12:16:42Z</time>
      </trkpt>
      <trkpt lat="45.61435" lon="6.04846">
        <ele>1201.7854</ele>
        <time>2011-06-12T12:16:44Z</time>
      </trkpt>
      <trkpt lat="45.61437" lon="6.04842">
        <ele>1201.7854</ele>
        <time>2011-06-12T12:16:46Z</time>
      </trkpt>
      <trkpt lat="45.61438" lon="6.04841">
        <ele>1202.2658</ele>
        <time>2011-06-12T12:16:46Z</time>
      </trkpt>
      <trkpt lat="45.61442" lon="6.04837">
        <ele>1198.9013</ele>
        <time>2011-06-12T12:16:48Z</time>
      </trkpt>
      <trkpt lat="45.6144" lon="6.04831">
        <ele>1199.8627</ele>
        <time>2011-06-12T12:16:49Z</time>
      </trkpt>
      <trkpt lat="45.61436" lon="6.0483">
        <ele>1198.9013</ele>
        <time>2011-06-12T12:16:51Z</time>
      </trkpt>
      <trkpt lat="45.61439" lon="6.04828">
        <ele>1194.5751</ele>
        <time>2011-06-12T12:16:53Z</time>
      </trkpt>
      <trkpt lat="45.61445" lon="6.04826">
        <ele>1192.6528</ele>
        <time>2011-06-12T12:16:55Z</time>
      </trkpt>
      <trkpt lat="45.61448" lon="6.04821">
        <ele>1197.4594</ele>
        <time>2011-06-12T12:16:57Z</time>
      </trkpt>
      <trkpt lat="45.61453" lon="6.0482">
        <ele>1190.2495</ele>
        <time>2011-06-12T12:16:59Z</time>
      </trkpt>
      <trkpt lat="45.61455" lon="6.04815">
        <ele>1192.6528</ele>
        <time>2011-06-12T12:17:01Z</time>
      </trkpt>
      <trkpt lat="45.61452" lon="6.04809">
        <ele>1196.0175</ele>
        <time>2011-06-12T12:17:03Z</time>
      </trkpt>
      <trkpt lat="45.61454" lon="6.04808">
        <ele>1201.3046</ele>
        <time>2011-06-12T12:17:03Z</time>
      </trkpt>
      <trkpt lat="45.61453" lon="6.04808">
        <ele>1201.7854</ele>
        <time>2011-06-12T12:17:04Z</time>
      </trkpt>
      <trkpt lat="45.61451" lon="6.048">
        <ele>1203.2272</ele>
        <time>2011-06-12T12:17:06Z</time>
      </trkpt>
      <trkpt lat="45.61442" lon="6.04795">
        <ele>1201.3046</ele>
        <time>2011-06-12T12:17:10Z</time>
      </trkpt>
      <trkpt lat="45.61438" lon="6.04799">
        <ele>1196.0175</ele>
        <time>2011-06-12T12:17:11Z</time>
      </trkpt>
      <trkpt lat="45.61436" lon="6.04799">
        <ele>1193.1333</ele>
        <time>2011-06-12T12:17:12Z</time>
      </trkpt>
      <trkpt lat="45.61428" lon="6.04802">
        <ele>1189.288</ele>
        <time>2011-06-12T12:17:15Z</time>
      </trkpt>
      <trkpt lat="45.61424" lon="6.04801">
        <ele>1187.8461</ele>
        <time>2011-06-12T12:17:17Z</time>
      </trkpt>
      <trkpt lat="45.61417" lon="6.04807">
        <ele>1183.0395</ele>
        <time>2011-06-12T12:17:20Z</time>
      </trkpt>
      <trkpt lat="45.61402" lon="6.04818">
        <ele>1178.7136</ele>
        <time>2011-06-12T12:17:27Z</time>
      </trkpt>
      <trkpt lat="45.61391" lon="6.04822">
        <ele>1176.791</ele>
        <time>2011-06-12T12:17:32Z</time>
      </trkpt>
      <trkpt lat="45.61378" lon="6.04817">
        <ele>1175.3488</ele>
        <time>2011-06-12T12:17:37Z</time>
      </trkpt>
      <trkpt lat="45.61365" lon="6.04805">
        <ele>1172.9458</ele>
        <time>2011-06-12T12:17:43Z</time>
      </trkpt>
      <trkpt lat="45.61347" lon="6.04799">
        <ele>1169.5812</ele>
        <time>2011-06-12T12:17:51Z</time>
      </trkpt>
      <trkpt lat="45.61328" lon="6.04794">
        <ele>1166.2165</ele>
        <time>2011-06-12T12:17:59Z</time>
      </trkpt>
      <trkpt lat="45.61306" lon="6.04779">
        <ele>1164.7746</ele>
        <time>2011-06-12T12:18:08Z</time>
      </trkpt>
      <trkpt lat="45.61303" lon="6.04776">
        <ele>1164.2939</ele>
        <time>2011-06-12T12:18:10Z</time>
      </trkpt>
      <trkpt lat="45.61292" lon="6.04758">
        <ele>1160.9291</ele>
        <time>2011-06-12T12:18:16Z</time>
      </trkpt>
      <trkpt lat="45.61284" lon="6.04742">
        <ele>1159.9677</ele>
        <time>2011-06-12T12:18:22Z</time>
      </trkpt>
      <trkpt lat="45.61285" lon="6.04742">
        <ele>1160.4484</ele>
        <time>2011-06-12T12:18:22Z</time>
      </trkpt>
      <trkpt lat="45.61285" lon="6.04742">
        <ele>1159.0065</ele>
        <time>2011-06-12T12:18:22Z</time>
      </trkpt>
      <trkpt lat="45.61285" lon="6.04738">
        <ele>1159.9677</ele>
        <time>2011-06-12T12:18:23Z</time>
      </trkpt>
      <trkpt lat="45.61282" lon="6.04714">
        <ele>1155.1613</ele>
        <time>2011-06-12T12:18:30Z</time>
      </trkpt>
      <trkpt lat="45.61279" lon="6.04703">
        <ele>1146.0288</ele>
        <time>2011-06-12T12:18:34Z</time>
      </trkpt>
      <trkpt lat="45.61278" lon="6.04699">
        <ele>1145.548</ele>
        <time>2011-06-12T12:18:35Z</time>
      </trkpt>
      <trkpt lat="45.61267" lon="6.04681">
        <ele>1142.6643</ele>
        <time>2011-06-12T12:18:42Z</time>
      </trkpt>
      <trkpt lat="45.61264" lon="6.04674">
        <ele>1145.548</ele>
        <time>2011-06-12T12:18:44Z</time>
      </trkpt>
      <trkpt lat="45.61262" lon="6.04669">
        <ele>1147.4707</ele>
        <time>2011-06-12T12:18:45Z</time>
      </trkpt>
      <trkpt lat="45.61256" lon="6.04656">
        <ele>1143.1447</ele>
        <time>2011-06-12T12:18:50Z</time>
      </trkpt>
      <trkpt lat="45.61253" lon="6.0465">
        <ele>1138.819</ele>
        <time>2011-06-12T12:18:52Z</time>
      </trkpt>
      <trkpt lat="45.61253" lon="6.04651">
        <ele>1137.3769</ele>
        <time>2011-06-12T12:18:52Z</time>
      </trkpt>
      <trkpt lat="45.61255" lon="6.04652">
        <ele>1134.4931</ele>
        <time>2011-06-12T12:18:52Z</time>
      </trkpt>
      <trkpt lat="45.61255" lon="6.04659">
        <ele>1134.4931</ele>
        <time>2011-06-12T12:18:54Z</time>
      </trkpt>
      <trkpt lat="45.61256" lon="6.04662">
        <ele>1134.0124</ele>
        <time>2011-06-12T12:18:55Z</time>
      </trkpt>
      <trkpt lat="45.61255" lon="6.04661">
        <ele>1134.0124</ele>
        <time>2011-06-12T12:18:55Z</time>
      </trkpt>
      <trkpt lat="45.61255" lon="6.04662">
        <ele>1136.8962</ele>
        <time>2011-06-12T12:18:56Z</time>
      </trkpt>
      <trkpt lat="45.61255" lon="6.04663">
        <ele>1135.935</ele>
        <time>2011-06-12T12:18:56Z</time>
      </trkpt>
      <trkpt lat="45.61255" lon="6.0466">
        <ele>1134.0124</ele>
        <time>2011-06-12T12:18:57Z</time>
      </trkpt>
      <trkpt lat="45.61254" lon="6.04658">
        <ele>1134.0124</ele>
        <time>2011-06-12T12:18:57Z</time>
      </trkpt>
      <trkpt lat="45.61259" lon="6.04658">
        <ele>1135.935</ele>
        <time>2011-06-12T12:18:59Z</time>
      </trkpt>
      <trkpt lat="45.61261" lon="6.04664">
        <ele>1138.3383</ele>
        <time>2011-06-12T12:19:01Z</time>
      </trkpt>
      <trkpt lat="45.61261" lon="6.04668">
        <ele>1136.8962</ele>
        <time>2011-06-12T12:19:02Z</time>
      </trkpt>
      <trkpt lat="45.61262" lon="6.04669">
        <ele>1137.8576</ele>
        <time>2011-06-12T12:19:03Z</time>
      </trkpt>
      <trkpt lat="45.61263" lon="6.0467">
        <ele>1138.3383</ele>
        <time>2011-06-12T12:19:04Z</time>
      </trkpt>
      <trkpt lat="45.61265" lon="6.04672">
        <ele>1139.2995</ele>
        <time>2011-06-12T12:19:04Z</time>
      </trkpt>
      <trkpt lat="45.61266" lon="6.04674">
        <ele>1139.7802</ele>
        <time>2011-06-12T12:19:05Z</time>
      </trkpt>
      <trkpt lat="45.61267" lon="6.04676">
        <ele>1140.7414</ele>
        <time>2011-06-12T12:19:06Z</time>
      </trkpt>
      <trkpt lat="45.61266" lon="6.04676">
        <ele>1141.2221</ele>
        <time>2011-06-12T12:19:06Z</time>
      </trkpt>
      <trkpt lat="45.61267" lon="6.04679">
        <ele>1142.1835</ele>
        <time>2011-06-12T12:19:07Z</time>
      </trkpt>
      <trkpt lat="45.61267" lon="6.04681">
        <ele>1144.1062</ele>
        <time>2011-06-12T12:19:07Z</time>
      </trkpt>
      <trkpt lat="45.61267" lon="6.04681">
        <ele>1144.5866</ele>
        <time>2011-06-12T12:19:07Z</time>
      </trkpt>
      <trkpt lat="45.61267" lon="6.04681">
        <ele>1144.1062</ele>
        <time>2011-06-12T12:19:07Z</time>
      </trkpt>
      <trkpt lat="45.61267" lon="6.04681">
        <ele>1144.1062</ele>
        <time>2011-06-12T12:19:07Z</time>
      </trkpt>
      <trkpt lat="45.61268" lon="6.04681">
        <ele>1143.6254</ele>
        <time>2011-06-12T12:19:08Z</time>
      </trkpt>
      <trkpt lat="45.61273" lon="6.0469">
        <ele>1146.0288</ele>
        <time>2011-06-12T12:19:11Z</time>
      </trkpt>
      <trkpt lat="45.61274" lon="6.04692">
        <ele>1147.4707</ele>
        <time>2011-06-12T12:19:12Z</time>
      </trkpt>
      <trkpt lat="45.61276" lon="6.04695">
        <ele>1147.4707</ele>
        <time>2011-06-12T12:19:13Z</time>
      </trkpt>
      <trkpt lat="45.61277" lon="6.04699">
        <ele>1148.4321</ele>
        <time>2011-06-12T12:19:14Z</time>
      </trkpt>
      <trkpt lat="45.61279" lon="6.04706">
        <ele>1150.8354</ele>
        <time>2011-06-12T12:19:16Z</time>
      </trkpt>
      <trkpt lat="45.61278" lon="6.04711">
        <ele>1149.3935</ele>
        <time>2011-06-12T12:19:17Z</time>
      </trkpt>
      <trkpt lat="45.61277" lon="6.04709">
        <ele>1149.8742</ele>
        <time>2011-06-12T12:19:18Z</time>
      </trkpt>
      <trkpt lat="45.61277" lon="6.0471">
        <ele>1150.3549</ele>
        <time>2011-06-12T12:19:18Z</time>
      </trkpt>
      <trkpt lat="45.61283" lon="6.04717">
        <ele>1153.2387</ele>
        <time>2011-06-12T12:19:21Z</time>
      </trkpt>
      <trkpt lat="45.61282" lon="6.04725">
        <ele>1151.7968</ele>
        <time>2011-06-12T12:19:23Z</time>
      </trkpt>
      <trkpt lat="45.61283" lon="6.04735">
        <ele>1149.3935</ele>
        <time>2011-06-12T12:19:26Z</time>
      </trkpt>
      <trkpt lat="45.61284" lon="6.04739">
        <ele>1150.8354</ele>
        <time>2011-06-12T12:19:28Z</time>
      </trkpt>
      <trkpt lat="45.61285" lon="6.04742">
        <ele>1153.2387</ele>
        <time>2011-06-12T12:19:29Z</time>
      </trkpt>
      <trkpt lat="45.61284" lon="6.04744">
        <ele>1156.1225</ele>
        <time>2011-06-12T12:19:29Z</time>
      </trkpt>
      <trkpt lat="45.61284" lon="6.04742">
        <ele>1157.5646</ele>
        <time>2011-06-12T12:19:29Z</time>
      </trkpt>
      <trkpt lat="45.61283" lon="6.04733">
        <ele>1159.4873</ele>
        <time>2011-06-12T12:19:32Z</time>
      </trkpt>
      <trkpt lat="45.61275" lon="6.04726">
        <ele>1156.1225</ele>
        <time>2011-06-12T12:19:36Z</time>
      </trkpt>
      <trkpt lat="45.61272" lon="6.04729">
        <ele>1150.8354</ele>
        <time>2011-06-12T12:19:37Z</time>
      </trkpt>
      <trkpt lat="45.61272" lon="6.04724">
        <ele>1154.2001</ele>
        <time>2011-06-12T12:19:39Z</time>
      </trkpt>
      <trkpt lat="45.6127" lon="6.04722">
        <ele>1154.6806</ele>
        <time>2011-06-12T12:19:40Z</time>
      </trkpt>
      <trkpt lat="45.61262" lon="6.04712">
        <ele>1156.6032</ele>
        <time>2011-06-12T12:19:44Z</time>
      </trkpt>
      <trkpt lat="45.61254" lon="6.04705">
        <ele>1156.1225</ele>
        <time>2011-06-12T12:19:48Z</time>
      </trkpt>
      <trkpt lat="45.61251" lon="6.04704">
        <ele>1155.642</ele>
        <time>2011-06-12T12:19:49Z</time>
      </trkpt>
      <trkpt lat="45.61244" lon="6.04697">
        <ele>1155.642</ele>
        <time>2011-06-12T12:19:53Z</time>
      </trkpt>
      <trkpt lat="45.61241" lon="6.04696">
        <ele>1154.2001</ele>
        <time>2011-06-12T12:19:54Z</time>
      </trkpt>
      <trkpt lat="45.61226" lon="6.04697">
        <ele>1150.8354</ele>
        <time>2011-06-12T12:20:00Z</time>
      </trkpt>
      <trkpt lat="45.6121" lon="6.0469">
        <ele>1148.4321</ele>
        <time>2011-06-12T12:20:06Z</time>
      </trkpt>
      <trkpt lat="45.61202" lon="6.0468">
        <ele>1144.5866</ele>
        <time>2011-06-12T12:20:11Z</time>
      </trkpt>
      <trkpt lat="45.61189" lon="6.0466">
        <ele>1146.0288</ele>
        <time>2011-06-12T12:20:18Z</time>
      </trkpt>
      <trkpt lat="45.61172" lon="6.04649">
        <ele>1143.1447</ele>
        <time>2011-06-12T12:20:26Z</time>
      </trkpt>
      <trkpt lat="45.61154" lon="6.04647">
        <ele>1137.3769</ele>
        <time>2011-06-12T12:20:33Z</time>
      </trkpt>
      <trkpt lat="45.61138" lon="6.04635">
        <ele>1131.6088</ele>
        <time>2011-06-12T12:20:40Z</time>
      </trkpt>
      <trkpt lat="45.6112" lon="6.04615">
        <ele>1127.7636</ele>
        <time>2011-06-12T12:20:49Z</time>
      </trkpt>
      <trkpt lat="45.61102" lon="6.04606">
        <ele>1121.5151</ele>
        <time>2011-06-12T12:20:57Z</time>
      </trkpt>
      <trkpt lat="45.6108" lon="6.04601">
        <ele>1116.228</ele>
        <time>2011-06-12T12:21:06Z</time>
      </trkpt>
      <trkpt lat="45.61071" lon="6.04597">
        <ele>1113.8244</ele>
        <time>2011-06-12T12:21:10Z</time>
      </trkpt>
      <trkpt lat="45.61057" lon="6.04587">
        <ele>1110.9406</ele>
        <time>2011-06-12T12:21:16Z</time>
      </trkpt>
      <trkpt lat="45.61047" lon="6.04576">
        <ele>1110.4599</ele>
        <time>2011-06-12T12:21:21Z</time>
      </trkpt>
      <trkpt lat="45.61033" lon="6.04563">
        <ele>1108.0568</ele>
        <time>2011-06-12T12:21:28Z</time>
      </trkpt>
      <trkpt lat="45.61024" lon="6.04552">
        <ele>1103.7309</ele>
        <time>2011-06-12T12:21:32Z</time>
      </trkpt>
      <trkpt lat="45.61011" lon="6.04533">
        <ele>1100.8469</ele>
        <time>2011-06-12T12:21:40Z</time>
      </trkpt>
      <trkpt lat="45.60997" lon="6.04522">
        <ele>1094.5981</ele>
        <time>2011-06-12T12:21:46Z</time>
      </trkpt>
      <trkpt lat="45.60983" lon="6.04512">
        <ele>1087.3884</ele>
        <time>2011-06-12T12:21:52Z</time>
      </trkpt>
      <trkpt lat="45.6097" lon="6.04503">
        <ele>1084.5046</ele>
        <time>2011-06-12T12:21:58Z</time>
      </trkpt>
      <trkpt lat="45.60961" lon="6.04494">
        <ele>1083.0622</ele>
        <time>2011-06-12T12:22:03Z</time>
      </trkpt>
      <trkpt lat="45.60956" lon="6.04491">
        <ele>1082.5817</ele>
        <time>2011-06-12T12:22:05Z</time>
      </trkpt>
      <trkpt lat="45.60948" lon="6.04489">
        <ele>1079.6977</ele>
        <time>2011-06-12T12:22:08Z</time>
      </trkpt>
      <trkpt lat="45.60938" lon="6.04477">
        <ele>1078.7365</ele>
        <time>2011-06-12T12:22:13Z</time>
      </trkpt>
      <trkpt lat="45.60928" lon="6.04458">
        <ele>1077.7751</ele>
        <time>2011-06-12T12:22:20Z</time>
      </trkpt>
      <trkpt lat="45.60927" lon="6.04454">
        <ele>1078.7365</ele>
        <time>2011-06-12T12:22:21Z</time>
      </trkpt>
      <trkpt lat="45.60914" lon="6.04438">
        <ele>1074.4106</ele>
        <time>2011-06-12T12:22:28Z</time>
      </trkpt>
      <trkpt lat="45.60904" lon="6.04427">
        <ele>1069.6042</ele>
        <time>2011-06-12T12:22:33Z</time>
      </trkpt>
      <trkpt lat="45.60901" lon="6.04424">
        <ele>1066.2392</ele>
        <time>2011-06-12T12:22:34Z</time>
      </trkpt>
      <trkpt lat="45.60895" lon="6.04415">
        <ele>1063.8359</ele>
        <time>2011-06-12T12:22:38Z</time>
      </trkpt>
      <trkpt lat="45.60893" lon="6.04408">
        <ele>1066.7199</ele>
        <time>2011-06-12T12:22:40Z</time>
      </trkpt>
      <trkpt lat="45.6089" lon="6.04413">
        <ele>1063.8359</ele>
        <time>2011-06-12T12:22:42Z</time>
      </trkpt>
      <trkpt lat="45.60886" lon="6.04412">
        <ele>1059.9907</ele>
        <time>2011-06-12T12:22:44Z</time>
      </trkpt>
      <trkpt lat="45.60876" lon="6.0441">
        <ele>1053.7424</ele>
        <time>2011-06-12T12:22:48Z</time>
      </trkpt>
      <trkpt lat="45.60874" lon="6.0441">
        <ele>1052.3002</ele>
        <time>2011-06-12T12:22:48Z</time>
      </trkpt>
      <trkpt lat="45.60872" lon="6.04407">
        <ele>1050.3776</ele>
        <time>2011-06-12T12:22:49Z</time>
      </trkpt>
      <trkpt lat="45.60874" lon="6.04416">
        <ele>1034.9965</ele>
        <time>2011-06-12T12:22:52Z</time>
      </trkpt>
      <trkpt lat="45.60876" lon="6.04417">
        <ele>1033.5544</ele>
        <time>2011-06-12T12:22:53Z</time>
      </trkpt>
      <trkpt lat="45.60877" lon="6.04416">
        <ele>1034.5158</ele>
        <time>2011-06-12T12:22:53Z</time>
      </trkpt>
      <trkpt lat="45.60874" lon="6.0441">
        <ele>1037.3999</ele>
        <time>2011-06-12T12:22:56Z</time>
      </trkpt>
      <trkpt lat="45.60868" lon="6.04407">
        <ele>1041.2451</ele>
        <time>2011-06-12T12:22:58Z</time>
      </trkpt>
      <trkpt lat="45.60866" lon="6.04404">
        <ele>1041.2451</ele>
        <time>2011-06-12T12:22:59Z</time>
      </trkpt>
      <trkpt lat="45.60865" lon="6.04403">
        <ele>1040.7644</ele>
        <time>2011-06-12T12:23:00Z</time>
      </trkpt>
      <trkpt lat="45.60865" lon="6.04392">
        <ele>1041.2451</ele>
        <time>2011-06-12T12:23:03Z</time>
      </trkpt>
      <trkpt lat="45.60863" lon="6.04389">
        <ele>1038.3613</ele>
        <time>2011-06-12T12:23:04Z</time>
      </trkpt>
      <trkpt lat="45.60861" lon="6.04384">
        <ele>1036.9191</ele>
        <time>2011-06-12T12:23:06Z</time>
      </trkpt>
      <trkpt lat="45.60859" lon="6.04375">
        <ele>1034.9965</ele>
        <time>2011-06-12T12:23:08Z</time>
      </trkpt>
      <trkpt lat="45.60857" lon="6.04365">
        <ele>1034.9965</ele>
        <time>2011-06-12T12:23:11Z</time>
      </trkpt>
      <trkpt lat="45.60856" lon="6.04355">
        <ele>1032.1125</ele>
        <time>2011-06-12T12:23:14Z</time>
      </trkpt>
      <trkpt lat="45.60856" lon="6.0435">
        <ele>1030.1899</ele>
        <time>2011-06-12T12:23:15Z</time>
      </trkpt>
      <trkpt lat="45.60859" lon="6.04334">
        <ele>1026.3447</ele>
        <time>2011-06-12T12:23:20Z</time>
      </trkpt>
      <trkpt lat="45.60859" lon="6.04318">
        <ele>1018.1733</ele>
        <time>2011-06-12T12:23:25Z</time>
      </trkpt>
      <trkpt lat="45.60856" lon="6.04304">
        <ele>1013.8474</ele>
        <time>2011-06-12T12:23:29Z</time>
      </trkpt>
      <trkpt lat="45.60854" lon="6.04299">
        <ele>1011.4443</ele>
        <time>2011-06-12T12:23:30Z</time>
      </trkpt>
      <trkpt lat="45.60855" lon="6.04296">
        <ele>1015.7702</ele>
        <time>2011-06-12T12:23:31Z</time>
      </trkpt>
      <trkpt lat="45.60852" lon="6.04285">
        <ele>1020.5769</ele>
        <time>2011-06-12T12:23:34Z</time>
      </trkpt>
      <trkpt lat="45.60846" lon="6.04278">
        <ele>1013.3669</ele>
        <time>2011-06-12T12:23:38Z</time>
      </trkpt>
      <trkpt lat="45.60841" lon="6.04276">
        <ele>1008.0798</ele>
        <time>2011-06-12T12:23:40Z</time>
      </trkpt>
      <trkpt lat="45.60839" lon="6.04273">
        <ele>1006.6376</ele>
        <time>2011-06-12T12:23:41Z</time>
      </trkpt>
      <trkpt lat="45.60838" lon="6.04272">
        <ele>1008.5603</ele>
        <time>2011-06-12T12:23:41Z</time>
      </trkpt>
      <trkpt lat="45.60833" lon="6.04261">
        <ele>1010.4829</ele>
        <time>2011-06-12T12:23:45Z</time>
      </trkpt>
      <trkpt lat="45.60833" lon="6.04258">
        <ele>1010.9636</ele>
        <time>2011-06-12T12:23:46Z</time>
      </trkpt>
      <trkpt lat="45.60831" lon="6.04254">
        <ele>1008.5603</ele>
        <time>2011-06-12T12:23:47Z</time>
      </trkpt>
      <trkpt lat="45.60828" lon="6.04246">
        <ele>1005.6765</ele>
        <time>2011-06-12T12:23:50Z</time>
      </trkpt>
      <trkpt lat="45.60827" lon="6.04241">
        <ele>1003.7536</ele>
        <time>2011-06-12T12:23:51Z</time>
      </trkpt>
      <trkpt lat="45.60826" lon="6.04237">
        <ele>1002.3115</ele>
        <time>2011-06-12T12:23:52Z</time>
      </trkpt>
      <trkpt lat="45.60825" lon="6.04235">
        <ele>1004.715</ele>
        <time>2011-06-12T12:23:53Z</time>
      </trkpt>
      <trkpt lat="45.60826" lon="6.04236">
        <ele>1008.0798</ele>
        <time>2011-06-12T12:23:53Z</time>
      </trkpt>
      <trkpt lat="45.60825" lon="6.04235">
        <ele>1013.3669</ele>
        <time>2011-06-12T12:23:53Z</time>
      </trkpt>
      <trkpt lat="45.60825" lon="6.04236">
        <ele>1011.4443</ele>
        <time>2011-06-12T12:23:54Z</time>
      </trkpt>
      <trkpt lat="45.60825" lon="6.04236">
        <ele>1010.0021</ele>
        <time>2011-06-12T12:23:54Z</time>
      </trkpt>
      <trkpt lat="45.60825" lon="6.04234">
        <ele>1008.0798</ele>
        <time>2011-06-12T12:23:54Z</time>
      </trkpt>
      <trkpt lat="45.60825" lon="6.04218">
        <ele>1005.1958</ele>
        <time>2011-06-12T12:23:59Z</time>
      </trkpt>
      <trkpt lat="45.6083" lon="6.04205">
        <ele>999.90844</ele>
        <time>2011-06-12T12:24:03Z</time>
      </trkpt>
      <trkpt lat="45.6084" lon="6.04194">
        <ele>995.1018</ele>
        <time>2011-06-12T12:24:08Z</time>
      </trkpt>
      <trkpt lat="45.6085" lon="6.04175">
        <ele>990.29541</ele>
        <time>2011-06-12T12:24:15Z</time>
      </trkpt>
      <trkpt lat="45.60851" lon="6.04166">
        <ele>988.85351</ele>
        <time>2011-06-12T12:24:17Z</time>
      </trkpt>
      <trkpt lat="45.60852" lon="6.04156">
        <ele>988.3728</ele>
        <time>2011-06-12T12:24:20Z</time>
      </trkpt>
      <trkpt lat="45.60855" lon="6.0414">
        <ele>988.3728</ele>
        <time>2011-06-12T12:24:25Z</time>
      </trkpt>
      <trkpt lat="45.60857" lon="6.04133">
        <ele>985.48852</ele>
        <time>2011-06-12T12:24:27Z</time>
      </trkpt>
      <trkpt lat="45.60856" lon="6.04126">
        <ele>985.96923</ele>
        <time>2011-06-12T12:24:29Z</time>
      </trkpt>
      <trkpt lat="45.60856" lon="6.04121">
        <ele>982.12402</ele>
        <time>2011-06-12T12:24:30Z</time>
      </trkpt>
      <trkpt lat="45.60857" lon="6.041">
        <ele>982.60473</ele>
        <time>2011-06-12T12:24:36Z</time>
      </trkpt>
      <trkpt lat="45.60859" lon="6.04092">
        <ele>980.20141</ele>
        <time>2011-06-12T12:24:38Z</time>
      </trkpt>
      <trkpt lat="45.60859" lon="6.04088">
        <ele>978.2788</ele>
        <time>2011-06-12T12:24:40Z</time>
      </trkpt>
      <trkpt lat="45.60859" lon="6.04087">
        <ele>977.79809</ele>
        <time>2011-06-12T12:24:40Z</time>
      </trkpt>
      <trkpt lat="45.6086" lon="6.04086">
        <ele>975.39477</ele>
        <time>2011-06-12T12:24:40Z</time>
      </trkpt>
      <trkpt lat="45.6086" lon="6.04085">
        <ele>975.39477</ele>
        <time>2011-06-12T12:24:41Z</time>
      </trkpt>
      <trkpt lat="45.60863" lon="6.04077">
        <ele>975.87548</ele>
        <time>2011-06-12T12:24:43Z</time>
      </trkpt>
      <trkpt lat="45.60862" lon="6.04076">
        <ele>978.2788</ele>
        <time>2011-06-12T12:24:43Z</time>
      </trkpt>
      <trkpt lat="45.6086" lon="6.04076">
        <ele>977.31762</ele>
        <time>2011-06-12T12:24:44Z</time>
      </trkpt>
      <trkpt lat="45.60862" lon="6.04077">
        <ele>977.31762</ele>
        <time>2011-06-12T12:24:45Z</time>
      </trkpt>
      <trkpt lat="45.60861" lon="6.04077">
        <ele>976.83691</ele>
        <time>2011-06-12T12:24:45Z</time>
      </trkpt>
      <trkpt lat="45.6086" lon="6.04075">
        <ele>976.3562</ele>
        <time>2011-06-12T12:24:46Z</time>
      </trkpt>
      <trkpt lat="45.60861" lon="6.04074">
        <ele>975.87548</ele>
        <time>2011-06-12T12:24:46Z</time>
      </trkpt>
      <trkpt lat="45.60864" lon="6.04064">
        <ele>973.95288</ele>
        <time>2011-06-12T12:24:49Z</time>
      </trkpt>
      <trkpt lat="45.60865" lon="6.04067">
        <ele>971.54931</ele>
        <time>2011-06-12T12:24:50Z</time>
      </trkpt>
      <trkpt lat="45.60865" lon="6.04065">
        <ele>972.03027</ele>
        <time>2011-06-12T12:24:51Z</time>
      </trkpt>
      <trkpt lat="45.60865" lon="6.04047">
        <ele>971.06884</ele>
        <time>2011-06-12T12:24:56Z</time>
      </trkpt>
      <trkpt lat="45.60864" lon="6.04029">
        <ele>969.62695</ele>
        <time>2011-06-12T12:25:01Z</time>
      </trkpt>
      <trkpt lat="45.60866" lon="6.04016">
        <ele>967.22363</ele>
        <time>2011-06-12T12:25:04Z</time>
      </trkpt>
      <trkpt lat="45.60866" lon="6.04013">
        <ele>967.22363</ele>
        <time>2011-06-12T12:25:05Z</time>
      </trkpt>
      <trkpt lat="45.60867" lon="6.0401">
        <ele>967.22363</ele>
        <time>2011-06-12T12:25:06Z</time>
      </trkpt>
      <trkpt lat="45.60868" lon="6.04011">
        <ele>966.74291</ele>
        <time>2011-06-12T12:25:07Z</time>
      </trkpt>
      <trkpt lat="45.60868" lon="6.0401">
        <ele>967.7041</ele>
        <time>2011-06-12T12:25:07Z</time>
      </trkpt>
      <trkpt lat="45.60864" lon="6.0401">
        <ele>967.7041</ele>
        <time>2011-06-12T12:25:09Z</time>
      </trkpt>
      <trkpt lat="45.60863" lon="6.04008">
        <ele>967.7041</ele>
        <time>2011-06-12T12:25:09Z</time>
      </trkpt>
      <trkpt lat="45.60861" lon="6.04009">
        <ele>967.22363</ele>
        <time>2011-06-12T12:25:10Z</time>
      </trkpt>
      <trkpt lat="45.60859" lon="6.04009">
        <ele>965.30102</ele>
        <time>2011-06-12T12:25:11Z</time>
      </trkpt>
      <trkpt lat="45.60858" lon="6.04006">
        <ele>963.37841</ele>
        <time>2011-06-12T12:25:12Z</time>
      </trkpt>
      <trkpt lat="45.60858" lon="6.04008">
        <ele>965.30102</ele>
        <time>2011-06-12T12:25:12Z</time>
      </trkpt>
      <trkpt lat="45.60858" lon="6.04009">
        <ele>967.22363</ele>
        <time>2011-06-12T12:25:13Z</time>
      </trkpt>
      <trkpt lat="45.60861" lon="6.0401">
        <ele>965.78173</ele>
        <time>2011-06-12T12:25:14Z</time>
      </trkpt>
      <trkpt lat="45.60866" lon="6.04011">
        <ele>967.7041</ele>
        <time>2011-06-12T12:25:16Z</time>
      </trkpt>
      <trkpt lat="45.60867" lon="6.0401">
        <ele>967.22363</ele>
        <time>2011-06-12T12:25:16Z</time>
      </trkpt>
      <trkpt lat="45.60868" lon="6.04009">
        <ele>967.22363</ele>
        <time>2011-06-12T12:25:17Z</time>
      </trkpt>
      <trkpt lat="45.60869" lon="6.04009">
        <ele>967.22363</ele>
        <time>2011-06-12T12:25:17Z</time>
      </trkpt>
      <trkpt lat="45.60866" lon="6.0401">
        <ele>964.33959</ele>
        <time>2011-06-12T12:25:18Z</time>
      </trkpt>
      <trkpt lat="45.60867" lon="6.04008">
        <ele>964.33959</ele>
        <time>2011-06-12T12:25:19Z</time>
      </trkpt>
      <trkpt lat="45.60879" lon="6.04">
        <ele>965.30102</ele>
        <time>2011-06-12T12:25:25Z</time>
      </trkpt>
      <trkpt lat="45.60885" lon="6.03997">
        <ele>964.82031</ele>
        <time>2011-06-12T12:25:27Z</time>
      </trkpt>
      <trkpt lat="45.6089" lon="6.03993">
        <ele>965.30102</ele>
        <time>2011-06-12T12:25:29Z</time>
      </trkpt>
      <trkpt lat="45.6089" lon="6.03992">
        <ele>966.74291</ele>
        <time>2011-06-12T12:25:30Z</time>
      </trkpt>
      <trkpt lat="45.60891" lon="6.03988">
        <ele>966.74291</ele>
        <time>2011-06-12T12:25:31Z</time>
      </trkpt>
      <trkpt lat="45.6088" lon="6.03981">
        <ele>964.82031</ele>
        <time>2011-06-12T12:25:36Z</time>
      </trkpt>
      <trkpt lat="45.60866" lon="6.03982">
        <ele>962.41699</ele>
        <time>2011-06-12T12:25:41Z</time>
      </trkpt>
      <trkpt lat="45.6085" lon="6.03988">
        <ele>959.5332</ele>
        <time>2011-06-12T12:25:48Z</time>
      </trkpt>
      <trkpt lat="45.60836" lon="6.03997">
        <ele>958.0913</ele>
        <time>2011-06-12T12:25:54Z</time>
      </trkpt>
      <trkpt lat="45.60815" lon="6.04004">
        <ele>956.64916</ele>
        <time>2011-06-12T12:26:02Z</time>
      </trkpt>
      <trkpt lat="45.60801" lon="6.04011">
        <ele>954.72631</ele>
        <time>2011-06-12T12:26:09Z</time>
      </trkpt>
      <trkpt lat="45.60791" lon="6.04028">
        <ele>953.28442</ele>
        <time>2011-06-12T12:26:15Z</time>
      </trkpt>
      <trkpt lat="45.60784" lon="6.04058">
        <ele>948.95849</ele>
        <time>2011-06-12T12:26:24Z</time>
      </trkpt>
      <trkpt lat="45.60783" lon="6.04062">
        <ele>948.95849</ele>
        <time>2011-06-12T12:26:25Z</time>
      </trkpt>
      <trkpt lat="45.60769" lon="6.04062">
        <ele>950.8811</ele>
        <time>2011-06-12T12:26:31Z</time>
      </trkpt>
      <trkpt lat="45.60752" lon="6.04058">
        <ele>949.4392</ele>
        <time>2011-06-12T12:26:37Z</time>
      </trkpt>
      <trkpt lat="45.60743" lon="6.04069">
        <ele>947.5166</ele>
        <time>2011-06-12T12:26:42Z</time>
      </trkpt>
      <trkpt lat="45.60739" lon="6.04082">
        <ele>945.11328</ele>
        <time>2011-06-12T12:26:46Z</time>
      </trkpt>
      <trkpt lat="45.60732" lon="6.04105">
        <ele>943.19067</ele>
        <time>2011-06-12T12:26:53Z</time>
      </trkpt>
      <trkpt lat="45.60714" lon="6.04109">
        <ele>945.59399</ele>
        <time>2011-06-12T12:27:00Z</time>
      </trkpt>
      <trkpt lat="45.60704" lon="6.04091">
        <ele>947.03588</ele>
        <time>2011-06-12T12:27:07Z</time>
      </trkpt>
      <trkpt lat="45.60691" lon="6.0406">
        <ele>949.4392</ele>
        <time>2011-06-12T12:27:17Z</time>
      </trkpt>
      <trkpt lat="45.60687" lon="6.04052">
        <ele>947.99731</ele>
        <time>2011-06-12T12:27:19Z</time>
      </trkpt>
      <trkpt lat="45.60657" lon="6.04026">
        <ele>944.15209</ele>
        <time>2011-06-12T12:27:34Z</time>
      </trkpt>
      <trkpt lat="45.60628" lon="6.04012">
        <ele>940.78735</ele>
        <time>2011-06-12T12:27:46Z</time>
      </trkpt>
      <trkpt lat="45.60622" lon="6.04006">
        <ele>939.82592</ele>
        <time>2011-06-12T12:27:49Z</time>
      </trkpt>
      <trkpt lat="45.60574" lon="6.03968">
        <ele>935.01953</ele>
        <time>2011-06-12T12:28:11Z</time>
      </trkpt>
      <trkpt lat="45.60563" lon="6.03964">
        <ele>934.0581</ele>
        <time>2011-06-12T12:28:15Z</time>
      </trkpt>
      <trkpt lat="45.6054" lon="6.03951">
        <ele>934.0581</ele>
        <time>2011-06-12T12:28:25Z</time>
      </trkpt>
      <trkpt lat="45.6053" lon="6.03945">
        <ele>933.57739</ele>
        <time>2011-06-12T12:28:30Z</time>
      </trkpt>
      <trkpt lat="45.60509" lon="6.03937">
        <ele>930.21289</ele>
        <time>2011-06-12T12:28:38Z</time>
      </trkpt>
      <trkpt lat="45.6048" lon="6.03923">
        <ele>927.80957</ele>
        <time>2011-06-12T12:28:51Z</time>
      </trkpt>
      <trkpt lat="45.60438" lon="6.03918">
        <ele>923.48364</ele>
        <time>2011-06-12T12:29:08Z</time>
      </trkpt>
      <trkpt lat="45.60412" lon="6.0392">
        <ele>921.56079</ele>
        <time>2011-06-12T12:29:18Z</time>
      </trkpt>
      <trkpt lat="45.60386" lon="6.03923">
        <ele>919.15771</ele>
        <time>2011-06-12T12:29:28Z</time>
      </trkpt>
      <trkpt lat="45.60363" lon="6.03923">
        <ele>916.75439</ele>
        <time>2011-06-12T12:29:38Z</time>
      </trkpt>
      <trkpt lat="45.60334" lon="6.03913">
        <ele>912.42846</ele>
        <time>2011-06-12T12:29:49Z</time>
      </trkpt>
      <trkpt lat="45.6033" lon="6.03911">
        <ele>911.46728</ele>
        <time>2011-06-12T12:29:51Z</time>
      </trkpt>
      <trkpt lat="45.60318" lon="6.0391">
        <ele>909.54467</ele>
        <time>2011-06-12T12:29:56Z</time>
      </trkpt>
      <trkpt lat="45.60304" lon="6.03908">
        <ele>907.62182</ele>
        <time>2011-06-12T12:30:01Z</time>
      </trkpt>
      <trkpt lat="45.60301" lon="6.03905">
        <ele>907.14111</ele>
        <time>2011-06-12T12:30:03Z</time>
      </trkpt>
      <trkpt lat="45.60303" lon="6.03891">
        <ele>905.69921</ele>
        <time>2011-06-12T12:30:07Z</time>
      </trkpt>
      <trkpt lat="45.60311" lon="6.03885">
        <ele>903.29589</ele>
        <time>2011-06-12T12:30:11Z</time>
      </trkpt>
      <trkpt lat="45.60331" lon="6.03874">
        <ele>901.854</ele>
        <time>2011-06-12T12:30:19Z</time>
      </trkpt>
      <trkpt lat="45.60349" lon="6.03858">
        <ele>900.89257</ele>
        <time>2011-06-12T12:30:28Z</time>
      </trkpt>
      <trkpt lat="45.60364" lon="6.03848">
        <ele>899.93139</ele>
        <time>2011-06-12T12:30:34Z</time>
      </trkpt>
      <trkpt lat="45.60382" lon="6.03844">
        <ele>895.60546</ele>
        <time>2011-06-12T12:30:41Z</time>
      </trkpt>
      <trkpt lat="45.60396" lon="6.03841">
        <ele>893.20214</ele>
        <time>2011-06-12T12:30:47Z</time>
      </trkpt>
      <trkpt lat="45.60422" lon="6.03832">
        <ele>890.79858</ele>
        <time>2011-06-12T12:30:58Z</time>
      </trkpt>
      <trkpt lat="45.60442" lon="6.03826">
        <ele>888.87622</ele>
        <time>2011-06-12T12:31:06Z</time>
      </trkpt>
      <trkpt lat="45.60465" lon="6.0382">
        <ele>886.4729</ele>
        <time>2011-06-12T12:31:15Z</time>
      </trkpt>
      <trkpt lat="45.60476" lon="6.03818">
        <ele>885.031</ele>
        <time>2011-06-12T12:31:20Z</time>
      </trkpt>
      <trkpt lat="45.60492" lon="6.03816">
        <ele>883.10815</ele>
        <time>2011-06-12T12:31:26Z</time>
      </trkpt>
      <trkpt lat="45.60518" lon="6.03813">
        <ele>881.18579</ele>
        <time>2011-06-12T12:31:37Z</time>
      </trkpt>
      <trkpt lat="45.6054" lon="6.03807">
        <ele>877.34057</ele>
        <time>2011-06-12T12:31:45Z</time>
      </trkpt>
      <trkpt lat="45.60554" lon="6.03801">
        <ele>873.0144</ele>
        <time>2011-06-12T12:31:52Z</time>
      </trkpt>
      <trkpt lat="45.6057" lon="6.03794">
        <ele>870.13037</ele>
        <time>2011-06-12T12:31:58Z</time>
      </trkpt>
      <trkpt lat="45.60584" lon="6.03786">
        <ele>868.20776</ele>
        <time>2011-06-12T12:32:04Z</time>
      </trkpt>
      <trkpt lat="45.60607" lon="6.03772">
        <ele>866.28515</ele>
        <time>2011-06-12T12:32:14Z</time>
      </trkpt>
      <trkpt lat="45.6062" lon="6.03751">
        <ele>865.80468</ele>
        <time>2011-06-12T12:32:22Z</time>
      </trkpt>
      <trkpt lat="45.60625" lon="6.03735">
        <ele>865.32397</ele>
        <time>2011-06-12T12:32:27Z</time>
      </trkpt>
      <trkpt lat="45.60637" lon="6.03722">
        <ele>868.20776</ele>
        <time>2011-06-12T12:32:33Z</time>
      </trkpt>
      <trkpt lat="45.60642" lon="6.03723">
        <ele>867.24658</ele>
        <time>2011-06-12T12:32:35Z</time>
      </trkpt>
      <trkpt lat="45.60641" lon="6.03723">
        <ele>867.24658</ele>
        <time>2011-06-12T12:32:35Z</time>
      </trkpt>
      <trkpt lat="45.60644" lon="6.03723">
        <ele>868.68847</ele>
        <time>2011-06-12T12:32:36Z</time>
      </trkpt>
      <trkpt lat="45.60643" lon="6.03719">
        <ele>871.57226</ele>
        <time>2011-06-12T12:32:38Z</time>
      </trkpt>
      <trkpt lat="45.6064" lon="6.03717">
        <ele>873.97558</ele>
        <time>2011-06-12T12:32:39Z</time>
      </trkpt>
      <trkpt lat="45.60641" lon="6.03719">
        <ele>874.45629</ele>
        <time>2011-06-12T12:32:39Z</time>
      </trkpt>
      <trkpt lat="45.60647" lon="6.03728">
        <ele>875.89819</ele>
        <time>2011-06-12T12:32:43Z</time>
      </trkpt>
      <trkpt lat="45.60654" lon="6.03739">
        <ele>872.53369</ele>
        <time>2011-06-12T12:32:47Z</time>
      </trkpt>
      <trkpt lat="45.6066" lon="6.03747">
        <ele>870.13037</ele>
        <time>2011-06-12T12:32:50Z</time>
      </trkpt>
      <trkpt lat="45.60666" lon="6.03762">
        <ele>865.80468</ele>
        <time>2011-06-12T12:32:55Z</time>
      </trkpt>
      <trkpt lat="45.60674" lon="6.03769">
        <ele>863.40136</ele>
        <time>2011-06-12T12:32:59Z</time>
      </trkpt>
      <trkpt lat="45.60682" lon="6.03772">
        <ele>860.51733</ele>
        <time>2011-06-12T12:33:02Z</time>
      </trkpt>
      <trkpt lat="45.60694" lon="6.03757">
        <ele>864.36254</ele>
        <time>2011-06-12T12:33:09Z</time>
      </trkpt>
      <trkpt lat="45.60696" lon="6.03739">
        <ele>867.72705</ele>
        <time>2011-06-12T12:33:14Z</time>
      </trkpt>
      <trkpt lat="45.60703" lon="6.03695">
        <ele>863.40136</ele>
        <time>2011-06-12T12:33:26Z</time>
      </trkpt>
      <trkpt lat="45.60707" lon="6.03636">
        <ele>861.47875</ele>
        <time>2011-06-12T12:33:43Z</time>
      </trkpt>
      <trkpt lat="45.60705" lon="6.03582">
        <ele>859.07519</ele>
        <time>2011-06-12T12:33:58Z</time>
      </trkpt>
      <trkpt lat="45.60705" lon="6.03571">
        <ele>858.11401</ele>
        <time>2011-06-12T12:34:01Z</time>
      </trkpt>
      <trkpt lat="45.60701" lon="6.0355">
        <ele>856.19116</ele>
        <time>2011-06-12T12:34:07Z</time>
      </trkpt>
      <trkpt lat="45.60691" lon="6.03525">
        <ele>853.78808</ele>
        <time>2011-06-12T12:34:15Z</time>
      </trkpt>
      <trkpt lat="45.60688" lon="6.03497">
        <ele>851.38476</ele>
        <time>2011-06-12T12:34:23Z</time>
      </trkpt>
      <trkpt lat="45.60694" lon="6.03478">
        <ele>848.98144</ele>
        <time>2011-06-12T12:34:29Z</time>
      </trkpt>
      <trkpt lat="45.607" lon="6.03466">
        <ele>847.53955</ele>
        <time>2011-06-12T12:34:33Z</time>
      </trkpt>
      <trkpt lat="45.60704" lon="6.03462">
        <ele>845.61694</ele>
        <time>2011-06-12T12:34:35Z</time>
      </trkpt>
      <trkpt lat="45.60704" lon="6.03463">
        <ele>845.13623</ele>
        <time>2011-06-12T12:34:35Z</time>
      </trkpt>
      <trkpt lat="45.60704" lon="6.03462">
        <ele>845.13623</ele>
        <time>2011-06-12T12:34:36Z</time>
      </trkpt>
      <trkpt lat="45.60705" lon="6.03462">
        <ele>845.61694</ele>
        <time>2011-06-12T12:34:36Z</time>
      </trkpt>
      <trkpt lat="45.60706" lon="6.03464">
        <ele>844.65551</ele>
        <time>2011-06-12T12:34:37Z</time>
      </trkpt>
      <trkpt lat="45.60704" lon="6.03462">
        <ele>845.13623</ele>
        <time>2011-06-12T12:34:38Z</time>
      </trkpt>
      <trkpt lat="45.60706" lon="6.03462">
        <ele>844.65551</ele>
        <time>2011-06-12T12:34:38Z</time>
      </trkpt>
      <trkpt lat="45.60706" lon="6.03461">
        <ele>846.57836</ele>
        <time>2011-06-12T12:34:39Z</time>
      </trkpt>
      <trkpt lat="45.60706" lon="6.03459">
        <ele>845.61694</ele>
        <time>2011-06-12T12:34:39Z</time>
      </trkpt>
      <trkpt lat="45.60707" lon="6.03459">
        <ele>845.13623</ele>
        <time>2011-06-12T12:34:39Z</time>
      </trkpt>
      <trkpt lat="45.60706" lon="6.0346">
        <ele>845.61694</ele>
        <time>2011-06-12T12:34:40Z</time>
      </trkpt>
      <trkpt lat="45.60706" lon="6.03461">
        <ele>846.57836</ele>
        <time>2011-06-12T12:34:40Z</time>
      </trkpt>
      <trkpt lat="45.60705" lon="6.03463">
        <ele>846.57836</ele>
        <time>2011-06-12T12:34:41Z</time>
      </trkpt>
      <trkpt lat="45.60704" lon="6.03462">
        <ele>846.09765</ele>
        <time>2011-06-12T12:34:41Z</time>
      </trkpt>
      <trkpt lat="45.60705" lon="6.03462">
        <ele>846.09765</ele>
        <time>2011-06-12T12:34:41Z</time>
      </trkpt>
      <trkpt lat="45.60704" lon="6.03462">
        <ele>846.57836</ele>
        <time>2011-06-12T12:34:41Z</time>
      </trkpt>
      <trkpt lat="45.60705" lon="6.03461">
        <ele>846.09765</ele>
        <time>2011-06-12T12:34:42Z</time>
      </trkpt>
      <trkpt lat="45.60707" lon="6.03457">
        <ele>845.61694</ele>
        <time>2011-06-12T12:34:43Z</time>
      </trkpt>
      <trkpt lat="45.60713" lon="6.03445">
        <ele>844.65551</ele>
        <time>2011-06-12T12:34:47Z</time>
      </trkpt>
      <trkpt lat="45.60721" lon="6.03427">
        <ele>843.21337</ele>
        <time>2011-06-12T12:34:53Z</time>
      </trkpt>
      <trkpt lat="45.60734" lon="6.03409">
        <ele>841.77148</ele>
        <time>2011-06-12T12:35:00Z</time>
      </trkpt>
      <trkpt lat="45.60755" lon="6.03389">
        <ele>839.36816</ele>
        <time>2011-06-12T12:35:10Z</time>
      </trkpt>
      <trkpt lat="45.60761" lon="6.03383">
        <ele>838.40698</ele>
        <time>2011-06-12T12:35:13Z</time>
      </trkpt>
      <trkpt lat="45.6079" lon="6.0337">
        <ele>836.00366</ele>
        <time>2011-06-12T12:35:25Z</time>
      </trkpt>
      <trkpt lat="45.60804" lon="6.03355">
        <ele>832.63916</ele>
        <time>2011-06-12T12:35:32Z</time>
      </trkpt>
      <trkpt lat="45.60796" lon="6.03348">
        <ele>831.67773</ele>
        <time>2011-06-12T12:35:36Z</time>
      </trkpt>
      <trkpt lat="45.6079" lon="6.03347">
        <ele>830.71655</ele>
        <time>2011-06-12T12:35:38Z</time>
      </trkpt>
      <trkpt lat="45.60756" lon="6.03344">
        <ele>826.87109</ele>
        <time>2011-06-12T12:35:52Z</time>
      </trkpt>
      <trkpt lat="45.60733" lon="6.03342">
        <ele>825.42895</ele>
        <time>2011-06-12T12:36:01Z</time>
      </trkpt>
      <trkpt lat="45.60708" lon="6.03341">
        <ele>823.50659</ele>
        <time>2011-06-12T12:36:11Z</time>
      </trkpt>
      <trkpt lat="45.60682" lon="6.03342">
        <ele>821.58374</ele>
        <time>2011-06-12T12:36:22Z</time>
      </trkpt>
      <trkpt lat="45.60655" lon="6.03357">
        <ele>819.18066</ele>
        <time>2011-06-12T12:36:33Z</time>
      </trkpt>
      <trkpt lat="45.60641" lon="6.03373">
        <ele>817.25805</ele>
        <time>2011-06-12T12:36:41Z</time>
      </trkpt>
      <trkpt lat="45.60635" lon="6.03358">
        <ele>815.33544</ele>
        <time>2011-06-12T12:36:46Z</time>
      </trkpt>
      <trkpt lat="45.60644" lon="6.03332">
        <ele>812.93212</ele>
        <time>2011-06-12T12:36:54Z</time>
      </trkpt>
      <trkpt lat="45.60664" lon="6.03295">
        <ele>809.56738</ele>
        <time>2011-06-12T12:37:07Z</time>
      </trkpt>
      <trkpt lat="45.60682" lon="6.03267">
        <ele>806.20263</ele>
        <time>2011-06-12T12:37:18Z</time>
      </trkpt>
      <trkpt lat="45.60684" lon="6.03242">
        <ele>802.83813</ele>
        <time>2011-06-12T12:37:24Z</time>
      </trkpt>
      <trkpt lat="45.60672" lon="6.03247">
        <ele>801.39624</ele>
        <time>2011-06-12T12:37:30Z</time>
      </trkpt>
      <trkpt lat="45.60658" lon="6.03256">
        <ele>799.95434</ele>
        <time>2011-06-12T12:37:36Z</time>
      </trkpt>
      <trkpt lat="45.60626" lon="6.03268">
        <ele>796.58984</ele>
        <time>2011-06-12T12:37:49Z</time>
      </trkpt>
      <trkpt lat="45.60597" lon="6.033">
        <ele>793.22485</ele>
        <time>2011-06-12T12:38:03Z</time>
      </trkpt>
      <trkpt lat="45.60587" lon="6.03334">
        <ele>790.82153</ele>
        <time>2011-06-12T12:38:14Z</time>
      </trkpt>
      <trkpt lat="45.60576" lon="6.03375">
        <ele>788.41845</ele>
        <time>2011-06-12T12:38:26Z</time>
      </trkpt>
      <trkpt lat="45.60571" lon="6.03387">
        <ele>787.93774</ele>
        <time>2011-06-12T12:38:30Z</time>
      </trkpt>
      <trkpt lat="45.60559" lon="6.03407">
        <ele>786.01513</ele>
        <time>2011-06-12T12:38:37Z</time>
      </trkpt>
      <trkpt lat="45.60543" lon="6.03402">
        <ele>785.05395</ele>
        <time>2011-06-12T12:38:44Z</time>
      </trkpt>
      <trkpt lat="45.60541" lon="6.03395">
        <ele>785.05395</ele>
        <time>2011-06-12T12:38:46Z</time>
      </trkpt>
      <trkpt lat="45.60527" lon="6.03364">
        <ele>786.49584</ele>
        <time>2011-06-12T12:38:57Z</time>
      </trkpt>
      <trkpt lat="45.60509" lon="6.03301">
        <ele>787.93774</ele>
        <time>2011-06-12T12:39:16Z</time>
      </trkpt>
      <trkpt lat="45.60507" lon="6.03293">
        <ele>787.93774</ele>
        <time>2011-06-12T12:39:18Z</time>
      </trkpt>
      <trkpt lat="45.60484" lon="6.03276">
        <ele>783.61181</ele>
        <time>2011-06-12T12:39:28Z</time>
      </trkpt>
      <trkpt lat="45.60464" lon="6.0328">
        <ele>780.72802</ele>
        <time>2011-06-12T12:39:36Z</time>
      </trkpt>
      <trkpt lat="45.60448" lon="6.03269">
        <ele>780.72802</ele>
        <time>2011-06-12T12:39:43Z</time>
      </trkpt>
      <trkpt lat="45.60444" lon="6.03263">
        <ele>780.24731</ele>
        <time>2011-06-12T12:39:46Z</time>
      </trkpt>
      <trkpt lat="45.60412" lon="6.03226">
        <ele>781.20874</ele>
        <time>2011-06-12T12:40:02Z</time>
      </trkpt>
      <trkpt lat="45.60382" lon="6.03205">
        <ele>778.32446</ele>
        <time>2011-06-12T12:40:16Z</time>
      </trkpt>
      <trkpt lat="45.60353" lon="6.03195">
        <ele>775.44042</ele>
        <time>2011-06-12T12:40:28Z</time>
      </trkpt>
      <trkpt lat="45.60325" lon="6.03173">
        <ele>773.03735</ele>
        <time>2011-06-12T12:40:40Z</time>
      </trkpt>
      <trkpt lat="45.60282" lon="6.03154">
        <ele>768.23071</ele>
        <time>2011-06-12T12:40:58Z</time>
      </trkpt>
      <trkpt lat="45.60257" lon="6.03144">
        <ele>765.34692</ele>
        <time>2011-06-12T12:41:09Z</time>
      </trkpt>
      <trkpt lat="45.60241" lon="6.03123">
        <ele>761.50146</ele>
        <time>2011-06-12T12:41:18Z</time>
      </trkpt>
      <trkpt lat="45.60247" lon="6.03106">
        <ele>759.57885</ele>
        <time>2011-06-12T12:41:23Z</time>
      </trkpt>
      <trkpt lat="45.60251" lon="6.03087">
        <ele>758.13696</ele>
        <time>2011-06-12T12:41:28Z</time>
      </trkpt>
      <trkpt lat="45.60239" lon="6.03084">
        <ele>756.69482</ele>
        <time>2011-06-12T12:41:33Z</time>
      </trkpt>
      <trkpt lat="45.60225" lon="6.03088">
        <ele>754.77221</ele>
        <time>2011-06-12T12:41:39Z</time>
      </trkpt>
      <trkpt lat="45.60198" lon="6.03088">
        <ele>749.96582</ele>
        <time>2011-06-12T12:41:50Z</time>
      </trkpt>
      <trkpt lat="45.60183" lon="6.03075">
        <ele>747.56225</ele>
        <time>2011-06-12T12:41:57Z</time>
      </trkpt>
      <trkpt lat="45.60158" lon="6.0306">
        <ele>744.67822</ele>
        <time>2011-06-12T12:42:08Z</time>
      </trkpt>
      <trkpt lat="45.60149" lon="6.03052">
        <ele>743.71704</ele>
        <time>2011-06-12T12:42:12Z</time>
      </trkpt>
      <trkpt lat="45.60141" lon="6.03048">
        <ele>742.75585</ele>
        <time>2011-06-12T12:42:16Z</time>
      </trkpt>
      <trkpt lat="45.60141" lon="6.03047">
        <ele>744.19775</ele>
        <time>2011-06-12T12:42:16Z</time>
      </trkpt>
      <trkpt lat="45.6014" lon="6.03048">
        <ele>744.67822</ele>
        <time>2011-06-12T12:42:17Z</time>
      </trkpt>
      <trkpt lat="45.60123" lon="6.03043">
        <ele>744.19775</ele>
        <time>2011-06-12T12:42:23Z</time>
      </trkpt>
      <trkpt lat="45.60104" lon="6.03035">
        <ele>742.75585</ele>
        <time>2011-06-12T12:42:31Z</time>
      </trkpt>
      <trkpt lat="45.60092" lon="6.03016">
        <ele>739.87182</ele>
        <time>2011-06-12T12:42:38Z</time>
      </trkpt>
      <trkpt lat="45.60079" lon="6.03015">
        <ele>736.98779</ele>
        <time>2011-06-12T12:42:44Z</time>
      </trkpt>
      <trkpt lat="45.60075" lon="6.03016">
        <ele>736.50732</ele>
        <time>2011-06-12T12:42:45Z</time>
      </trkpt>
      <trkpt lat="45.60062" lon="6.03019">
        <ele>735.54589</ele>
        <time>2011-06-12T12:42:51Z</time>
      </trkpt>
      <trkpt lat="45.60033" lon="6.0302">
        <ele>730.25854</ele>
        <time>2011-06-12T12:43:02Z</time>
      </trkpt>
      <trkpt lat="45.60016" lon="6.03021">
        <ele>729.77783</ele>
        <time>2011-06-12T12:43:09Z</time>
      </trkpt>
      <trkpt lat="45.59993" lon="6.03035">
        <ele>726.41333</ele>
        <time>2011-06-12T12:43:19Z</time>
      </trkpt>
      <trkpt lat="45.59979" lon="6.0305">
        <ele>722.56811</ele>
        <time>2011-06-12T12:43:26Z</time>
      </trkpt>
      <trkpt lat="45.59964" lon="6.03063">
        <ele>720.6455</ele>
        <time>2011-06-12T12:43:33Z</time>
      </trkpt>
      <trkpt lat="45.59952" lon="6.03077">
        <ele>720.6455</ele>
        <time>2011-06-12T12:43:39Z</time>
      </trkpt>
      <trkpt lat="45.59938" lon="6.03091">
        <ele>720.6455</ele>
        <time>2011-06-12T12:43:46Z</time>
      </trkpt>
      <trkpt lat="45.5992" lon="6.03119">
        <ele>719.68432</ele>
        <time>2011-06-12T12:43:57Z</time>
      </trkpt>
      <trkpt lat="45.59896" lon="6.03145">
        <ele>715.35815</ele>
        <time>2011-06-12T12:44:09Z</time>
      </trkpt>
      <trkpt lat="45.59889" lon="6.03171">
        <ele>711.99365</ele>
        <time>2011-06-12T12:44:16Z</time>
      </trkpt>
      <trkpt lat="45.59881" lon="6.03212">
        <ele>710.0708</ele>
        <time>2011-06-12T12:44:28Z</time>
      </trkpt>
      <trkpt lat="45.59856" lon="6.03286">
        <ele>706.22558</ele>
        <time>2011-06-12T12:44:51Z</time>
      </trkpt>
      <trkpt lat="45.59852" lon="6.0335">
        <ele>701.41918</ele>
        <time>2011-06-12T12:45:09Z</time>
      </trkpt>
      <trkpt lat="45.59841" lon="6.03395">
        <ele>697.09301</ele>
        <time>2011-06-12T12:45:23Z</time>
      </trkpt>
      <trkpt lat="45.59828" lon="6.03412">
        <ele>695.17041</ele>
        <time>2011-06-12T12:45:30Z</time>
      </trkpt>
      <trkpt lat="45.59801" lon="6.03409">
        <ele>693.72851</ele>
        <time>2011-06-12T12:45:40Z</time>
      </trkpt>
      <trkpt lat="45.59793" lon="6.0339">
        <ele>693.72851</ele>
        <time>2011-06-12T12:45:47Z</time>
      </trkpt>
      <trkpt lat="45.5979" lon="6.03361">
        <ele>692.76733</ele>
        <time>2011-06-12T12:45:55Z</time>
      </trkpt>
      <trkpt lat="45.5979" lon="6.03345">
        <ele>692.76733</ele>
        <time>2011-06-12T12:46:00Z</time>
      </trkpt>
      <trkpt lat="45.59788" lon="6.0333">
        <ele>693.2478</ele>
        <time>2011-06-12T12:46:04Z</time>
      </trkpt>
      <trkpt lat="45.59779" lon="6.03284">
        <ele>698.05444</ele>
        <time>2011-06-12T12:46:17Z</time>
      </trkpt>
      <trkpt lat="45.59778" lon="6.03277">
        <ele>698.53491</ele>
        <time>2011-06-12T12:46:19Z</time>
      </trkpt>
      <trkpt lat="45.59766" lon="6.03245">
        <ele>698.05444</ele>
        <time>2011-06-12T12:46:29Z</time>
      </trkpt>
      <trkpt lat="45.59747" lon="6.03214">
        <ele>695.17041</ele>
        <time>2011-06-12T12:46:41Z</time>
      </trkpt>
      <trkpt lat="45.59744" lon="6.03207">
        <ele>695.17041</ele>
        <time>2011-06-12T12:46:43Z</time>
      </trkpt>
      <trkpt lat="45.59731" lon="6.03186">
        <ele>693.72851</ele>
        <time>2011-06-12T12:46:51Z</time>
      </trkpt>
      <trkpt lat="45.59709" lon="6.03171">
        <ele>692.76733</ele>
        <time>2011-06-12T12:47:01Z</time>
      </trkpt>
      <trkpt lat="45.59654" lon="6.03145">
        <ele>686.99926</ele>
        <time>2011-06-12T12:47:24Z</time>
      </trkpt>
      <trkpt lat="45.59645" lon="6.0314">
        <ele>686.03808</ele>
        <time>2011-06-12T12:47:28Z</time>
      </trkpt>
      <trkpt lat="45.59617" lon="6.03097">
        <ele>682.67333</ele>
        <time>2011-06-12T12:47:44Z</time>
      </trkpt>
      <trkpt lat="45.59605" lon="6.03071">
        <ele>680.75073</ele>
        <time>2011-06-12T12:47:53Z</time>
      </trkpt>
      <trkpt lat="45.59584" lon="6.03035">
        <ele>676.90551</ele>
        <time>2011-06-12T12:48:06Z</time>
      </trkpt>
      <trkpt lat="45.59545" lon="6.03007">
        <ele>672.09887</ele>
        <time>2011-06-12T12:48:23Z</time>
      </trkpt>
      <trkpt lat="45.59534" lon="6.03006">
        <ele>671.61816</ele>
        <time>2011-06-12T12:48:28Z</time>
      </trkpt>
      <trkpt lat="45.59457" lon="6.03">
        <ele>668.73437</ele>
        <time>2011-06-12T12:48:59Z</time>
      </trkpt>
      <trkpt lat="45.59446" lon="6.02998">
        <ele>668.25366</ele>
        <time>2011-06-12T12:49:03Z</time>
      </trkpt>
      <trkpt lat="45.59384" lon="6.02972">
        <ele>666.81152</ele>
        <time>2011-06-12T12:49:29Z</time>
      </trkpt>
      <trkpt lat="45.59366" lon="6.02963">
        <ele>666.33081</ele>
        <time>2011-06-12T12:49:37Z</time>
      </trkpt>
      <trkpt lat="45.59352" lon="6.02944">
        <ele>663.92749</ele>
        <time>2011-06-12T12:49:44Z</time>
      </trkpt>
      <trkpt lat="45.59351" lon="6.02938">
        <ele>663.44702</ele>
        <time>2011-06-12T12:49:46Z</time>
      </trkpt>
      <trkpt lat="45.59348" lon="6.02931">
        <ele>662.9663</ele>
        <time>2011-06-12T12:49:49Z</time>
      </trkpt>
      <trkpt lat="45.5935" lon="6.02932">
        <ele>662.00512</ele>
        <time>2011-06-12T12:49:49Z</time>
      </trkpt>
      <trkpt lat="45.59349" lon="6.02932">
        <ele>662.00512</ele>
        <time>2011-06-12T12:49:50Z</time>
      </trkpt>
      <trkpt lat="45.59337" lon="6.02934">
        <ele>661.0437</ele>
        <time>2011-06-12T12:49:55Z</time>
      </trkpt>
      <trkpt lat="45.59316" lon="6.02933">
        <ele>659.6018</ele>
        <time>2011-06-12T12:50:03Z</time>
      </trkpt>
      <trkpt lat="45.59295" lon="6.02938">
        <ele>657.19848</ele>
        <time>2011-06-12T12:50:12Z</time>
      </trkpt>
      <trkpt lat="45.5928" lon="6.02943">
        <ele>656.23706</ele>
        <time>2011-06-12T12:50:18Z</time>
      </trkpt>
      <trkpt lat="45.59248" lon="6.02938">
        <ele>655.27587</ele>
        <time>2011-06-12T12:50:31Z</time>
      </trkpt>
      <trkpt lat="45.5921" lon="6.0293">
        <ele>655.27587</ele>
        <time>2011-06-12T12:50:46Z</time>
      </trkpt>
      <trkpt lat="45.59183" lon="6.02925">
        <ele>654.79516</ele>
        <time>2011-06-12T12:50:57Z</time>
      </trkpt>
      <trkpt lat="45.59163" lon="6.02923">
        <ele>654.79516</ele>
        <time>2011-06-12T12:51:05Z</time>
      </trkpt>
      <trkpt lat="45.59141" lon="6.02926">
        <ele>657.67919</ele>
        <time>2011-06-12T12:51:14Z</time>
      </trkpt>
      <trkpt lat="45.59126" lon="6.02929">
        <ele>657.19848</ele>
        <time>2011-06-12T12:51:20Z</time>
      </trkpt>
      <trkpt lat="45.59111" lon="6.02932">
        <ele>656.23706</ele>
        <time>2011-06-12T12:51:26Z</time>
      </trkpt>
      <trkpt lat="45.591" lon="6.02935">
        <ele>655.27587</ele>
        <time>2011-06-12T12:51:30Z</time>
      </trkpt>
      <trkpt lat="45.59077" lon="6.0294">
        <ele>655.75659</ele>
        <time>2011-06-12T12:51:40Z</time>
      </trkpt>
      <trkpt lat="45.59052" lon="6.02939">
        <ele>656.23706</ele>
        <time>2011-06-12T12:51:50Z</time>
      </trkpt>
      <trkpt lat="45.59031" lon="6.02933">
        <ele>657.19848</ele>
        <time>2011-06-12T12:51:58Z</time>
      </trkpt>
      <trkpt lat="45.59018" lon="6.02934">
        <ele>658.15991</ele>
        <time>2011-06-12T12:52:04Z</time>
      </trkpt>
      <trkpt lat="45.59008" lon="6.02938">
        <ele>658.64038</ele>
        <time>2011-06-12T12:52:08Z</time>
      </trkpt>
      <trkpt lat="45.58999" lon="6.02942">
        <ele>659.12109</ele>
        <time>2011-06-12T12:52:11Z</time>
      </trkpt>
      <trkpt lat="45.58993" lon="6.02946">
        <ele>659.12109</ele>
        <time>2011-06-12T12:52:14Z</time>
      </trkpt>
      <trkpt lat="45.58985" lon="6.02934">
        <ele>658.15991</ele>
        <time>2011-06-12T12:52:19Z</time>
      </trkpt>
      <trkpt lat="45.58991" lon="6.02925">
        <ele>657.19848</ele>
        <time>2011-06-12T12:52:23Z</time>
      </trkpt>
      <trkpt lat="45.58995" lon="6.02924">
        <ele>657.67919</ele>
        <time>2011-06-12T12:52:24Z</time>
      </trkpt>
      <trkpt lat="45.58993" lon="6.02924">
        <ele>659.12109</ele>
        <time>2011-06-12T12:52:25Z</time>
      </trkpt>
      <trkpt lat="45.58994" lon="6.02924">
        <ele>660.08227</ele>
        <time>2011-06-12T12:52:25Z</time>
      </trkpt>
      <trkpt lat="45.58994" lon="6.02924">
        <ele>660.56298</ele>
        <time>2011-06-12T12:52:25Z</time>
      </trkpt>
      <trkpt lat="45.58994" lon="6.02924">
        <ele>660.56298</ele>
        <time>2011-06-12T12:52:25Z</time>
      </trkpt>
      <trkpt lat="45.58994" lon="6.02924">
        <ele>661.0437</ele>
        <time>2011-06-12T12:52:25Z</time>
      </trkpt>
      <trkpt lat="45.58994" lon="6.02924">
        <ele>661.0437</ele>
        <time>2011-06-12T12:52:25Z</time>
      </trkpt>
      <trkpt lat="45.58996" lon="6.02924">
        <ele>660.08227</ele>
        <time>2011-06-12T12:52:26Z</time>
      </trkpt>
      <trkpt lat="45.58994" lon="6.02926">
        <ele>659.6018</ele>
        <time>2011-06-12T12:52:27Z</time>
      </trkpt>
      <trkpt lat="45.58993" lon="6.02925">
        <ele>659.6018</ele>
        <time>2011-06-12T12:52:27Z</time>
      </trkpt>
      <trkpt lat="45.58993" lon="6.02925">
        <ele>659.12109</ele>
        <time>2011-06-12T12:52:27Z</time>
      </trkpt>
      <trkpt lat="45.58993" lon="6.02925">
        <ele>659.12109</ele>
        <time>2011-06-12T12:52:27Z</time>
      </trkpt>
      <trkpt lat="45.58995" lon="6.02926">
        <ele>657.19848</ele>
        <time>2011-06-12T12:52:28Z</time>
      </trkpt>
      <trkpt lat="45.58995" lon="6.02927">
        <ele>656.23706</ele>
        <time>2011-06-12T12:52:28Z</time>
      </trkpt>
      <trkpt lat="45.58995" lon="6.02927">
        <ele>656.23706</ele>
        <time>2011-06-12T12:52:28Z</time>
      </trkpt>
      <trkpt lat="45.58996" lon="6.02927">
        <ele>655.75659</ele>
        <time>2011-06-12T12:52:28Z</time>
      </trkpt>
    </trkseg>
  </trk>
</gpx>